<?xml version="1.0" encoding="UTF-8" standalone="no" ?>
<gpx xmlns="http://www.topografix.com/GPX/1/1" xmlns:xsi="http://www.w3.org/2001/XMLSchema-instance" xsi:schemaLocation="http://www.topografix.com/GPX/1/1 http://www.topografix.com/GPX/1/1/gpx.xsd" version="1.1" creator="VisuGPX - https://www.visugpx.com">
  <metadata>
    <name>Tour du plateau d\'Ambel</name>
    <desc><![CDATA[Tour du plateau d\'Ambel depuis la route du col de la Bataille (Gardiole) en passant par la Tête de la Dame]]></desc>
  </metadata>
  <trk>
    <name><![CDATA[Trk043-MNT]]></name>
    <trkseg>
      <trkpt lat="44.89506" lon="5.25283">
        <ele>1145.06311</ele>
        <time>2014-06-09T12:09:12Z</time>
      </trkpt>
      <trkpt lat="44.89502" lon="5.25286">
        <ele>1144.136108</ele>
        <time>2014-06-09T12:09:17Z</time>
      </trkpt>
      <trkpt lat="44.89499" lon="5.2529">
        <ele>1142.976929</ele>
        <time>2014-06-09T12:09:22Z</time>
      </trkpt>
      <trkpt lat="44.89495" lon="5.25295">
        <ele>1141.580933</ele>
        <time>2014-06-09T12:09:27Z</time>
      </trkpt>
      <trkpt lat="44.89489" lon="5.25298">
        <ele>1141.062134</ele>
        <time>2014-06-09T12:09:32Z</time>
      </trkpt>
      <trkpt lat="44.89483" lon="5.253">
        <ele>1140.460815</ele>
        <time>2014-06-09T12:09:37Z</time>
      </trkpt>
      <trkpt lat="44.89478" lon="5.25304">
        <ele>1139.399414</ele>
        <time>2014-06-09T12:09:42Z</time>
      </trkpt>
      <trkpt lat="44.89475" lon="5.25308">
        <ele>1138.548828</ele>
        <time>2014-06-09T12:09:47Z</time>
      </trkpt>
      <trkpt lat="44.8947" lon="5.25312">
        <ele>1137.144897</ele>
        <time>2014-06-09T12:09:52Z</time>
      </trkpt>
      <trkpt lat="44.89464" lon="5.25317">
        <ele>1135.721558</ele>
        <time>2014-06-09T12:09:57Z</time>
      </trkpt>
      <trkpt lat="44.89458" lon="5.25319">
        <ele>1135.295654</ele>
        <time>2014-06-09T12:10:02Z</time>
      </trkpt>
      <trkpt lat="44.89451" lon="5.2532">
        <ele>1135.130005</ele>
        <time>2014-06-09T12:10:07Z</time>
      </trkpt>
      <trkpt lat="44.89446" lon="5.25323">
        <ele>1134.356079</ele>
        <time>2014-06-09T12:10:12Z</time>
      </trkpt>
      <trkpt lat="44.89441" lon="5.25325">
        <ele>1133.901001</ele>
        <time>2014-06-09T12:10:17Z</time>
      </trkpt>
      <trkpt lat="44.89437" lon="5.25329">
        <ele>1132.968628</ele>
        <time>2014-06-09T12:10:24Z</time>
      </trkpt>
      <trkpt lat="44.89434" lon="5.25329">
        <ele>1133.141113</ele>
        <time>2014-06-09T12:10:29Z</time>
      </trkpt>
      <trkpt lat="44.89429" lon="5.25331">
        <ele>1132.848999</ele>
        <time>2014-06-09T12:10:34Z</time>
      </trkpt>
      <trkpt lat="44.89425" lon="5.25332">
        <ele>1132.435059</ele>
        <time>2014-06-09T12:10:39Z</time>
      </trkpt>
      <trkpt lat="44.89418" lon="5.25333">
        <ele>1132.339355</ele>
        <time>2014-06-09T12:10:44Z</time>
      </trkpt>
      <trkpt lat="44.89411" lon="5.25336">
        <ele>1131.51001</ele>
        <time>2014-06-09T12:10:49Z</time>
      </trkpt>
      <trkpt lat="44.89402" lon="5.25339">
        <ele>1131.2854</ele>
        <time>2014-06-09T12:10:54Z</time>
      </trkpt>
      <trkpt lat="44.89393" lon="5.25341">
        <ele>1131.272949</ele>
        <time>2014-06-09T12:10:59Z</time>
      </trkpt>
      <trkpt lat="44.89384" lon="5.25342">
        <ele>1131.307495</ele>
        <time>2014-06-09T12:11:04Z</time>
      </trkpt>
      <trkpt lat="44.89375" lon="5.25343">
        <ele>1131.602539</ele>
        <time>2014-06-09T12:11:09Z</time>
      </trkpt>
      <trkpt lat="44.89369" lon="5.25342">
        <ele>1131.907471</ele>
        <time>2014-06-09T12:11:14Z</time>
      </trkpt>
      <trkpt lat="44.89361" lon="5.25342">
        <ele>1132.255005</ele>
        <time>2014-06-09T12:11:19Z</time>
      </trkpt>
      <trkpt lat="44.89354" lon="5.25344">
        <ele>1132.314941</ele>
        <time>2014-06-09T12:11:24Z</time>
      </trkpt>
      <trkpt lat="44.89349" lon="5.25338">
        <ele>1133.092529</ele>
        <time>2014-06-09T12:11:29Z</time>
      </trkpt>
      <trkpt lat="44.89343" lon="5.25339">
        <ele>1133.219971</ele>
        <time>2014-06-09T12:11:34Z</time>
      </trkpt>
      <trkpt lat="44.89338" lon="5.25339">
        <ele>1133.348267</ele>
        <time>2014-06-09T12:11:39Z</time>
      </trkpt>
      <trkpt lat="44.89332" lon="5.25337">
        <ele>1133.518066</ele>
        <time>2014-06-09T12:11:44Z</time>
      </trkpt>
      <trkpt lat="44.89325" lon="5.25336">
        <ele>1133.611084</ele>
        <time>2014-06-09T12:11:49Z</time>
      </trkpt>
      <trkpt lat="44.89318" lon="5.25335">
        <ele>1133.734375</ele>
        <time>2014-06-09T12:11:54Z</time>
      </trkpt>
      <trkpt lat="44.89311" lon="5.25333">
        <ele>1133.875732</ele>
        <time>2014-06-09T12:11:59Z</time>
      </trkpt>
      <trkpt lat="44.89305" lon="5.25331">
        <ele>1133.955444</ele>
        <time>2014-06-09T12:12:04Z</time>
      </trkpt>
      <trkpt lat="44.89298" lon="5.2533">
        <ele>1134</ele>
        <time>2014-06-09T12:12:09Z</time>
      </trkpt>
      <trkpt lat="44.89292" lon="5.2533">
        <ele>1133.933105</ele>
        <time>2014-06-09T12:12:14Z</time>
      </trkpt>
      <trkpt lat="44.89287" lon="5.25331">
        <ele>1133.749268</ele>
        <time>2014-06-09T12:12:19Z</time>
      </trkpt>
      <trkpt lat="44.89281" lon="5.25333">
        <ele>1133.554565</ele>
        <time>2014-06-09T12:12:24Z</time>
      </trkpt>
      <trkpt lat="44.89275" lon="5.25334">
        <ele>1133.401367</ele>
        <time>2014-06-09T12:12:29Z</time>
      </trkpt>
      <trkpt lat="44.89269" lon="5.25333">
        <ele>1133.331543</ele>
        <time>2014-06-09T12:12:34Z</time>
      </trkpt>
      <trkpt lat="44.89264" lon="5.2533">
        <ele>1133.292603</ele>
        <time>2014-06-09T12:12:39Z</time>
      </trkpt>
      <trkpt lat="44.89258" lon="5.25328">
        <ele>1133.193726</ele>
        <time>2014-06-09T12:12:44Z</time>
      </trkpt>
      <trkpt lat="44.89253" lon="5.25325">
        <ele>1133.299927</ele>
        <time>2014-06-09T12:12:49Z</time>
      </trkpt>
      <trkpt lat="44.89251" lon="5.2532">
        <ele>1133.550415</ele>
        <time>2014-06-09T12:12:54Z</time>
      </trkpt>
      <trkpt lat="44.89248" lon="5.2532">
        <ele>1133.562378</ele>
        <time>2014-06-09T12:12:59Z</time>
      </trkpt>
      <trkpt lat="44.89246" lon="5.25319">
        <ele>1133.693848</ele>
        <time>2014-06-09T12:13:04Z</time>
      </trkpt>
      <trkpt lat="44.89243" lon="5.25312">
        <ele>1134.193237</ele>
        <time>2014-06-09T12:13:09Z</time>
      </trkpt>
      <trkpt lat="44.89238" lon="5.25307">
        <ele>1134.629272</ele>
        <time>2014-06-09T12:13:14Z</time>
      </trkpt>
      <trkpt lat="44.89235" lon="5.25301">
        <ele>1135.016846</ele>
        <time>2014-06-09T12:13:19Z</time>
      </trkpt>
      <trkpt lat="44.89233" lon="5.25295">
        <ele>1135.396484</ele>
        <time>2014-06-09T12:13:24Z</time>
      </trkpt>
      <trkpt lat="44.89229" lon="5.25288">
        <ele>1135.799072</ele>
        <time>2014-06-09T12:13:29Z</time>
      </trkpt>
      <trkpt lat="44.89225" lon="5.25282">
        <ele>1136.162598</ele>
        <time>2014-06-09T12:13:34Z</time>
      </trkpt>
      <trkpt lat="44.89222" lon="5.25276">
        <ele>1136.459473</ele>
        <time>2014-06-09T12:13:39Z</time>
      </trkpt>
      <trkpt lat="44.89217" lon="5.2527">
        <ele>1136.702515</ele>
        <time>2014-06-09T12:13:44Z</time>
      </trkpt>
      <trkpt lat="44.89213" lon="5.25265">
        <ele>1136.894287</ele>
        <time>2014-06-09T12:13:49Z</time>
      </trkpt>
      <trkpt lat="44.8921" lon="5.25266">
        <ele>1136.882813</ele>
        <time>2014-06-09T12:13:54Z</time>
      </trkpt>
      <trkpt lat="44.89209" lon="5.25267">
        <ele>1136.839111</ele>
        <time>2014-06-09T12:13:59Z</time>
      </trkpt>
      <trkpt lat="44.89208" lon="5.25263">
        <ele>1136.961426</ele>
        <time>2014-06-09T12:14:04Z</time>
      </trkpt>
      <trkpt lat="44.89207" lon="5.25259">
        <ele>1137.27124</ele>
        <time>2014-06-09T12:14:09Z</time>
      </trkpt>
      <trkpt lat="44.89203" lon="5.25255">
        <ele>1137.790527</ele>
        <time>2014-06-09T12:14:14Z</time>
      </trkpt>
      <trkpt lat="44.892" lon="5.25252">
        <ele>1138.165894</ele>
        <time>2014-06-09T12:14:19Z</time>
      </trkpt>
      <trkpt lat="44.89197" lon="5.25249">
        <ele>1138.556641</ele>
        <time>2014-06-09T12:14:24Z</time>
      </trkpt>
      <trkpt lat="44.89195" lon="5.25246">
        <ele>1138.89502</ele>
        <time>2014-06-09T12:14:29Z</time>
      </trkpt>
      <trkpt lat="44.8919" lon="5.25243">
        <ele>1139.343872</ele>
        <time>2014-06-09T12:14:34Z</time>
      </trkpt>
      <trkpt lat="44.89184" lon="5.2524">
        <ele>1139.833496</ele>
        <time>2014-06-09T12:14:39Z</time>
      </trkpt>
      <trkpt lat="44.89177" lon="5.25238">
        <ele>1140.328735</ele>
        <time>2014-06-09T12:14:44Z</time>
      </trkpt>
      <trkpt lat="44.8917" lon="5.25236">
        <ele>1140.741089</ele>
        <time>2014-06-09T12:14:49Z</time>
      </trkpt>
      <trkpt lat="44.89164" lon="5.25236">
        <ele>1141.046509</ele>
        <time>2014-06-09T12:14:54Z</time>
      </trkpt>
      <trkpt lat="44.89158" lon="5.25236">
        <ele>1141.155884</ele>
        <time>2014-06-09T12:14:59Z</time>
      </trkpt>
      <trkpt lat="44.89153" lon="5.25237">
        <ele>1141.115967</ele>
        <time>2014-06-09T12:15:04Z</time>
      </trkpt>
      <trkpt lat="44.89147" lon="5.25239">
        <ele>1141.059814</ele>
        <time>2014-06-09T12:15:09Z</time>
      </trkpt>
      <trkpt lat="44.89142" lon="5.25241">
        <ele>1140.96167</ele>
        <time>2014-06-09T12:15:14Z</time>
      </trkpt>
      <trkpt lat="44.89137" lon="5.25243">
        <ele>1140.894409</ele>
        <time>2014-06-09T12:15:19Z</time>
      </trkpt>
      <trkpt lat="44.89131" lon="5.25244">
        <ele>1140.850464</ele>
        <time>2014-06-09T12:15:24Z</time>
      </trkpt>
      <trkpt lat="44.89127" lon="5.25244">
        <ele>1140.812134</ele>
        <time>2014-06-09T12:15:29Z</time>
      </trkpt>
      <trkpt lat="44.89121" lon="5.25245">
        <ele>1140.775146</ele>
        <time>2014-06-09T12:15:34Z</time>
      </trkpt>
      <trkpt lat="44.89116" lon="5.25246">
        <ele>1140.783813</ele>
        <time>2014-06-09T12:15:39Z</time>
      </trkpt>
      <trkpt lat="44.89111" lon="5.25247">
        <ele>1141.104248</ele>
        <time>2014-06-09T12:15:44Z</time>
      </trkpt>
      <trkpt lat="44.89105" lon="5.25248">
        <ele>1141.393799</ele>
        <time>2014-06-09T12:15:49Z</time>
      </trkpt>
      <trkpt lat="44.891" lon="5.25249">
        <ele>1141.684692</ele>
        <time>2014-06-09T12:15:54Z</time>
      </trkpt>
      <trkpt lat="44.89094" lon="5.25249">
        <ele>1142.035645</ele>
        <time>2014-06-09T12:15:59Z</time>
      </trkpt>
      <trkpt lat="44.89089" lon="5.2525">
        <ele>1142.359253</ele>
        <time>2014-06-09T12:16:04Z</time>
      </trkpt>
      <trkpt lat="44.89083" lon="5.2525">
        <ele>1142.692627</ele>
        <time>2014-06-09T12:16:09Z</time>
      </trkpt>
      <trkpt lat="44.89077" lon="5.25251">
        <ele>1143.004639</ele>
        <time>2014-06-09T12:16:14Z</time>
      </trkpt>
      <trkpt lat="44.89072" lon="5.25252">
        <ele>1143.254517</ele>
        <time>2014-06-09T12:16:19Z</time>
      </trkpt>
      <trkpt lat="44.89066" lon="5.25253">
        <ele>1143.90332</ele>
        <time>2014-06-09T12:16:24Z</time>
      </trkpt>
      <trkpt lat="44.89061" lon="5.25254">
        <ele>1144.477905</ele>
        <time>2014-06-09T12:16:29Z</time>
      </trkpt>
      <trkpt lat="44.89055" lon="5.25254">
        <ele>1145.229492</ele>
        <time>2014-06-09T12:16:34Z</time>
      </trkpt>
      <trkpt lat="44.89049" lon="5.25254">
        <ele>1145.962646</ele>
        <time>2014-06-09T12:16:39Z</time>
      </trkpt>
      <trkpt lat="44.89044" lon="5.25255">
        <ele>1146.688599</ele>
        <time>2014-06-09T12:16:44Z</time>
      </trkpt>
      <trkpt lat="44.89037" lon="5.25256">
        <ele>1147.54895</ele>
        <time>2014-06-09T12:16:49Z</time>
      </trkpt>
      <trkpt lat="44.89032" lon="5.25258">
        <ele>1148.297974</ele>
        <time>2014-06-09T12:16:54Z</time>
      </trkpt>
      <trkpt lat="44.89027" lon="5.25275">
        <ele>1148.828247</ele>
        <time>2014-06-09T12:17:38Z</time>
      </trkpt>
      <trkpt lat="44.89018" lon="5.25273">
        <ele>1149.565674</ele>
        <time>2014-06-09T12:17:43Z</time>
      </trkpt>
      <trkpt lat="44.89015" lon="5.25277">
        <ele>1149.846558</ele>
        <time>2014-06-09T12:17:48Z</time>
      </trkpt>
      <trkpt lat="44.89013" lon="5.2528">
        <ele>1149.982544</ele>
        <time>2014-06-09T12:17:53Z</time>
      </trkpt>
      <trkpt lat="44.89007" lon="5.25285">
        <ele>1150.471191</ele>
        <time>2014-06-09T12:17:58Z</time>
      </trkpt>
      <trkpt lat="44.88998" lon="5.25288">
        <ele>1151.186035</ele>
        <time>2014-06-09T12:18:03Z</time>
      </trkpt>
      <trkpt lat="44.88993" lon="5.25292">
        <ele>1151.658081</ele>
        <time>2014-06-09T12:18:08Z</time>
      </trkpt>
      <trkpt lat="44.88986" lon="5.25296">
        <ele>1152.227661</ele>
        <time>2014-06-09T12:18:13Z</time>
      </trkpt>
      <trkpt lat="44.8898" lon="5.25299">
        <ele>1152.797852</ele>
        <time>2014-06-09T12:18:18Z</time>
      </trkpt>
      <trkpt lat="44.88973" lon="5.25301">
        <ele>1153.147339</ele>
        <time>2014-06-09T12:18:23Z</time>
      </trkpt>
      <trkpt lat="44.8897" lon="5.25302">
        <ele>1153.297607</ele>
        <time>2014-06-09T12:18:28Z</time>
      </trkpt>
      <trkpt lat="44.8897" lon="5.25301">
        <ele>1153.328491</ele>
        <time>2014-06-09T12:18:33Z</time>
      </trkpt>
      <trkpt lat="44.88966" lon="5.25303">
        <ele>1153.534546</ele>
        <time>2014-06-09T12:18:38Z</time>
      </trkpt>
      <trkpt lat="44.8896" lon="5.25308">
        <ele>1153.824829</ele>
        <time>2014-06-09T12:18:43Z</time>
      </trkpt>
      <trkpt lat="44.88955" lon="5.2531">
        <ele>1154.090454</ele>
        <time>2014-06-09T12:18:48Z</time>
      </trkpt>
      <trkpt lat="44.88951" lon="5.25314">
        <ele>1154.467529</ele>
        <time>2014-06-09T12:18:53Z</time>
      </trkpt>
      <trkpt lat="44.88945" lon="5.25317">
        <ele>1154.994995</ele>
        <time>2014-06-09T12:18:58Z</time>
      </trkpt>
      <trkpt lat="44.88939" lon="5.25319">
        <ele>1155.505005</ele>
        <time>2014-06-09T12:19:03Z</time>
      </trkpt>
      <trkpt lat="44.88935" lon="5.25321">
        <ele>1155.925049</ele>
        <time>2014-06-09T12:19:08Z</time>
      </trkpt>
      <trkpt lat="44.88929" lon="5.25323">
        <ele>1156.492554</ele>
        <time>2014-06-09T12:19:13Z</time>
      </trkpt>
      <trkpt lat="44.88922" lon="5.25321">
        <ele>1156.890015</ele>
        <time>2014-06-09T12:19:18Z</time>
      </trkpt>
      <trkpt lat="44.88916" lon="5.25319">
        <ele>1157.130005</ele>
        <time>2014-06-09T12:19:23Z</time>
      </trkpt>
      <trkpt lat="44.8891" lon="5.25316">
        <ele>1157.25</ele>
        <time>2014-06-09T12:19:28Z</time>
      </trkpt>
      <trkpt lat="44.88905" lon="5.25313">
        <ele>1157.324951</ele>
        <time>2014-06-09T12:19:33Z</time>
      </trkpt>
      <trkpt lat="44.889" lon="5.25311">
        <ele>1157.4375</ele>
        <time>2014-06-09T12:19:38Z</time>
      </trkpt>
      <trkpt lat="44.88895" lon="5.25308">
        <ele>1157.59375</ele>
        <time>2014-06-09T12:19:43Z</time>
      </trkpt>
      <trkpt lat="44.8889" lon="5.25304">
        <ele>1157.844971</ele>
        <time>2014-06-09T12:19:48Z</time>
      </trkpt>
      <trkpt lat="44.88883" lon="5.253">
        <ele>1157.897461</ele>
        <time>2014-06-09T12:19:53Z</time>
      </trkpt>
      <trkpt lat="44.88877" lon="5.25297">
        <ele>1157.939941</ele>
        <time>2014-06-09T12:19:58Z</time>
      </trkpt>
      <trkpt lat="44.88873" lon="5.25295">
        <ele>1157.95752</ele>
        <time>2014-06-09T12:20:03Z</time>
      </trkpt>
      <trkpt lat="44.88871" lon="5.25293">
        <ele>1157.969971</ele>
        <time>2014-06-09T12:20:08Z</time>
      </trkpt>
      <trkpt lat="44.88866" lon="5.25291">
        <ele>1158.017456</ele>
        <time>2014-06-09T12:20:13Z</time>
      </trkpt>
      <trkpt lat="44.88865" lon="5.2529">
        <ele>1158.012451</ele>
        <time>2014-06-09T12:20:18Z</time>
      </trkpt>
      <trkpt lat="44.8886" lon="5.25287">
        <ele>1158.057495</ele>
        <time>2014-06-09T12:20:23Z</time>
      </trkpt>
      <trkpt lat="44.88857" lon="5.25282">
        <ele>1157.969971</ele>
        <time>2014-06-09T12:20:28Z</time>
      </trkpt>
      <trkpt lat="44.88856" lon="5.25279">
        <ele>1157.88501</ele>
        <time>2014-06-09T12:20:33Z</time>
      </trkpt>
      <trkpt lat="44.88856" lon="5.25279">
        <ele>1157.89502</ele>
        <time>2014-06-09T12:20:38Z</time>
      </trkpt>
      <trkpt lat="44.88856" lon="5.25279">
        <ele>1157.89502</ele>
        <time>2014-06-09T12:20:43Z</time>
      </trkpt>
      <trkpt lat="44.88856" lon="5.2528">
        <ele>1157.912476</ele>
        <time>2014-06-09T12:20:48Z</time>
      </trkpt>
      <trkpt lat="44.88855" lon="5.25281">
        <ele>1157.97998</ele>
        <time>2014-06-09T12:20:53Z</time>
      </trkpt>
      <trkpt lat="44.88855" lon="5.25281">
        <ele>1157.97998</ele>
        <time>2014-06-09T12:20:58Z</time>
      </trkpt>
      <trkpt lat="44.88855" lon="5.25281">
        <ele>1157.974976</ele>
        <time>2014-06-09T12:21:03Z</time>
      </trkpt>
      <trkpt lat="44.88855" lon="5.25282">
        <ele>1157.977539</ele>
        <time>2014-06-09T12:21:08Z</time>
      </trkpt>
      <trkpt lat="44.88853" lon="5.25283">
        <ele>1158.07251</ele>
        <time>2014-06-09T12:21:13Z</time>
      </trkpt>
      <trkpt lat="44.88852" lon="5.25288">
        <ele>1158.265015</ele>
        <time>2014-06-09T12:21:18Z</time>
      </trkpt>
      <trkpt lat="44.88851" lon="5.25288">
        <ele>1158.27002</ele>
        <time>2014-06-09T12:21:23Z</time>
      </trkpt>
      <trkpt lat="44.88848" lon="5.25285">
        <ele>1158.252563</ele>
        <time>2014-06-09T12:21:28Z</time>
      </trkpt>
      <trkpt lat="44.88844" lon="5.2528">
        <ele>1158.297852</ele>
        <time>2014-06-09T12:21:33Z</time>
      </trkpt>
      <trkpt lat="44.88838" lon="5.25277">
        <ele>1158.524536</ele>
        <time>2014-06-09T12:21:38Z</time>
      </trkpt>
      <trkpt lat="44.88833" lon="5.25274">
        <ele>1158.72937</ele>
        <time>2014-06-09T12:21:43Z</time>
      </trkpt>
      <trkpt lat="44.88827" lon="5.2527">
        <ele>1158.907715</ele>
        <time>2014-06-09T12:21:48Z</time>
      </trkpt>
      <trkpt lat="44.88821" lon="5.25267">
        <ele>1159.11084</ele>
        <time>2014-06-09T12:21:53Z</time>
      </trkpt>
      <trkpt lat="44.88815" lon="5.25264">
        <ele>1159.310547</ele>
        <time>2014-06-09T12:21:58Z</time>
      </trkpt>
      <trkpt lat="44.8881" lon="5.25263">
        <ele>1159.561401</ele>
        <time>2014-06-09T12:22:03Z</time>
      </trkpt>
      <trkpt lat="44.88805" lon="5.25262">
        <ele>1159.802124</ele>
        <time>2014-06-09T12:22:08Z</time>
      </trkpt>
      <trkpt lat="44.888" lon="5.25261">
        <ele>1159.992188</ele>
        <time>2014-06-09T12:22:13Z</time>
      </trkpt>
      <trkpt lat="44.88798" lon="5.25261">
        <ele>1160.05127</ele>
        <time>2014-06-09T12:22:18Z</time>
      </trkpt>
      <trkpt lat="44.88799" lon="5.2526">
        <ele>1160.018921</ele>
        <time>2014-06-09T12:22:23Z</time>
      </trkpt>
      <trkpt lat="44.88798" lon="5.25259">
        <ele>1159.957642</ele>
        <time>2014-06-09T12:22:28Z</time>
      </trkpt>
      <trkpt lat="44.88792" lon="5.25256">
        <ele>1160.013672</ele>
        <time>2014-06-09T12:22:33Z</time>
      </trkpt>
      <trkpt lat="44.88786" lon="5.25255">
        <ele>1160.131104</ele>
        <time>2014-06-09T12:22:38Z</time>
      </trkpt>
      <trkpt lat="44.88779" lon="5.25254">
        <ele>1160.220947</ele>
        <time>2014-06-09T12:22:43Z</time>
      </trkpt>
      <trkpt lat="44.88773" lon="5.25252">
        <ele>1160.219238</ele>
        <time>2014-06-09T12:22:48Z</time>
      </trkpt>
      <trkpt lat="44.88767" lon="5.25251">
        <ele>1160.27417</ele>
        <time>2014-06-09T12:22:53Z</time>
      </trkpt>
      <trkpt lat="44.8876" lon="5.2525">
        <ele>1160.27832</ele>
        <time>2014-06-09T12:22:58Z</time>
      </trkpt>
      <trkpt lat="44.88754" lon="5.25248">
        <ele>1160.41272</ele>
        <time>2014-06-09T12:23:03Z</time>
      </trkpt>
      <trkpt lat="44.88748" lon="5.25247">
        <ele>1160.853638</ele>
        <time>2014-06-09T12:23:08Z</time>
      </trkpt>
      <trkpt lat="44.88742" lon="5.25246">
        <ele>1161.25</ele>
        <time>2014-06-09T12:23:13Z</time>
      </trkpt>
      <trkpt lat="44.88735" lon="5.25244">
        <ele>1161.728027</ele>
        <time>2014-06-09T12:23:18Z</time>
      </trkpt>
      <trkpt lat="44.88728" lon="5.25243">
        <ele>1162.247803</ele>
        <time>2014-06-09T12:23:23Z</time>
      </trkpt>
      <trkpt lat="44.88724" lon="5.25242">
        <ele>1162.481323</ele>
        <time>2014-06-09T12:23:28Z</time>
      </trkpt>
      <trkpt lat="44.88719" lon="5.25241">
        <ele>1162.83252</ele>
        <time>2014-06-09T12:23:33Z</time>
      </trkpt>
      <trkpt lat="44.88714" lon="5.25239">
        <ele>1163.087524</ele>
        <time>2014-06-09T12:23:38Z</time>
      </trkpt>
      <trkpt lat="44.88707" lon="5.25237">
        <ele>1163.483765</ele>
        <time>2014-06-09T12:23:43Z</time>
      </trkpt>
      <trkpt lat="44.88701" lon="5.25236">
        <ele>1163.949463</ele>
        <time>2014-06-09T12:23:48Z</time>
      </trkpt>
      <trkpt lat="44.88695" lon="5.25234">
        <ele>1164.503906</ele>
        <time>2014-06-09T12:23:53Z</time>
      </trkpt>
      <trkpt lat="44.88689" lon="5.25233">
        <ele>1165.05188</ele>
        <time>2014-06-09T12:23:58Z</time>
      </trkpt>
      <trkpt lat="44.88683" lon="5.25232">
        <ele>1165.586426</ele>
        <time>2014-06-09T12:24:03Z</time>
      </trkpt>
      <trkpt lat="44.88676" lon="5.25231">
        <ele>1166.152954</ele>
        <time>2014-06-09T12:24:08Z</time>
      </trkpt>
      <trkpt lat="44.8867" lon="5.25229">
        <ele>1166.650757</ele>
        <time>2014-06-09T12:24:13Z</time>
      </trkpt>
      <trkpt lat="44.88664" lon="5.25228">
        <ele>1167.03125</ele>
        <time>2014-06-09T12:24:18Z</time>
      </trkpt>
      <trkpt lat="44.88658" lon="5.25226">
        <ele>1167.277466</ele>
        <time>2014-06-09T12:24:23Z</time>
      </trkpt>
      <trkpt lat="44.88652" lon="5.25225">
        <ele>1167.548706</ele>
        <time>2014-06-09T12:24:28Z</time>
      </trkpt>
      <trkpt lat="44.88646" lon="5.25223">
        <ele>1167.807495</ele>
        <time>2014-06-09T12:24:33Z</time>
      </trkpt>
      <trkpt lat="44.8864" lon="5.25222">
        <ele>1168.043701</ele>
        <time>2014-06-09T12:24:38Z</time>
      </trkpt>
      <trkpt lat="44.88634" lon="5.2522">
        <ele>1168.300049</ele>
        <time>2014-06-09T12:24:43Z</time>
      </trkpt>
      <trkpt lat="44.88627" lon="5.25219">
        <ele>1168.577515</ele>
        <time>2014-06-09T12:24:48Z</time>
      </trkpt>
      <trkpt lat="44.88621" lon="5.25217">
        <ele>1168.845703</ele>
        <time>2014-06-09T12:24:53Z</time>
      </trkpt>
      <trkpt lat="44.88615" lon="5.25216">
        <ele>1169.229248</ele>
        <time>2014-06-09T12:24:58Z</time>
      </trkpt>
      <trkpt lat="44.88609" lon="5.25215">
        <ele>1169.584229</ele>
        <time>2014-06-09T12:25:03Z</time>
      </trkpt>
      <trkpt lat="44.88603" lon="5.25213">
        <ele>1169.930786</ele>
        <time>2014-06-09T12:25:08Z</time>
      </trkpt>
      <trkpt lat="44.88596" lon="5.25212">
        <ele>1170.302124</ele>
        <time>2014-06-09T12:25:13Z</time>
      </trkpt>
      <trkpt lat="44.8859" lon="5.25211">
        <ele>1170.671265</ele>
        <time>2014-06-09T12:25:18Z</time>
      </trkpt>
      <trkpt lat="44.88583" lon="5.25209">
        <ele>1171.034058</ele>
        <time>2014-06-09T12:25:23Z</time>
      </trkpt>
      <trkpt lat="44.88577" lon="5.25208">
        <ele>1171.372437</ele>
        <time>2014-06-09T12:25:28Z</time>
      </trkpt>
      <trkpt lat="44.8857" lon="5.25207">
        <ele>1171.584717</ele>
        <time>2014-06-09T12:25:33Z</time>
      </trkpt>
      <trkpt lat="44.88563" lon="5.25206">
        <ele>1171.830444</ele>
        <time>2014-06-09T12:25:38Z</time>
      </trkpt>
      <trkpt lat="44.88557" lon="5.25205">
        <ele>1172.054688</ele>
        <time>2014-06-09T12:25:43Z</time>
      </trkpt>
      <trkpt lat="44.88551" lon="5.25204">
        <ele>1172.297363</ele>
        <time>2014-06-09T12:25:48Z</time>
      </trkpt>
      <trkpt lat="44.88544" lon="5.25202">
        <ele>1172.546265</ele>
        <time>2014-06-09T12:25:53Z</time>
      </trkpt>
      <trkpt lat="44.88538" lon="5.25201">
        <ele>1172.784058</ele>
        <time>2014-06-09T12:25:58Z</time>
      </trkpt>
      <trkpt lat="44.88532" lon="5.25199">
        <ele>1173.05127</ele>
        <time>2014-06-09T12:26:03Z</time>
      </trkpt>
      <trkpt lat="44.88525" lon="5.25198">
        <ele>1173.420776</ele>
        <time>2014-06-09T12:26:08Z</time>
      </trkpt>
      <trkpt lat="44.88519" lon="5.25197">
        <ele>1173.760132</ele>
        <time>2014-06-09T12:26:13Z</time>
      </trkpt>
      <trkpt lat="44.88513" lon="5.25196">
        <ele>1174.123657</ele>
        <time>2014-06-09T12:26:18Z</time>
      </trkpt>
      <trkpt lat="44.88507" lon="5.25195">
        <ele>1174.463501</ele>
        <time>2014-06-09T12:26:23Z</time>
      </trkpt>
      <trkpt lat="44.88501" lon="5.25193">
        <ele>1174.789307</ele>
        <time>2014-06-09T12:26:28Z</time>
      </trkpt>
      <trkpt lat="44.88495" lon="5.25192">
        <ele>1175.114014</ele>
        <time>2014-06-09T12:26:33Z</time>
      </trkpt>
      <trkpt lat="44.88488" lon="5.2519">
        <ele>1175.456299</ele>
        <time>2014-06-09T12:26:38Z</time>
      </trkpt>
      <trkpt lat="44.88482" lon="5.25188">
        <ele>1175.766968</ele>
        <time>2014-06-09T12:26:43Z</time>
      </trkpt>
      <trkpt lat="44.88476" lon="5.25187">
        <ele>1176.065186</ele>
        <time>2014-06-09T12:26:48Z</time>
      </trkpt>
      <trkpt lat="44.8847" lon="5.25185">
        <ele>1176.373413</ele>
        <time>2014-06-09T12:26:53Z</time>
      </trkpt>
      <trkpt lat="44.88464" lon="5.25184">
        <ele>1176.680908</ele>
        <time>2014-06-09T12:26:58Z</time>
      </trkpt>
      <trkpt lat="44.88458" lon="5.25183">
        <ele>1176.993896</ele>
        <time>2014-06-09T12:27:03Z</time>
      </trkpt>
      <trkpt lat="44.88452" lon="5.25182">
        <ele>1177.248047</ele>
        <time>2014-06-09T12:27:08Z</time>
      </trkpt>
      <trkpt lat="44.88452" lon="5.25182">
        <ele>1177.248047</ele>
        <time>2014-06-09T12:27:13Z</time>
      </trkpt>
      <trkpt lat="44.88451" lon="5.25182">
        <ele>1177.30835</ele>
        <time>2014-06-09T12:27:18Z</time>
      </trkpt>
      <trkpt lat="44.88451" lon="5.25182">
        <ele>1177.290649</ele>
        <time>2014-06-09T12:27:23Z</time>
      </trkpt>
      <trkpt lat="44.88451" lon="5.25182">
        <ele>1177.286133</ele>
        <time>2014-06-09T12:27:28Z</time>
      </trkpt>
      <trkpt lat="44.88451" lon="5.25182">
        <ele>1177.286133</ele>
        <time>2014-06-09T12:27:33Z</time>
      </trkpt>
      <trkpt lat="44.88451" lon="5.25182">
        <ele>1177.303711</ele>
        <time>2014-06-09T12:27:38Z</time>
      </trkpt>
      <trkpt lat="44.88451" lon="5.25182">
        <ele>1177.32373</ele>
        <time>2014-06-09T12:27:43Z</time>
      </trkpt>
      <trkpt lat="44.8845" lon="5.25182">
        <ele>1177.34729</ele>
        <time>2014-06-09T12:27:48Z</time>
      </trkpt>
      <trkpt lat="44.8845" lon="5.25182">
        <ele>1177.36499</ele>
        <time>2014-06-09T12:27:53Z</time>
      </trkpt>
      <trkpt lat="44.8845" lon="5.25182">
        <ele>1177.38269</ele>
        <time>2014-06-09T12:27:58Z</time>
      </trkpt>
      <trkpt lat="44.8845" lon="5.25182">
        <ele>1177.38269</ele>
        <time>2014-06-09T12:28:03Z</time>
      </trkpt>
      <trkpt lat="44.88448" lon="5.25182">
        <ele>1177.440308</ele>
        <time>2014-06-09T12:28:08Z</time>
      </trkpt>
      <trkpt lat="44.88443" lon="5.25181">
        <ele>1177.70166</ele>
        <time>2014-06-09T12:28:13Z</time>
      </trkpt>
      <trkpt lat="44.88438" lon="5.25182">
        <ele>1177.915039</ele>
        <time>2014-06-09T12:28:18Z</time>
      </trkpt>
      <trkpt lat="44.88433" lon="5.25182">
        <ele>1178.106445</ele>
        <time>2014-06-09T12:28:23Z</time>
      </trkpt>
      <trkpt lat="44.88428" lon="5.25183">
        <ele>1178.349976</ele>
        <time>2014-06-09T12:28:28Z</time>
      </trkpt>
      <trkpt lat="44.88424" lon="5.25187">
        <ele>1178.582031</ele>
        <time>2014-06-09T12:28:33Z</time>
      </trkpt>
      <trkpt lat="44.88419" lon="5.2519">
        <ele>1178.81897</ele>
        <time>2014-06-09T12:28:38Z</time>
      </trkpt>
      <trkpt lat="44.88414" lon="5.25195">
        <ele>1179.073608</ele>
        <time>2014-06-09T12:28:43Z</time>
      </trkpt>
      <trkpt lat="44.8841" lon="5.252">
        <ele>1179.302612</ele>
        <time>2014-06-09T12:28:48Z</time>
      </trkpt>
      <trkpt lat="44.88406" lon="5.25204">
        <ele>1179.497437</ele>
        <time>2014-06-09T12:28:53Z</time>
      </trkpt>
      <trkpt lat="44.88402" lon="5.25209">
        <ele>1179.707886</ele>
        <time>2014-06-09T12:28:58Z</time>
      </trkpt>
      <trkpt lat="44.88397" lon="5.25213">
        <ele>1179.926147</ele>
        <time>2014-06-09T12:29:03Z</time>
      </trkpt>
      <trkpt lat="44.88392" lon="5.25217">
        <ele>1180.344849</ele>
        <time>2014-06-09T12:29:08Z</time>
      </trkpt>
      <trkpt lat="44.88386" lon="5.2522">
        <ele>1180.829346</ele>
        <time>2014-06-09T12:29:13Z</time>
      </trkpt>
      <trkpt lat="44.8838" lon="5.25221">
        <ele>1181.287964</ele>
        <time>2014-06-09T12:29:18Z</time>
      </trkpt>
      <trkpt lat="44.88375" lon="5.2522">
        <ele>1181.630615</ele>
        <time>2014-06-09T12:29:23Z</time>
      </trkpt>
      <trkpt lat="44.88369" lon="5.25218">
        <ele>1181.900879</ele>
        <time>2014-06-09T12:29:28Z</time>
      </trkpt>
      <trkpt lat="44.88363" lon="5.25215">
        <ele>1182.223022</ele>
        <time>2014-06-09T12:29:33Z</time>
      </trkpt>
      <trkpt lat="44.88357" lon="5.25212">
        <ele>1182.497925</ele>
        <time>2014-06-09T12:29:38Z</time>
      </trkpt>
      <trkpt lat="44.88352" lon="5.25208">
        <ele>1182.732422</ele>
        <time>2014-06-09T12:29:43Z</time>
      </trkpt>
      <trkpt lat="44.88346" lon="5.25203">
        <ele>1183.024536</ele>
        <time>2014-06-09T12:29:48Z</time>
      </trkpt>
      <trkpt lat="44.88341" lon="5.25199">
        <ele>1183.275879</ele>
        <time>2014-06-09T12:29:53Z</time>
      </trkpt>
      <trkpt lat="44.88336" lon="5.25195">
        <ele>1183.58313</ele>
        <time>2014-06-09T12:29:58Z</time>
      </trkpt>
      <trkpt lat="44.88331" lon="5.25191">
        <ele>1183.872559</ele>
        <time>2014-06-09T12:30:03Z</time>
      </trkpt>
      <trkpt lat="44.88329" lon="5.25189">
        <ele>1183.982422</ele>
        <time>2014-06-09T12:30:08Z</time>
      </trkpt>
      <trkpt lat="44.88329" lon="5.25189">
        <ele>1183.982422</ele>
        <time>2014-06-09T12:30:13Z</time>
      </trkpt>
      <trkpt lat="44.88326" lon="5.25188">
        <ele>1184.15979</ele>
        <time>2014-06-09T12:30:18Z</time>
      </trkpt>
      <trkpt lat="44.88321" lon="5.25184">
        <ele>1184.474609</ele>
        <time>2014-06-09T12:30:23Z</time>
      </trkpt>
      <trkpt lat="44.88316" lon="5.25181">
        <ele>1184.877686</ele>
        <time>2014-06-09T12:30:28Z</time>
      </trkpt>
      <trkpt lat="44.8831" lon="5.25176">
        <ele>1185.237793</ele>
        <time>2014-06-09T12:30:33Z</time>
      </trkpt>
      <trkpt lat="44.88305" lon="5.25172">
        <ele>1185.615601</ele>
        <time>2014-06-09T12:30:38Z</time>
      </trkpt>
      <trkpt lat="44.883" lon="5.25168">
        <ele>1185.971069</ele>
        <time>2014-06-09T12:30:43Z</time>
      </trkpt>
      <trkpt lat="44.88294" lon="5.25163">
        <ele>1186.28418</ele>
        <time>2014-06-09T12:30:48Z</time>
      </trkpt>
      <trkpt lat="44.88289" lon="5.25159">
        <ele>1186.53064</ele>
        <time>2014-06-09T12:30:53Z</time>
      </trkpt>
      <trkpt lat="44.88284" lon="5.25155">
        <ele>1186.838745</ele>
        <time>2014-06-09T12:30:58Z</time>
      </trkpt>
      <trkpt lat="44.88279" lon="5.2515">
        <ele>1187.002441</ele>
        <time>2014-06-09T12:31:03Z</time>
      </trkpt>
      <trkpt lat="44.88274" lon="5.25146">
        <ele>1187.369995</ele>
        <time>2014-06-09T12:31:08Z</time>
      </trkpt>
      <trkpt lat="44.88269" lon="5.25141">
        <ele>1187.70752</ele>
        <time>2014-06-09T12:31:13Z</time>
      </trkpt>
      <trkpt lat="44.88264" lon="5.25136">
        <ele>1188.066284</ele>
        <time>2014-06-09T12:31:18Z</time>
      </trkpt>
      <trkpt lat="44.88258" lon="5.25132">
        <ele>1188.539795</ele>
        <time>2014-06-09T12:31:23Z</time>
      </trkpt>
      <trkpt lat="44.88253" lon="5.25127">
        <ele>1188.976318</ele>
        <time>2014-06-09T12:31:28Z</time>
      </trkpt>
      <trkpt lat="44.88247" lon="5.25122">
        <ele>1189.414551</ele>
        <time>2014-06-09T12:31:33Z</time>
      </trkpt>
      <trkpt lat="44.88242" lon="5.25117">
        <ele>1189.823242</ele>
        <time>2014-06-09T12:31:38Z</time>
      </trkpt>
      <trkpt lat="44.88237" lon="5.25112">
        <ele>1190.161743</ele>
        <time>2014-06-09T12:31:43Z</time>
      </trkpt>
      <trkpt lat="44.88231" lon="5.25108">
        <ele>1190.563965</ele>
        <time>2014-06-09T12:31:48Z</time>
      </trkpt>
      <trkpt lat="44.88226" lon="5.25103">
        <ele>1190.914917</ele>
        <time>2014-06-09T12:31:53Z</time>
      </trkpt>
      <trkpt lat="44.8822" lon="5.25098">
        <ele>1191.242432</ele>
        <time>2014-06-09T12:31:58Z</time>
      </trkpt>
      <trkpt lat="44.88215" lon="5.25094">
        <ele>1191.565674</ele>
        <time>2014-06-09T12:32:03Z</time>
      </trkpt>
      <trkpt lat="44.88209" lon="5.2509">
        <ele>1191.918457</ele>
        <time>2014-06-09T12:32:08Z</time>
      </trkpt>
      <trkpt lat="44.88203" lon="5.25086">
        <ele>1192.246094</ele>
        <time>2014-06-09T12:32:13Z</time>
      </trkpt>
      <trkpt lat="44.88197" lon="5.25082">
        <ele>1192.557007</ele>
        <time>2014-06-09T12:32:18Z</time>
      </trkpt>
      <trkpt lat="44.88192" lon="5.25077">
        <ele>1192.893066</ele>
        <time>2014-06-09T12:32:23Z</time>
      </trkpt>
      <trkpt lat="44.88186" lon="5.25073">
        <ele>1193.249512</ele>
        <time>2014-06-09T12:32:28Z</time>
      </trkpt>
      <trkpt lat="44.8818" lon="5.25068">
        <ele>1193.558716</ele>
        <time>2014-06-09T12:32:33Z</time>
      </trkpt>
      <trkpt lat="44.88174" lon="5.25064">
        <ele>1193.926392</ele>
        <time>2014-06-09T12:32:38Z</time>
      </trkpt>
      <trkpt lat="44.88168" lon="5.2506">
        <ele>1194.277344</ele>
        <time>2014-06-09T12:32:43Z</time>
      </trkpt>
      <trkpt lat="44.88162" lon="5.25055">
        <ele>1194.63147</ele>
        <time>2014-06-09T12:32:48Z</time>
      </trkpt>
      <trkpt lat="44.88156" lon="5.2505">
        <ele>1194.90564</ele>
        <time>2014-06-09T12:32:53Z</time>
      </trkpt>
      <trkpt lat="44.8815" lon="5.25046">
        <ele>1195.186401</ele>
        <time>2014-06-09T12:32:58Z</time>
      </trkpt>
      <trkpt lat="44.88144" lon="5.25041">
        <ele>1195.39624</ele>
        <time>2014-06-09T12:33:03Z</time>
      </trkpt>
      <trkpt lat="44.88139" lon="5.25037">
        <ele>1195.577026</ele>
        <time>2014-06-09T12:33:08Z</time>
      </trkpt>
      <trkpt lat="44.88133" lon="5.25032">
        <ele>1195.705078</ele>
        <time>2014-06-09T12:33:13Z</time>
      </trkpt>
      <trkpt lat="44.88127" lon="5.25028">
        <ele>1195.839355</ele>
        <time>2014-06-09T12:33:18Z</time>
      </trkpt>
      <trkpt lat="44.88121" lon="5.25024">
        <ele>1195.964355</ele>
        <time>2014-06-09T12:33:23Z</time>
      </trkpt>
      <trkpt lat="44.88115" lon="5.25021">
        <ele>1196.109985</ele>
        <time>2014-06-09T12:33:28Z</time>
      </trkpt>
      <trkpt lat="44.88109" lon="5.25019">
        <ele>1196.30896</ele>
        <time>2014-06-09T12:33:33Z</time>
      </trkpt>
      <trkpt lat="44.88102" lon="5.25016">
        <ele>1196.484009</ele>
        <time>2014-06-09T12:33:38Z</time>
      </trkpt>
      <trkpt lat="44.88096" lon="5.25011">
        <ele>1196.553589</ele>
        <time>2014-06-09T12:33:43Z</time>
      </trkpt>
      <trkpt lat="44.88091" lon="5.25006">
        <ele>1196.622925</ele>
        <time>2014-06-09T12:33:48Z</time>
      </trkpt>
      <trkpt lat="44.88086" lon="5.24999">
        <ele>1196.61499</ele>
        <time>2014-06-09T12:33:53Z</time>
      </trkpt>
      <trkpt lat="44.8808" lon="5.24995">
        <ele>1196.64209</ele>
        <time>2014-06-09T12:33:58Z</time>
      </trkpt>
      <trkpt lat="44.88075" lon="5.2499">
        <ele>1196.680298</ele>
        <time>2014-06-09T12:34:03Z</time>
      </trkpt>
      <trkpt lat="44.88074" lon="5.24982">
        <ele>1196.512207</ele>
        <time>2014-06-09T12:34:08Z</time>
      </trkpt>
      <trkpt lat="44.88075" lon="5.24974">
        <ele>1196.262329</ele>
        <time>2014-06-09T12:34:13Z</time>
      </trkpt>
      <trkpt lat="44.88079" lon="5.24967">
        <ele>1195.902832</ele>
        <time>2014-06-09T12:34:18Z</time>
      </trkpt>
      <trkpt lat="44.88083" lon="5.24958">
        <ele>1195.528931</ele>
        <time>2014-06-09T12:34:23Z</time>
      </trkpt>
      <trkpt lat="44.88086" lon="5.2495">
        <ele>1195.188965</ele>
        <time>2014-06-09T12:34:28Z</time>
      </trkpt>
      <trkpt lat="44.88088" lon="5.24942">
        <ele>1195.335571</ele>
        <time>2014-06-09T12:34:33Z</time>
      </trkpt>
      <trkpt lat="44.88091" lon="5.24934">
        <ele>1195.488159</ele>
        <time>2014-06-09T12:34:38Z</time>
      </trkpt>
      <trkpt lat="44.88095" lon="5.24926">
        <ele>1195.643555</ele>
        <time>2014-06-09T12:34:43Z</time>
      </trkpt>
      <trkpt lat="44.88097" lon="5.24918">
        <ele>1195.812866</ele>
        <time>2014-06-09T12:34:48Z</time>
      </trkpt>
      <trkpt lat="44.88099" lon="5.24909">
        <ele>1196.010132</ele>
        <time>2014-06-09T12:34:53Z</time>
      </trkpt>
      <trkpt lat="44.88102" lon="5.249">
        <ele>1196.174561</ele>
        <time>2014-06-09T12:34:58Z</time>
      </trkpt>
      <trkpt lat="44.88104" lon="5.24892">
        <ele>1196.322266</ele>
        <time>2014-06-09T12:35:03Z</time>
      </trkpt>
      <trkpt lat="44.88106" lon="5.24886">
        <ele>1196.457764</ele>
        <time>2014-06-09T12:35:08Z</time>
      </trkpt>
      <trkpt lat="44.88107" lon="5.24886">
        <ele>1196.442505</ele>
        <time>2014-06-09T12:35:13Z</time>
      </trkpt>
      <trkpt lat="44.88107" lon="5.24886">
        <ele>1196.45166</ele>
        <time>2014-06-09T12:35:18Z</time>
      </trkpt>
      <trkpt lat="44.88109" lon="5.2488">
        <ele>1196.715576</ele>
        <time>2014-06-09T12:35:23Z</time>
      </trkpt>
      <trkpt lat="44.88111" lon="5.24871">
        <ele>1197.105103</ele>
        <time>2014-06-09T12:35:28Z</time>
      </trkpt>
      <trkpt lat="44.88114" lon="5.24863">
        <ele>1197.43396</ele>
        <time>2014-06-09T12:35:33Z</time>
      </trkpt>
      <trkpt lat="44.88117" lon="5.24855">
        <ele>1197.750366</ele>
        <time>2014-06-09T12:35:38Z</time>
      </trkpt>
      <trkpt lat="44.8812" lon="5.24846">
        <ele>1198.065063</ele>
        <time>2014-06-09T12:35:43Z</time>
      </trkpt>
      <trkpt lat="44.88122" lon="5.24838">
        <ele>1198.371338</ele>
        <time>2014-06-09T12:35:48Z</time>
      </trkpt>
      <trkpt lat="44.88126" lon="5.24831">
        <ele>1198.529053</ele>
        <time>2014-06-09T12:35:53Z</time>
      </trkpt>
      <trkpt lat="44.8813" lon="5.24824">
        <ele>1198.830933</ele>
        <time>2014-06-09T12:35:58Z</time>
      </trkpt>
      <trkpt lat="44.88135" lon="5.24817">
        <ele>1199.438599</ele>
        <time>2014-06-09T12:36:03Z</time>
      </trkpt>
      <trkpt lat="44.8814" lon="5.24811">
        <ele>1200.289307</ele>
        <time>2014-06-09T12:36:08Z</time>
      </trkpt>
      <trkpt lat="44.88144" lon="5.24805">
        <ele>1201.217163</ele>
        <time>2014-06-09T12:36:13Z</time>
      </trkpt>
      <trkpt lat="44.88149" lon="5.24799">
        <ele>1202.130005</ele>
        <time>2014-06-09T12:36:18Z</time>
      </trkpt>
      <trkpt lat="44.88153" lon="5.24793">
        <ele>1203.062622</ele>
        <time>2014-06-09T12:36:23Z</time>
      </trkpt>
      <trkpt lat="44.88158" lon="5.24787">
        <ele>1203.946899</ele>
        <time>2014-06-09T12:36:28Z</time>
      </trkpt>
      <trkpt lat="44.88163" lon="5.24782">
        <ele>1204.660889</ele>
        <time>2014-06-09T12:36:33Z</time>
      </trkpt>
      <trkpt lat="44.88167" lon="5.24777">
        <ele>1205.336426</ele>
        <time>2014-06-09T12:36:38Z</time>
      </trkpt>
      <trkpt lat="44.88172" lon="5.24773">
        <ele>1205.998169</ele>
        <time>2014-06-09T12:36:43Z</time>
      </trkpt>
      <trkpt lat="44.88176" lon="5.24768">
        <ele>1206.68335</ele>
        <time>2014-06-09T12:36:48Z</time>
      </trkpt>
      <trkpt lat="44.88181" lon="5.24763">
        <ele>1207.305908</ele>
        <time>2014-06-09T12:36:53Z</time>
      </trkpt>
      <trkpt lat="44.88186" lon="5.24759">
        <ele>1207.97876</ele>
        <time>2014-06-09T12:36:58Z</time>
      </trkpt>
      <trkpt lat="44.88191" lon="5.24754">
        <ele>1208.777466</ele>
        <time>2014-06-09T12:37:03Z</time>
      </trkpt>
      <trkpt lat="44.88196" lon="5.24749">
        <ele>1209.52002</ele>
        <time>2014-06-09T12:37:08Z</time>
      </trkpt>
      <trkpt lat="44.88201" lon="5.24744">
        <ele>1210.23999</ele>
        <time>2014-06-09T12:37:13Z</time>
      </trkpt>
      <trkpt lat="44.88206" lon="5.24739">
        <ele>1210.94873</ele>
        <time>2014-06-09T12:37:18Z</time>
      </trkpt>
      <trkpt lat="44.88212" lon="5.24735">
        <ele>1211.578735</ele>
        <time>2014-06-09T12:37:23Z</time>
      </trkpt>
      <trkpt lat="44.88216" lon="5.24731">
        <ele>1212.107544</ele>
        <time>2014-06-09T12:37:28Z</time>
      </trkpt>
      <trkpt lat="44.88221" lon="5.24727">
        <ele>1212.737549</ele>
        <time>2014-06-09T12:37:33Z</time>
      </trkpt>
      <trkpt lat="44.88227" lon="5.24723">
        <ele>1213.32251</ele>
        <time>2014-06-09T12:37:38Z</time>
      </trkpt>
      <trkpt lat="44.88231" lon="5.24718">
        <ele>1214.049316</ele>
        <time>2014-06-09T12:37:43Z</time>
      </trkpt>
      <trkpt lat="44.88236" lon="5.24714">
        <ele>1214.559814</ele>
        <time>2014-06-09T12:37:48Z</time>
      </trkpt>
      <trkpt lat="44.88241" lon="5.24709">
        <ele>1215.090454</ele>
        <time>2014-06-09T12:37:53Z</time>
      </trkpt>
      <trkpt lat="44.88246" lon="5.24704">
        <ele>1215.52002</ele>
        <time>2014-06-09T12:37:58Z</time>
      </trkpt>
      <trkpt lat="44.88251" lon="5.24699">
        <ele>1216.045044</ele>
        <time>2014-06-09T12:38:03Z</time>
      </trkpt>
      <trkpt lat="44.88255" lon="5.24693">
        <ele>1216.579956</ele>
        <time>2014-06-09T12:38:08Z</time>
      </trkpt>
      <trkpt lat="44.88259" lon="5.24688">
        <ele>1217.079956</ele>
        <time>2014-06-09T12:38:13Z</time>
      </trkpt>
      <trkpt lat="44.88263" lon="5.24682">
        <ele>1217.650024</ele>
        <time>2014-06-09T12:38:18Z</time>
      </trkpt>
      <trkpt lat="44.88268" lon="5.24677">
        <ele>1218.155029</ele>
        <time>2014-06-09T12:38:23Z</time>
      </trkpt>
      <trkpt lat="44.88273" lon="5.24672">
        <ele>1218.630005</ele>
        <time>2014-06-09T12:38:28Z</time>
      </trkpt>
      <trkpt lat="44.88278" lon="5.24667">
        <ele>1219.077515</ele>
        <time>2014-06-09T12:38:33Z</time>
      </trkpt>
      <trkpt lat="44.88283" lon="5.24662">
        <ele>1219.579956</ele>
        <time>2014-06-09T12:38:38Z</time>
      </trkpt>
      <trkpt lat="44.88287" lon="5.24657">
        <ele>1220.222534</ele>
        <time>2014-06-09T12:38:43Z</time>
      </trkpt>
      <trkpt lat="44.88292" lon="5.24651">
        <ele>1220.852539</ele>
        <time>2014-06-09T12:38:48Z</time>
      </trkpt>
      <trkpt lat="44.88295" lon="5.24645">
        <ele>1221.557495</ele>
        <time>2014-06-09T12:38:53Z</time>
      </trkpt>
      <trkpt lat="44.88296" lon="5.24638">
        <ele>1222.30249</ele>
        <time>2014-06-09T12:38:58Z</time>
      </trkpt>
      <trkpt lat="44.88296" lon="5.24632">
        <ele>1223.007446</ele>
        <time>2014-06-09T12:39:03Z</time>
      </trkpt>
      <trkpt lat="44.88297" lon="5.24626">
        <ele>1223.625</ele>
        <time>2014-06-09T12:39:08Z</time>
      </trkpt>
      <trkpt lat="44.88298" lon="5.2462">
        <ele>1224.276245</ele>
        <time>2014-06-09T12:39:13Z</time>
      </trkpt>
      <trkpt lat="44.88297" lon="5.24615">
        <ele>1224.900024</ele>
        <time>2014-06-09T12:39:18Z</time>
      </trkpt>
      <trkpt lat="44.88297" lon="5.24609">
        <ele>1225.532471</ele>
        <time>2014-06-09T12:39:23Z</time>
      </trkpt>
      <trkpt lat="44.88299" lon="5.24603">
        <ele>1226.186279</ele>
        <time>2014-06-09T12:39:28Z</time>
      </trkpt>
      <trkpt lat="44.88302" lon="5.24596">
        <ele>1226.953735</ele>
        <time>2014-06-09T12:39:33Z</time>
      </trkpt>
      <trkpt lat="44.88302" lon="5.2459">
        <ele>1227.631226</ele>
        <time>2014-06-09T12:39:38Z</time>
      </trkpt>
      <trkpt lat="44.88302" lon="5.24581">
        <ele>1228.55249</ele>
        <time>2014-06-09T12:39:43Z</time>
      </trkpt>
      <trkpt lat="44.88303" lon="5.24573">
        <ele>1229.334961</ele>
        <time>2014-06-09T12:39:48Z</time>
      </trkpt>
      <trkpt lat="44.88304" lon="5.24565">
        <ele>1230.0625</ele>
        <time>2014-06-09T12:39:53Z</time>
      </trkpt>
      <trkpt lat="44.88304" lon="5.24557">
        <ele>1230.795044</ele>
        <time>2014-06-09T12:39:58Z</time>
      </trkpt>
      <trkpt lat="44.88304" lon="5.2455">
        <ele>1231.474976</ele>
        <time>2014-06-09T12:40:03Z</time>
      </trkpt>
      <trkpt lat="44.88305" lon="5.24543">
        <ele>1232.132446</ele>
        <time>2014-06-09T12:40:08Z</time>
      </trkpt>
      <trkpt lat="44.88303" lon="5.24537">
        <ele>1232.79248</ele>
        <time>2014-06-09T12:40:13Z</time>
      </trkpt>
      <trkpt lat="44.88302" lon="5.2453">
        <ele>1233.45752</ele>
        <time>2014-06-09T12:40:18Z</time>
      </trkpt>
      <trkpt lat="44.88301" lon="5.24524">
        <ele>1234.054932</ele>
        <time>2014-06-09T12:40:23Z</time>
      </trkpt>
      <trkpt lat="44.88301" lon="5.24517">
        <ele>1234.705444</ele>
        <time>2014-06-09T12:40:28Z</time>
      </trkpt>
      <trkpt lat="44.88302" lon="5.2451">
        <ele>1235.359985</ele>
        <time>2014-06-09T12:40:33Z</time>
      </trkpt>
      <trkpt lat="44.88303" lon="5.24504">
        <ele>1235.971558</ele>
        <time>2014-06-09T12:40:38Z</time>
      </trkpt>
      <trkpt lat="44.88307" lon="5.24499">
        <ele>1236.203247</ele>
        <time>2014-06-09T12:40:43Z</time>
      </trkpt>
      <trkpt lat="44.8831" lon="5.24494">
        <ele>1236.508789</ele>
        <time>2014-06-09T12:40:48Z</time>
      </trkpt>
      <trkpt lat="44.88314" lon="5.24489">
        <ele>1236.736694</ele>
        <time>2014-06-09T12:40:53Z</time>
      </trkpt>
      <trkpt lat="44.88318" lon="5.24485">
        <ele>1236.823975</ele>
        <time>2014-06-09T12:40:58Z</time>
      </trkpt>
      <trkpt lat="44.88319" lon="5.24479">
        <ele>1237.171265</ele>
        <time>2014-06-09T12:41:03Z</time>
      </trkpt>
      <trkpt lat="44.8832" lon="5.24477">
        <ele>1237.279297</ele>
        <time>2014-06-09T12:41:08Z</time>
      </trkpt>
      <trkpt lat="44.88321" lon="5.24474">
        <ele>1237.418335</ele>
        <time>2014-06-09T12:41:13Z</time>
      </trkpt>
      <trkpt lat="44.88321" lon="5.24472">
        <ele>1237.539429</ele>
        <time>2014-06-09T12:41:18Z</time>
      </trkpt>
      <trkpt lat="44.88321" lon="5.24469">
        <ele>1237.820435</ele>
        <time>2014-06-09T12:41:23Z</time>
      </trkpt>
      <trkpt lat="44.8832" lon="5.24464">
        <ele>1238.213867</ele>
        <time>2014-06-09T12:41:28Z</time>
      </trkpt>
      <trkpt lat="44.88319" lon="5.24461">
        <ele>1238.58728</ele>
        <time>2014-06-09T12:41:33Z</time>
      </trkpt>
      <trkpt lat="44.88318" lon="5.24455">
        <ele>1239.290039</ele>
        <time>2014-06-09T12:41:38Z</time>
      </trkpt>
      <trkpt lat="44.88318" lon="5.24448">
        <ele>1240.579102</ele>
        <time>2014-06-09T12:41:43Z</time>
      </trkpt>
      <trkpt lat="44.88318" lon="5.24445">
        <ele>1241.122803</ele>
        <time>2014-06-09T12:41:48Z</time>
      </trkpt>
      <trkpt lat="44.88321" lon="5.24441">
        <ele>1241.601929</ele>
        <time>2014-06-09T12:41:53Z</time>
      </trkpt>
      <trkpt lat="44.88321" lon="5.24438">
        <ele>1242.077026</ele>
        <time>2014-06-09T12:41:58Z</time>
      </trkpt>
      <trkpt lat="44.88323" lon="5.24434">
        <ele>1242.745361</ele>
        <time>2014-06-09T12:42:03Z</time>
      </trkpt>
      <trkpt lat="44.88326" lon="5.2443">
        <ele>1243.179565</ele>
        <time>2014-06-09T12:42:08Z</time>
      </trkpt>
      <trkpt lat="44.88326" lon="5.24425">
        <ele>1244.23999</ele>
        <time>2014-06-09T12:42:13Z</time>
      </trkpt>
      <trkpt lat="44.88327" lon="5.2442">
        <ele>1244.98999</ele>
        <time>2014-06-09T12:42:18Z</time>
      </trkpt>
      <trkpt lat="44.8833" lon="5.24415">
        <ele>1246.075195</ele>
        <time>2014-06-09T12:42:23Z</time>
      </trkpt>
      <trkpt lat="44.88332" lon="5.24409">
        <ele>1247.310669</ele>
        <time>2014-06-09T12:42:28Z</time>
      </trkpt>
      <trkpt lat="44.88335" lon="5.24403">
        <ele>1248.657104</ele>
        <time>2014-06-09T12:42:33Z</time>
      </trkpt>
      <trkpt lat="44.88337" lon="5.24397">
        <ele>1249.919067</ele>
        <time>2014-06-09T12:42:38Z</time>
      </trkpt>
      <trkpt lat="44.8834" lon="5.24394">
        <ele>1250.838379</ele>
        <time>2014-06-09T12:42:43Z</time>
      </trkpt>
      <trkpt lat="44.88342" lon="5.24389">
        <ele>1252.233398</ele>
        <time>2014-06-09T12:42:48Z</time>
      </trkpt>
      <trkpt lat="44.88344" lon="5.24386">
        <ele>1253.004639</ele>
        <time>2014-06-09T12:42:53Z</time>
      </trkpt>
      <trkpt lat="44.88347" lon="5.24381">
        <ele>1254.445557</ele>
        <time>2014-06-09T12:42:58Z</time>
      </trkpt>
      <trkpt lat="44.88348" lon="5.24372">
        <ele>1256.772583</ele>
        <time>2014-06-09T12:43:03Z</time>
      </trkpt>
      <trkpt lat="44.88348" lon="5.24366">
        <ele>1258.224487</ele>
        <time>2014-06-09T12:43:08Z</time>
      </trkpt>
      <trkpt lat="44.8835" lon="5.2436">
        <ele>1259.748047</ele>
        <time>2014-06-09T12:43:13Z</time>
      </trkpt>
      <trkpt lat="44.88351" lon="5.24356">
        <ele>1260.766479</ele>
        <time>2014-06-09T12:43:18Z</time>
      </trkpt>
      <trkpt lat="44.88352" lon="5.24351">
        <ele>1261.869995</ele>
        <time>2014-06-09T12:43:23Z</time>
      </trkpt>
      <trkpt lat="44.88353" lon="5.24347">
        <ele>1262.731201</ele>
        <time>2014-06-09T12:43:28Z</time>
      </trkpt>
      <trkpt lat="44.88352" lon="5.24343">
        <ele>1263.672974</ele>
        <time>2014-06-09T12:43:33Z</time>
      </trkpt>
      <trkpt lat="44.8835" lon="5.24341">
        <ele>1264.426758</ele>
        <time>2014-06-09T12:43:38Z</time>
      </trkpt>
      <trkpt lat="44.88346" lon="5.24338">
        <ele>1265.300415</ele>
        <time>2014-06-09T12:43:43Z</time>
      </trkpt>
      <trkpt lat="44.88345" lon="5.24334">
        <ele>1266.222656</ele>
        <time>2014-06-09T12:43:48Z</time>
      </trkpt>
      <trkpt lat="44.88345" lon="5.24329">
        <ele>1267.562622</ele>
        <time>2014-06-09T12:43:53Z</time>
      </trkpt>
      <trkpt lat="44.88343" lon="5.24325">
        <ele>1268.907959</ele>
        <time>2014-06-09T12:43:58Z</time>
      </trkpt>
      <trkpt lat="44.88342" lon="5.24323">
        <ele>1269.692627</ele>
        <time>2014-06-09T12:44:03Z</time>
      </trkpt>
      <trkpt lat="44.88338" lon="5.24324">
        <ele>1269.665161</ele>
        <time>2014-06-09T12:44:08Z</time>
      </trkpt>
      <trkpt lat="44.88332" lon="5.24322">
        <ele>1270.61145</ele>
        <time>2014-06-09T12:44:13Z</time>
      </trkpt>
      <trkpt lat="44.88327" lon="5.24319">
        <ele>1271.785034</ele>
        <time>2014-06-09T12:44:18Z</time>
      </trkpt>
      <trkpt lat="44.88323" lon="5.24316">
        <ele>1272.872437</ele>
        <time>2014-06-09T12:44:23Z</time>
      </trkpt>
      <trkpt lat="44.88323" lon="5.24314">
        <ele>1273.545044</ele>
        <time>2014-06-09T12:44:28Z</time>
      </trkpt>
      <trkpt lat="44.88323" lon="5.24314">
        <ele>1273.449951</ele>
        <time>2014-06-09T12:44:33Z</time>
      </trkpt>
      <trkpt lat="44.88321" lon="5.24312">
        <ele>1274.155029</ele>
        <time>2014-06-09T12:44:38Z</time>
      </trkpt>
      <trkpt lat="44.88315" lon="5.24312">
        <ele>1274.689941</ele>
        <time>2014-06-09T12:44:43Z</time>
      </trkpt>
      <trkpt lat="44.88308" lon="5.24308">
        <ele>1276.097534</ele>
        <time>2014-06-09T12:44:48Z</time>
      </trkpt>
      <trkpt lat="44.88303" lon="5.24306">
        <ele>1277.22998</ele>
        <time>2014-06-09T12:44:53Z</time>
      </trkpt>
      <trkpt lat="44.88298" lon="5.24303">
        <ele>1278.35498</ele>
        <time>2014-06-09T12:44:58Z</time>
      </trkpt>
      <trkpt lat="44.88293" lon="5.243">
        <ele>1279.464966</ele>
        <time>2014-06-09T12:45:03Z</time>
      </trkpt>
      <trkpt lat="44.88289" lon="5.24297">
        <ele>1280.640015</ele>
        <time>2014-06-09T12:45:08Z</time>
      </trkpt>
      <trkpt lat="44.88284" lon="5.24294">
        <ele>1281.48938</ele>
        <time>2014-06-09T12:45:13Z</time>
      </trkpt>
      <trkpt lat="44.88279" lon="5.24291">
        <ele>1282.476563</ele>
        <time>2014-06-09T12:45:18Z</time>
      </trkpt>
      <trkpt lat="44.88273" lon="5.24286">
        <ele>1283.466187</ele>
        <time>2014-06-09T12:45:23Z</time>
      </trkpt>
      <trkpt lat="44.88268" lon="5.24284">
        <ele>1284.11084</ele>
        <time>2014-06-09T12:45:28Z</time>
      </trkpt>
      <trkpt lat="44.88263" lon="5.2428">
        <ele>1284.940918</ele>
        <time>2014-06-09T12:45:33Z</time>
      </trkpt>
      <trkpt lat="44.88258" lon="5.24275">
        <ele>1286.233398</ele>
        <time>2014-06-09T12:45:38Z</time>
      </trkpt>
      <trkpt lat="44.88256" lon="5.2427">
        <ele>1287.414551</ele>
        <time>2014-06-09T12:45:43Z</time>
      </trkpt>
      <trkpt lat="44.88254" lon="5.24268">
        <ele>1287.964355</ele>
        <time>2014-06-09T12:45:48Z</time>
      </trkpt>
      <trkpt lat="44.88253" lon="5.24268">
        <ele>1287.950806</ele>
        <time>2014-06-09T12:45:53Z</time>
      </trkpt>
      <trkpt lat="44.8825" lon="5.24266">
        <ele>1288.391357</ele>
        <time>2014-06-09T12:45:58Z</time>
      </trkpt>
      <trkpt lat="44.88248" lon="5.24266">
        <ele>1288.29187</ele>
        <time>2014-06-09T12:46:03Z</time>
      </trkpt>
      <trkpt lat="44.88249" lon="5.24268">
        <ele>1287.653076</ele>
        <time>2014-06-09T12:46:08Z</time>
      </trkpt>
      <trkpt lat="44.88246" lon="5.24267">
        <ele>1287.838745</ele>
        <time>2014-06-09T12:46:13Z</time>
      </trkpt>
      <trkpt lat="44.88244" lon="5.24268">
        <ele>1287.47522</ele>
        <time>2014-06-09T12:46:18Z</time>
      </trkpt>
      <trkpt lat="44.88241" lon="5.24269">
        <ele>1287.180054</ele>
        <time>2014-06-09T12:46:23Z</time>
      </trkpt>
      <trkpt lat="44.88238" lon="5.24269">
        <ele>1287.03894</ele>
        <time>2014-06-09T12:46:28Z</time>
      </trkpt>
      <trkpt lat="44.88236" lon="5.24269">
        <ele>1286.776001</ele>
        <time>2014-06-09T12:46:33Z</time>
      </trkpt>
      <trkpt lat="44.88232" lon="5.24269">
        <ele>1286.754883</ele>
        <time>2014-06-09T12:46:38Z</time>
      </trkpt>
      <trkpt lat="44.88229" lon="5.24269">
        <ele>1286.697021</ele>
        <time>2014-06-09T12:46:43Z</time>
      </trkpt>
      <trkpt lat="44.88224" lon="5.24268">
        <ele>1286.676758</ele>
        <time>2014-06-09T12:46:48Z</time>
      </trkpt>
      <trkpt lat="44.88218" lon="5.24267">
        <ele>1286.943359</ele>
        <time>2014-06-09T12:46:53Z</time>
      </trkpt>
      <trkpt lat="44.88215" lon="5.24266">
        <ele>1287.005615</ele>
        <time>2014-06-09T12:46:58Z</time>
      </trkpt>
      <trkpt lat="44.8821" lon="5.24266">
        <ele>1286.963623</ele>
        <time>2014-06-09T12:47:03Z</time>
      </trkpt>
      <trkpt lat="44.88205" lon="5.24265">
        <ele>1286.903687</ele>
        <time>2014-06-09T12:47:08Z</time>
      </trkpt>
      <trkpt lat="44.882" lon="5.24265">
        <ele>1286.905029</ele>
        <time>2014-06-09T12:47:13Z</time>
      </trkpt>
      <trkpt lat="44.88195" lon="5.24263">
        <ele>1287.235229</ele>
        <time>2014-06-09T12:47:18Z</time>
      </trkpt>
      <trkpt lat="44.88189" lon="5.24262">
        <ele>1287.50769</ele>
        <time>2014-06-09T12:47:23Z</time>
      </trkpt>
      <trkpt lat="44.88185" lon="5.24262">
        <ele>1287.584473</ele>
        <time>2014-06-09T12:47:28Z</time>
      </trkpt>
      <trkpt lat="44.88182" lon="5.24262">
        <ele>1287.618286</ele>
        <time>2014-06-09T12:47:33Z</time>
      </trkpt>
      <trkpt lat="44.88179" lon="5.24264">
        <ele>1287.19104</ele>
        <time>2014-06-09T12:47:38Z</time>
      </trkpt>
      <trkpt lat="44.88176" lon="5.24266">
        <ele>1286.77832</ele>
        <time>2014-06-09T12:47:43Z</time>
      </trkpt>
      <trkpt lat="44.8817" lon="5.24267">
        <ele>1286.620117</ele>
        <time>2014-06-09T12:47:48Z</time>
      </trkpt>
      <trkpt lat="44.88167" lon="5.24268">
        <ele>1286.40686</ele>
        <time>2014-06-09T12:47:53Z</time>
      </trkpt>
      <trkpt lat="44.88161" lon="5.2427">
        <ele>1286.047974</ele>
        <time>2014-06-09T12:47:58Z</time>
      </trkpt>
      <trkpt lat="44.88155" lon="5.2427">
        <ele>1286.140991</ele>
        <time>2014-06-09T12:48:03Z</time>
      </trkpt>
      <trkpt lat="44.8815" lon="5.24268">
        <ele>1286.534546</ele>
        <time>2014-06-09T12:48:08Z</time>
      </trkpt>
      <trkpt lat="44.88144" lon="5.24266">
        <ele>1287.036987</ele>
        <time>2014-06-09T12:48:13Z</time>
      </trkpt>
      <trkpt lat="44.88139" lon="5.24261">
        <ele>1287.953369</ele>
        <time>2014-06-09T12:48:18Z</time>
      </trkpt>
      <trkpt lat="44.88138" lon="5.24258">
        <ele>1288.725098</ele>
        <time>2014-06-09T12:48:23Z</time>
      </trkpt>
      <trkpt lat="44.88134" lon="5.24255">
        <ele>1289.51001</ele>
        <time>2014-06-09T12:48:28Z</time>
      </trkpt>
      <trkpt lat="44.8813" lon="5.24252">
        <ele>1290.126221</ele>
        <time>2014-06-09T12:48:33Z</time>
      </trkpt>
      <trkpt lat="44.88125" lon="5.24252">
        <ele>1290.0625</ele>
        <time>2014-06-09T12:48:38Z</time>
      </trkpt>
      <trkpt lat="44.8812" lon="5.24253">
        <ele>1289.871216</ele>
        <time>2014-06-09T12:48:43Z</time>
      </trkpt>
      <trkpt lat="44.88113" lon="5.24252">
        <ele>1289.998779</ele>
        <time>2014-06-09T12:48:48Z</time>
      </trkpt>
      <trkpt lat="44.88107" lon="5.24248">
        <ele>1291.019897</ele>
        <time>2014-06-09T12:48:53Z</time>
      </trkpt>
      <trkpt lat="44.88102" lon="5.24243">
        <ele>1292.2323</ele>
        <time>2014-06-09T12:48:58Z</time>
      </trkpt>
      <trkpt lat="44.88096" lon="5.24241">
        <ele>1292.711426</ele>
        <time>2014-06-09T12:49:03Z</time>
      </trkpt>
      <trkpt lat="44.88092" lon="5.24239">
        <ele>1293.166992</ele>
        <time>2014-06-09T12:49:08Z</time>
      </trkpt>
      <trkpt lat="44.88086" lon="5.24238">
        <ele>1293.414307</ele>
        <time>2014-06-09T12:49:13Z</time>
      </trkpt>
      <trkpt lat="44.88081" lon="5.24237">
        <ele>1293.776733</ele>
        <time>2014-06-09T12:49:18Z</time>
      </trkpt>
      <trkpt lat="44.88076" lon="5.24236">
        <ele>1294.050171</ele>
        <time>2014-06-09T12:49:23Z</time>
      </trkpt>
      <trkpt lat="44.88071" lon="5.24232">
        <ele>1294.952393</ele>
        <time>2014-06-09T12:49:28Z</time>
      </trkpt>
      <trkpt lat="44.88065" lon="5.24228">
        <ele>1296.144043</ele>
        <time>2014-06-09T12:49:33Z</time>
      </trkpt>
      <trkpt lat="44.88059" lon="5.24225">
        <ele>1296.903687</ele>
        <time>2014-06-09T12:49:38Z</time>
      </trkpt>
      <trkpt lat="44.88054" lon="5.24222">
        <ele>1297.687622</ele>
        <time>2014-06-09T12:49:43Z</time>
      </trkpt>
      <trkpt lat="44.88049" lon="5.2422">
        <ele>1298.130493</ele>
        <time>2014-06-09T12:49:48Z</time>
      </trkpt>
      <trkpt lat="44.88043" lon="5.24217">
        <ele>1298.810547</ele>
        <time>2014-06-09T12:49:53Z</time>
      </trkpt>
      <trkpt lat="44.88037" lon="5.24214">
        <ele>1299.58728</ele>
        <time>2014-06-09T12:49:58Z</time>
      </trkpt>
      <trkpt lat="44.88033" lon="5.2421">
        <ele>1300.456787</ele>
        <time>2014-06-09T12:50:03Z</time>
      </trkpt>
      <trkpt lat="44.88027" lon="5.24207">
        <ele>1301.237915</ele>
        <time>2014-06-09T12:50:08Z</time>
      </trkpt>
      <trkpt lat="44.88022" lon="5.24205">
        <ele>1301.790771</ele>
        <time>2014-06-09T12:50:13Z</time>
      </trkpt>
      <trkpt lat="44.88017" lon="5.24203">
        <ele>1302.261963</ele>
        <time>2014-06-09T12:50:18Z</time>
      </trkpt>
      <trkpt lat="44.88011" lon="5.24201">
        <ele>1303.080566</ele>
        <time>2014-06-09T12:50:23Z</time>
      </trkpt>
      <trkpt lat="44.88007" lon="5.24199">
        <ele>1303.623657</ele>
        <time>2014-06-09T12:50:28Z</time>
      </trkpt>
      <trkpt lat="44.88003" lon="5.24197">
        <ele>1304.217407</ele>
        <time>2014-06-09T12:50:33Z</time>
      </trkpt>
      <trkpt lat="44.87997" lon="5.24194">
        <ele>1305.256836</ele>
        <time>2014-06-09T12:50:38Z</time>
      </trkpt>
      <trkpt lat="44.87993" lon="5.24191">
        <ele>1306.068481</ele>
        <time>2014-06-09T12:50:43Z</time>
      </trkpt>
      <trkpt lat="44.87989" lon="5.24188">
        <ele>1307.132935</ele>
        <time>2014-06-09T12:50:48Z</time>
      </trkpt>
      <trkpt lat="44.87983" lon="5.24185">
        <ele>1307.838501</ele>
        <time>2014-06-09T12:50:53Z</time>
      </trkpt>
      <trkpt lat="44.8798" lon="5.24183">
        <ele>1308.505249</ele>
        <time>2014-06-09T12:50:58Z</time>
      </trkpt>
      <trkpt lat="44.87975" lon="5.24181">
        <ele>1308.912354</ele>
        <time>2014-06-09T12:51:03Z</time>
      </trkpt>
      <trkpt lat="44.87969" lon="5.24178">
        <ele>1309.543823</ele>
        <time>2014-06-09T12:51:08Z</time>
      </trkpt>
      <trkpt lat="44.87964" lon="5.24175">
        <ele>1310.098022</ele>
        <time>2014-06-09T12:51:13Z</time>
      </trkpt>
      <trkpt lat="44.87957" lon="5.24172">
        <ele>1310.671509</ele>
        <time>2014-06-09T12:51:18Z</time>
      </trkpt>
      <trkpt lat="44.87953" lon="5.24169">
        <ele>1311.294922</ele>
        <time>2014-06-09T12:51:23Z</time>
      </trkpt>
      <trkpt lat="44.87948" lon="5.24167">
        <ele>1311.585815</ele>
        <time>2014-06-09T12:51:28Z</time>
      </trkpt>
      <trkpt lat="44.87943" lon="5.24164">
        <ele>1312.016479</ele>
        <time>2014-06-09T12:51:33Z</time>
      </trkpt>
      <trkpt lat="44.87937" lon="5.24162">
        <ele>1312.43811</ele>
        <time>2014-06-09T12:51:38Z</time>
      </trkpt>
      <trkpt lat="44.87931" lon="5.24159">
        <ele>1312.912231</ele>
        <time>2014-06-09T12:51:43Z</time>
      </trkpt>
      <trkpt lat="44.87927" lon="5.24156">
        <ele>1313.392456</ele>
        <time>2014-06-09T12:51:48Z</time>
      </trkpt>
      <trkpt lat="44.87922" lon="5.24153">
        <ele>1313.79248</ele>
        <time>2014-06-09T12:51:53Z</time>
      </trkpt>
      <trkpt lat="44.87918" lon="5.2415">
        <ele>1314.246216</ele>
        <time>2014-06-09T12:51:58Z</time>
      </trkpt>
      <trkpt lat="44.87912" lon="5.24147">
        <ele>1314.69873</ele>
        <time>2014-06-09T12:52:03Z</time>
      </trkpt>
      <trkpt lat="44.87906" lon="5.24144">
        <ele>1315.22998</ele>
        <time>2014-06-09T12:52:08Z</time>
      </trkpt>
      <trkpt lat="44.87901" lon="5.2414">
        <ele>1315.780029</ele>
        <time>2014-06-09T12:52:13Z</time>
      </trkpt>
      <trkpt lat="44.87895" lon="5.24137">
        <ele>1316.132446</ele>
        <time>2014-06-09T12:52:18Z</time>
      </trkpt>
      <trkpt lat="44.87888" lon="5.24135">
        <ele>1316.515015</ele>
        <time>2014-06-09T12:52:23Z</time>
      </trkpt>
      <trkpt lat="44.87882" lon="5.24131">
        <ele>1316.99292</ele>
        <time>2014-06-09T12:52:28Z</time>
      </trkpt>
      <trkpt lat="44.87877" lon="5.24126">
        <ele>1317.566284</ele>
        <time>2014-06-09T12:52:33Z</time>
      </trkpt>
      <trkpt lat="44.87873" lon="5.24121">
        <ele>1318.222412</ele>
        <time>2014-06-09T12:52:38Z</time>
      </trkpt>
      <trkpt lat="44.87869" lon="5.24114">
        <ele>1319.082886</ele>
        <time>2014-06-09T12:52:43Z</time>
      </trkpt>
      <trkpt lat="44.87865" lon="5.24106">
        <ele>1319.823242</ele>
        <time>2014-06-09T12:52:48Z</time>
      </trkpt>
      <trkpt lat="44.87861" lon="5.24099">
        <ele>1320.522461</ele>
        <time>2014-06-09T12:52:53Z</time>
      </trkpt>
      <trkpt lat="44.87856" lon="5.24094">
        <ele>1320.952148</ele>
        <time>2014-06-09T12:52:58Z</time>
      </trkpt>
      <trkpt lat="44.87853" lon="5.24089">
        <ele>1321.498901</ele>
        <time>2014-06-09T12:53:03Z</time>
      </trkpt>
      <trkpt lat="44.8785" lon="5.24082">
        <ele>1322.419678</ele>
        <time>2014-06-09T12:53:08Z</time>
      </trkpt>
      <trkpt lat="44.87848" lon="5.24075">
        <ele>1323.418213</ele>
        <time>2014-06-09T12:53:13Z</time>
      </trkpt>
      <trkpt lat="44.87846" lon="5.24067">
        <ele>1324.584595</ele>
        <time>2014-06-09T12:53:18Z</time>
      </trkpt>
      <trkpt lat="44.87844" lon="5.2406">
        <ele>1325.684326</ele>
        <time>2014-06-09T12:53:23Z</time>
      </trkpt>
      <trkpt lat="44.87841" lon="5.24054">
        <ele>1326.517944</ele>
        <time>2014-06-09T12:53:28Z</time>
      </trkpt>
      <trkpt lat="44.87839" lon="5.24046">
        <ele>1326.117676</ele>
        <time>2014-06-09T12:53:33Z</time>
      </trkpt>
      <trkpt lat="44.87837" lon="5.24039">
        <ele>1325.405273</ele>
        <time>2014-06-09T12:53:38Z</time>
      </trkpt>
      <trkpt lat="44.87833" lon="5.24032">
        <ele>1324.69104</ele>
        <time>2014-06-09T12:53:43Z</time>
      </trkpt>
      <trkpt lat="44.8783" lon="5.24026">
        <ele>1324.104492</ele>
        <time>2014-06-09T12:53:48Z</time>
      </trkpt>
      <trkpt lat="44.87826" lon="5.2402">
        <ele>1323.55896</ele>
        <time>2014-06-09T12:53:53Z</time>
      </trkpt>
      <trkpt lat="44.87823" lon="5.24014">
        <ele>1323.101196</ele>
        <time>2014-06-09T12:53:58Z</time>
      </trkpt>
      <trkpt lat="44.87822" lon="5.24007">
        <ele>1322.758667</ele>
        <time>2014-06-09T12:54:03Z</time>
      </trkpt>
      <trkpt lat="44.8782" lon="5.24002">
        <ele>1322.543457</ele>
        <time>2014-06-09T12:54:08Z</time>
      </trkpt>
      <trkpt lat="44.8782" lon="5.24002">
        <ele>1322.526123</ele>
        <time>2014-06-09T12:54:13Z</time>
      </trkpt>
      <trkpt lat="44.8782" lon="5.24001">
        <ele>1322.48645</ele>
        <time>2014-06-09T12:54:18Z</time>
      </trkpt>
      <trkpt lat="44.8782" lon="5.24001">
        <ele>1322.497803</ele>
        <time>2014-06-09T12:54:23Z</time>
      </trkpt>
      <trkpt lat="44.8782" lon="5.24">
        <ele>1322.480103</ele>
        <time>2014-06-09T12:54:28Z</time>
      </trkpt>
      <trkpt lat="44.87817" lon="5.24">
        <ele>1322.402466</ele>
        <time>2014-06-09T12:54:33Z</time>
      </trkpt>
      <trkpt lat="44.87817" lon="5.24">
        <ele>1322.394897</ele>
        <time>2014-06-09T12:54:38Z</time>
      </trkpt>
      <trkpt lat="44.87816" lon="5.24">
        <ele>1322.372681</ele>
        <time>2014-06-09T12:54:43Z</time>
      </trkpt>
      <trkpt lat="44.87816" lon="5.23999">
        <ele>1322.360596</ele>
        <time>2014-06-09T12:54:48Z</time>
      </trkpt>
      <trkpt lat="44.87816" lon="5.23998">
        <ele>1322.319214</ele>
        <time>2014-06-09T12:54:53Z</time>
      </trkpt>
      <trkpt lat="44.87814" lon="5.23999">
        <ele>1322.297241</ele>
        <time>2014-06-09T12:54:58Z</time>
      </trkpt>
      <trkpt lat="44.87811" lon="5.23998">
        <ele>1322.244141</ele>
        <time>2014-06-09T12:55:03Z</time>
      </trkpt>
      <trkpt lat="44.87809" lon="5.23998">
        <ele>1322.198853</ele>
        <time>2014-06-09T12:55:08Z</time>
      </trkpt>
      <trkpt lat="44.87807" lon="5.23998">
        <ele>1322.145264</ele>
        <time>2014-06-09T12:55:13Z</time>
      </trkpt>
      <trkpt lat="44.87807" lon="5.23998">
        <ele>1322.145264</ele>
        <time>2014-06-09T12:55:18Z</time>
      </trkpt>
      <trkpt lat="44.87806" lon="5.23998">
        <ele>1322.136597</ele>
        <time>2014-06-09T12:55:23Z</time>
      </trkpt>
      <trkpt lat="44.87806" lon="5.23998">
        <ele>1322.13855</ele>
        <time>2014-06-09T12:55:28Z</time>
      </trkpt>
      <trkpt lat="44.87806" lon="5.23998">
        <ele>1322.122925</ele>
        <time>2014-06-09T12:55:33Z</time>
      </trkpt>
      <trkpt lat="44.87803" lon="5.23998">
        <ele>1322.067383</ele>
        <time>2014-06-09T12:55:38Z</time>
      </trkpt>
      <trkpt lat="44.87798" lon="5.23999">
        <ele>1321.967896</ele>
        <time>2014-06-09T12:55:43Z</time>
      </trkpt>
      <trkpt lat="44.87792" lon="5.23999">
        <ele>1321.873047</ele>
        <time>2014-06-09T12:55:48Z</time>
      </trkpt>
      <trkpt lat="44.87787" lon="5.23999">
        <ele>1321.77417</ele>
        <time>2014-06-09T12:55:53Z</time>
      </trkpt>
      <trkpt lat="44.87781" lon="5.23998">
        <ele>1321.676147</ele>
        <time>2014-06-09T12:55:58Z</time>
      </trkpt>
      <trkpt lat="44.87776" lon="5.23999">
        <ele>1321.596436</ele>
        <time>2014-06-09T12:56:03Z</time>
      </trkpt>
      <trkpt lat="44.87771" lon="5.24002">
        <ele>1321.542114</ele>
        <time>2014-06-09T12:56:08Z</time>
      </trkpt>
      <trkpt lat="44.87767" lon="5.24002">
        <ele>1321.479858</ele>
        <time>2014-06-09T12:56:13Z</time>
      </trkpt>
      <trkpt lat="44.87762" lon="5.24001">
        <ele>1321.388306</ele>
        <time>2014-06-09T12:56:18Z</time>
      </trkpt>
      <trkpt lat="44.87756" lon="5.24">
        <ele>1321.289673</ele>
        <time>2014-06-09T12:56:23Z</time>
      </trkpt>
      <trkpt lat="44.87752" lon="5.23998">
        <ele>1321.233765</ele>
        <time>2014-06-09T12:56:28Z</time>
      </trkpt>
      <trkpt lat="44.87748" lon="5.23997">
        <ele>1321.21875</ele>
        <time>2014-06-09T12:56:33Z</time>
      </trkpt>
      <trkpt lat="44.87747" lon="5.23997">
        <ele>1321.216309</ele>
        <time>2014-06-09T12:56:38Z</time>
      </trkpt>
      <trkpt lat="44.87746" lon="5.23997">
        <ele>1321.212524</ele>
        <time>2014-06-09T12:56:43Z</time>
      </trkpt>
      <trkpt lat="44.87745" lon="5.23997">
        <ele>1321.213745</ele>
        <time>2014-06-09T12:56:48Z</time>
      </trkpt>
      <trkpt lat="44.87745" lon="5.23997">
        <ele>1321.213745</ele>
        <time>2014-06-09T12:56:53Z</time>
      </trkpt>
      <trkpt lat="44.87744" lon="5.23997">
        <ele>1321.213745</ele>
        <time>2014-06-09T12:56:58Z</time>
      </trkpt>
      <trkpt lat="44.87739" lon="5.23997">
        <ele>1321.223755</ele>
        <time>2014-06-09T12:57:03Z</time>
      </trkpt>
      <trkpt lat="44.87734" lon="5.23997">
        <ele>1321.221191</ele>
        <time>2014-06-09T12:57:08Z</time>
      </trkpt>
      <trkpt lat="44.8773" lon="5.23996">
        <ele>1321.214966</ele>
        <time>2014-06-09T12:57:13Z</time>
      </trkpt>
      <trkpt lat="44.87725" lon="5.23997">
        <ele>1321.23999</ele>
        <time>2014-06-09T12:57:18Z</time>
      </trkpt>
      <trkpt lat="44.8772" lon="5.23998">
        <ele>1321.253784</ele>
        <time>2014-06-09T12:57:23Z</time>
      </trkpt>
      <trkpt lat="44.87719" lon="5.23998">
        <ele>1321.258789</ele>
        <time>2014-06-09T12:57:28Z</time>
      </trkpt>
      <trkpt lat="44.87715" lon="5.23998">
        <ele>1321.253784</ele>
        <time>2014-06-09T12:57:33Z</time>
      </trkpt>
      <trkpt lat="44.87708" lon="5.23998">
        <ele>1321.266235</ele>
        <time>2014-06-09T12:57:38Z</time>
      </trkpt>
      <trkpt lat="44.87703" lon="5.23998">
        <ele>1321.27124</ele>
        <time>2014-06-09T12:57:43Z</time>
      </trkpt>
      <trkpt lat="44.87699" lon="5.23998">
        <ele>1321.263794</ele>
        <time>2014-06-09T12:57:48Z</time>
      </trkpt>
      <trkpt lat="44.87693" lon="5.23998">
        <ele>1321.278809</ele>
        <time>2014-06-09T12:57:53Z</time>
      </trkpt>
      <trkpt lat="44.87688" lon="5.24">
        <ele>1321.305054</ele>
        <time>2014-06-09T12:57:58Z</time>
      </trkpt>
      <trkpt lat="44.87682" lon="5.24">
        <ele>1321.3125</ele>
        <time>2014-06-09T12:58:03Z</time>
      </trkpt>
      <trkpt lat="44.87676" lon="5.24001">
        <ele>1321.33374</ele>
        <time>2014-06-09T12:58:08Z</time>
      </trkpt>
      <trkpt lat="44.87673" lon="5.24001">
        <ele>1321.338745</ele>
        <time>2014-06-09T12:58:13Z</time>
      </trkpt>
      <trkpt lat="44.87673" lon="5.24001">
        <ele>1321.338745</ele>
        <time>2014-06-09T12:58:18Z</time>
      </trkpt>
      <trkpt lat="44.87673" lon="5.24001">
        <ele>1321.338745</ele>
        <time>2014-06-09T12:58:23Z</time>
      </trkpt>
      <trkpt lat="44.87673" lon="5.24001">
        <ele>1321.338745</ele>
        <time>2014-06-09T12:58:28Z</time>
      </trkpt>
      <trkpt lat="44.87673" lon="5.24001">
        <ele>1321.334961</ele>
        <time>2014-06-09T12:58:33Z</time>
      </trkpt>
      <trkpt lat="44.87673" lon="5.24001">
        <ele>1321.341309</ele>
        <time>2014-06-09T12:58:38Z</time>
      </trkpt>
      <trkpt lat="44.87669" lon="5.24001">
        <ele>1321.338745</ele>
        <time>2014-06-09T12:58:43Z</time>
      </trkpt>
      <trkpt lat="44.87669" lon="5.24001">
        <ele>1321.341309</ele>
        <time>2014-06-09T12:58:48Z</time>
      </trkpt>
      <trkpt lat="44.87662" lon="5.24">
        <ele>1321.320313</ele>
        <time>2014-06-09T12:58:53Z</time>
      </trkpt>
      <trkpt lat="44.87658" lon="5.24001">
        <ele>1321.297485</ele>
        <time>2014-06-09T12:58:58Z</time>
      </trkpt>
      <trkpt lat="44.87657" lon="5.24001">
        <ele>1321.300171</ele>
        <time>2014-06-09T12:59:03Z</time>
      </trkpt>
      <trkpt lat="44.87657" lon="5.24001">
        <ele>1321.29541</ele>
        <time>2014-06-09T12:59:08Z</time>
      </trkpt>
      <trkpt lat="44.87651" lon="5.24003">
        <ele>1321.2677</ele>
        <time>2014-06-09T12:59:13Z</time>
      </trkpt>
      <trkpt lat="44.87644" lon="5.24003">
        <ele>1321.221313</ele>
        <time>2014-06-09T12:59:18Z</time>
      </trkpt>
      <trkpt lat="44.87639" lon="5.24005">
        <ele>1321.182251</ele>
        <time>2014-06-09T12:59:23Z</time>
      </trkpt>
      <trkpt lat="44.87633" lon="5.24006">
        <ele>1321.138062</ele>
        <time>2014-06-09T12:59:28Z</time>
      </trkpt>
      <trkpt lat="44.87628" lon="5.24007">
        <ele>1321.090698</ele>
        <time>2014-06-09T12:59:33Z</time>
      </trkpt>
      <trkpt lat="44.87623" lon="5.24007">
        <ele>1321.0354</ele>
        <time>2014-06-09T12:59:38Z</time>
      </trkpt>
      <trkpt lat="44.87618" lon="5.24006">
        <ele>1320.941772</ele>
        <time>2014-06-09T12:59:43Z</time>
      </trkpt>
      <trkpt lat="44.87612" lon="5.24005">
        <ele>1320.7146</ele>
        <time>2014-06-09T12:59:48Z</time>
      </trkpt>
      <trkpt lat="44.87606" lon="5.24004">
        <ele>1320.473145</ele>
        <time>2014-06-09T12:59:53Z</time>
      </trkpt>
      <trkpt lat="44.876" lon="5.24004">
        <ele>1320.218018</ele>
        <time>2014-06-09T12:59:58Z</time>
      </trkpt>
      <trkpt lat="44.87594" lon="5.24004">
        <ele>1320.013184</ele>
        <time>2014-06-09T13:00:03Z</time>
      </trkpt>
      <trkpt lat="44.87588" lon="5.24006">
        <ele>1319.918823</ele>
        <time>2014-06-09T13:00:08Z</time>
      </trkpt>
      <trkpt lat="44.87582" lon="5.24007">
        <ele>1319.817261</ele>
        <time>2014-06-09T13:00:13Z</time>
      </trkpt>
      <trkpt lat="44.87576" lon="5.24009">
        <ele>1319.802734</ele>
        <time>2014-06-09T13:00:18Z</time>
      </trkpt>
      <trkpt lat="44.8757" lon="5.24011">
        <ele>1319.51709</ele>
        <time>2014-06-09T13:00:23Z</time>
      </trkpt>
      <trkpt lat="44.8757" lon="5.24011">
        <ele>1319.452515</ele>
        <time>2014-06-09T13:00:28Z</time>
      </trkpt>
      <trkpt lat="44.87569" lon="5.24011">
        <ele>1319.470337</ele>
        <time>2014-06-09T13:00:33Z</time>
      </trkpt>
      <trkpt lat="44.87564" lon="5.24013">
        <ele>1319.314819</ele>
        <time>2014-06-09T13:00:38Z</time>
      </trkpt>
      <trkpt lat="44.87559" lon="5.24016">
        <ele>1319.428833</ele>
        <time>2014-06-09T13:00:43Z</time>
      </trkpt>
      <trkpt lat="44.87553" lon="5.2402">
        <ele>1319.998779</ele>
        <time>2014-06-09T13:00:48Z</time>
      </trkpt>
      <trkpt lat="44.87548" lon="5.24022">
        <ele>1320.39856</ele>
        <time>2014-06-09T13:00:53Z</time>
      </trkpt>
      <trkpt lat="44.87542" lon="5.24025">
        <ele>1321.268433</ele>
        <time>2014-06-09T13:00:58Z</time>
      </trkpt>
      <trkpt lat="44.87537" lon="5.2403">
        <ele>1322.657227</ele>
        <time>2014-06-09T13:01:03Z</time>
      </trkpt>
      <trkpt lat="44.87531" lon="5.24033">
        <ele>1324.150391</ele>
        <time>2014-06-09T13:01:08Z</time>
      </trkpt>
      <trkpt lat="44.87525" lon="5.24037">
        <ele>1324.592041</ele>
        <time>2014-06-09T13:01:13Z</time>
      </trkpt>
      <trkpt lat="44.8752" lon="5.2404">
        <ele>1323.805054</ele>
        <time>2014-06-09T13:01:18Z</time>
      </trkpt>
      <trkpt lat="44.87514" lon="5.24043">
        <ele>1323.01355</ele>
        <time>2014-06-09T13:01:23Z</time>
      </trkpt>
      <trkpt lat="44.87509" lon="5.24048">
        <ele>1322.173706</ele>
        <time>2014-06-09T13:01:28Z</time>
      </trkpt>
      <trkpt lat="44.87504" lon="5.24051">
        <ele>1321.59314</ele>
        <time>2014-06-09T13:01:33Z</time>
      </trkpt>
      <trkpt lat="44.87498" lon="5.24054">
        <ele>1321.057007</ele>
        <time>2014-06-09T13:01:38Z</time>
      </trkpt>
      <trkpt lat="44.87493" lon="5.24057">
        <ele>1320.477661</ele>
        <time>2014-06-09T13:01:43Z</time>
      </trkpt>
      <trkpt lat="44.87488" lon="5.24062">
        <ele>1319.826416</ele>
        <time>2014-06-09T13:01:48Z</time>
      </trkpt>
      <trkpt lat="44.87483" lon="5.24066">
        <ele>1319.297852</ele>
        <time>2014-06-09T13:01:53Z</time>
      </trkpt>
      <trkpt lat="44.87478" lon="5.2407">
        <ele>1317.407227</ele>
        <time>2014-06-09T13:01:58Z</time>
      </trkpt>
      <trkpt lat="44.87471" lon="5.24072">
        <ele>1315.588745</ele>
        <time>2014-06-09T13:02:03Z</time>
      </trkpt>
      <trkpt lat="44.87466" lon="5.24074">
        <ele>1314.229248</ele>
        <time>2014-06-09T13:02:08Z</time>
      </trkpt>
      <trkpt lat="44.87461" lon="5.24077">
        <ele>1313.285034</ele>
        <time>2014-06-09T13:02:13Z</time>
      </trkpt>
      <trkpt lat="44.87457" lon="5.24081">
        <ele>1312.695068</ele>
        <time>2014-06-09T13:02:18Z</time>
      </trkpt>
      <trkpt lat="44.87454" lon="5.24082">
        <ele>1312.401733</ele>
        <time>2014-06-09T13:02:23Z</time>
      </trkpt>
      <trkpt lat="44.87452" lon="5.24083">
        <ele>1312.253784</ele>
        <time>2014-06-09T13:02:28Z</time>
      </trkpt>
      <trkpt lat="44.87452" lon="5.24083">
        <ele>1312.253784</ele>
        <time>2014-06-09T13:02:33Z</time>
      </trkpt>
      <trkpt lat="44.8745" lon="5.24085">
        <ele>1312.17627</ele>
        <time>2014-06-09T13:02:38Z</time>
      </trkpt>
      <trkpt lat="44.87448" lon="5.24086">
        <ele>1312.088745</ele>
        <time>2014-06-09T13:02:43Z</time>
      </trkpt>
      <trkpt lat="44.87443" lon="5.2409">
        <ele>1312.368774</ele>
        <time>2014-06-09T13:02:48Z</time>
      </trkpt>
      <trkpt lat="44.87439" lon="5.24093">
        <ele>1313.003418</ele>
        <time>2014-06-09T13:02:53Z</time>
      </trkpt>
      <trkpt lat="44.87435" lon="5.24093">
        <ele>1312.522949</ele>
        <time>2014-06-09T13:02:58Z</time>
      </trkpt>
      <trkpt lat="44.8743" lon="5.24095">
        <ele>1311.315796</ele>
        <time>2014-06-09T13:03:03Z</time>
      </trkpt>
      <trkpt lat="44.87426" lon="5.24099">
        <ele>1310.230347</ele>
        <time>2014-06-09T13:03:08Z</time>
      </trkpt>
      <trkpt lat="44.87423" lon="5.24103">
        <ele>1309.257813</ele>
        <time>2014-06-09T13:03:13Z</time>
      </trkpt>
      <trkpt lat="44.87417" lon="5.24105">
        <ele>1308.063232</ele>
        <time>2014-06-09T13:03:18Z</time>
      </trkpt>
      <trkpt lat="44.87412" lon="5.24109">
        <ele>1307.206421</ele>
        <time>2014-06-09T13:03:23Z</time>
      </trkpt>
      <trkpt lat="44.87407" lon="5.24112">
        <ele>1306.295288</ele>
        <time>2014-06-09T13:03:28Z</time>
      </trkpt>
      <trkpt lat="44.87402" lon="5.24115">
        <ele>1305.640991</ele>
        <time>2014-06-09T13:03:33Z</time>
      </trkpt>
      <trkpt lat="44.87397" lon="5.24116">
        <ele>1304.777344</ele>
        <time>2014-06-09T13:03:38Z</time>
      </trkpt>
      <trkpt lat="44.87391" lon="5.24117">
        <ele>1303.976563</ele>
        <time>2014-06-09T13:03:43Z</time>
      </trkpt>
      <trkpt lat="44.87385" lon="5.24117">
        <ele>1303.32959</ele>
        <time>2014-06-09T13:03:48Z</time>
      </trkpt>
      <trkpt lat="44.87379" lon="5.24115">
        <ele>1302.612061</ele>
        <time>2014-06-09T13:03:53Z</time>
      </trkpt>
      <trkpt lat="44.87373" lon="5.24114">
        <ele>1301.885132</ele>
        <time>2014-06-09T13:03:58Z</time>
      </trkpt>
      <trkpt lat="44.87367" lon="5.24112">
        <ele>1300.98584</ele>
        <time>2014-06-09T13:04:03Z</time>
      </trkpt>
      <trkpt lat="44.8736" lon="5.24112">
        <ele>1300.338013</ele>
        <time>2014-06-09T13:04:08Z</time>
      </trkpt>
      <trkpt lat="44.87354" lon="5.24112">
        <ele>1299.657227</ele>
        <time>2014-06-09T13:04:13Z</time>
      </trkpt>
      <trkpt lat="44.87347" lon="5.24112">
        <ele>1298.980835</ele>
        <time>2014-06-09T13:04:18Z</time>
      </trkpt>
      <trkpt lat="44.87342" lon="5.24111">
        <ele>1298.476563</ele>
        <time>2014-06-09T13:04:23Z</time>
      </trkpt>
      <trkpt lat="44.87337" lon="5.2411">
        <ele>1297.881714</ele>
        <time>2014-06-09T13:04:28Z</time>
      </trkpt>
      <trkpt lat="44.87331" lon="5.24107">
        <ele>1297.108398</ele>
        <time>2014-06-09T13:04:33Z</time>
      </trkpt>
      <trkpt lat="44.87327" lon="5.24103">
        <ele>1296.208374</ele>
        <time>2014-06-09T13:04:38Z</time>
      </trkpt>
      <trkpt lat="44.87322" lon="5.24098">
        <ele>1295.169067</ele>
        <time>2014-06-09T13:04:43Z</time>
      </trkpt>
      <trkpt lat="44.87317" lon="5.24096">
        <ele>1294.469971</ele>
        <time>2014-06-09T13:04:48Z</time>
      </trkpt>
      <trkpt lat="44.87311" lon="5.24096">
        <ele>1294.008667</ele>
        <time>2014-06-09T13:04:53Z</time>
      </trkpt>
      <trkpt lat="44.87305" lon="5.24097">
        <ele>1293.61145</ele>
        <time>2014-06-09T13:04:58Z</time>
      </trkpt>
      <trkpt lat="44.87299" lon="5.24096">
        <ele>1292.8927</ele>
        <time>2014-06-09T13:05:03Z</time>
      </trkpt>
      <trkpt lat="44.87292" lon="5.24096">
        <ele>1291.951782</ele>
        <time>2014-06-09T13:05:08Z</time>
      </trkpt>
      <trkpt lat="44.87286" lon="5.24096">
        <ele>1291.089233</ele>
        <time>2014-06-09T13:05:13Z</time>
      </trkpt>
      <trkpt lat="44.8728" lon="5.24096">
        <ele>1290.132568</ele>
        <time>2014-06-09T13:05:18Z</time>
      </trkpt>
      <trkpt lat="44.87275" lon="5.24095">
        <ele>1289.184937</ele>
        <time>2014-06-09T13:05:23Z</time>
      </trkpt>
      <trkpt lat="44.87275" lon="5.24094">
        <ele>1289.033691</ele>
        <time>2014-06-09T13:05:28Z</time>
      </trkpt>
      <trkpt lat="44.87275" lon="5.24094">
        <ele>1289.08313</ele>
        <time>2014-06-09T13:05:33Z</time>
      </trkpt>
      <trkpt lat="44.87275" lon="5.24094">
        <ele>1289.08313</ele>
        <time>2014-06-09T13:05:38Z</time>
      </trkpt>
      <trkpt lat="44.87275" lon="5.24093">
        <ele>1288.780029</ele>
        <time>2014-06-09T13:05:43Z</time>
      </trkpt>
      <trkpt lat="44.87274" lon="5.24095">
        <ele>1289.057739</ele>
        <time>2014-06-09T13:05:48Z</time>
      </trkpt>
      <trkpt lat="44.87269" lon="5.24095">
        <ele>1288.381592</ele>
        <time>2014-06-09T13:05:53Z</time>
      </trkpt>
      <trkpt lat="44.87267" lon="5.24095">
        <ele>1288.002075</ele>
        <time>2014-06-09T13:05:58Z</time>
      </trkpt>
      <trkpt lat="44.87267" lon="5.24095">
        <ele>1287.965942</ele>
        <time>2014-06-09T13:06:03Z</time>
      </trkpt>
      <trkpt lat="44.87267" lon="5.24095">
        <ele>1288.092529</ele>
        <time>2014-06-09T13:06:08Z</time>
      </trkpt>
      <trkpt lat="44.87267" lon="5.24095">
        <ele>1288.056396</ele>
        <time>2014-06-09T13:06:13Z</time>
      </trkpt>
      <trkpt lat="44.87266" lon="5.24096">
        <ele>1288.098999</ele>
        <time>2014-06-09T13:06:18Z</time>
      </trkpt>
      <trkpt lat="44.87262" lon="5.24097">
        <ele>1287.975464</ele>
        <time>2014-06-09T13:06:23Z</time>
      </trkpt>
      <trkpt lat="44.87262" lon="5.24097">
        <ele>1288.025024</ele>
        <time>2014-06-09T13:06:28Z</time>
      </trkpt>
      <trkpt lat="44.87263" lon="5.24098">
        <ele>1288.22522</ele>
        <time>2014-06-09T13:06:33Z</time>
      </trkpt>
      <trkpt lat="44.87263" lon="5.24098">
        <ele>1288.262939</ele>
        <time>2014-06-09T13:06:38Z</time>
      </trkpt>
      <trkpt lat="44.87263" lon="5.24098">
        <ele>1288.22522</ele>
        <time>2014-06-09T13:06:43Z</time>
      </trkpt>
      <trkpt lat="44.87263" lon="5.24098">
        <ele>1288.262939</ele>
        <time>2014-06-09T13:06:48Z</time>
      </trkpt>
      <trkpt lat="44.87259" lon="5.24098">
        <ele>1287.829712</ele>
        <time>2014-06-09T13:06:53Z</time>
      </trkpt>
      <trkpt lat="44.87256" lon="5.241">
        <ele>1287.831177</ele>
        <time>2014-06-09T13:06:58Z</time>
      </trkpt>
      <trkpt lat="44.87251" lon="5.24103">
        <ele>1288.491821</ele>
        <time>2014-06-09T13:07:03Z</time>
      </trkpt>
      <trkpt lat="44.87247" lon="5.24106">
        <ele>1289.110596</ele>
        <time>2014-06-09T13:07:08Z</time>
      </trkpt>
      <trkpt lat="44.87242" lon="5.24109">
        <ele>1289.835938</ele>
        <time>2014-06-09T13:07:13Z</time>
      </trkpt>
      <trkpt lat="44.87237" lon="5.24112">
        <ele>1290.592163</ele>
        <time>2014-06-09T13:07:18Z</time>
      </trkpt>
      <trkpt lat="44.87232" lon="5.24116">
        <ele>1291.571045</ele>
        <time>2014-06-09T13:07:23Z</time>
      </trkpt>
      <trkpt lat="44.87228" lon="5.24119">
        <ele>1292.248901</ele>
        <time>2014-06-09T13:07:28Z</time>
      </trkpt>
      <trkpt lat="44.87225" lon="5.24119">
        <ele>1292.332275</ele>
        <time>2014-06-09T13:07:33Z</time>
      </trkpt>
      <trkpt lat="44.87224" lon="5.2412">
        <ele>1292.515259</ele>
        <time>2014-06-09T13:07:38Z</time>
      </trkpt>
      <trkpt lat="44.8722" lon="5.24122">
        <ele>1293.331543</ele>
        <time>2014-06-09T13:07:43Z</time>
      </trkpt>
      <trkpt lat="44.87217" lon="5.24125">
        <ele>1294.081543</ele>
        <time>2014-06-09T13:07:48Z</time>
      </trkpt>
      <trkpt lat="44.87213" lon="5.24128">
        <ele>1295.085083</ele>
        <time>2014-06-09T13:07:53Z</time>
      </trkpt>
      <trkpt lat="44.87208" lon="5.2413">
        <ele>1296.19397</ele>
        <time>2014-06-09T13:07:58Z</time>
      </trkpt>
      <trkpt lat="44.87204" lon="5.24132">
        <ele>1297.793701</ele>
        <time>2014-06-09T13:08:03Z</time>
      </trkpt>
      <trkpt lat="44.872" lon="5.24135">
        <ele>1299.405273</ele>
        <time>2014-06-09T13:08:08Z</time>
      </trkpt>
      <trkpt lat="44.87196" lon="5.24137">
        <ele>1301.225586</ele>
        <time>2014-06-09T13:08:13Z</time>
      </trkpt>
      <trkpt lat="44.87191" lon="5.2414">
        <ele>1303.015015</ele>
        <time>2014-06-09T13:08:18Z</time>
      </trkpt>
      <trkpt lat="44.87188" lon="5.24142">
        <ele>1304.53479</ele>
        <time>2014-06-09T13:08:23Z</time>
      </trkpt>
      <trkpt lat="44.87184" lon="5.24144">
        <ele>1306.231445</ele>
        <time>2014-06-09T13:08:28Z</time>
      </trkpt>
      <trkpt lat="44.8718" lon="5.24146">
        <ele>1307.225586</ele>
        <time>2014-06-09T13:08:33Z</time>
      </trkpt>
      <trkpt lat="44.87176" lon="5.24149">
        <ele>1308.193359</ele>
        <time>2014-06-09T13:08:38Z</time>
      </trkpt>
      <trkpt lat="44.87172" lon="5.24151">
        <ele>1309.04187</ele>
        <time>2014-06-09T13:08:43Z</time>
      </trkpt>
      <trkpt lat="44.87169" lon="5.24153">
        <ele>1309.831055</ele>
        <time>2014-06-09T13:08:48Z</time>
      </trkpt>
      <trkpt lat="44.87165" lon="5.24156">
        <ele>1310.694214</ele>
        <time>2014-06-09T13:08:53Z</time>
      </trkpt>
      <trkpt lat="44.8716" lon="5.24158">
        <ele>1311.786377</ele>
        <time>2014-06-09T13:08:58Z</time>
      </trkpt>
      <trkpt lat="44.87156" lon="5.24159">
        <ele>1312.759277</ele>
        <time>2014-06-09T13:09:03Z</time>
      </trkpt>
      <trkpt lat="44.87152" lon="5.24159">
        <ele>1313.570068</ele>
        <time>2014-06-09T13:09:08Z</time>
      </trkpt>
      <trkpt lat="44.87149" lon="5.24159">
        <ele>1314.348267</ele>
        <time>2014-06-09T13:09:13Z</time>
      </trkpt>
      <trkpt lat="44.87145" lon="5.2416">
        <ele>1315.217163</ele>
        <time>2014-06-09T13:09:18Z</time>
      </trkpt>
      <trkpt lat="44.87141" lon="5.2416">
        <ele>1316.064819</ele>
        <time>2014-06-09T13:09:23Z</time>
      </trkpt>
      <trkpt lat="44.87138" lon="5.2416">
        <ele>1316.786743</ele>
        <time>2014-06-09T13:09:28Z</time>
      </trkpt>
      <trkpt lat="44.87133" lon="5.2416">
        <ele>1317.735596</ele>
        <time>2014-06-09T13:09:33Z</time>
      </trkpt>
      <trkpt lat="44.8713" lon="5.2416">
        <ele>1318.506226</ele>
        <time>2014-06-09T13:09:38Z</time>
      </trkpt>
      <trkpt lat="44.87126" lon="5.24161">
        <ele>1319.381592</ele>
        <time>2014-06-09T13:09:43Z</time>
      </trkpt>
      <trkpt lat="44.87122" lon="5.24161">
        <ele>1320.322876</ele>
        <time>2014-06-09T13:09:48Z</time>
      </trkpt>
      <trkpt lat="44.87117" lon="5.2416">
        <ele>1320.651855</ele>
        <time>2014-06-09T13:09:53Z</time>
      </trkpt>
      <trkpt lat="44.87113" lon="5.24162">
        <ele>1320.782959</ele>
        <time>2014-06-09T13:09:58Z</time>
      </trkpt>
      <trkpt lat="44.87109" lon="5.24162">
        <ele>1320.880005</ele>
        <time>2014-06-09T13:10:03Z</time>
      </trkpt>
      <trkpt lat="44.87104" lon="5.24163">
        <ele>1321.088013</ele>
        <time>2014-06-09T13:10:08Z</time>
      </trkpt>
      <trkpt lat="44.87099" lon="5.24164">
        <ele>1321.280273</ele>
        <time>2014-06-09T13:10:13Z</time>
      </trkpt>
      <trkpt lat="44.87094" lon="5.24165">
        <ele>1321.499023</ele>
        <time>2014-06-09T13:10:18Z</time>
      </trkpt>
      <trkpt lat="44.87089" lon="5.24165">
        <ele>1321.702881</ele>
        <time>2014-06-09T13:10:23Z</time>
      </trkpt>
      <trkpt lat="44.87088" lon="5.24165">
        <ele>1321.744751</ele>
        <time>2014-06-09T13:10:28Z</time>
      </trkpt>
      <trkpt lat="44.87087" lon="5.24165">
        <ele>1321.760498</ele>
        <time>2014-06-09T13:10:33Z</time>
      </trkpt>
      <trkpt lat="44.87082" lon="5.24165">
        <ele>1321.99939</ele>
        <time>2014-06-09T13:10:38Z</time>
      </trkpt>
      <trkpt lat="44.87079" lon="5.24165">
        <ele>1322.080933</ele>
        <time>2014-06-09T13:10:43Z</time>
      </trkpt>
      <trkpt lat="44.87079" lon="5.24165">
        <ele>1322.104248</ele>
        <time>2014-06-09T13:10:48Z</time>
      </trkpt>
      <trkpt lat="44.87077" lon="5.24165">
        <ele>1322.113281</ele>
        <time>2014-06-09T13:10:53Z</time>
      </trkpt>
      <trkpt lat="44.87075" lon="5.24165">
        <ele>1322.221558</ele>
        <time>2014-06-09T13:10:58Z</time>
      </trkpt>
      <trkpt lat="44.87071" lon="5.24165">
        <ele>1322.538208</ele>
        <time>2014-06-09T13:11:03Z</time>
      </trkpt>
      <trkpt lat="44.87065" lon="5.24165">
        <ele>1322.889282</ele>
        <time>2014-06-09T13:11:08Z</time>
      </trkpt>
      <trkpt lat="44.8706" lon="5.24166">
        <ele>1323.286743</ele>
        <time>2014-06-09T13:11:13Z</time>
      </trkpt>
      <trkpt lat="44.87055" lon="5.24166">
        <ele>1323.706421</ele>
        <time>2014-06-09T13:11:18Z</time>
      </trkpt>
      <trkpt lat="44.8705" lon="5.24166">
        <ele>1324.075928</ele>
        <time>2014-06-09T13:11:23Z</time>
      </trkpt>
      <trkpt lat="44.87044" lon="5.24167">
        <ele>1324.473267</ele>
        <time>2014-06-09T13:11:28Z</time>
      </trkpt>
      <trkpt lat="44.87039" lon="5.24167">
        <ele>1324.850464</ele>
        <time>2014-06-09T13:11:33Z</time>
      </trkpt>
      <trkpt lat="44.87034" lon="5.24167">
        <ele>1325.21814</ele>
        <time>2014-06-09T13:11:38Z</time>
      </trkpt>
      <trkpt lat="44.87029" lon="5.24166">
        <ele>1325.302002</ele>
        <time>2014-06-09T13:11:43Z</time>
      </trkpt>
      <trkpt lat="44.87024" lon="5.24166">
        <ele>1325.272339</ele>
        <time>2014-06-09T13:11:48Z</time>
      </trkpt>
      <trkpt lat="44.87018" lon="5.24166">
        <ele>1325.189697</ele>
        <time>2014-06-09T13:11:53Z</time>
      </trkpt>
      <trkpt lat="44.87013" lon="5.24166">
        <ele>1325.111572</ele>
        <time>2014-06-09T13:11:58Z</time>
      </trkpt>
      <trkpt lat="44.87008" lon="5.24165">
        <ele>1325.060547</ele>
        <time>2014-06-09T13:12:03Z</time>
      </trkpt>
      <trkpt lat="44.87003" lon="5.24166">
        <ele>1325.136108</ele>
        <time>2014-06-09T13:12:08Z</time>
      </trkpt>
      <trkpt lat="44.86997" lon="5.24167">
        <ele>1325.263794</ele>
        <time>2014-06-09T13:12:13Z</time>
      </trkpt>
      <trkpt lat="44.86993" lon="5.24165">
        <ele>1325.036987</ele>
        <time>2014-06-09T13:12:18Z</time>
      </trkpt>
      <trkpt lat="44.86992" lon="5.24165">
        <ele>1324.891357</ele>
        <time>2014-06-09T13:12:23Z</time>
      </trkpt>
      <trkpt lat="44.86988" lon="5.24168">
        <ele>1325.612915</ele>
        <time>2014-06-09T13:12:28Z</time>
      </trkpt>
      <trkpt lat="44.86983" lon="5.2417">
        <ele>1325.884521</ele>
        <time>2014-06-09T13:12:33Z</time>
      </trkpt>
      <trkpt lat="44.86977" lon="5.24171">
        <ele>1326.065063</ele>
        <time>2014-06-09T13:12:38Z</time>
      </trkpt>
      <trkpt lat="44.86972" lon="5.24173">
        <ele>1326.390747</ele>
        <time>2014-06-09T13:12:43Z</time>
      </trkpt>
      <trkpt lat="44.86967" lon="5.24175">
        <ele>1326.855957</ele>
        <time>2014-06-09T13:12:48Z</time>
      </trkpt>
      <trkpt lat="44.86962" lon="5.24177">
        <ele>1327.427612</ele>
        <time>2014-06-09T13:12:53Z</time>
      </trkpt>
      <trkpt lat="44.86957" lon="5.2418">
        <ele>1328.015869</ele>
        <time>2014-06-09T13:12:58Z</time>
      </trkpt>
      <trkpt lat="44.86952" lon="5.24183">
        <ele>1328.910034</ele>
        <time>2014-06-09T13:13:03Z</time>
      </trkpt>
      <trkpt lat="44.86947" lon="5.24185">
        <ele>1329.80835</ele>
        <time>2014-06-09T13:13:08Z</time>
      </trkpt>
      <trkpt lat="44.86942" lon="5.24189">
        <ele>1330.962402</ele>
        <time>2014-06-09T13:13:13Z</time>
      </trkpt>
      <trkpt lat="44.86936" lon="5.24191">
        <ele>1331.883301</ele>
        <time>2014-06-09T13:13:18Z</time>
      </trkpt>
      <trkpt lat="44.86931" lon="5.24193">
        <ele>1332.591797</ele>
        <time>2014-06-09T13:13:23Z</time>
      </trkpt>
      <trkpt lat="44.86925" lon="5.24194">
        <ele>1333.037964</ele>
        <time>2014-06-09T13:13:28Z</time>
      </trkpt>
      <trkpt lat="44.86919" lon="5.24196">
        <ele>1333.380371</ele>
        <time>2014-06-09T13:13:33Z</time>
      </trkpt>
      <trkpt lat="44.86914" lon="5.24199">
        <ele>1333.771118</ele>
        <time>2014-06-09T13:13:38Z</time>
      </trkpt>
      <trkpt lat="44.86908" lon="5.24202">
        <ele>1334.304565</ele>
        <time>2014-06-09T13:13:43Z</time>
      </trkpt>
      <trkpt lat="44.86902" lon="5.24205">
        <ele>1334.953857</ele>
        <time>2014-06-09T13:13:48Z</time>
      </trkpt>
      <trkpt lat="44.86898" lon="5.24207">
        <ele>1335.402954</ele>
        <time>2014-06-09T13:13:53Z</time>
      </trkpt>
      <trkpt lat="44.86892" lon="5.24212">
        <ele>1336.539307</ele>
        <time>2014-06-09T13:13:58Z</time>
      </trkpt>
      <trkpt lat="44.86887" lon="5.24215">
        <ele>1337.731567</ele>
        <time>2014-06-09T13:14:03Z</time>
      </trkpt>
      <trkpt lat="44.86881" lon="5.24219">
        <ele>1338.897949</ele>
        <time>2014-06-09T13:14:08Z</time>
      </trkpt>
      <trkpt lat="44.86875" lon="5.24222">
        <ele>1340.09436</ele>
        <time>2014-06-09T13:14:13Z</time>
      </trkpt>
      <trkpt lat="44.8687" lon="5.24224">
        <ele>1341.090942</ele>
        <time>2014-06-09T13:14:18Z</time>
      </trkpt>
      <trkpt lat="44.86865" lon="5.24227">
        <ele>1342.13147</ele>
        <time>2014-06-09T13:14:23Z</time>
      </trkpt>
      <trkpt lat="44.86859" lon="5.2423">
        <ele>1343.293457</ele>
        <time>2014-06-09T13:14:28Z</time>
      </trkpt>
      <trkpt lat="44.86854" lon="5.24233">
        <ele>1344.489136</ele>
        <time>2014-06-09T13:14:33Z</time>
      </trkpt>
      <trkpt lat="44.86849" lon="5.24236">
        <ele>1345.75769</ele>
        <time>2014-06-09T13:14:38Z</time>
      </trkpt>
      <trkpt lat="44.86843" lon="5.2424">
        <ele>1347.952148</ele>
        <time>2014-06-09T13:14:43Z</time>
      </trkpt>
      <trkpt lat="44.86837" lon="5.24243">
        <ele>1350.12146</ele>
        <time>2014-06-09T13:14:48Z</time>
      </trkpt>
      <trkpt lat="44.86832" lon="5.24243">
        <ele>1351.939697</ele>
        <time>2014-06-09T13:14:53Z</time>
      </trkpt>
      <trkpt lat="44.86826" lon="5.24243">
        <ele>1353.575073</ele>
        <time>2014-06-09T13:14:58Z</time>
      </trkpt>
      <trkpt lat="44.86823" lon="5.24243">
        <ele>1354.733765</ele>
        <time>2014-06-09T13:15:03Z</time>
      </trkpt>
      <trkpt lat="44.86818" lon="5.24242">
        <ele>1355.747803</ele>
        <time>2014-06-09T13:15:08Z</time>
      </trkpt>
      <trkpt lat="44.86813" lon="5.24242">
        <ele>1357.325806</ele>
        <time>2014-06-09T13:15:13Z</time>
      </trkpt>
      <trkpt lat="44.86809" lon="5.24242">
        <ele>1358.637207</ele>
        <time>2014-06-09T13:15:18Z</time>
      </trkpt>
      <trkpt lat="44.86804" lon="5.24242">
        <ele>1360.240234</ele>
        <time>2014-06-09T13:15:23Z</time>
      </trkpt>
      <trkpt lat="44.86799" lon="5.24241">
        <ele>1361.151611</ele>
        <time>2014-06-09T13:15:28Z</time>
      </trkpt>
      <trkpt lat="44.86794" lon="5.24241">
        <ele>1361.900024</ele>
        <time>2014-06-09T13:15:33Z</time>
      </trkpt>
      <trkpt lat="44.86789" lon="5.2424">
        <ele>1362.480469</ele>
        <time>2014-06-09T13:15:38Z</time>
      </trkpt>
      <trkpt lat="44.86785" lon="5.24238">
        <ele>1362.699463</ele>
        <time>2014-06-09T13:15:43Z</time>
      </trkpt>
      <trkpt lat="44.86781" lon="5.24238">
        <ele>1363.182495</ele>
        <time>2014-06-09T13:15:48Z</time>
      </trkpt>
      <trkpt lat="44.86778" lon="5.24236">
        <ele>1363.067993</ele>
        <time>2014-06-09T13:15:53Z</time>
      </trkpt>
      <trkpt lat="44.86775" lon="5.24235">
        <ele>1363.164307</ele>
        <time>2014-06-09T13:15:58Z</time>
      </trkpt>
      <trkpt lat="44.86771" lon="5.24233">
        <ele>1363.115479</ele>
        <time>2014-06-09T13:16:03Z</time>
      </trkpt>
      <trkpt lat="44.86766" lon="5.24231">
        <ele>1363.197144</ele>
        <time>2014-06-09T13:16:08Z</time>
      </trkpt>
      <trkpt lat="44.86761" lon="5.24229">
        <ele>1363.345459</ele>
        <time>2014-06-09T13:16:13Z</time>
      </trkpt>
      <trkpt lat="44.86757" lon="5.24228">
        <ele>1363.360352</ele>
        <time>2014-06-09T13:16:18Z</time>
      </trkpt>
      <trkpt lat="44.86752" lon="5.24227">
        <ele>1362.917114</ele>
        <time>2014-06-09T13:16:23Z</time>
      </trkpt>
      <trkpt lat="44.86751" lon="5.24227">
        <ele>1362.767456</ele>
        <time>2014-06-09T13:16:28Z</time>
      </trkpt>
      <trkpt lat="44.86751" lon="5.24227">
        <ele>1362.702026</ele>
        <time>2014-06-09T13:16:33Z</time>
      </trkpt>
      <trkpt lat="44.86751" lon="5.24227">
        <ele>1362.777466</ele>
        <time>2014-06-09T13:16:38Z</time>
      </trkpt>
      <trkpt lat="44.86751" lon="5.24227">
        <ele>1362.852783</ele>
        <time>2014-06-09T13:16:43Z</time>
      </trkpt>
      <trkpt lat="44.86747" lon="5.24227">
        <ele>1362.994385</ele>
        <time>2014-06-09T13:16:48Z</time>
      </trkpt>
      <trkpt lat="44.86741" lon="5.24229">
        <ele>1363.537476</ele>
        <time>2014-06-09T13:16:53Z</time>
      </trkpt>
      <trkpt lat="44.86735" lon="5.2423">
        <ele>1364.137939</ele>
        <time>2014-06-09T13:16:58Z</time>
      </trkpt>
      <trkpt lat="44.8673" lon="5.24232">
        <ele>1365.012573</ele>
        <time>2014-06-09T13:17:03Z</time>
      </trkpt>
      <trkpt lat="44.86724" lon="5.24233">
        <ele>1365.827881</ele>
        <time>2014-06-09T13:17:08Z</time>
      </trkpt>
      <trkpt lat="44.86718" lon="5.24235">
        <ele>1366.635864</ele>
        <time>2014-06-09T13:17:13Z</time>
      </trkpt>
      <trkpt lat="44.86715" lon="5.24236">
        <ele>1367.208252</ele>
        <time>2014-06-09T13:17:18Z</time>
      </trkpt>
      <trkpt lat="44.86711" lon="5.2424">
        <ele>1368.922607</ele>
        <time>2014-06-09T13:17:23Z</time>
      </trkpt>
      <trkpt lat="44.86709" lon="5.24241">
        <ele>1369.004272</ele>
        <time>2014-06-09T13:17:28Z</time>
      </trkpt>
      <trkpt lat="44.86709" lon="5.2424">
        <ele>1368.885742</ele>
        <time>2014-06-09T13:17:33Z</time>
      </trkpt>
      <trkpt lat="44.86709" lon="5.24241">
        <ele>1368.998535</ele>
        <time>2014-06-09T13:17:38Z</time>
      </trkpt>
      <trkpt lat="44.86707" lon="5.24242">
        <ele>1369.64563</ele>
        <time>2014-06-09T13:17:43Z</time>
      </trkpt>
      <trkpt lat="44.86703" lon="5.24247">
        <ele>1371.271606</ele>
        <time>2014-06-09T13:17:48Z</time>
      </trkpt>
      <trkpt lat="44.86699" lon="5.24253">
        <ele>1371.618408</ele>
        <time>2014-06-09T13:17:53Z</time>
      </trkpt>
      <trkpt lat="44.86695" lon="5.24259">
        <ele>1372.139893</ele>
        <time>2014-06-09T13:17:58Z</time>
      </trkpt>
      <trkpt lat="44.86691" lon="5.24264">
        <ele>1372.659912</ele>
        <time>2014-06-09T13:18:03Z</time>
      </trkpt>
      <trkpt lat="44.86686" lon="5.2427">
        <ele>1373.369263</ele>
        <time>2014-06-09T13:18:08Z</time>
      </trkpt>
      <trkpt lat="44.86682" lon="5.24277">
        <ele>1374.266235</ele>
        <time>2014-06-09T13:18:13Z</time>
      </trkpt>
      <trkpt lat="44.86677" lon="5.24283">
        <ele>1375.270142</ele>
        <time>2014-06-09T13:18:18Z</time>
      </trkpt>
      <trkpt lat="44.86673" lon="5.24289">
        <ele>1376.471924</ele>
        <time>2014-06-09T13:18:23Z</time>
      </trkpt>
      <trkpt lat="44.86668" lon="5.24296">
        <ele>1377.792114</ele>
        <time>2014-06-09T13:18:28Z</time>
      </trkpt>
      <trkpt lat="44.86664" lon="5.24303">
        <ele>1379.037354</ele>
        <time>2014-06-09T13:18:33Z</time>
      </trkpt>
      <trkpt lat="44.86659" lon="5.24309">
        <ele>1379.654297</ele>
        <time>2014-06-09T13:18:38Z</time>
      </trkpt>
      <trkpt lat="44.86655" lon="5.24314">
        <ele>1379.445557</ele>
        <time>2014-06-09T13:18:43Z</time>
      </trkpt>
      <trkpt lat="44.8665" lon="5.2432">
        <ele>1379.323853</ele>
        <time>2014-06-09T13:18:48Z</time>
      </trkpt>
      <trkpt lat="44.86646" lon="5.24326">
        <ele>1379.327637</ele>
        <time>2014-06-09T13:18:53Z</time>
      </trkpt>
      <trkpt lat="44.86641" lon="5.24333">
        <ele>1379.449951</ele>
        <time>2014-06-09T13:18:58Z</time>
      </trkpt>
      <trkpt lat="44.86636" lon="5.24339">
        <ele>1379.707031</ele>
        <time>2014-06-09T13:19:03Z</time>
      </trkpt>
      <trkpt lat="44.86631" lon="5.24345">
        <ele>1380.085205</ele>
        <time>2014-06-09T13:19:08Z</time>
      </trkpt>
      <trkpt lat="44.86627" lon="5.24351">
        <ele>1380.567139</ele>
        <time>2014-06-09T13:19:13Z</time>
      </trkpt>
      <trkpt lat="44.86622" lon="5.24357">
        <ele>1381.194092</ele>
        <time>2014-06-09T13:19:18Z</time>
      </trkpt>
      <trkpt lat="44.86617" lon="5.24363">
        <ele>1381.462158</ele>
        <time>2014-06-09T13:19:23Z</time>
      </trkpt>
      <trkpt lat="44.86613" lon="5.2437">
        <ele>1381.41333</ele>
        <time>2014-06-09T13:19:28Z</time>
      </trkpt>
      <trkpt lat="44.86609" lon="5.24376">
        <ele>1381.060181</ele>
        <time>2014-06-09T13:19:33Z</time>
      </trkpt>
      <trkpt lat="44.86605" lon="5.24383">
        <ele>1380.782104</ele>
        <time>2014-06-09T13:19:38Z</time>
      </trkpt>
      <trkpt lat="44.86601" lon="5.24389">
        <ele>1380.599731</ele>
        <time>2014-06-09T13:19:43Z</time>
      </trkpt>
      <trkpt lat="44.86597" lon="5.24394">
        <ele>1380.443481</ele>
        <time>2014-06-09T13:19:48Z</time>
      </trkpt>
      <trkpt lat="44.86591" lon="5.24397">
        <ele>1380.253052</ele>
        <time>2014-06-09T13:19:53Z</time>
      </trkpt>
      <trkpt lat="44.86588" lon="5.24403">
        <ele>1380.28418</ele>
        <time>2014-06-09T13:19:58Z</time>
      </trkpt>
      <trkpt lat="44.86586" lon="5.24412">
        <ele>1380.482056</ele>
        <time>2014-06-09T13:20:03Z</time>
      </trkpt>
      <trkpt lat="44.86585" lon="5.24421">
        <ele>1380.734619</ele>
        <time>2014-06-09T13:20:08Z</time>
      </trkpt>
      <trkpt lat="44.86583" lon="5.24427">
        <ele>1380.940918</ele>
        <time>2014-06-09T13:20:13Z</time>
      </trkpt>
      <trkpt lat="44.86582" lon="5.24432">
        <ele>1381.02771</ele>
        <time>2014-06-09T13:20:18Z</time>
      </trkpt>
      <trkpt lat="44.86578" lon="5.24438">
        <ele>1381.106812</ele>
        <time>2014-06-09T13:20:23Z</time>
      </trkpt>
      <trkpt lat="44.86577" lon="5.24442">
        <ele>1381.16394</ele>
        <time>2014-06-09T13:20:28Z</time>
      </trkpt>
      <trkpt lat="44.86574" lon="5.24448">
        <ele>1381.281738</ele>
        <time>2014-06-09T13:20:33Z</time>
      </trkpt>
      <trkpt lat="44.86572" lon="5.24455">
        <ele>1381.368896</ele>
        <time>2014-06-09T13:20:38Z</time>
      </trkpt>
      <trkpt lat="44.86569" lon="5.24461">
        <ele>1381.296997</ele>
        <time>2014-06-09T13:20:43Z</time>
      </trkpt>
      <trkpt lat="44.86567" lon="5.24468">
        <ele>1381.32312</ele>
        <time>2014-06-09T13:20:48Z</time>
      </trkpt>
      <trkpt lat="44.86562" lon="5.24475">
        <ele>1381.31665</ele>
        <time>2014-06-09T13:20:53Z</time>
      </trkpt>
      <trkpt lat="44.86559" lon="5.24483">
        <ele>1381.451782</ele>
        <time>2014-06-09T13:20:58Z</time>
      </trkpt>
      <trkpt lat="44.86556" lon="5.2449">
        <ele>1381.635742</ele>
        <time>2014-06-09T13:21:03Z</time>
      </trkpt>
      <trkpt lat="44.86554" lon="5.24498">
        <ele>1381.779663</ele>
        <time>2014-06-09T13:21:08Z</time>
      </trkpt>
      <trkpt lat="44.86551" lon="5.24505">
        <ele>1381.954346</ele>
        <time>2014-06-09T13:21:13Z</time>
      </trkpt>
      <trkpt lat="44.86549" lon="5.24511">
        <ele>1382.14209</ele>
        <time>2014-06-09T13:21:18Z</time>
      </trkpt>
      <trkpt lat="44.86546" lon="5.24518">
        <ele>1382.426514</ele>
        <time>2014-06-09T13:21:23Z</time>
      </trkpt>
      <trkpt lat="44.86542" lon="5.24525">
        <ele>1382.75293</ele>
        <time>2014-06-09T13:21:28Z</time>
      </trkpt>
      <trkpt lat="44.86539" lon="5.24531">
        <ele>1383.101563</ele>
        <time>2014-06-09T13:21:33Z</time>
      </trkpt>
      <trkpt lat="44.86536" lon="5.24537">
        <ele>1383.503174</ele>
        <time>2014-06-09T13:21:38Z</time>
      </trkpt>
      <trkpt lat="44.86532" lon="5.24543">
        <ele>1383.991577</ele>
        <time>2014-06-09T13:21:43Z</time>
      </trkpt>
      <trkpt lat="44.86528" lon="5.24549">
        <ele>1384.511597</ele>
        <time>2014-06-09T13:21:48Z</time>
      </trkpt>
      <trkpt lat="44.86525" lon="5.24555">
        <ele>1385.099976</ele>
        <time>2014-06-09T13:21:53Z</time>
      </trkpt>
      <trkpt lat="44.86522" lon="5.24561">
        <ele>1385.52002</ele>
        <time>2014-06-09T13:21:58Z</time>
      </trkpt>
      <trkpt lat="44.86519" lon="5.24568">
        <ele>1385.994995</ele>
        <time>2014-06-09T13:22:03Z</time>
      </trkpt>
      <trkpt lat="44.86516" lon="5.24575">
        <ele>1386.464966</ele>
        <time>2014-06-09T13:22:08Z</time>
      </trkpt>
      <trkpt lat="44.86514" lon="5.24583">
        <ele>1386.969971</ele>
        <time>2014-06-09T13:22:13Z</time>
      </trkpt>
      <trkpt lat="44.86511" lon="5.2459">
        <ele>1387.430054</ele>
        <time>2014-06-09T13:22:18Z</time>
      </trkpt>
      <trkpt lat="44.86509" lon="5.24598">
        <ele>1387.930054</ele>
        <time>2014-06-09T13:22:23Z</time>
      </trkpt>
      <trkpt lat="44.86506" lon="5.24606">
        <ele>1388.425049</ele>
        <time>2014-06-09T13:22:28Z</time>
      </trkpt>
      <trkpt lat="44.86504" lon="5.24614">
        <ele>1388.939941</ele>
        <time>2014-06-09T13:22:33Z</time>
      </trkpt>
      <trkpt lat="44.86502" lon="5.24622">
        <ele>1389.420776</ele>
        <time>2014-06-09T13:22:38Z</time>
      </trkpt>
      <trkpt lat="44.86499" lon="5.2463">
        <ele>1389.875</ele>
        <time>2014-06-09T13:22:43Z</time>
      </trkpt>
      <trkpt lat="44.86497" lon="5.24638">
        <ele>1390.348633</ele>
        <time>2014-06-09T13:22:48Z</time>
      </trkpt>
      <trkpt lat="44.86494" lon="5.24646">
        <ele>1390.835205</ele>
        <time>2014-06-09T13:22:53Z</time>
      </trkpt>
      <trkpt lat="44.86491" lon="5.24654">
        <ele>1391.313965</ele>
        <time>2014-06-09T13:22:58Z</time>
      </trkpt>
      <trkpt lat="44.86488" lon="5.24661">
        <ele>1391.807861</ele>
        <time>2014-06-09T13:23:03Z</time>
      </trkpt>
      <trkpt lat="44.86485" lon="5.24669">
        <ele>1392.340332</ele>
        <time>2014-06-09T13:23:08Z</time>
      </trkpt>
      <trkpt lat="44.86482" lon="5.24677">
        <ele>1392.887451</ele>
        <time>2014-06-09T13:23:13Z</time>
      </trkpt>
      <trkpt lat="44.86479" lon="5.24685">
        <ele>1393.19751</ele>
        <time>2014-06-09T13:23:18Z</time>
      </trkpt>
      <trkpt lat="44.86475" lon="5.24693">
        <ele>1393.487671</ele>
        <time>2014-06-09T13:23:23Z</time>
      </trkpt>
      <trkpt lat="44.86472" lon="5.247">
        <ele>1393.75</ele>
        <time>2014-06-09T13:23:28Z</time>
      </trkpt>
      <trkpt lat="44.86468" lon="5.24708">
        <ele>1394.144287</ele>
        <time>2014-06-09T13:23:33Z</time>
      </trkpt>
      <trkpt lat="44.86465" lon="5.24715">
        <ele>1394.671631</ele>
        <time>2014-06-09T13:23:38Z</time>
      </trkpt>
      <trkpt lat="44.86462" lon="5.24721">
        <ele>1395.215942</ele>
        <time>2014-06-09T13:23:43Z</time>
      </trkpt>
      <trkpt lat="44.86459" lon="5.24727">
        <ele>1395.862061</ele>
        <time>2014-06-09T13:23:48Z</time>
      </trkpt>
      <trkpt lat="44.86456" lon="5.24733">
        <ele>1396.604248</ele>
        <time>2014-06-09T13:23:53Z</time>
      </trkpt>
      <trkpt lat="44.86452" lon="5.24738">
        <ele>1397.501465</ele>
        <time>2014-06-09T13:23:58Z</time>
      </trkpt>
      <trkpt lat="44.86448" lon="5.24743">
        <ele>1398.424927</ele>
        <time>2014-06-09T13:24:03Z</time>
      </trkpt>
      <trkpt lat="44.86443" lon="5.24748">
        <ele>1399.459961</ele>
        <time>2014-06-09T13:24:08Z</time>
      </trkpt>
      <trkpt lat="44.86439" lon="5.24754">
        <ele>1400.434937</ele>
        <time>2014-06-09T13:24:13Z</time>
      </trkpt>
      <trkpt lat="44.86435" lon="5.24759">
        <ele>1401.444946</ele>
        <time>2014-06-09T13:24:18Z</time>
      </trkpt>
      <trkpt lat="44.86431" lon="5.24765">
        <ele>1402.36499</ele>
        <time>2014-06-09T13:24:23Z</time>
      </trkpt>
      <trkpt lat="44.86428" lon="5.2477">
        <ele>1402.956055</ele>
        <time>2014-06-09T13:24:28Z</time>
      </trkpt>
      <trkpt lat="44.86424" lon="5.24774">
        <ele>1403.072021</ele>
        <time>2014-06-09T13:24:33Z</time>
      </trkpt>
      <trkpt lat="44.86421" lon="5.24779">
        <ele>1403.334106</ele>
        <time>2014-06-09T13:24:38Z</time>
      </trkpt>
      <trkpt lat="44.86416" lon="5.24782">
        <ele>1403.436401</ele>
        <time>2014-06-09T13:24:43Z</time>
      </trkpt>
      <trkpt lat="44.86412" lon="5.24786">
        <ele>1403.673584</ele>
        <time>2014-06-09T13:24:48Z</time>
      </trkpt>
      <trkpt lat="44.86407" lon="5.24789">
        <ele>1403.92334</ele>
        <time>2014-06-09T13:24:53Z</time>
      </trkpt>
      <trkpt lat="44.86402" lon="5.24793">
        <ele>1404.32605</ele>
        <time>2014-06-09T13:24:58Z</time>
      </trkpt>
      <trkpt lat="44.86398" lon="5.24796">
        <ele>1404.775635</ele>
        <time>2014-06-09T13:25:03Z</time>
      </trkpt>
      <trkpt lat="44.86395" lon="5.248">
        <ele>1405.409912</ele>
        <time>2014-06-09T13:25:08Z</time>
      </trkpt>
      <trkpt lat="44.86391" lon="5.24804">
        <ele>1406.284912</ele>
        <time>2014-06-09T13:25:13Z</time>
      </trkpt>
      <trkpt lat="44.86388" lon="5.24807">
        <ele>1407.004028</ele>
        <time>2014-06-09T13:25:18Z</time>
      </trkpt>
      <trkpt lat="44.86384" lon="5.2481">
        <ele>1407.7229</ele>
        <time>2014-06-09T13:25:23Z</time>
      </trkpt>
      <trkpt lat="44.86378" lon="5.24812">
        <ele>1408.082764</ele>
        <time>2014-06-09T13:25:28Z</time>
      </trkpt>
      <trkpt lat="44.86373" lon="5.24814">
        <ele>1408.409302</ele>
        <time>2014-06-09T13:25:33Z</time>
      </trkpt>
      <trkpt lat="44.86368" lon="5.24816">
        <ele>1408.681641</ele>
        <time>2014-06-09T13:25:38Z</time>
      </trkpt>
      <trkpt lat="44.86363" lon="5.24817">
        <ele>1408.925415</ele>
        <time>2014-06-09T13:25:43Z</time>
      </trkpt>
      <trkpt lat="44.86357" lon="5.24819">
        <ele>1409.196167</ele>
        <time>2014-06-09T13:25:48Z</time>
      </trkpt>
      <trkpt lat="44.86351" lon="5.24821">
        <ele>1409.604736</ele>
        <time>2014-06-09T13:25:53Z</time>
      </trkpt>
      <trkpt lat="44.86347" lon="5.24823">
        <ele>1410.084717</ele>
        <time>2014-06-09T13:25:58Z</time>
      </trkpt>
      <trkpt lat="44.8634" lon="5.24824">
        <ele>1410.4375</ele>
        <time>2014-06-09T13:26:03Z</time>
      </trkpt>
      <trkpt lat="44.86335" lon="5.24826">
        <ele>1410.856079</ele>
        <time>2014-06-09T13:26:08Z</time>
      </trkpt>
      <trkpt lat="44.8633" lon="5.24827">
        <ele>1410.952515</ele>
        <time>2014-06-09T13:26:13Z</time>
      </trkpt>
      <trkpt lat="44.86324" lon="5.24828">
        <ele>1411.149902</ele>
        <time>2014-06-09T13:26:18Z</time>
      </trkpt>
      <trkpt lat="44.8632" lon="5.24829">
        <ele>1411.500854</ele>
        <time>2014-06-09T13:26:23Z</time>
      </trkpt>
      <trkpt lat="44.86319" lon="5.2483">
        <ele>1411.725342</ele>
        <time>2014-06-09T13:26:28Z</time>
      </trkpt>
      <trkpt lat="44.86317" lon="5.24832">
        <ele>1412.15332</ele>
        <time>2014-06-09T13:26:33Z</time>
      </trkpt>
      <trkpt lat="44.86314" lon="5.24834">
        <ele>1412.923706</ele>
        <time>2014-06-09T13:26:38Z</time>
      </trkpt>
      <trkpt lat="44.86312" lon="5.24836">
        <ele>1413.431641</ele>
        <time>2014-06-09T13:26:43Z</time>
      </trkpt>
      <trkpt lat="44.8631" lon="5.24839">
        <ele>1414.332031</ele>
        <time>2014-06-09T13:26:48Z</time>
      </trkpt>
      <trkpt lat="44.86308" lon="5.24841">
        <ele>1414.933594</ele>
        <time>2014-06-09T13:26:53Z</time>
      </trkpt>
      <trkpt lat="44.86307" lon="5.24842">
        <ele>1415.295898</ele>
        <time>2014-06-09T13:26:58Z</time>
      </trkpt>
      <trkpt lat="44.86307" lon="5.24842">
        <ele>1415.397583</ele>
        <time>2014-06-09T13:27:03Z</time>
      </trkpt>
      <trkpt lat="44.86307" lon="5.24842">
        <ele>1415.397583</ele>
        <time>2014-06-09T13:27:08Z</time>
      </trkpt>
      <trkpt lat="44.86305" lon="5.24843">
        <ele>1415.648071</ele>
        <time>2014-06-09T13:27:13Z</time>
      </trkpt>
      <trkpt lat="44.86304" lon="5.24845">
        <ele>1416.266357</ele>
        <time>2014-06-09T13:27:18Z</time>
      </trkpt>
      <trkpt lat="44.86303" lon="5.24846">
        <ele>1416.48999</ele>
        <time>2014-06-09T13:27:23Z</time>
      </trkpt>
      <trkpt lat="44.86303" lon="5.24846">
        <ele>1416.48999</ele>
        <time>2014-06-09T13:27:28Z</time>
      </trkpt>
      <trkpt lat="44.86303" lon="5.24846">
        <ele>1416.377197</ele>
        <time>2014-06-09T13:27:33Z</time>
      </trkpt>
      <trkpt lat="44.86303" lon="5.24845">
        <ele>1416.307251</ele>
        <time>2014-06-09T13:27:38Z</time>
      </trkpt>
      <trkpt lat="44.86303" lon="5.24845">
        <ele>1416.307251</ele>
        <time>2014-06-09T13:27:43Z</time>
      </trkpt>
      <trkpt lat="44.86303" lon="5.24845">
        <ele>1416.255981</ele>
        <time>2014-06-09T13:27:48Z</time>
      </trkpt>
      <trkpt lat="44.86303" lon="5.24845">
        <ele>1416.255981</ele>
        <time>2014-06-09T13:27:53Z</time>
      </trkpt>
      <trkpt lat="44.86304" lon="5.24845">
        <ele>1416.21521</ele>
        <time>2014-06-09T13:27:58Z</time>
      </trkpt>
      <trkpt lat="44.86304" lon="5.24845">
        <ele>1416.21521</ele>
        <time>2014-06-09T13:28:03Z</time>
      </trkpt>
      <trkpt lat="44.86304" lon="5.24845">
        <ele>1416.164063</ele>
        <time>2014-06-09T13:28:08Z</time>
      </trkpt>
      <trkpt lat="44.86304" lon="5.24845">
        <ele>1416.164063</ele>
        <time>2014-06-09T13:28:13Z</time>
      </trkpt>
      <trkpt lat="44.86303" lon="5.24846">
        <ele>1416.377197</ele>
        <time>2014-06-09T13:28:18Z</time>
      </trkpt>
      <trkpt lat="44.86301" lon="5.24848">
        <ele>1417.216187</ele>
        <time>2014-06-09T13:28:23Z</time>
      </trkpt>
      <trkpt lat="44.86298" lon="5.2485">
        <ele>1417.840942</ele>
        <time>2014-06-09T13:28:28Z</time>
      </trkpt>
      <trkpt lat="44.86298" lon="5.24851">
        <ele>1418.10791</ele>
        <time>2014-06-09T13:28:33Z</time>
      </trkpt>
      <trkpt lat="44.86295" lon="5.24853">
        <ele>1418.569092</ele>
        <time>2014-06-09T13:28:38Z</time>
      </trkpt>
      <trkpt lat="44.86293" lon="5.24857">
        <ele>1419.872925</ele>
        <time>2014-06-09T13:28:43Z</time>
      </trkpt>
      <trkpt lat="44.86291" lon="5.2486">
        <ele>1420.983276</ele>
        <time>2014-06-09T13:28:48Z</time>
      </trkpt>
      <trkpt lat="44.86288" lon="5.24863">
        <ele>1421.641113</ele>
        <time>2014-06-09T13:28:53Z</time>
      </trkpt>
      <trkpt lat="44.86285" lon="5.24866">
        <ele>1422.457764</ele>
        <time>2014-06-09T13:28:58Z</time>
      </trkpt>
      <trkpt lat="44.86282" lon="5.24868">
        <ele>1423.125488</ele>
        <time>2014-06-09T13:29:03Z</time>
      </trkpt>
      <trkpt lat="44.8628" lon="5.24871">
        <ele>1423.954712</ele>
        <time>2014-06-09T13:29:08Z</time>
      </trkpt>
      <trkpt lat="44.86277" lon="5.24873">
        <ele>1424.665039</ele>
        <time>2014-06-09T13:29:13Z</time>
      </trkpt>
      <trkpt lat="44.86274" lon="5.24876">
        <ele>1425.576294</ele>
        <time>2014-06-09T13:29:18Z</time>
      </trkpt>
      <trkpt lat="44.86271" lon="5.24879">
        <ele>1426.569824</ele>
        <time>2014-06-09T13:29:23Z</time>
      </trkpt>
      <trkpt lat="44.86268" lon="5.24883">
        <ele>1427.574219</ele>
        <time>2014-06-09T13:29:28Z</time>
      </trkpt>
      <trkpt lat="44.86265" lon="5.24885">
        <ele>1428.473267</ele>
        <time>2014-06-09T13:29:33Z</time>
      </trkpt>
      <trkpt lat="44.86261" lon="5.24888">
        <ele>1429.38623</ele>
        <time>2014-06-09T13:29:38Z</time>
      </trkpt>
      <trkpt lat="44.86258" lon="5.24891">
        <ele>1430.239258</ele>
        <time>2014-06-09T13:29:43Z</time>
      </trkpt>
      <trkpt lat="44.86256" lon="5.24894">
        <ele>1431.126587</ele>
        <time>2014-06-09T13:29:48Z</time>
      </trkpt>
      <trkpt lat="44.86254" lon="5.24897">
        <ele>1432.093262</ele>
        <time>2014-06-09T13:29:53Z</time>
      </trkpt>
      <trkpt lat="44.86252" lon="5.24899">
        <ele>1433.020996</ele>
        <time>2014-06-09T13:29:58Z</time>
      </trkpt>
      <trkpt lat="44.86249" lon="5.24902">
        <ele>1433.987305</ele>
        <time>2014-06-09T13:30:03Z</time>
      </trkpt>
      <trkpt lat="44.86246" lon="5.24905">
        <ele>1434.970459</ele>
        <time>2014-06-09T13:30:08Z</time>
      </trkpt>
      <trkpt lat="44.86243" lon="5.24908">
        <ele>1435.900146</ele>
        <time>2014-06-09T13:30:13Z</time>
      </trkpt>
      <trkpt lat="44.86239" lon="5.2491">
        <ele>1436.483276</ele>
        <time>2014-06-09T13:30:18Z</time>
      </trkpt>
      <trkpt lat="44.86237" lon="5.24913">
        <ele>1437.505127</ele>
        <time>2014-06-09T13:30:23Z</time>
      </trkpt>
      <trkpt lat="44.86234" lon="5.24916">
        <ele>1438.276245</ele>
        <time>2014-06-09T13:30:28Z</time>
      </trkpt>
      <trkpt lat="44.86232" lon="5.24919">
        <ele>1439.156372</ele>
        <time>2014-06-09T13:30:33Z</time>
      </trkpt>
      <trkpt lat="44.86229" lon="5.24922">
        <ele>1439.971924</ele>
        <time>2014-06-09T13:30:38Z</time>
      </trkpt>
      <trkpt lat="44.86226" lon="5.24925">
        <ele>1440.772827</ele>
        <time>2014-06-09T13:30:43Z</time>
      </trkpt>
      <trkpt lat="44.86223" lon="5.24929">
        <ele>1441.656494</ele>
        <time>2014-06-09T13:30:48Z</time>
      </trkpt>
      <trkpt lat="44.86221" lon="5.24932">
        <ele>1442.506592</ele>
        <time>2014-06-09T13:30:53Z</time>
      </trkpt>
      <trkpt lat="44.86218" lon="5.24935">
        <ele>1443.327759</ele>
        <time>2014-06-09T13:30:58Z</time>
      </trkpt>
      <trkpt lat="44.86215" lon="5.24938">
        <ele>1444.308472</ele>
        <time>2014-06-09T13:31:03Z</time>
      </trkpt>
      <trkpt lat="44.86213" lon="5.24942">
        <ele>1445.351318</ele>
        <time>2014-06-09T13:31:08Z</time>
      </trkpt>
      <trkpt lat="44.86209" lon="5.24945">
        <ele>1446.409302</ele>
        <time>2014-06-09T13:31:13Z</time>
      </trkpt>
      <trkpt lat="44.86206" lon="5.24948">
        <ele>1447.366211</ele>
        <time>2014-06-09T13:31:18Z</time>
      </trkpt>
      <trkpt lat="44.86203" lon="5.2495">
        <ele>1448.314331</ele>
        <time>2014-06-09T13:31:23Z</time>
      </trkpt>
      <trkpt lat="44.862" lon="5.24954">
        <ele>1449.427368</ele>
        <time>2014-06-09T13:31:28Z</time>
      </trkpt>
      <trkpt lat="44.86197" lon="5.24958">
        <ele>1450.376587</ele>
        <time>2014-06-09T13:31:33Z</time>
      </trkpt>
      <trkpt lat="44.86194" lon="5.2496">
        <ele>1450.906616</ele>
        <time>2014-06-09T13:31:38Z</time>
      </trkpt>
      <trkpt lat="44.8619" lon="5.24964">
        <ele>1451.685425</ele>
        <time>2014-06-09T13:31:43Z</time>
      </trkpt>
      <trkpt lat="44.86187" lon="5.24968">
        <ele>1452.526855</ele>
        <time>2014-06-09T13:31:48Z</time>
      </trkpt>
      <trkpt lat="44.86184" lon="5.2497">
        <ele>1453.043091</ele>
        <time>2014-06-09T13:31:53Z</time>
      </trkpt>
      <trkpt lat="44.86183" lon="5.24972">
        <ele>1453.520752</ele>
        <time>2014-06-09T13:31:58Z</time>
      </trkpt>
      <trkpt lat="44.8618" lon="5.24975">
        <ele>1454.178833</ele>
        <time>2014-06-09T13:32:03Z</time>
      </trkpt>
      <trkpt lat="44.86177" lon="5.24979">
        <ele>1454.803833</ele>
        <time>2014-06-09T13:32:08Z</time>
      </trkpt>
      <trkpt lat="44.86174" lon="5.24983">
        <ele>1454.930298</ele>
        <time>2014-06-09T13:32:13Z</time>
      </trkpt>
      <trkpt lat="44.8617" lon="5.24985">
        <ele>1454.882446</ele>
        <time>2014-06-09T13:32:18Z</time>
      </trkpt>
      <trkpt lat="44.86167" lon="5.24989">
        <ele>1455.132813</ele>
        <time>2014-06-09T13:32:23Z</time>
      </trkpt>
      <trkpt lat="44.86164" lon="5.24993">
        <ele>1455.459351</ele>
        <time>2014-06-09T13:32:28Z</time>
      </trkpt>
      <trkpt lat="44.86161" lon="5.24997">
        <ele>1455.708008</ele>
        <time>2014-06-09T13:32:33Z</time>
      </trkpt>
      <trkpt lat="44.86158" lon="5.25002">
        <ele>1456.103516</ele>
        <time>2014-06-09T13:32:38Z</time>
      </trkpt>
      <trkpt lat="44.86155" lon="5.25006">
        <ele>1456.443115</ele>
        <time>2014-06-09T13:32:43Z</time>
      </trkpt>
      <trkpt lat="44.86152" lon="5.2501">
        <ele>1456.604492</ele>
        <time>2014-06-09T13:32:48Z</time>
      </trkpt>
      <trkpt lat="44.86149" lon="5.25015">
        <ele>1456.365723</ele>
        <time>2014-06-09T13:32:53Z</time>
      </trkpt>
      <trkpt lat="44.86146" lon="5.2502">
        <ele>1456.310547</ele>
        <time>2014-06-09T13:32:58Z</time>
      </trkpt>
      <trkpt lat="44.86144" lon="5.25025">
        <ele>1456.575928</ele>
        <time>2014-06-09T13:33:03Z</time>
      </trkpt>
      <trkpt lat="44.86141" lon="5.25026">
        <ele>1456.138916</ele>
        <time>2014-06-09T13:33:08Z</time>
      </trkpt>
      <trkpt lat="44.86138" lon="5.25029">
        <ele>1456.084961</ele>
        <time>2014-06-09T13:33:13Z</time>
      </trkpt>
      <trkpt lat="44.86136" lon="5.25033">
        <ele>1456.328125</ele>
        <time>2014-06-09T13:33:18Z</time>
      </trkpt>
      <trkpt lat="44.86133" lon="5.25037">
        <ele>1456.378296</ele>
        <time>2014-06-09T13:33:23Z</time>
      </trkpt>
      <trkpt lat="44.86131" lon="5.25041">
        <ele>1456.916504</ele>
        <time>2014-06-09T13:33:28Z</time>
      </trkpt>
      <trkpt lat="44.86131" lon="5.25047">
        <ele>1457.802246</ele>
        <time>2014-06-09T13:33:33Z</time>
      </trkpt>
      <trkpt lat="44.86131" lon="5.25054">
        <ele>1458.765747</ele>
        <time>2014-06-09T13:33:38Z</time>
      </trkpt>
      <trkpt lat="44.86131" lon="5.25061">
        <ele>1460.018921</ele>
        <time>2014-06-09T13:33:43Z</time>
      </trkpt>
      <trkpt lat="44.86131" lon="5.25067">
        <ele>1460.860962</ele>
        <time>2014-06-09T13:33:48Z</time>
      </trkpt>
      <trkpt lat="44.86131" lon="5.25069">
        <ele>1461.35376</ele>
        <time>2014-06-09T13:33:53Z</time>
      </trkpt>
      <trkpt lat="44.86131" lon="5.2507">
        <ele>1461.475586</ele>
        <time>2014-06-09T13:33:58Z</time>
      </trkpt>
      <trkpt lat="44.86131" lon="5.2507">
        <ele>1461.475586</ele>
        <time>2014-06-09T13:34:03Z</time>
      </trkpt>
      <trkpt lat="44.86131" lon="5.2507">
        <ele>1461.346558</ele>
        <time>2014-06-09T13:34:08Z</time>
      </trkpt>
      <trkpt lat="44.86131" lon="5.25069">
        <ele>1461.273193</ele>
        <time>2014-06-09T13:34:13Z</time>
      </trkpt>
      <trkpt lat="44.8613" lon="5.2507">
        <ele>1461.336914</ele>
        <time>2014-06-09T13:34:18Z</time>
      </trkpt>
      <trkpt lat="44.8613" lon="5.25072">
        <ele>1461.688965</ele>
        <time>2014-06-09T13:34:23Z</time>
      </trkpt>
      <trkpt lat="44.86131" lon="5.25073">
        <ele>1461.83374</ele>
        <time>2014-06-09T13:34:28Z</time>
      </trkpt>
      <trkpt lat="44.86131" lon="5.25073">
        <ele>1461.83374</ele>
        <time>2014-06-09T13:34:33Z</time>
      </trkpt>
      <trkpt lat="44.86131" lon="5.25074">
        <ele>1462.014526</ele>
        <time>2014-06-09T13:34:38Z</time>
      </trkpt>
      <trkpt lat="44.86131" lon="5.25074">
        <ele>1462.116577</ele>
        <time>2014-06-09T13:36:53Z</time>
      </trkpt>
      <trkpt lat="44.86131" lon="5.25077">
        <ele>1462.454712</ele>
        <time>2014-06-09T13:36:58Z</time>
      </trkpt>
      <trkpt lat="44.8613" lon="5.25081">
        <ele>1463.04834</ele>
        <time>2014-06-09T13:37:03Z</time>
      </trkpt>
      <trkpt lat="44.8613" lon="5.25084">
        <ele>1463.593994</ele>
        <time>2014-06-09T13:37:08Z</time>
      </trkpt>
      <trkpt lat="44.8613" lon="5.25091">
        <ele>1464.669922</ele>
        <time>2014-06-09T13:37:13Z</time>
      </trkpt>
      <trkpt lat="44.86129" lon="5.25099">
        <ele>1465.719971</ele>
        <time>2014-06-09T13:37:18Z</time>
      </trkpt>
      <trkpt lat="44.86128" lon="5.25107">
        <ele>1466.532593</ele>
        <time>2014-06-09T13:37:23Z</time>
      </trkpt>
      <trkpt lat="44.86125" lon="5.25114">
        <ele>1466.907837</ele>
        <time>2014-06-09T13:37:28Z</time>
      </trkpt>
      <trkpt lat="44.86123" lon="5.2512">
        <ele>1467.327759</ele>
        <time>2014-06-09T13:37:33Z</time>
      </trkpt>
      <trkpt lat="44.86119" lon="5.25127">
        <ele>1467.818359</ele>
        <time>2014-06-09T13:37:38Z</time>
      </trkpt>
      <trkpt lat="44.86116" lon="5.25133">
        <ele>1468.484985</ele>
        <time>2014-06-09T13:37:43Z</time>
      </trkpt>
      <trkpt lat="44.86112" lon="5.2514">
        <ele>1469.271362</ele>
        <time>2014-06-09T13:37:48Z</time>
      </trkpt>
      <trkpt lat="44.86108" lon="5.25146">
        <ele>1470.130371</ele>
        <time>2014-06-09T13:37:53Z</time>
      </trkpt>
      <trkpt lat="44.86104" lon="5.2515">
        <ele>1470.866821</ele>
        <time>2014-06-09T13:37:58Z</time>
      </trkpt>
      <trkpt lat="44.86102" lon="5.25157">
        <ele>1471.408081</ele>
        <time>2014-06-09T13:38:03Z</time>
      </trkpt>
      <trkpt lat="44.86098" lon="5.25161">
        <ele>1471.252563</ele>
        <time>2014-06-09T13:38:08Z</time>
      </trkpt>
      <trkpt lat="44.86096" lon="5.25168">
        <ele>1471.258057</ele>
        <time>2014-06-09T13:38:13Z</time>
      </trkpt>
      <trkpt lat="44.86091" lon="5.25174">
        <ele>1470.703857</ele>
        <time>2014-06-09T13:38:18Z</time>
      </trkpt>
      <trkpt lat="44.86087" lon="5.2518">
        <ele>1470.587402</ele>
        <time>2014-06-09T13:38:23Z</time>
      </trkpt>
      <trkpt lat="44.86083" lon="5.25186">
        <ele>1470.881104</ele>
        <time>2014-06-09T13:38:28Z</time>
      </trkpt>
      <trkpt lat="44.86079" lon="5.25192">
        <ele>1471.471924</ele>
        <time>2014-06-09T13:38:33Z</time>
      </trkpt>
      <trkpt lat="44.86075" lon="5.25198">
        <ele>1472.351929</ele>
        <time>2014-06-09T13:38:38Z</time>
      </trkpt>
      <trkpt lat="44.86071" lon="5.25204">
        <ele>1473.596069</ele>
        <time>2014-06-09T13:38:43Z</time>
      </trkpt>
      <trkpt lat="44.86067" lon="5.2521">
        <ele>1475.133423</ele>
        <time>2014-06-09T13:38:48Z</time>
      </trkpt>
      <trkpt lat="44.86063" lon="5.25216">
        <ele>1476.843994</ele>
        <time>2014-06-09T13:38:53Z</time>
      </trkpt>
      <trkpt lat="44.86059" lon="5.25222">
        <ele>1478.829224</ele>
        <time>2014-06-09T13:38:58Z</time>
      </trkpt>
      <trkpt lat="44.86055" lon="5.25226">
        <ele>1479.406982</ele>
        <time>2014-06-09T13:39:03Z</time>
      </trkpt>
      <trkpt lat="44.86053" lon="5.25228">
        <ele>1478.977051</ele>
        <time>2014-06-09T13:39:08Z</time>
      </trkpt>
      <trkpt lat="44.86053" lon="5.25228">
        <ele>1478.977051</ele>
        <time>2014-06-09T13:39:13Z</time>
      </trkpt>
      <trkpt lat="44.86053" lon="5.25227">
        <ele>1479.020386</ele>
        <time>2014-06-09T13:39:18Z</time>
      </trkpt>
      <trkpt lat="44.86053" lon="5.25227">
        <ele>1479.020386</ele>
        <time>2014-06-09T13:39:23Z</time>
      </trkpt>
      <trkpt lat="44.8605" lon="5.25231">
        <ele>1478.199585</ele>
        <time>2014-06-09T13:39:28Z</time>
      </trkpt>
      <trkpt lat="44.86045" lon="5.25235">
        <ele>1477.22583</ele>
        <time>2014-06-09T13:39:33Z</time>
      </trkpt>
      <trkpt lat="44.8604" lon="5.25239">
        <ele>1476.470337</ele>
        <time>2014-06-09T13:39:38Z</time>
      </trkpt>
      <trkpt lat="44.86034" lon="5.25242">
        <ele>1475.920044</ele>
        <time>2014-06-09T13:39:43Z</time>
      </trkpt>
      <trkpt lat="44.86029" lon="5.25246">
        <ele>1475.566162</ele>
        <time>2014-06-09T13:39:48Z</time>
      </trkpt>
      <trkpt lat="44.86023" lon="5.2525">
        <ele>1475.407471</ele>
        <time>2014-06-09T13:39:53Z</time>
      </trkpt>
      <trkpt lat="44.86018" lon="5.25253">
        <ele>1475.473999</ele>
        <time>2014-06-09T13:39:58Z</time>
      </trkpt>
      <trkpt lat="44.86012" lon="5.25256">
        <ele>1475.688354</ele>
        <time>2014-06-09T13:40:03Z</time>
      </trkpt>
      <trkpt lat="44.86006" lon="5.25257">
        <ele>1475.481201</ele>
        <time>2014-06-09T13:40:08Z</time>
      </trkpt>
      <trkpt lat="44.86001" lon="5.25258">
        <ele>1475.313354</ele>
        <time>2014-06-09T13:40:13Z</time>
      </trkpt>
      <trkpt lat="44.85995" lon="5.2526">
        <ele>1475.220581</ele>
        <time>2014-06-09T13:40:18Z</time>
      </trkpt>
      <trkpt lat="44.85989" lon="5.2526">
        <ele>1475.10498</ele>
        <time>2014-06-09T13:40:23Z</time>
      </trkpt>
      <trkpt lat="44.85986" lon="5.25258">
        <ele>1474.455322</ele>
        <time>2014-06-09T13:40:28Z</time>
      </trkpt>
      <trkpt lat="44.85985" lon="5.25257">
        <ele>1474.274048</ele>
        <time>2014-06-09T13:40:33Z</time>
      </trkpt>
      <trkpt lat="44.85983" lon="5.25257">
        <ele>1474.288696</ele>
        <time>2014-06-09T13:40:38Z</time>
      </trkpt>
      <trkpt lat="44.8598" lon="5.25258">
        <ele>1474.340332</ele>
        <time>2014-06-09T13:40:43Z</time>
      </trkpt>
      <trkpt lat="44.85975" lon="5.25259">
        <ele>1474.333252</ele>
        <time>2014-06-09T13:40:48Z</time>
      </trkpt>
      <trkpt lat="44.8597" lon="5.2526">
        <ele>1474.360107</ele>
        <time>2014-06-09T13:40:53Z</time>
      </trkpt>
      <trkpt lat="44.85965" lon="5.25261">
        <ele>1474.436646</ele>
        <time>2014-06-09T13:40:58Z</time>
      </trkpt>
      <trkpt lat="44.85959" lon="5.25263">
        <ele>1475.118164</ele>
        <time>2014-06-09T13:41:03Z</time>
      </trkpt>
      <trkpt lat="44.85953" lon="5.25264">
        <ele>1475.554443</ele>
        <time>2014-06-09T13:41:08Z</time>
      </trkpt>
      <trkpt lat="44.85947" lon="5.25265">
        <ele>1475.997803</ele>
        <time>2014-06-09T13:41:13Z</time>
      </trkpt>
      <trkpt lat="44.85941" lon="5.25265">
        <ele>1476.347656</ele>
        <time>2014-06-09T13:41:18Z</time>
      </trkpt>
      <trkpt lat="44.85935" lon="5.25266">
        <ele>1476.741943</ele>
        <time>2014-06-09T13:41:23Z</time>
      </trkpt>
      <trkpt lat="44.85928" lon="5.25266">
        <ele>1477.033569</ele>
        <time>2014-06-09T13:41:28Z</time>
      </trkpt>
      <trkpt lat="44.85922" lon="5.25267">
        <ele>1477.798706</ele>
        <time>2014-06-09T13:41:33Z</time>
      </trkpt>
      <trkpt lat="44.85915" lon="5.25269">
        <ele>1478.240601</ele>
        <time>2014-06-09T13:41:38Z</time>
      </trkpt>
      <trkpt lat="44.85909" lon="5.2527">
        <ele>1478.55603</ele>
        <time>2014-06-09T13:41:43Z</time>
      </trkpt>
      <trkpt lat="44.85903" lon="5.25274">
        <ele>1479.602051</ele>
        <time>2014-06-09T13:41:48Z</time>
      </trkpt>
      <trkpt lat="44.85898" lon="5.25277">
        <ele>1480.790283</ele>
        <time>2014-06-09T13:41:53Z</time>
      </trkpt>
      <trkpt lat="44.85892" lon="5.25279">
        <ele>1481.355713</ele>
        <time>2014-06-09T13:41:58Z</time>
      </trkpt>
      <trkpt lat="44.85886" lon="5.25281">
        <ele>1481.142212</ele>
        <time>2014-06-09T13:42:03Z</time>
      </trkpt>
      <trkpt lat="44.85881" lon="5.25283">
        <ele>1480.949951</ele>
        <time>2014-06-09T13:42:08Z</time>
      </trkpt>
      <trkpt lat="44.85876" lon="5.25286">
        <ele>1480.778198</ele>
        <time>2014-06-09T13:42:13Z</time>
      </trkpt>
      <trkpt lat="44.85871" lon="5.25287">
        <ele>1480.777222</ele>
        <time>2014-06-09T13:42:18Z</time>
      </trkpt>
      <trkpt lat="44.85866" lon="5.25289">
        <ele>1480.827515</ele>
        <time>2014-06-09T13:42:23Z</time>
      </trkpt>
      <trkpt lat="44.85861" lon="5.2529">
        <ele>1480.91748</ele>
        <time>2014-06-09T13:42:28Z</time>
      </trkpt>
      <trkpt lat="44.85855" lon="5.25292">
        <ele>1481.049683</ele>
        <time>2014-06-09T13:42:33Z</time>
      </trkpt>
      <trkpt lat="44.8585" lon="5.25293">
        <ele>1481.207031</ele>
        <time>2014-06-09T13:42:38Z</time>
      </trkpt>
      <trkpt lat="44.85845" lon="5.25295">
        <ele>1481.405884</ele>
        <time>2014-06-09T13:42:43Z</time>
      </trkpt>
      <trkpt lat="44.85838" lon="5.25297">
        <ele>1481.671753</ele>
        <time>2014-06-09T13:42:48Z</time>
      </trkpt>
      <trkpt lat="44.85833" lon="5.25298">
        <ele>1481.951782</ele>
        <time>2014-06-09T13:42:53Z</time>
      </trkpt>
      <trkpt lat="44.85827" lon="5.253">
        <ele>1482.263794</ele>
        <time>2014-06-09T13:42:58Z</time>
      </trkpt>
      <trkpt lat="44.85822" lon="5.25302">
        <ele>1482.58606</ele>
        <time>2014-06-09T13:43:03Z</time>
      </trkpt>
      <trkpt lat="44.85817" lon="5.25304">
        <ele>1482.927979</ele>
        <time>2014-06-09T13:43:08Z</time>
      </trkpt>
      <trkpt lat="44.85811" lon="5.25307">
        <ele>1483.33667</ele>
        <time>2014-06-09T13:43:13Z</time>
      </trkpt>
      <trkpt lat="44.85806" lon="5.2531">
        <ele>1483.835205</ele>
        <time>2014-06-09T13:43:18Z</time>
      </trkpt>
      <trkpt lat="44.85802" lon="5.25311">
        <ele>1484.171509</ele>
        <time>2014-06-09T13:43:23Z</time>
      </trkpt>
      <trkpt lat="44.85797" lon="5.25312">
        <ele>1484.51355</ele>
        <time>2014-06-09T13:43:28Z</time>
      </trkpt>
      <trkpt lat="44.85795" lon="5.25309">
        <ele>1484.370239</ele>
        <time>2014-06-09T13:43:33Z</time>
      </trkpt>
      <trkpt lat="44.85795" lon="5.25305">
        <ele>1483.971069</ele>
        <time>2014-06-09T13:43:38Z</time>
      </trkpt>
      <trkpt lat="44.85795" lon="5.25303">
        <ele>1483.841187</ele>
        <time>2014-06-09T13:43:43Z</time>
      </trkpt>
      <trkpt lat="44.85795" lon="5.25303">
        <ele>1483.827148</ele>
        <time>2014-06-09T13:43:48Z</time>
      </trkpt>
      <trkpt lat="44.85796" lon="5.25303">
        <ele>1483.782471</ele>
        <time>2014-06-09T13:43:53Z</time>
      </trkpt>
      <trkpt lat="44.85796" lon="5.25303">
        <ele>1483.75708</ele>
        <time>2014-06-09T13:43:58Z</time>
      </trkpt>
      <trkpt lat="44.85796" lon="5.25303">
        <ele>1483.758301</ele>
        <time>2014-06-09T13:44:03Z</time>
      </trkpt>
      <trkpt lat="44.85797" lon="5.25303">
        <ele>1483.759277</ele>
        <time>2014-06-09T13:44:08Z</time>
      </trkpt>
      <trkpt lat="44.85797" lon="5.25303">
        <ele>1483.714722</ele>
        <time>2014-06-09T13:44:13Z</time>
      </trkpt>
      <trkpt lat="44.85797" lon="5.25303">
        <ele>1483.714722</ele>
        <time>2014-06-09T13:44:18Z</time>
      </trkpt>
      <trkpt lat="44.85797" lon="5.25303">
        <ele>1483.714722</ele>
        <time>2014-06-09T13:44:23Z</time>
      </trkpt>
      <trkpt lat="44.85796" lon="5.25303">
        <ele>1483.742065</ele>
        <time>2014-06-09T13:44:28Z</time>
      </trkpt>
      <trkpt lat="44.85797" lon="5.25303">
        <ele>1483.699829</ele>
        <time>2014-06-09T13:44:33Z</time>
      </trkpt>
      <trkpt lat="44.85797" lon="5.25303">
        <ele>1483.699829</ele>
        <time>2014-06-09T13:44:38Z</time>
      </trkpt>
      <trkpt lat="44.85797" lon="5.25303">
        <ele>1483.699829</ele>
        <time>2014-06-09T13:44:43Z</time>
      </trkpt>
      <trkpt lat="44.85797" lon="5.25303">
        <ele>1483.699829</ele>
        <time>2014-06-09T13:44:48Z</time>
      </trkpt>
      <trkpt lat="44.85797" lon="5.25303">
        <ele>1483.699829</ele>
        <time>2014-06-09T13:44:53Z</time>
      </trkpt>
      <trkpt lat="44.85797" lon="5.25303">
        <ele>1483.699829</ele>
        <time>2014-06-09T13:44:58Z</time>
      </trkpt>
      <trkpt lat="44.85796" lon="5.25303">
        <ele>1483.728394</ele>
        <time>2014-06-09T13:45:03Z</time>
      </trkpt>
      <trkpt lat="44.85796" lon="5.25303">
        <ele>1483.728394</ele>
        <time>2014-06-09T13:45:08Z</time>
      </trkpt>
      <trkpt lat="44.85796" lon="5.25304">
        <ele>1483.834106</ele>
        <time>2014-06-09T13:45:13Z</time>
      </trkpt>
      <trkpt lat="44.85792" lon="5.25306">
        <ele>1484.264648</ele>
        <time>2014-06-09T13:45:18Z</time>
      </trkpt>
      <trkpt lat="44.85787" lon="5.25308">
        <ele>1484.695068</ele>
        <time>2014-06-09T13:45:23Z</time>
      </trkpt>
      <trkpt lat="44.85783" lon="5.25312">
        <ele>1485.454834</ele>
        <time>2014-06-09T13:45:28Z</time>
      </trkpt>
      <trkpt lat="44.85778" lon="5.25313">
        <ele>1486.36731</ele>
        <time>2014-06-09T13:45:33Z</time>
      </trkpt>
      <trkpt lat="44.85772" lon="5.25315">
        <ele>1487.414917</ele>
        <time>2014-06-09T13:45:38Z</time>
      </trkpt>
      <trkpt lat="44.85767" lon="5.25316">
        <ele>1488.292114</ele>
        <time>2014-06-09T13:45:43Z</time>
      </trkpt>
      <trkpt lat="44.85762" lon="5.25318">
        <ele>1489.287964</ele>
        <time>2014-06-09T13:45:48Z</time>
      </trkpt>
      <trkpt lat="44.85757" lon="5.25319">
        <ele>1490.254395</ele>
        <time>2014-06-09T13:45:53Z</time>
      </trkpt>
      <trkpt lat="44.85753" lon="5.2532">
        <ele>1491.171875</ele>
        <time>2014-06-09T13:45:58Z</time>
      </trkpt>
      <trkpt lat="44.85748" lon="5.25322">
        <ele>1492.228638</ele>
        <time>2014-06-09T13:46:03Z</time>
      </trkpt>
      <trkpt lat="44.85744" lon="5.25323">
        <ele>1493.104614</ele>
        <time>2014-06-09T13:46:08Z</time>
      </trkpt>
      <trkpt lat="44.85743" lon="5.25321">
        <ele>1492.807983</ele>
        <time>2014-06-09T13:46:13Z</time>
      </trkpt>
      <trkpt lat="44.85741" lon="5.25321">
        <ele>1493.234131</ele>
        <time>2014-06-09T13:46:18Z</time>
      </trkpt>
      <trkpt lat="44.85737" lon="5.25323">
        <ele>1494.035645</ele>
        <time>2014-06-09T13:46:23Z</time>
      </trkpt>
      <trkpt lat="44.85732" lon="5.25322">
        <ele>1494.349487</ele>
        <time>2014-06-09T13:46:28Z</time>
      </trkpt>
      <trkpt lat="44.85727" lon="5.25323">
        <ele>1494.856079</ele>
        <time>2014-06-09T13:46:33Z</time>
      </trkpt>
      <trkpt lat="44.85722" lon="5.25323">
        <ele>1495.263916</ele>
        <time>2014-06-09T13:46:38Z</time>
      </trkpt>
      <trkpt lat="44.85718" lon="5.25324">
        <ele>1495.763306</ele>
        <time>2014-06-09T13:46:43Z</time>
      </trkpt>
      <trkpt lat="44.85713" lon="5.25325">
        <ele>1496.530029</ele>
        <time>2014-06-09T13:46:48Z</time>
      </trkpt>
      <trkpt lat="44.85708" lon="5.25327">
        <ele>1497.477417</ele>
        <time>2014-06-09T13:46:53Z</time>
      </trkpt>
      <trkpt lat="44.85703" lon="5.25329">
        <ele>1498.411377</ele>
        <time>2014-06-09T13:46:58Z</time>
      </trkpt>
      <trkpt lat="44.85698" lon="5.25332">
        <ele>1499.571777</ele>
        <time>2014-06-09T13:47:03Z</time>
      </trkpt>
      <trkpt lat="44.85693" lon="5.25336">
        <ele>1499.42688</ele>
        <time>2014-06-09T13:47:08Z</time>
      </trkpt>
      <trkpt lat="44.85689" lon="5.2534">
        <ele>1498.385742</ele>
        <time>2014-06-09T13:47:13Z</time>
      </trkpt>
      <trkpt lat="44.85684" lon="5.25345">
        <ele>1497.279175</ele>
        <time>2014-06-09T13:47:18Z</time>
      </trkpt>
      <trkpt lat="44.8568" lon="5.25351">
        <ele>1496.27002</ele>
        <time>2014-06-09T13:47:23Z</time>
      </trkpt>
      <trkpt lat="44.85675" lon="5.25355">
        <ele>1495.462524</ele>
        <time>2014-06-09T13:47:28Z</time>
      </trkpt>
      <trkpt lat="44.85671" lon="5.25358">
        <ele>1494.799561</ele>
        <time>2014-06-09T13:47:33Z</time>
      </trkpt>
      <trkpt lat="44.85666" lon="5.25362">
        <ele>1494.163574</ele>
        <time>2014-06-09T13:47:38Z</time>
      </trkpt>
      <trkpt lat="44.85661" lon="5.25366">
        <ele>1493.574097</ele>
        <time>2014-06-09T13:47:43Z</time>
      </trkpt>
      <trkpt lat="44.85657" lon="5.25372">
        <ele>1493.084473</ele>
        <time>2014-06-09T13:47:48Z</time>
      </trkpt>
      <trkpt lat="44.85653" lon="5.25378">
        <ele>1492.663208</ele>
        <time>2014-06-09T13:47:53Z</time>
      </trkpt>
      <trkpt lat="44.8565" lon="5.25384">
        <ele>1492.325684</ele>
        <time>2014-06-09T13:47:58Z</time>
      </trkpt>
      <trkpt lat="44.85646" lon="5.25389">
        <ele>1491.885864</ele>
        <time>2014-06-09T13:48:03Z</time>
      </trkpt>
      <trkpt lat="44.85642" lon="5.25394">
        <ele>1491.041138</ele>
        <time>2014-06-09T13:48:08Z</time>
      </trkpt>
      <trkpt lat="44.85637" lon="5.25399">
        <ele>1489.859375</ele>
        <time>2014-06-09T13:48:13Z</time>
      </trkpt>
      <trkpt lat="44.85633" lon="5.25405">
        <ele>1488.668823</ele>
        <time>2014-06-09T13:48:18Z</time>
      </trkpt>
      <trkpt lat="44.85627" lon="5.2541">
        <ele>1487.705078</ele>
        <time>2014-06-09T13:48:23Z</time>
      </trkpt>
      <trkpt lat="44.85623" lon="5.25415">
        <ele>1486.87854</ele>
        <time>2014-06-09T13:48:28Z</time>
      </trkpt>
      <trkpt lat="44.85618" lon="5.2542">
        <ele>1486.118896</ele>
        <time>2014-06-09T13:48:33Z</time>
      </trkpt>
      <trkpt lat="44.85613" lon="5.25424">
        <ele>1485.53125</ele>
        <time>2014-06-09T13:48:38Z</time>
      </trkpt>
      <trkpt lat="44.85608" lon="5.25429">
        <ele>1485.066895</ele>
        <time>2014-06-09T13:48:43Z</time>
      </trkpt>
      <trkpt lat="44.85605" lon="5.25434">
        <ele>1484.704346</ele>
        <time>2014-06-09T13:48:48Z</time>
      </trkpt>
      <trkpt lat="44.85601" lon="5.2544">
        <ele>1484.389526</ele>
        <time>2014-06-09T13:48:53Z</time>
      </trkpt>
      <trkpt lat="44.85598" lon="5.25447">
        <ele>1483.835938</ele>
        <time>2014-06-09T13:48:58Z</time>
      </trkpt>
      <trkpt lat="44.85594" lon="5.25453">
        <ele>1483.41333</ele>
        <time>2014-06-09T13:49:03Z</time>
      </trkpt>
      <trkpt lat="44.8559" lon="5.25459">
        <ele>1482.445313</ele>
        <time>2014-06-09T13:49:08Z</time>
      </trkpt>
      <trkpt lat="44.85587" lon="5.25465">
        <ele>1481.476685</ele>
        <time>2014-06-09T13:49:13Z</time>
      </trkpt>
      <trkpt lat="44.85584" lon="5.25472">
        <ele>1480.495972</ele>
        <time>2014-06-09T13:49:18Z</time>
      </trkpt>
      <trkpt lat="44.85581" lon="5.25478">
        <ele>1479.592163</ele>
        <time>2014-06-09T13:49:23Z</time>
      </trkpt>
      <trkpt lat="44.85577" lon="5.25484">
        <ele>1478.665649</ele>
        <time>2014-06-09T13:49:28Z</time>
      </trkpt>
      <trkpt lat="44.85574" lon="5.2549">
        <ele>1477.802979</ele>
        <time>2014-06-09T13:49:33Z</time>
      </trkpt>
      <trkpt lat="44.85569" lon="5.25494">
        <ele>1477.028076</ele>
        <time>2014-06-09T13:49:38Z</time>
      </trkpt>
      <trkpt lat="44.85566" lon="5.25499">
        <ele>1476.288086</ele>
        <time>2014-06-09T13:49:43Z</time>
      </trkpt>
      <trkpt lat="44.85563" lon="5.25506">
        <ele>1475.460083</ele>
        <time>2014-06-09T13:49:48Z</time>
      </trkpt>
      <trkpt lat="44.85559" lon="5.25507">
        <ele>1474.99353</ele>
        <time>2014-06-09T13:49:53Z</time>
      </trkpt>
      <trkpt lat="44.85558" lon="5.25508">
        <ele>1474.932129</ele>
        <time>2014-06-09T13:49:58Z</time>
      </trkpt>
      <trkpt lat="44.85558" lon="5.2551">
        <ele>1474.726563</ele>
        <time>2014-06-09T13:50:03Z</time>
      </trkpt>
      <trkpt lat="44.85558" lon="5.2551">
        <ele>1474.741699</ele>
        <time>2014-06-09T13:50:08Z</time>
      </trkpt>
      <trkpt lat="44.85558" lon="5.25509">
        <ele>1474.749146</ele>
        <time>2014-06-09T13:50:13Z</time>
      </trkpt>
      <trkpt lat="44.85558" lon="5.25509">
        <ele>1474.749146</ele>
        <time>2014-06-09T13:50:18Z</time>
      </trkpt>
      <trkpt lat="44.85558" lon="5.25511">
        <ele>1474.589355</ele>
        <time>2014-06-09T13:50:23Z</time>
      </trkpt>
      <trkpt lat="44.85558" lon="5.25517">
        <ele>1473.86499</ele>
        <time>2014-06-09T13:50:28Z</time>
      </trkpt>
      <trkpt lat="44.85555" lon="5.25523">
        <ele>1472.578369</ele>
        <time>2014-06-09T13:50:33Z</time>
      </trkpt>
      <trkpt lat="44.85551" lon="5.25529">
        <ele>1470.653931</ele>
        <time>2014-06-09T13:50:38Z</time>
      </trkpt>
      <trkpt lat="44.85548" lon="5.25533">
        <ele>1468.949829</ele>
        <time>2014-06-09T13:50:43Z</time>
      </trkpt>
      <trkpt lat="44.85544" lon="5.25539">
        <ele>1467.23999</ele>
        <time>2014-06-09T13:50:48Z</time>
      </trkpt>
      <trkpt lat="44.8554" lon="5.25543">
        <ele>1465.609863</ele>
        <time>2014-06-09T13:50:53Z</time>
      </trkpt>
      <trkpt lat="44.85536" lon="5.25548">
        <ele>1464.119629</ele>
        <time>2014-06-09T13:50:58Z</time>
      </trkpt>
      <trkpt lat="44.85532" lon="5.25552">
        <ele>1462.816528</ele>
        <time>2014-06-09T13:51:03Z</time>
      </trkpt>
      <trkpt lat="44.85528" lon="5.25556">
        <ele>1461.785278</ele>
        <time>2014-06-09T13:51:08Z</time>
      </trkpt>
      <trkpt lat="44.85525" lon="5.25561">
        <ele>1460.943359</ele>
        <time>2014-06-09T13:51:13Z</time>
      </trkpt>
      <trkpt lat="44.85521" lon="5.25564">
        <ele>1460.133789</ele>
        <time>2014-06-09T13:51:18Z</time>
      </trkpt>
      <trkpt lat="44.85517" lon="5.25564">
        <ele>1459.361084</ele>
        <time>2014-06-09T13:51:23Z</time>
      </trkpt>
      <trkpt lat="44.85513" lon="5.25567">
        <ele>1458.791016</ele>
        <time>2014-06-09T13:51:28Z</time>
      </trkpt>
      <trkpt lat="44.8551" lon="5.25571">
        <ele>1458.233521</ele>
        <time>2014-06-09T13:51:33Z</time>
      </trkpt>
      <trkpt lat="44.85505" lon="5.25574">
        <ele>1457.404663</ele>
        <time>2014-06-09T13:51:38Z</time>
      </trkpt>
      <trkpt lat="44.855" lon="5.25577">
        <ele>1455.946289</ele>
        <time>2014-06-09T13:51:43Z</time>
      </trkpt>
      <trkpt lat="44.85496" lon="5.2558">
        <ele>1454.468018</ele>
        <time>2014-06-09T13:51:48Z</time>
      </trkpt>
      <trkpt lat="44.85491" lon="5.25583">
        <ele>1452.923462</ele>
        <time>2014-06-09T13:51:53Z</time>
      </trkpt>
      <trkpt lat="44.85486" lon="5.25586">
        <ele>1451.61145</ele>
        <time>2014-06-09T13:51:58Z</time>
      </trkpt>
      <trkpt lat="44.85481" lon="5.25589">
        <ele>1450.313843</ele>
        <time>2014-06-09T13:52:03Z</time>
      </trkpt>
      <trkpt lat="44.85476" lon="5.25591">
        <ele>1449.251709</ele>
        <time>2014-06-09T13:52:08Z</time>
      </trkpt>
      <trkpt lat="44.85471" lon="5.25594">
        <ele>1448.146118</ele>
        <time>2014-06-09T13:52:13Z</time>
      </trkpt>
      <trkpt lat="44.85466" lon="5.25596">
        <ele>1447.232056</ele>
        <time>2014-06-09T13:52:18Z</time>
      </trkpt>
      <trkpt lat="44.85461" lon="5.256">
        <ele>1446.283447</ele>
        <time>2014-06-09T13:52:23Z</time>
      </trkpt>
      <trkpt lat="44.85458" lon="5.25605">
        <ele>1445.311279</ele>
        <time>2014-06-09T13:52:28Z</time>
      </trkpt>
      <trkpt lat="44.85454" lon="5.2561">
        <ele>1444.542847</ele>
        <time>2014-06-09T13:52:33Z</time>
      </trkpt>
      <trkpt lat="44.8545" lon="5.25614">
        <ele>1443.743042</ele>
        <time>2014-06-09T13:52:38Z</time>
      </trkpt>
      <trkpt lat="44.85445" lon="5.25618">
        <ele>1443.140991</ele>
        <time>2014-06-09T13:52:43Z</time>
      </trkpt>
      <trkpt lat="44.85441" lon="5.25623">
        <ele>1443.136475</ele>
        <time>2014-06-09T13:52:48Z</time>
      </trkpt>
      <trkpt lat="44.85437" lon="5.25628">
        <ele>1443.388062</ele>
        <time>2014-06-09T13:52:53Z</time>
      </trkpt>
      <trkpt lat="44.85434" lon="5.25634">
        <ele>1443.951538</ele>
        <time>2014-06-09T13:52:58Z</time>
      </trkpt>
      <trkpt lat="44.8543" lon="5.25639">
        <ele>1443.450317</ele>
        <time>2014-06-09T13:53:03Z</time>
      </trkpt>
      <trkpt lat="44.85426" lon="5.25643">
        <ele>1442.689209</ele>
        <time>2014-06-09T13:53:08Z</time>
      </trkpt>
      <trkpt lat="44.85423" lon="5.25647">
        <ele>1442.088501</ele>
        <time>2014-06-09T13:53:13Z</time>
      </trkpt>
      <trkpt lat="44.85423" lon="5.25649">
        <ele>1441.956909</ele>
        <time>2014-06-09T13:53:18Z</time>
      </trkpt>
      <trkpt lat="44.85423" lon="5.25649">
        <ele>1441.956909</ele>
        <time>2014-06-09T13:53:23Z</time>
      </trkpt>
      <trkpt lat="44.85423" lon="5.25649">
        <ele>1441.973633</ele>
        <time>2014-06-09T13:53:28Z</time>
      </trkpt>
      <trkpt lat="44.85421" lon="5.25652">
        <ele>1441.553711</ele>
        <time>2014-06-09T13:53:33Z</time>
      </trkpt>
      <trkpt lat="44.85418" lon="5.25657">
        <ele>1440.871582</ele>
        <time>2014-06-09T13:53:38Z</time>
      </trkpt>
      <trkpt lat="44.85413" lon="5.25662">
        <ele>1439.521851</ele>
        <time>2014-06-09T13:53:43Z</time>
      </trkpt>
      <trkpt lat="44.8541" lon="5.25666">
        <ele>1437.772095</ele>
        <time>2014-06-09T13:53:48Z</time>
      </trkpt>
      <trkpt lat="44.85405" lon="5.25671">
        <ele>1436.149902</ele>
        <time>2014-06-09T13:53:53Z</time>
      </trkpt>
      <trkpt lat="44.85401" lon="5.25676">
        <ele>1434.832764</ele>
        <time>2014-06-09T13:53:58Z</time>
      </trkpt>
      <trkpt lat="44.85397" lon="5.25681">
        <ele>1433.650269</ele>
        <time>2014-06-09T13:54:03Z</time>
      </trkpt>
      <trkpt lat="44.85392" lon="5.25687">
        <ele>1432.900269</ele>
        <time>2014-06-09T13:54:08Z</time>
      </trkpt>
      <trkpt lat="44.85388" lon="5.25692">
        <ele>1432.479614</ele>
        <time>2014-06-09T13:54:13Z</time>
      </trkpt>
      <trkpt lat="44.85384" lon="5.25697">
        <ele>1432.136475</ele>
        <time>2014-06-09T13:54:18Z</time>
      </trkpt>
      <trkpt lat="44.85379" lon="5.25702">
        <ele>1431.116089</ele>
        <time>2014-06-09T13:54:23Z</time>
      </trkpt>
      <trkpt lat="44.85375" lon="5.25707">
        <ele>1430.242188</ele>
        <time>2014-06-09T13:54:28Z</time>
      </trkpt>
      <trkpt lat="44.85371" lon="5.25713">
        <ele>1429.362061</ele>
        <time>2014-06-09T13:54:33Z</time>
      </trkpt>
      <trkpt lat="44.85366" lon="5.25717">
        <ele>1427.741455</ele>
        <time>2014-06-09T13:54:38Z</time>
      </trkpt>
      <trkpt lat="44.85362" lon="5.25722">
        <ele>1425.920776</ele>
        <time>2014-06-09T13:54:43Z</time>
      </trkpt>
      <trkpt lat="44.85358" lon="5.25728">
        <ele>1424.225586</ele>
        <time>2014-06-09T13:54:48Z</time>
      </trkpt>
      <trkpt lat="44.85354" lon="5.25733">
        <ele>1422.680298</ele>
        <time>2014-06-09T13:54:53Z</time>
      </trkpt>
      <trkpt lat="44.85349" lon="5.25738">
        <ele>1421.268799</ele>
        <time>2014-06-09T13:54:58Z</time>
      </trkpt>
      <trkpt lat="44.85345" lon="5.25743">
        <ele>1419.839355</ele>
        <time>2014-06-09T13:55:03Z</time>
      </trkpt>
      <trkpt lat="44.85341" lon="5.25747">
        <ele>1418.786621</ele>
        <time>2014-06-09T13:55:08Z</time>
      </trkpt>
      <trkpt lat="44.85342" lon="5.25753">
        <ele>1419.397217</ele>
        <time>2014-06-09T13:55:13Z</time>
      </trkpt>
      <trkpt lat="44.85344" lon="5.25758">
        <ele>1420.051147</ele>
        <time>2014-06-09T13:55:18Z</time>
      </trkpt>
      <trkpt lat="44.85347" lon="5.25764">
        <ele>1419.981445</ele>
        <time>2014-06-09T13:55:23Z</time>
      </trkpt>
      <trkpt lat="44.8535" lon="5.2577">
        <ele>1419.901978</ele>
        <time>2014-06-09T13:55:28Z</time>
      </trkpt>
      <trkpt lat="44.85352" lon="5.25776">
        <ele>1419.648438</ele>
        <time>2014-06-09T13:55:33Z</time>
      </trkpt>
      <trkpt lat="44.85355" lon="5.25781">
        <ele>1419.490723</ele>
        <time>2014-06-09T13:55:38Z</time>
      </trkpt>
      <trkpt lat="44.85357" lon="5.25787">
        <ele>1419.273438</ele>
        <time>2014-06-09T13:55:43Z</time>
      </trkpt>
      <trkpt lat="44.8536" lon="5.25793">
        <ele>1419.074219</ele>
        <time>2014-06-09T13:55:48Z</time>
      </trkpt>
      <trkpt lat="44.85362" lon="5.25799">
        <ele>1418.651367</ele>
        <time>2014-06-09T13:55:53Z</time>
      </trkpt>
      <trkpt lat="44.85365" lon="5.25805">
        <ele>1418.440308</ele>
        <time>2014-06-09T13:55:58Z</time>
      </trkpt>
      <trkpt lat="44.85369" lon="5.25812">
        <ele>1417.813232</ele>
        <time>2014-06-09T13:56:03Z</time>
      </trkpt>
      <trkpt lat="44.85372" lon="5.25817">
        <ele>1417.041016</ele>
        <time>2014-06-09T13:56:08Z</time>
      </trkpt>
      <trkpt lat="44.85375" lon="5.25824">
        <ele>1415.974976</ele>
        <time>2014-06-09T13:56:13Z</time>
      </trkpt>
      <trkpt lat="44.85378" lon="5.2583">
        <ele>1414.60022</ele>
        <time>2014-06-09T13:56:18Z</time>
      </trkpt>
      <trkpt lat="44.85381" lon="5.25837">
        <ele>1413.245361</ele>
        <time>2014-06-09T13:56:23Z</time>
      </trkpt>
      <trkpt lat="44.85384" lon="5.25843">
        <ele>1412.043579</ele>
        <time>2014-06-09T13:56:28Z</time>
      </trkpt>
      <trkpt lat="44.85387" lon="5.2585">
        <ele>1410.796875</ele>
        <time>2014-06-09T13:56:33Z</time>
      </trkpt>
      <trkpt lat="44.8539" lon="5.25856">
        <ele>1409.717651</ele>
        <time>2014-06-09T13:56:38Z</time>
      </trkpt>
      <trkpt lat="44.85394" lon="5.25862">
        <ele>1408.930542</ele>
        <time>2014-06-09T13:56:43Z</time>
      </trkpt>
      <trkpt lat="44.85397" lon="5.25868">
        <ele>1408.222412</ele>
        <time>2014-06-09T13:56:48Z</time>
      </trkpt>
      <trkpt lat="44.85401" lon="5.25874">
        <ele>1407.753784</ele>
        <time>2014-06-09T13:56:53Z</time>
      </trkpt>
      <trkpt lat="44.85405" lon="5.25879">
        <ele>1407.621948</ele>
        <time>2014-06-09T13:56:58Z</time>
      </trkpt>
      <trkpt lat="44.85411" lon="5.25883">
        <ele>1407.747559</ele>
        <time>2014-06-09T13:57:03Z</time>
      </trkpt>
      <trkpt lat="44.85416" lon="5.25887">
        <ele>1407.4198</ele>
        <time>2014-06-09T13:57:08Z</time>
      </trkpt>
      <trkpt lat="44.85421" lon="5.25892">
        <ele>1406.91687</ele>
        <time>2014-06-09T13:57:13Z</time>
      </trkpt>
      <trkpt lat="44.85426" lon="5.25896">
        <ele>1406.509888</ele>
        <time>2014-06-09T13:57:18Z</time>
      </trkpt>
      <trkpt lat="44.85431" lon="5.259">
        <ele>1406.27002</ele>
        <time>2014-06-09T13:57:23Z</time>
      </trkpt>
      <trkpt lat="44.85436" lon="5.25904">
        <ele>1406.22876</ele>
        <time>2014-06-09T13:57:28Z</time>
      </trkpt>
      <trkpt lat="44.85441" lon="5.25908">
        <ele>1406.217285</ele>
        <time>2014-06-09T13:57:33Z</time>
      </trkpt>
      <trkpt lat="44.85447" lon="5.25912">
        <ele>1406.273438</ele>
        <time>2014-06-09T13:57:38Z</time>
      </trkpt>
      <trkpt lat="44.85451" lon="5.25916">
        <ele>1406.30603</ele>
        <time>2014-06-09T13:57:43Z</time>
      </trkpt>
      <trkpt lat="44.85457" lon="5.2592">
        <ele>1406.266968</ele>
        <time>2014-06-09T13:57:48Z</time>
      </trkpt>
      <trkpt lat="44.85461" lon="5.25924">
        <ele>1405.935913</ele>
        <time>2014-06-09T13:57:53Z</time>
      </trkpt>
      <trkpt lat="44.85466" lon="5.25928">
        <ele>1405.692993</ele>
        <time>2014-06-09T13:57:58Z</time>
      </trkpt>
      <trkpt lat="44.85471" lon="5.25932">
        <ele>1405.51001</ele>
        <time>2014-06-09T13:58:03Z</time>
      </trkpt>
      <trkpt lat="44.85476" lon="5.25936">
        <ele>1405.466431</ele>
        <time>2014-06-09T13:58:08Z</time>
      </trkpt>
      <trkpt lat="44.85481" lon="5.2594">
        <ele>1405.463989</ele>
        <time>2014-06-09T13:58:13Z</time>
      </trkpt>
      <trkpt lat="44.85486" lon="5.25944">
        <ele>1405.540894</ele>
        <time>2014-06-09T13:58:18Z</time>
      </trkpt>
      <trkpt lat="44.85492" lon="5.25948">
        <ele>1405.746704</ele>
        <time>2014-06-09T13:58:23Z</time>
      </trkpt>
      <trkpt lat="44.85497" lon="5.25952">
        <ele>1406.004639</ele>
        <time>2014-06-09T13:58:28Z</time>
      </trkpt>
      <trkpt lat="44.85502" lon="5.25956">
        <ele>1405.503296</ele>
        <time>2014-06-09T13:58:33Z</time>
      </trkpt>
      <trkpt lat="44.85507" lon="5.2596">
        <ele>1404.491089</ele>
        <time>2014-06-09T13:58:38Z</time>
      </trkpt>
      <trkpt lat="44.85512" lon="5.25964">
        <ele>1403.678345</ele>
        <time>2014-06-09T13:58:43Z</time>
      </trkpt>
      <trkpt lat="44.85517" lon="5.25967">
        <ele>1403.037842</ele>
        <time>2014-06-09T13:58:48Z</time>
      </trkpt>
      <trkpt lat="44.85522" lon="5.25971">
        <ele>1402.382202</ele>
        <time>2014-06-09T13:58:53Z</time>
      </trkpt>
      <trkpt lat="44.85528" lon="5.25975">
        <ele>1401.833496</ele>
        <time>2014-06-09T13:58:58Z</time>
      </trkpt>
      <trkpt lat="44.85532" lon="5.25977">
        <ele>1401.520752</ele>
        <time>2014-06-09T13:59:03Z</time>
      </trkpt>
      <trkpt lat="44.85535" lon="5.2598">
        <ele>1401.222534</ele>
        <time>2014-06-09T13:59:08Z</time>
      </trkpt>
      <trkpt lat="44.8554" lon="5.25985">
        <ele>1400.774048</ele>
        <time>2014-06-09T13:59:13Z</time>
      </trkpt>
      <trkpt lat="44.85543" lon="5.2599">
        <ele>1400.371948</ele>
        <time>2014-06-09T13:59:18Z</time>
      </trkpt>
      <trkpt lat="44.85548" lon="5.25992">
        <ele>1400.242065</ele>
        <time>2014-06-09T13:59:23Z</time>
      </trkpt>
      <trkpt lat="44.85552" lon="5.25994">
        <ele>1400.183594</ele>
        <time>2014-06-09T13:59:28Z</time>
      </trkpt>
      <trkpt lat="44.85555" lon="5.26">
        <ele>1399.930176</ele>
        <time>2014-06-09T13:59:33Z</time>
      </trkpt>
      <trkpt lat="44.8556" lon="5.26004">
        <ele>1399.918335</ele>
        <time>2014-06-09T13:59:38Z</time>
      </trkpt>
      <trkpt lat="44.85564" lon="5.26008">
        <ele>1400.026978</ele>
        <time>2014-06-09T13:59:43Z</time>
      </trkpt>
      <trkpt lat="44.85569" lon="5.26013">
        <ele>1400.276489</ele>
        <time>2014-06-09T13:59:48Z</time>
      </trkpt>
      <trkpt lat="44.85574" lon="5.26017">
        <ele>1400.660645</ele>
        <time>2014-06-09T13:59:53Z</time>
      </trkpt>
      <trkpt lat="44.85578" lon="5.26022">
        <ele>1401.147705</ele>
        <time>2014-06-09T13:59:58Z</time>
      </trkpt>
      <trkpt lat="44.85583" lon="5.26027">
        <ele>1400.452881</ele>
        <time>2014-06-09T14:00:03Z</time>
      </trkpt>
      <trkpt lat="44.85587" lon="5.26032">
        <ele>1399.714111</ele>
        <time>2014-06-09T14:00:08Z</time>
      </trkpt>
      <trkpt lat="44.85592" lon="5.26037">
        <ele>1398.874268</ele>
        <time>2014-06-09T14:00:13Z</time>
      </trkpt>
      <trkpt lat="44.85597" lon="5.26042">
        <ele>1398.177979</ele>
        <time>2014-06-09T14:00:18Z</time>
      </trkpt>
      <trkpt lat="44.85602" lon="5.26046">
        <ele>1397.582031</ele>
        <time>2014-06-09T14:00:23Z</time>
      </trkpt>
      <trkpt lat="44.85606" lon="5.26051">
        <ele>1397.006714</ele>
        <time>2014-06-09T14:00:28Z</time>
      </trkpt>
      <trkpt lat="44.85611" lon="5.26055">
        <ele>1396.499756</ele>
        <time>2014-06-09T14:00:33Z</time>
      </trkpt>
      <trkpt lat="44.85616" lon="5.2606">
        <ele>1396.130615</ele>
        <time>2014-06-09T14:00:38Z</time>
      </trkpt>
      <trkpt lat="44.85621" lon="5.26066">
        <ele>1395.616333</ele>
        <time>2014-06-09T14:00:43Z</time>
      </trkpt>
      <trkpt lat="44.85626" lon="5.26071">
        <ele>1395.203125</ele>
        <time>2014-06-09T14:00:48Z</time>
      </trkpt>
      <trkpt lat="44.85629" lon="5.26078">
        <ele>1394.599976</ele>
        <time>2014-06-09T14:00:53Z</time>
      </trkpt>
      <trkpt lat="44.85632" lon="5.26086">
        <ele>1392.826782</ele>
        <time>2014-06-09T14:00:58Z</time>
      </trkpt>
      <trkpt lat="44.85634" lon="5.26093">
        <ele>1390.750732</ele>
        <time>2014-06-09T14:01:03Z</time>
      </trkpt>
      <trkpt lat="44.85637" lon="5.26101">
        <ele>1388.888428</ele>
        <time>2014-06-09T14:01:08Z</time>
      </trkpt>
      <trkpt lat="44.85639" lon="5.2611">
        <ele>1387.38916</ele>
        <time>2014-06-09T14:01:13Z</time>
      </trkpt>
      <trkpt lat="44.85642" lon="5.26117">
        <ele>1386.435181</ele>
        <time>2014-06-09T14:01:18Z</time>
      </trkpt>
      <trkpt lat="44.85644" lon="5.26125">
        <ele>1385.783081</ele>
        <time>2014-06-09T14:01:23Z</time>
      </trkpt>
      <trkpt lat="44.85647" lon="5.26133">
        <ele>1385.475464</ele>
        <time>2014-06-09T14:01:28Z</time>
      </trkpt>
      <trkpt lat="44.85649" lon="5.26141">
        <ele>1385.653564</ele>
        <time>2014-06-09T14:01:33Z</time>
      </trkpt>
      <trkpt lat="44.85651" lon="5.26149">
        <ele>1386.090332</ele>
        <time>2014-06-09T14:01:38Z</time>
      </trkpt>
      <trkpt lat="44.85654" lon="5.26157">
        <ele>1387.515625</ele>
        <time>2014-06-09T14:01:43Z</time>
      </trkpt>
      <trkpt lat="44.85656" lon="5.26164">
        <ele>1389.246826</ele>
        <time>2014-06-09T14:01:48Z</time>
      </trkpt>
      <trkpt lat="44.85659" lon="5.26171">
        <ele>1391.11499</ele>
        <time>2014-06-09T14:01:53Z</time>
      </trkpt>
      <trkpt lat="44.85661" lon="5.26177">
        <ele>1392.721802</ele>
        <time>2014-06-09T14:01:58Z</time>
      </trkpt>
      <trkpt lat="44.85663" lon="5.26183">
        <ele>1394.001953</ele>
        <time>2014-06-09T14:02:03Z</time>
      </trkpt>
      <trkpt lat="44.85665" lon="5.26188">
        <ele>1395.453979</ele>
        <time>2014-06-09T14:02:08Z</time>
      </trkpt>
      <trkpt lat="44.85666" lon="5.26194">
        <ele>1396.69812</ele>
        <time>2014-06-09T14:02:13Z</time>
      </trkpt>
      <trkpt lat="44.85668" lon="5.26199">
        <ele>1398.026001</ele>
        <time>2014-06-09T14:02:18Z</time>
      </trkpt>
      <trkpt lat="44.85669" lon="5.26204">
        <ele>1398.700195</ele>
        <time>2014-06-09T14:02:23Z</time>
      </trkpt>
      <trkpt lat="44.85669" lon="5.26204">
        <ele>1398.761963</ele>
        <time>2014-06-09T14:02:28Z</time>
      </trkpt>
      <trkpt lat="44.85671" lon="5.26209">
        <ele>1400.203735</ele>
        <time>2014-06-09T14:02:33Z</time>
      </trkpt>
      <trkpt lat="44.85672" lon="5.26214">
        <ele>1400.73584</ele>
        <time>2014-06-09T14:02:38Z</time>
      </trkpt>
      <trkpt lat="44.85674" lon="5.26216">
        <ele>1401.151245</ele>
        <time>2014-06-09T14:02:43Z</time>
      </trkpt>
      <trkpt lat="44.85674" lon="5.26218">
        <ele>1401.184082</ele>
        <time>2014-06-09T14:02:48Z</time>
      </trkpt>
      <trkpt lat="44.85675" lon="5.2622">
        <ele>1401.156982</ele>
        <time>2014-06-09T14:02:53Z</time>
      </trkpt>
      <trkpt lat="44.85677" lon="5.26221">
        <ele>1401.23999</ele>
        <time>2014-06-09T14:02:58Z</time>
      </trkpt>
      <trkpt lat="44.85681" lon="5.26222">
        <ele>1401.526245</ele>
        <time>2014-06-09T14:03:03Z</time>
      </trkpt>
      <trkpt lat="44.85685" lon="5.26224">
        <ele>1401.794434</ele>
        <time>2014-06-09T14:03:08Z</time>
      </trkpt>
      <trkpt lat="44.8569" lon="5.26225">
        <ele>1402.178345</ele>
        <time>2014-06-09T14:03:13Z</time>
      </trkpt>
      <trkpt lat="44.85696" lon="5.26228">
        <ele>1402.60022</ele>
        <time>2014-06-09T14:03:18Z</time>
      </trkpt>
      <trkpt lat="44.85702" lon="5.26229">
        <ele>1403.064941</ele>
        <time>2014-06-09T14:03:23Z</time>
      </trkpt>
      <trkpt lat="44.85708" lon="5.2623">
        <ele>1403.53833</ele>
        <time>2014-06-09T14:03:28Z</time>
      </trkpt>
      <trkpt lat="44.85712" lon="5.26232">
        <ele>1403.907104</ele>
        <time>2014-06-09T14:03:33Z</time>
      </trkpt>
      <trkpt lat="44.85711" lon="5.26232">
        <ele>1403.871582</ele>
        <time>2014-06-09T14:03:38Z</time>
      </trkpt>
      <trkpt lat="44.85711" lon="5.26232">
        <ele>1403.833252</ele>
        <time>2014-06-09T14:03:43Z</time>
      </trkpt>
      <trkpt lat="44.85711" lon="5.26232">
        <ele>1403.831787</ele>
        <time>2014-06-09T14:03:48Z</time>
      </trkpt>
      <trkpt lat="44.85711" lon="5.26232">
        <ele>1403.831787</ele>
        <time>2014-06-09T14:03:53Z</time>
      </trkpt>
      <trkpt lat="44.85711" lon="5.26232">
        <ele>1403.871582</ele>
        <time>2014-06-09T14:03:58Z</time>
      </trkpt>
      <trkpt lat="44.85711" lon="5.26232">
        <ele>1403.869995</ele>
        <time>2014-06-09T14:04:03Z</time>
      </trkpt>
      <trkpt lat="44.85711" lon="5.26232">
        <ele>1403.869995</ele>
        <time>2014-06-09T14:04:08Z</time>
      </trkpt>
      <trkpt lat="44.85712" lon="5.26232">
        <ele>1403.901978</ele>
        <time>2014-06-09T14:04:13Z</time>
      </trkpt>
      <trkpt lat="44.85717" lon="5.26231">
        <ele>1404.001709</ele>
        <time>2014-06-09T14:04:18Z</time>
      </trkpt>
      <trkpt lat="44.85723" lon="5.26228">
        <ele>1403.386597</ele>
        <time>2014-06-09T14:04:23Z</time>
      </trkpt>
      <trkpt lat="44.85726" lon="5.26226">
        <ele>1403.022705</ele>
        <time>2014-06-09T14:04:28Z</time>
      </trkpt>
      <trkpt lat="44.85726" lon="5.26226">
        <ele>1403.036499</ele>
        <time>2014-06-09T14:04:33Z</time>
      </trkpt>
      <trkpt lat="44.85726" lon="5.26226">
        <ele>1403.075317</ele>
        <time>2014-06-09T14:04:38Z</time>
      </trkpt>
      <trkpt lat="44.85726" lon="5.26227">
        <ele>1403.080811</ele>
        <time>2014-06-09T14:04:43Z</time>
      </trkpt>
      <trkpt lat="44.85726" lon="5.26227">
        <ele>1403.086182</ele>
        <time>2014-06-09T14:04:48Z</time>
      </trkpt>
      <trkpt lat="44.85726" lon="5.26227">
        <ele>1403.080811</ele>
        <time>2014-06-09T14:04:53Z</time>
      </trkpt>
      <trkpt lat="44.85728" lon="5.26226">
        <ele>1402.828003</ele>
        <time>2014-06-09T14:04:58Z</time>
      </trkpt>
      <trkpt lat="44.8573" lon="5.26223">
        <ele>1402.48584</ele>
        <time>2014-06-09T14:06:33Z</time>
      </trkpt>
      <trkpt lat="44.85731" lon="5.26223">
        <ele>1402.446899</ele>
        <time>2014-06-09T14:06:38Z</time>
      </trkpt>
      <trkpt lat="44.85732" lon="5.2622">
        <ele>1402.166138</ele>
        <time>2014-06-09T14:06:43Z</time>
      </trkpt>
      <trkpt lat="44.85735" lon="5.26219">
        <ele>1401.676025</ele>
        <time>2014-06-09T14:06:48Z</time>
      </trkpt>
      <trkpt lat="44.85739" lon="5.26213">
        <ele>1400.441772</ele>
        <time>2014-06-09T14:06:53Z</time>
      </trkpt>
      <trkpt lat="44.85743" lon="5.26208">
        <ele>1399.408569</ele>
        <time>2014-06-09T14:06:58Z</time>
      </trkpt>
      <trkpt lat="44.85744" lon="5.26201">
        <ele>1398.265625</ele>
        <time>2014-06-09T14:07:03Z</time>
      </trkpt>
      <trkpt lat="44.85745" lon="5.26193">
        <ele>1397.126953</ele>
        <time>2014-06-09T14:07:08Z</time>
      </trkpt>
      <trkpt lat="44.85745" lon="5.26189">
        <ele>1396.591919</ele>
        <time>2014-06-09T14:07:13Z</time>
      </trkpt>
      <trkpt lat="44.85745" lon="5.26189">
        <ele>1396.591919</ele>
        <time>2014-06-09T14:07:18Z</time>
      </trkpt>
      <trkpt lat="44.85745" lon="5.26189">
        <ele>1396.591919</ele>
        <time>2014-06-09T14:07:23Z</time>
      </trkpt>
      <trkpt lat="44.85745" lon="5.26189">
        <ele>1396.570679</ele>
        <time>2014-06-09T14:07:28Z</time>
      </trkpt>
      <trkpt lat="44.85745" lon="5.26189">
        <ele>1396.54834</ele>
        <time>2014-06-09T14:07:33Z</time>
      </trkpt>
      <trkpt lat="44.85745" lon="5.26185">
        <ele>1396.091064</ele>
        <time>2014-06-09T14:07:38Z</time>
      </trkpt>
      <trkpt lat="44.85746" lon="5.26178">
        <ele>1395.063721</ele>
        <time>2014-06-09T14:07:43Z</time>
      </trkpt>
      <trkpt lat="44.85746" lon="5.2617">
        <ele>1394.020996</ele>
        <time>2014-06-09T14:07:48Z</time>
      </trkpt>
      <trkpt lat="44.85747" lon="5.26162">
        <ele>1392.988525</ele>
        <time>2014-06-09T14:07:53Z</time>
      </trkpt>
      <trkpt lat="44.85748" lon="5.26154">
        <ele>1391.978394</ele>
        <time>2014-06-09T14:07:58Z</time>
      </trkpt>
      <trkpt lat="44.8575" lon="5.26146">
        <ele>1391.07019</ele>
        <time>2014-06-09T14:08:03Z</time>
      </trkpt>
      <trkpt lat="44.85751" lon="5.26139">
        <ele>1390.208862</ele>
        <time>2014-06-09T14:08:08Z</time>
      </trkpt>
      <trkpt lat="44.85751" lon="5.26132">
        <ele>1389.48877</ele>
        <time>2014-06-09T14:08:13Z</time>
      </trkpt>
      <trkpt lat="44.85752" lon="5.26129">
        <ele>1389.212524</ele>
        <time>2014-06-09T14:08:18Z</time>
      </trkpt>
      <trkpt lat="44.85752" lon="5.26121">
        <ele>1388.362061</ele>
        <time>2014-06-09T14:08:23Z</time>
      </trkpt>
      <trkpt lat="44.85753" lon="5.26114">
        <ele>1387.587769</ele>
        <time>2014-06-09T14:08:28Z</time>
      </trkpt>
      <trkpt lat="44.85753" lon="5.26106">
        <ele>1386.838135</ele>
        <time>2014-06-09T14:08:33Z</time>
      </trkpt>
      <trkpt lat="44.85754" lon="5.261">
        <ele>1386.208862</ele>
        <time>2014-06-09T14:08:38Z</time>
      </trkpt>
      <trkpt lat="44.85755" lon="5.26097">
        <ele>1386.090942</ele>
        <time>2014-06-09T14:08:43Z</time>
      </trkpt>
      <trkpt lat="44.85756" lon="5.26089">
        <ele>1385.877563</ele>
        <time>2014-06-09T14:08:48Z</time>
      </trkpt>
      <trkpt lat="44.85757" lon="5.26081">
        <ele>1386.03186</ele>
        <time>2014-06-09T14:08:53Z</time>
      </trkpt>
      <trkpt lat="44.85762" lon="5.26075">
        <ele>1386.658936</ele>
        <time>2014-06-09T14:08:58Z</time>
      </trkpt>
      <trkpt lat="44.85764" lon="5.26074">
        <ele>1386.98584</ele>
        <time>2014-06-09T14:09:03Z</time>
      </trkpt>
      <trkpt lat="44.85764" lon="5.26074">
        <ele>1386.98584</ele>
        <time>2014-06-09T14:09:08Z</time>
      </trkpt>
      <trkpt lat="44.85764" lon="5.26074">
        <ele>1386.98584</ele>
        <time>2014-06-09T14:09:13Z</time>
      </trkpt>
      <trkpt lat="44.85766" lon="5.26075">
        <ele>1387.182617</ele>
        <time>2014-06-09T14:09:18Z</time>
      </trkpt>
      <trkpt lat="44.85767" lon="5.26078">
        <ele>1387.374756</ele>
        <time>2014-06-09T14:09:23Z</time>
      </trkpt>
      <trkpt lat="44.85767" lon="5.26078">
        <ele>1387.374756</ele>
        <time>2014-06-09T14:09:28Z</time>
      </trkpt>
      <trkpt lat="44.85772" lon="5.26079">
        <ele>1387.949219</ele>
        <time>2014-06-09T14:09:33Z</time>
      </trkpt>
      <trkpt lat="44.85779" lon="5.26082">
        <ele>1388.727173</ele>
        <time>2014-06-09T14:09:38Z</time>
      </trkpt>
      <trkpt lat="44.85785" lon="5.26084">
        <ele>1389.475952</ele>
        <time>2014-06-09T14:09:43Z</time>
      </trkpt>
      <trkpt lat="44.85792" lon="5.26086">
        <ele>1390.277954</ele>
        <time>2014-06-09T14:09:48Z</time>
      </trkpt>
      <trkpt lat="44.85798" lon="5.26089">
        <ele>1391.001221</ele>
        <time>2014-06-09T14:09:53Z</time>
      </trkpt>
      <trkpt lat="44.85806" lon="5.26092">
        <ele>1391.766968</ele>
        <time>2014-06-09T14:09:58Z</time>
      </trkpt>
      <trkpt lat="44.85812" lon="5.26095">
        <ele>1392.303955</ele>
        <time>2014-06-09T14:10:03Z</time>
      </trkpt>
      <trkpt lat="44.85819" lon="5.26095">
        <ele>1392.769409</ele>
        <time>2014-06-09T14:10:08Z</time>
      </trkpt>
      <trkpt lat="44.85825" lon="5.26093">
        <ele>1393.314453</ele>
        <time>2014-06-09T14:10:13Z</time>
      </trkpt>
      <trkpt lat="44.85832" lon="5.26092">
        <ele>1393.863159</ele>
        <time>2014-06-09T14:10:18Z</time>
      </trkpt>
      <trkpt lat="44.85838" lon="5.26095">
        <ele>1394.144165</ele>
        <time>2014-06-09T14:10:23Z</time>
      </trkpt>
      <trkpt lat="44.85843" lon="5.26099">
        <ele>1394.296753</ele>
        <time>2014-06-09T14:10:28Z</time>
      </trkpt>
      <trkpt lat="44.85848" lon="5.26104">
        <ele>1394.421875</ele>
        <time>2014-06-09T14:10:33Z</time>
      </trkpt>
      <trkpt lat="44.85854" lon="5.2611">
        <ele>1394.52002</ele>
        <time>2014-06-09T14:10:38Z</time>
      </trkpt>
      <trkpt lat="44.85859" lon="5.26113">
        <ele>1394.248779</ele>
        <time>2014-06-09T14:10:43Z</time>
      </trkpt>
      <trkpt lat="44.85865" lon="5.26116">
        <ele>1394.016235</ele>
        <time>2014-06-09T14:10:48Z</time>
      </trkpt>
      <trkpt lat="44.85871" lon="5.26119">
        <ele>1393.746216</ele>
        <time>2014-06-09T14:10:53Z</time>
      </trkpt>
      <trkpt lat="44.85877" lon="5.26121">
        <ele>1393.5</ele>
        <time>2014-06-09T14:10:58Z</time>
      </trkpt>
      <trkpt lat="44.85883" lon="5.26123">
        <ele>1393.306274</ele>
        <time>2014-06-09T14:11:03Z</time>
      </trkpt>
      <trkpt lat="44.8589" lon="5.26125">
        <ele>1393.050049</ele>
        <time>2014-06-09T14:11:08Z</time>
      </trkpt>
      <trkpt lat="44.85896" lon="5.26128">
        <ele>1392.800049</ele>
        <time>2014-06-09T14:11:13Z</time>
      </trkpt>
      <trkpt lat="44.85903" lon="5.26129">
        <ele>1392.338989</ele>
        <time>2014-06-09T14:11:18Z</time>
      </trkpt>
      <trkpt lat="44.8591" lon="5.26129">
        <ele>1391.842651</ele>
        <time>2014-06-09T14:11:23Z</time>
      </trkpt>
      <trkpt lat="44.85916" lon="5.26129">
        <ele>1391.410278</ele>
        <time>2014-06-09T14:11:28Z</time>
      </trkpt>
      <trkpt lat="44.8592" lon="5.26128">
        <ele>1391.189575</ele>
        <time>2014-06-09T14:11:33Z</time>
      </trkpt>
      <trkpt lat="44.85925" lon="5.26127">
        <ele>1390.919067</ele>
        <time>2014-06-09T14:11:38Z</time>
      </trkpt>
      <trkpt lat="44.85927" lon="5.26125">
        <ele>1390.841675</ele>
        <time>2014-06-09T14:11:43Z</time>
      </trkpt>
      <trkpt lat="44.85931" lon="5.26121">
        <ele>1390.760986</ele>
        <time>2014-06-09T14:11:48Z</time>
      </trkpt>
      <trkpt lat="44.85935" lon="5.26122">
        <ele>1390.487549</ele>
        <time>2014-06-09T14:11:53Z</time>
      </trkpt>
      <trkpt lat="44.85936" lon="5.26133">
        <ele>1389.716553</ele>
        <time>2014-06-09T14:11:58Z</time>
      </trkpt>
      <trkpt lat="44.85938" lon="5.26143">
        <ele>1388.946045</ele>
        <time>2014-06-09T14:12:03Z</time>
      </trkpt>
      <trkpt lat="44.85939" lon="5.26153">
        <ele>1388.217529</ele>
        <time>2014-06-09T14:12:08Z</time>
      </trkpt>
      <trkpt lat="44.85938" lon="5.26162">
        <ele>1387.692383</ele>
        <time>2014-06-09T14:12:13Z</time>
      </trkpt>
      <trkpt lat="44.85939" lon="5.2617">
        <ele>1387.297485</ele>
        <time>2014-06-09T14:12:18Z</time>
      </trkpt>
      <trkpt lat="44.85941" lon="5.26177">
        <ele>1387.185059</ele>
        <time>2014-06-09T14:12:23Z</time>
      </trkpt>
      <trkpt lat="44.85939" lon="5.26184">
        <ele>1387.461304</ele>
        <time>2014-06-09T14:12:28Z</time>
      </trkpt>
      <trkpt lat="44.8594" lon="5.26189">
        <ele>1387.482544</ele>
        <time>2014-06-09T14:12:33Z</time>
      </trkpt>
      <trkpt lat="44.85943" lon="5.26194">
        <ele>1387.311279</ele>
        <time>2014-06-09T14:12:38Z</time>
      </trkpt>
      <trkpt lat="44.85945" lon="5.262">
        <ele>1387.244995</ele>
        <time>2014-06-09T14:12:43Z</time>
      </trkpt>
      <trkpt lat="44.85948" lon="5.26207">
        <ele>1387.157471</ele>
        <time>2014-06-09T14:12:48Z</time>
      </trkpt>
      <trkpt lat="44.8595" lon="5.26213">
        <ele>1387.08374</ele>
        <time>2014-06-09T14:12:53Z</time>
      </trkpt>
      <trkpt lat="44.85951" lon="5.2622">
        <ele>1387.141235</ele>
        <time>2014-06-09T14:12:58Z</time>
      </trkpt>
      <trkpt lat="44.85952" lon="5.26227">
        <ele>1387.186279</ele>
        <time>2014-06-09T14:13:03Z</time>
      </trkpt>
      <trkpt lat="44.85952" lon="5.26233">
        <ele>1387.339966</ele>
        <time>2014-06-09T14:13:08Z</time>
      </trkpt>
      <trkpt lat="44.85951" lon="5.26242">
        <ele>1387.964966</ele>
        <time>2014-06-09T14:13:13Z</time>
      </trkpt>
      <trkpt lat="44.85951" lon="5.26252">
        <ele>1388.599976</ele>
        <time>2014-06-09T14:13:18Z</time>
      </trkpt>
      <trkpt lat="44.8595" lon="5.26262">
        <ele>1389.252563</ele>
        <time>2014-06-09T14:13:23Z</time>
      </trkpt>
      <trkpt lat="44.85949" lon="5.26271">
        <ele>1389.910034</ele>
        <time>2014-06-09T14:13:28Z</time>
      </trkpt>
      <trkpt lat="44.85949" lon="5.26281">
        <ele>1390.467529</ele>
        <time>2014-06-09T14:13:33Z</time>
      </trkpt>
      <trkpt lat="44.85948" lon="5.2629">
        <ele>1391.102539</ele>
        <time>2014-06-09T14:13:38Z</time>
      </trkpt>
      <trkpt lat="44.85949" lon="5.26299">
        <ele>1391.59375</ele>
        <time>2014-06-09T14:13:43Z</time>
      </trkpt>
      <trkpt lat="44.85949" lon="5.26308">
        <ele>1392.09375</ele>
        <time>2014-06-09T14:13:48Z</time>
      </trkpt>
      <trkpt lat="44.8595" lon="5.26318">
        <ele>1392.609253</ele>
        <time>2014-06-09T14:13:53Z</time>
      </trkpt>
      <trkpt lat="44.85951" lon="5.26328">
        <ele>1393.202637</ele>
        <time>2014-06-09T14:13:58Z</time>
      </trkpt>
      <trkpt lat="44.85951" lon="5.26338">
        <ele>1393.778687</ele>
        <time>2014-06-09T14:14:03Z</time>
      </trkpt>
      <trkpt lat="44.8595" lon="5.26346">
        <ele>1394.30957</ele>
        <time>2014-06-09T14:14:08Z</time>
      </trkpt>
      <trkpt lat="44.85951" lon="5.26355">
        <ele>1394.814819</ele>
        <time>2014-06-09T14:14:13Z</time>
      </trkpt>
      <trkpt lat="44.85951" lon="5.26363">
        <ele>1395.251465</ele>
        <time>2014-06-09T14:14:18Z</time>
      </trkpt>
      <trkpt lat="44.85951" lon="5.26372">
        <ele>1395.661865</ele>
        <time>2014-06-09T14:14:23Z</time>
      </trkpt>
      <trkpt lat="44.85952" lon="5.26378">
        <ele>1395.981567</ele>
        <time>2014-06-09T14:14:28Z</time>
      </trkpt>
      <trkpt lat="44.85952" lon="5.26383">
        <ele>1396.217529</ele>
        <time>2014-06-09T14:14:33Z</time>
      </trkpt>
      <trkpt lat="44.85955" lon="5.2639">
        <ele>1396.643066</ele>
        <time>2014-06-09T14:14:38Z</time>
      </trkpt>
      <trkpt lat="44.85957" lon="5.26398">
        <ele>1397.175293</ele>
        <time>2014-06-09T14:14:43Z</time>
      </trkpt>
      <trkpt lat="44.85959" lon="5.26406">
        <ele>1397.689697</ele>
        <time>2014-06-09T14:14:48Z</time>
      </trkpt>
      <trkpt lat="44.85959" lon="5.26415">
        <ele>1398.22876</ele>
        <time>2014-06-09T14:14:53Z</time>
      </trkpt>
      <trkpt lat="44.8596" lon="5.26425">
        <ele>1398.768799</ele>
        <time>2014-06-09T14:14:58Z</time>
      </trkpt>
      <trkpt lat="44.85962" lon="5.26431">
        <ele>1399.157349</ele>
        <time>2014-06-09T14:15:03Z</time>
      </trkpt>
      <trkpt lat="44.85964" lon="5.26438">
        <ele>1399.488525</ele>
        <time>2014-06-09T14:15:08Z</time>
      </trkpt>
      <trkpt lat="44.85967" lon="5.26444">
        <ele>1399.80127</ele>
        <time>2014-06-09T14:15:13Z</time>
      </trkpt>
      <trkpt lat="44.8597" lon="5.2645">
        <ele>1400.087158</ele>
        <time>2014-06-09T14:15:18Z</time>
      </trkpt>
      <trkpt lat="44.85974" lon="5.26454">
        <ele>1400.308716</ele>
        <time>2014-06-09T14:15:23Z</time>
      </trkpt>
      <trkpt lat="44.85977" lon="5.26459">
        <ele>1400.519653</ele>
        <time>2014-06-09T14:15:28Z</time>
      </trkpt>
      <trkpt lat="44.85977" lon="5.26469">
        <ele>1400.700439</ele>
        <time>2014-06-09T14:15:33Z</time>
      </trkpt>
      <trkpt lat="44.85979" lon="5.26475">
        <ele>1400.846191</ele>
        <time>2014-06-09T14:15:38Z</time>
      </trkpt>
      <trkpt lat="44.85981" lon="5.26479">
        <ele>1401.384155</ele>
        <time>2014-06-09T14:15:43Z</time>
      </trkpt>
      <trkpt lat="44.85981" lon="5.26479">
        <ele>1401.387085</ele>
        <time>2014-06-09T14:15:48Z</time>
      </trkpt>
      <trkpt lat="44.85981" lon="5.26479">
        <ele>1401.387085</ele>
        <time>2014-06-09T14:15:53Z</time>
      </trkpt>
      <trkpt lat="44.85981" lon="5.26479">
        <ele>1401.387085</ele>
        <time>2014-06-09T14:15:58Z</time>
      </trkpt>
      <trkpt lat="44.85982" lon="5.26479">
        <ele>1401.501465</ele>
        <time>2014-06-09T14:16:03Z</time>
      </trkpt>
      <trkpt lat="44.85982" lon="5.26479">
        <ele>1401.563477</ele>
        <time>2014-06-09T14:16:08Z</time>
      </trkpt>
      <trkpt lat="44.85982" lon="5.2648">
        <ele>1401.572754</ele>
        <time>2014-06-09T14:16:13Z</time>
      </trkpt>
      <trkpt lat="44.85983" lon="5.2648">
        <ele>1401.641113</ele>
        <time>2014-06-09T14:16:18Z</time>
      </trkpt>
      <trkpt lat="44.85983" lon="5.2648">
        <ele>1401.709595</ele>
        <time>2014-06-09T14:16:23Z</time>
      </trkpt>
      <trkpt lat="44.85983" lon="5.2648">
        <ele>1401.796631</ele>
        <time>2014-06-09T14:16:28Z</time>
      </trkpt>
      <trkpt lat="44.85983" lon="5.2648">
        <ele>1401.803223</ele>
        <time>2014-06-09T14:16:33Z</time>
      </trkpt>
      <trkpt lat="44.85984" lon="5.2648">
        <ele>1401.863647</ele>
        <time>2014-06-09T14:16:38Z</time>
      </trkpt>
      <trkpt lat="44.85984" lon="5.2648">
        <ele>1401.935791</ele>
        <time>2014-06-09T14:16:43Z</time>
      </trkpt>
      <trkpt lat="44.85984" lon="5.2648">
        <ele>1401.935791</ele>
        <time>2014-06-09T14:16:48Z</time>
      </trkpt>
      <trkpt lat="44.85985" lon="5.26481">
        <ele>1402.055298</ele>
        <time>2014-06-09T14:16:53Z</time>
      </trkpt>
      <trkpt lat="44.85985" lon="5.26481">
        <ele>1402.120972</ele>
        <time>2014-06-09T14:16:58Z</time>
      </trkpt>
      <trkpt lat="44.85988" lon="5.2648">
        <ele>1402.592529</ele>
        <time>2014-06-09T14:17:03Z</time>
      </trkpt>
      <trkpt lat="44.8599" lon="5.26478">
        <ele>1402.964233</ele>
        <time>2014-06-09T14:17:08Z</time>
      </trkpt>
      <trkpt lat="44.8599" lon="5.26476">
        <ele>1402.986938</ele>
        <time>2014-06-09T14:17:13Z</time>
      </trkpt>
      <trkpt lat="44.8599" lon="5.26476">
        <ele>1402.918701</ele>
        <time>2014-06-09T14:17:18Z</time>
      </trkpt>
      <trkpt lat="44.8599" lon="5.26476">
        <ele>1402.931763</ele>
        <time>2014-06-09T14:17:23Z</time>
      </trkpt>
      <trkpt lat="44.85988" lon="5.26481">
        <ele>1402.681885</ele>
        <time>2014-06-09T14:19:18Z</time>
      </trkpt>
      <trkpt lat="44.8599" lon="5.26479">
        <ele>1403.096436</ele>
        <time>2014-06-09T14:19:23Z</time>
      </trkpt>
      <trkpt lat="44.85991" lon="5.26472">
        <ele>1402.901001</ele>
        <time>2014-06-09T14:19:28Z</time>
      </trkpt>
      <trkpt lat="44.8599" lon="5.26469">
        <ele>1402.759155</ele>
        <time>2014-06-09T14:19:33Z</time>
      </trkpt>
      <trkpt lat="44.85991" lon="5.26472">
        <ele>1403.064331</ele>
        <time>2014-06-09T14:20:48Z</time>
      </trkpt>
      <trkpt lat="44.85991" lon="5.26471">
        <ele>1403.036987</ele>
        <time>2014-06-09T14:20:53Z</time>
      </trkpt>
      <trkpt lat="44.8599" lon="5.26467">
        <ele>1402.700439</ele>
        <time>2014-06-09T14:20:58Z</time>
      </trkpt>
      <trkpt lat="44.85988" lon="5.26462">
        <ele>1402.121216</ele>
        <time>2014-06-09T14:21:03Z</time>
      </trkpt>
      <trkpt lat="44.85985" lon="5.26458">
        <ele>1401.556641</ele>
        <time>2014-06-09T14:21:08Z</time>
      </trkpt>
      <trkpt lat="44.85984" lon="5.26458">
        <ele>1401.353271</ele>
        <time>2014-06-09T14:21:13Z</time>
      </trkpt>
      <trkpt lat="44.85983" lon="5.26461">
        <ele>1401.173096</ele>
        <time>2014-06-09T14:21:18Z</time>
      </trkpt>
      <trkpt lat="44.85983" lon="5.26465">
        <ele>1401.429321</ele>
        <time>2014-06-09T14:21:23Z</time>
      </trkpt>
      <trkpt lat="44.85983" lon="5.2647">
        <ele>1401.452759</ele>
        <time>2014-06-09T14:21:28Z</time>
      </trkpt>
      <trkpt lat="44.85982" lon="5.26475">
        <ele>1401.466675</ele>
        <time>2014-06-09T14:21:33Z</time>
      </trkpt>
      <trkpt lat="44.85981" lon="5.26478">
        <ele>1401.366577</ele>
        <time>2014-06-09T14:21:38Z</time>
      </trkpt>
      <trkpt lat="44.85981" lon="5.26477">
        <ele>1401.350464</ele>
        <time>2014-06-09T14:21:43Z</time>
      </trkpt>
      <trkpt lat="44.85983" lon="5.26475">
        <ele>1401.521118</ele>
        <time>2014-06-09T14:21:48Z</time>
      </trkpt>
      <trkpt lat="44.85982" lon="5.26475">
        <ele>1401.45752</ele>
        <time>2014-06-09T14:21:53Z</time>
      </trkpt>
      <trkpt lat="44.85982" lon="5.26475">
        <ele>1401.454468</ele>
        <time>2014-06-09T14:21:58Z</time>
      </trkpt>
      <trkpt lat="44.85982" lon="5.26475">
        <ele>1401.454468</ele>
        <time>2014-06-09T14:22:03Z</time>
      </trkpt>
      <trkpt lat="44.85982" lon="5.26475">
        <ele>1401.454468</ele>
        <time>2014-06-09T14:22:08Z</time>
      </trkpt>
      <trkpt lat="44.85982" lon="5.26475">
        <ele>1401.454468</ele>
        <time>2014-06-09T14:22:13Z</time>
      </trkpt>
      <trkpt lat="44.85982" lon="5.26475">
        <ele>1401.454468</ele>
        <time>2014-06-09T14:22:18Z</time>
      </trkpt>
      <trkpt lat="44.85982" lon="5.26475">
        <ele>1401.404541</ele>
        <time>2014-06-09T14:22:23Z</time>
      </trkpt>
      <trkpt lat="44.85981" lon="5.26477">
        <ele>1401.356323</ele>
        <time>2014-06-09T14:22:28Z</time>
      </trkpt>
      <trkpt lat="44.85981" lon="5.26477">
        <ele>1401.356323</ele>
        <time>2014-06-09T14:22:33Z</time>
      </trkpt>
      <trkpt lat="44.85981" lon="5.26477">
        <ele>1401.356323</ele>
        <time>2014-06-09T14:22:38Z</time>
      </trkpt>
      <trkpt lat="44.85981" lon="5.26477">
        <ele>1401.356323</ele>
        <time>2014-06-09T14:22:43Z</time>
      </trkpt>
      <trkpt lat="44.85981" lon="5.26477">
        <ele>1401.356323</ele>
        <time>2014-06-09T14:22:48Z</time>
      </trkpt>
      <trkpt lat="44.85981" lon="5.26477">
        <ele>1401.356323</ele>
        <time>2014-06-09T14:22:53Z</time>
      </trkpt>
      <trkpt lat="44.85981" lon="5.26477">
        <ele>1401.356323</ele>
        <time>2014-06-09T14:22:58Z</time>
      </trkpt>
      <trkpt lat="44.85981" lon="5.26477">
        <ele>1401.356323</ele>
        <time>2014-06-09T14:23:03Z</time>
      </trkpt>
      <trkpt lat="44.8598" lon="5.26481">
        <ele>1401.147095</ele>
        <time>2014-06-09T14:23:08Z</time>
      </trkpt>
      <trkpt lat="44.85976" lon="5.26488">
        <ele>1401.39917</ele>
        <time>2014-06-09T14:23:13Z</time>
      </trkpt>
      <trkpt lat="44.85974" lon="5.26492">
        <ele>1401.875</ele>
        <time>2014-06-09T14:23:18Z</time>
      </trkpt>
      <trkpt lat="44.85974" lon="5.26496">
        <ele>1402.572021</ele>
        <time>2014-06-09T14:23:23Z</time>
      </trkpt>
      <trkpt lat="44.85975" lon="5.265">
        <ele>1403.110107</ele>
        <time>2014-06-09T14:23:28Z</time>
      </trkpt>
      <trkpt lat="44.85977" lon="5.26502">
        <ele>1403.343018</ele>
        <time>2014-06-09T14:23:33Z</time>
      </trkpt>
      <trkpt lat="44.85979" lon="5.26502">
        <ele>1403.416748</ele>
        <time>2014-06-09T14:23:38Z</time>
      </trkpt>
      <trkpt lat="44.85981" lon="5.26503">
        <ele>1403.836426</ele>
        <time>2014-06-09T14:23:43Z</time>
      </trkpt>
      <trkpt lat="44.85981" lon="5.26504">
        <ele>1403.97998</ele>
        <time>2014-06-09T14:23:48Z</time>
      </trkpt>
      <trkpt lat="44.85981" lon="5.26505">
        <ele>1404.174805</ele>
        <time>2014-06-09T14:23:53Z</time>
      </trkpt>
      <trkpt lat="44.85981" lon="5.26506">
        <ele>1404.195313</ele>
        <time>2014-06-09T14:23:58Z</time>
      </trkpt>
      <trkpt lat="44.85981" lon="5.26506">
        <ele>1404.195313</ele>
        <time>2014-06-09T14:24:03Z</time>
      </trkpt>
      <trkpt lat="44.85981" lon="5.26506">
        <ele>1404.226074</ele>
        <time>2014-06-09T14:24:08Z</time>
      </trkpt>
      <trkpt lat="44.85981" lon="5.26507">
        <ele>1404.382935</ele>
        <time>2014-06-09T14:24:13Z</time>
      </trkpt>
      <trkpt lat="44.85981" lon="5.26511">
        <ele>1404.915771</ele>
        <time>2014-06-09T14:24:18Z</time>
      </trkpt>
      <trkpt lat="44.85984" lon="5.26514">
        <ele>1405.500732</ele>
        <time>2014-06-09T14:24:23Z</time>
      </trkpt>
      <trkpt lat="44.85985" lon="5.26517">
        <ele>1405.915039</ele>
        <time>2014-06-09T14:24:28Z</time>
      </trkpt>
      <trkpt lat="44.85988" lon="5.26515">
        <ele>1405.951172</ele>
        <time>2014-06-09T14:24:33Z</time>
      </trkpt>
      <trkpt lat="44.85993" lon="5.26514">
        <ele>1406.29541</ele>
        <time>2014-06-09T14:24:38Z</time>
      </trkpt>
      <trkpt lat="44.85997" lon="5.26513">
        <ele>1406.642578</ele>
        <time>2014-06-09T14:24:43Z</time>
      </trkpt>
      <trkpt lat="44.86002" lon="5.26513">
        <ele>1407.049927</ele>
        <time>2014-06-09T14:24:48Z</time>
      </trkpt>
      <trkpt lat="44.86004" lon="5.26513">
        <ele>1407.259521</ele>
        <time>2014-06-09T14:24:53Z</time>
      </trkpt>
      <trkpt lat="44.86004" lon="5.26513">
        <ele>1407.266357</ele>
        <time>2014-06-09T14:24:58Z</time>
      </trkpt>
      <trkpt lat="44.86004" lon="5.26513">
        <ele>1407.266357</ele>
        <time>2014-06-09T14:25:03Z</time>
      </trkpt>
      <trkpt lat="44.86008" lon="5.26514">
        <ele>1407.707397</ele>
        <time>2014-06-09T14:28:33Z</time>
      </trkpt>
      <trkpt lat="44.86008" lon="5.26516">
        <ele>1407.755859</ele>
        <time>2014-06-09T14:28:38Z</time>
      </trkpt>
      <trkpt lat="44.8601" lon="5.26518">
        <ele>1407.987671</ele>
        <time>2014-06-09T14:28:43Z</time>
      </trkpt>
      <trkpt lat="44.86013" lon="5.26523">
        <ele>1408.295898</ele>
        <time>2014-06-09T14:28:48Z</time>
      </trkpt>
      <trkpt lat="44.86017" lon="5.26527">
        <ele>1408.49939</ele>
        <time>2014-06-09T14:28:53Z</time>
      </trkpt>
      <trkpt lat="44.86019" lon="5.2653">
        <ele>1408.539429</ele>
        <time>2014-06-09T14:28:58Z</time>
      </trkpt>
      <trkpt lat="44.86022" lon="5.26534">
        <ele>1408.537598</ele>
        <time>2014-06-09T14:29:03Z</time>
      </trkpt>
      <trkpt lat="44.86026" lon="5.26539">
        <ele>1407.890015</ele>
        <time>2014-06-09T14:29:08Z</time>
      </trkpt>
      <trkpt lat="44.8603" lon="5.26544">
        <ele>1407.153809</ele>
        <time>2014-06-09T14:29:13Z</time>
      </trkpt>
      <trkpt lat="44.86034" lon="5.26549">
        <ele>1406.340576</ele>
        <time>2014-06-09T14:29:18Z</time>
      </trkpt>
      <trkpt lat="44.86037" lon="5.26554">
        <ele>1405.733887</ele>
        <time>2014-06-09T14:29:23Z</time>
      </trkpt>
      <trkpt lat="44.8604" lon="5.2656">
        <ele>1405.705322</ele>
        <time>2014-06-09T14:29:28Z</time>
      </trkpt>
      <trkpt lat="44.86043" lon="5.26566">
        <ele>1405.575073</ele>
        <time>2014-06-09T14:29:33Z</time>
      </trkpt>
      <trkpt lat="44.86046" lon="5.26572">
        <ele>1405.555176</ele>
        <time>2014-06-09T14:29:38Z</time>
      </trkpt>
      <trkpt lat="44.86048" lon="5.2658">
        <ele>1405.738525</ele>
        <time>2014-06-09T14:29:43Z</time>
      </trkpt>
      <trkpt lat="44.8605" lon="5.26587">
        <ele>1405.922852</ele>
        <time>2014-06-09T14:29:48Z</time>
      </trkpt>
      <trkpt lat="44.86054" lon="5.26594">
        <ele>1405.875366</ele>
        <time>2014-06-09T14:29:53Z</time>
      </trkpt>
      <trkpt lat="44.86057" lon="5.266">
        <ele>1405.860474</ele>
        <time>2014-06-09T14:29:58Z</time>
      </trkpt>
      <trkpt lat="44.8606" lon="5.26607">
        <ele>1405.935791</ele>
        <time>2014-06-09T14:30:03Z</time>
      </trkpt>
      <trkpt lat="44.86064" lon="5.26615">
        <ele>1406.006104</ele>
        <time>2014-06-09T14:30:08Z</time>
      </trkpt>
      <trkpt lat="44.86068" lon="5.2662">
        <ele>1405.918213</ele>
        <time>2014-06-09T14:30:13Z</time>
      </trkpt>
      <trkpt lat="44.86073" lon="5.26626">
        <ele>1405.945679</ele>
        <time>2014-06-09T14:30:18Z</time>
      </trkpt>
      <trkpt lat="44.86076" lon="5.26632">
        <ele>1405.970703</ele>
        <time>2014-06-09T14:30:23Z</time>
      </trkpt>
      <trkpt lat="44.8608" lon="5.26637">
        <ele>1405.798584</ele>
        <time>2014-06-09T14:30:28Z</time>
      </trkpt>
      <trkpt lat="44.86085" lon="5.26642">
        <ele>1405.542847</ele>
        <time>2014-06-09T14:30:33Z</time>
      </trkpt>
      <trkpt lat="44.86089" lon="5.26648">
        <ele>1405.435669</ele>
        <time>2014-06-09T14:30:38Z</time>
      </trkpt>
      <trkpt lat="44.86094" lon="5.26654">
        <ele>1405.227905</ele>
        <time>2014-06-09T14:30:43Z</time>
      </trkpt>
      <trkpt lat="44.86099" lon="5.2666">
        <ele>1404.947266</ele>
        <time>2014-06-09T14:30:48Z</time>
      </trkpt>
      <trkpt lat="44.86102" lon="5.26666">
        <ele>1404.831909</ele>
        <time>2014-06-09T14:30:53Z</time>
      </trkpt>
      <trkpt lat="44.86105" lon="5.26673">
        <ele>1404.846802</ele>
        <time>2014-06-09T14:30:58Z</time>
      </trkpt>
      <trkpt lat="44.8611" lon="5.26679">
        <ele>1404.510742</ele>
        <time>2014-06-09T14:31:03Z</time>
      </trkpt>
      <trkpt lat="44.86115" lon="5.26685">
        <ele>1404.227539</ele>
        <time>2014-06-09T14:31:08Z</time>
      </trkpt>
      <trkpt lat="44.8612" lon="5.26689">
        <ele>1403.987549</ele>
        <time>2014-06-09T14:31:13Z</time>
      </trkpt>
      <trkpt lat="44.86125" lon="5.26694">
        <ele>1403.724976</ele>
        <time>2014-06-09T14:31:18Z</time>
      </trkpt>
      <trkpt lat="44.8613" lon="5.26699">
        <ele>1403.469971</ele>
        <time>2014-06-09T14:31:23Z</time>
      </trkpt>
      <trkpt lat="44.86135" lon="5.26704">
        <ele>1403.26001</ele>
        <time>2014-06-09T14:31:28Z</time>
      </trkpt>
      <trkpt lat="44.8614" lon="5.2671">
        <ele>1403.094971</ele>
        <time>2014-06-09T14:31:33Z</time>
      </trkpt>
      <trkpt lat="44.86145" lon="5.26716">
        <ele>1403.027466</ele>
        <time>2014-06-09T14:31:38Z</time>
      </trkpt>
      <trkpt lat="44.86149" lon="5.26721">
        <ele>1403.005005</ele>
        <time>2014-06-09T14:31:43Z</time>
      </trkpt>
      <trkpt lat="44.86154" lon="5.26727">
        <ele>1402.797241</ele>
        <time>2014-06-09T14:31:48Z</time>
      </trkpt>
      <trkpt lat="44.86158" lon="5.26732">
        <ele>1402.851318</ele>
        <time>2014-06-09T14:31:53Z</time>
      </trkpt>
      <trkpt lat="44.86163" lon="5.26738">
        <ele>1402.908813</ele>
        <time>2014-06-09T14:31:58Z</time>
      </trkpt>
      <trkpt lat="44.86168" lon="5.26744">
        <ele>1403.092041</ele>
        <time>2014-06-09T14:32:03Z</time>
      </trkpt>
      <trkpt lat="44.86171" lon="5.2675">
        <ele>1403.338379</ele>
        <time>2014-06-09T14:32:08Z</time>
      </trkpt>
      <trkpt lat="44.86176" lon="5.26757">
        <ele>1403.592407</ele>
        <time>2014-06-09T14:32:13Z</time>
      </trkpt>
      <trkpt lat="44.86179" lon="5.2676">
        <ele>1403.602173</ele>
        <time>2014-06-09T14:32:18Z</time>
      </trkpt>
      <trkpt lat="44.86183" lon="5.26765">
        <ele>1403.721924</ele>
        <time>2014-06-09T14:32:23Z</time>
      </trkpt>
      <trkpt lat="44.86187" lon="5.26772">
        <ele>1403.946777</ele>
        <time>2014-06-09T14:32:28Z</time>
      </trkpt>
      <trkpt lat="44.86191" lon="5.26778">
        <ele>1404.079834</ele>
        <time>2014-06-09T14:32:33Z</time>
      </trkpt>
      <trkpt lat="44.86195" lon="5.26784">
        <ele>1404.206421</ele>
        <time>2014-06-09T14:32:38Z</time>
      </trkpt>
      <trkpt lat="44.862" lon="5.26789">
        <ele>1404.203613</ele>
        <time>2014-06-09T14:32:43Z</time>
      </trkpt>
      <trkpt lat="44.86204" lon="5.26795">
        <ele>1404.189697</ele>
        <time>2014-06-09T14:32:48Z</time>
      </trkpt>
      <trkpt lat="44.86208" lon="5.26802">
        <ele>1404.334106</ele>
        <time>2014-06-09T14:32:53Z</time>
      </trkpt>
      <trkpt lat="44.86213" lon="5.26807">
        <ele>1404.255981</ele>
        <time>2014-06-09T14:32:58Z</time>
      </trkpt>
      <trkpt lat="44.86217" lon="5.26812">
        <ele>1404.273315</ele>
        <time>2014-06-09T14:33:03Z</time>
      </trkpt>
      <trkpt lat="44.86222" lon="5.26817">
        <ele>1404.246216</ele>
        <time>2014-06-09T14:33:08Z</time>
      </trkpt>
      <trkpt lat="44.86227" lon="5.26823">
        <ele>1404.329956</ele>
        <time>2014-06-09T14:33:13Z</time>
      </trkpt>
      <trkpt lat="44.86231" lon="5.26829">
        <ele>1404.456299</ele>
        <time>2014-06-09T14:33:18Z</time>
      </trkpt>
      <trkpt lat="44.86236" lon="5.26835">
        <ele>1404.47876</ele>
        <time>2014-06-09T14:33:23Z</time>
      </trkpt>
      <trkpt lat="44.86239" lon="5.26841">
        <ele>1404.756226</ele>
        <time>2014-06-09T14:33:28Z</time>
      </trkpt>
      <trkpt lat="44.86244" lon="5.26846">
        <ele>1404.668945</ele>
        <time>2014-06-09T14:33:33Z</time>
      </trkpt>
      <trkpt lat="44.86248" lon="5.26852">
        <ele>1404.795654</ele>
        <time>2014-06-09T14:33:38Z</time>
      </trkpt>
      <trkpt lat="44.86252" lon="5.26859">
        <ele>1405.127441</ele>
        <time>2014-06-09T14:33:43Z</time>
      </trkpt>
      <trkpt lat="44.86256" lon="5.26866">
        <ele>1405.500244</ele>
        <time>2014-06-09T14:33:48Z</time>
      </trkpt>
      <trkpt lat="44.86259" lon="5.26874">
        <ele>1405.963257</ele>
        <time>2014-06-09T14:33:53Z</time>
      </trkpt>
      <trkpt lat="44.86263" lon="5.2688">
        <ele>1406.162231</ele>
        <time>2014-06-09T14:33:58Z</time>
      </trkpt>
      <trkpt lat="44.86268" lon="5.26886">
        <ele>1406.212158</ele>
        <time>2014-06-09T14:34:03Z</time>
      </trkpt>
      <trkpt lat="44.86271" lon="5.26893">
        <ele>1406.548096</ele>
        <time>2014-06-09T14:34:08Z</time>
      </trkpt>
      <trkpt lat="44.86274" lon="5.26899">
        <ele>1406.909912</ele>
        <time>2014-06-09T14:34:13Z</time>
      </trkpt>
      <trkpt lat="44.86277" lon="5.26907">
        <ele>1407.334717</ele>
        <time>2014-06-09T14:34:18Z</time>
      </trkpt>
      <trkpt lat="44.86282" lon="5.26914">
        <ele>1407.626099</ele>
        <time>2014-06-09T14:34:23Z</time>
      </trkpt>
      <trkpt lat="44.86285" lon="5.26921">
        <ele>1407.939941</ele>
        <time>2014-06-09T14:34:28Z</time>
      </trkpt>
      <trkpt lat="44.8629" lon="5.26927">
        <ele>1407.923706</ele>
        <time>2014-06-09T14:34:33Z</time>
      </trkpt>
      <trkpt lat="44.86295" lon="5.26932">
        <ele>1407.714966</ele>
        <time>2014-06-09T14:34:38Z</time>
      </trkpt>
      <trkpt lat="44.86301" lon="5.26935">
        <ele>1407.273804</ele>
        <time>2014-06-09T14:34:43Z</time>
      </trkpt>
      <trkpt lat="44.86306" lon="5.26939">
        <ele>1407.037476</ele>
        <time>2014-06-09T14:34:48Z</time>
      </trkpt>
      <trkpt lat="44.86311" lon="5.26943">
        <ele>1406.731201</ele>
        <time>2014-06-09T14:34:53Z</time>
      </trkpt>
      <trkpt lat="44.86316" lon="5.26947">
        <ele>1406.51062</ele>
        <time>2014-06-09T14:34:58Z</time>
      </trkpt>
      <trkpt lat="44.86319" lon="5.26951">
        <ele>1406.45166</ele>
        <time>2014-06-09T14:35:03Z</time>
      </trkpt>
      <trkpt lat="44.86323" lon="5.26954">
        <ele>1406.186768</ele>
        <time>2014-06-09T14:35:08Z</time>
      </trkpt>
      <trkpt lat="44.86328" lon="5.26959">
        <ele>1406.053345</ele>
        <time>2014-06-09T14:35:13Z</time>
      </trkpt>
      <trkpt lat="44.86333" lon="5.26963">
        <ele>1405.743774</ele>
        <time>2014-06-09T14:35:18Z</time>
      </trkpt>
      <trkpt lat="44.86337" lon="5.26969">
        <ele>1405.856934</ele>
        <time>2014-06-09T14:35:23Z</time>
      </trkpt>
      <trkpt lat="44.86342" lon="5.26973">
        <ele>1405.775635</ele>
        <time>2014-06-09T14:35:28Z</time>
      </trkpt>
      <trkpt lat="44.86347" lon="5.26978">
        <ele>1405.71167</ele>
        <time>2014-06-09T14:35:33Z</time>
      </trkpt>
      <trkpt lat="44.86351" lon="5.26982">
        <ele>1405.631958</ele>
        <time>2014-06-09T14:35:38Z</time>
      </trkpt>
      <trkpt lat="44.86356" lon="5.26987">
        <ele>1405.668701</ele>
        <time>2014-06-09T14:35:43Z</time>
      </trkpt>
      <trkpt lat="44.86361" lon="5.26992">
        <ele>1405.913208</ele>
        <time>2014-06-09T14:35:48Z</time>
      </trkpt>
      <trkpt lat="44.86365" lon="5.26997">
        <ele>1406.178711</ele>
        <time>2014-06-09T14:35:53Z</time>
      </trkpt>
      <trkpt lat="44.86369" lon="5.27002">
        <ele>1406.406128</ele>
        <time>2014-06-09T14:35:58Z</time>
      </trkpt>
      <trkpt lat="44.86373" lon="5.27008">
        <ele>1406.914429</ele>
        <time>2014-06-09T14:36:03Z</time>
      </trkpt>
      <trkpt lat="44.86377" lon="5.27015">
        <ele>1407.224609</ele>
        <time>2014-06-09T14:36:08Z</time>
      </trkpt>
      <trkpt lat="44.8638" lon="5.27021">
        <ele>1407.314575</ele>
        <time>2014-06-09T14:36:13Z</time>
      </trkpt>
      <trkpt lat="44.86383" lon="5.27028">
        <ele>1407.375732</ele>
        <time>2014-06-09T14:36:18Z</time>
      </trkpt>
      <trkpt lat="44.86387" lon="5.27035">
        <ele>1407.519531</ele>
        <time>2014-06-09T14:36:23Z</time>
      </trkpt>
      <trkpt lat="44.86388" lon="5.27042">
        <ele>1407.856445</ele>
        <time>2014-06-09T14:36:28Z</time>
      </trkpt>
      <trkpt lat="44.8639" lon="5.27045">
        <ele>1407.901245</ele>
        <time>2014-06-09T14:36:33Z</time>
      </trkpt>
      <trkpt lat="44.86391" lon="5.27048">
        <ele>1408.0177</ele>
        <time>2014-06-09T14:36:38Z</time>
      </trkpt>
      <trkpt lat="44.86391" lon="5.27048">
        <ele>1408.0177</ele>
        <time>2014-06-09T14:36:43Z</time>
      </trkpt>
      <trkpt lat="44.86391" lon="5.27048">
        <ele>1408.00415</ele>
        <time>2014-06-09T14:36:48Z</time>
      </trkpt>
      <trkpt lat="44.86393" lon="5.27056">
        <ele>1408.398193</ele>
        <time>2014-06-09T14:36:53Z</time>
      </trkpt>
      <trkpt lat="44.86395" lon="5.27066">
        <ele>1408.965088</ele>
        <time>2014-06-09T14:36:58Z</time>
      </trkpt>
      <trkpt lat="44.86396" lon="5.27073">
        <ele>1409.574097</ele>
        <time>2014-06-09T14:37:03Z</time>
      </trkpt>
      <trkpt lat="44.86396" lon="5.27074">
        <ele>1409.665283</ele>
        <time>2014-06-09T14:37:08Z</time>
      </trkpt>
      <trkpt lat="44.86397" lon="5.27076">
        <ele>1409.716919</ele>
        <time>2014-06-09T14:37:13Z</time>
      </trkpt>
      <trkpt lat="44.864" lon="5.27079">
        <ele>1409.341187</ele>
        <time>2014-06-09T14:37:18Z</time>
      </trkpt>
      <trkpt lat="44.864" lon="5.27079">
        <ele>1409.341187</ele>
        <time>2014-06-09T14:37:23Z</time>
      </trkpt>
      <trkpt lat="44.864" lon="5.27079">
        <ele>1409.352539</ele>
        <time>2014-06-09T14:37:28Z</time>
      </trkpt>
      <trkpt lat="44.86401" lon="5.27079">
        <ele>1409.290405</ele>
        <time>2014-06-09T14:37:33Z</time>
      </trkpt>
      <trkpt lat="44.86403" lon="5.27082">
        <ele>1408.892578</ele>
        <time>2014-06-09T14:37:38Z</time>
      </trkpt>
      <trkpt lat="44.8641" lon="5.27087">
        <ele>1408.018555</ele>
        <time>2014-06-09T14:37:43Z</time>
      </trkpt>
      <trkpt lat="44.86416" lon="5.27092">
        <ele>1407.127686</ele>
        <time>2014-06-09T14:37:48Z</time>
      </trkpt>
      <trkpt lat="44.86422" lon="5.27097">
        <ele>1406.265991</ele>
        <time>2014-06-09T14:37:53Z</time>
      </trkpt>
      <trkpt lat="44.86428" lon="5.27102">
        <ele>1405.460327</ele>
        <time>2014-06-09T14:37:58Z</time>
      </trkpt>
      <trkpt lat="44.86435" lon="5.27106">
        <ele>1404.724731</ele>
        <time>2014-06-09T14:38:03Z</time>
      </trkpt>
      <trkpt lat="44.86441" lon="5.2711">
        <ele>1404.082153</ele>
        <time>2014-06-09T14:38:08Z</time>
      </trkpt>
      <trkpt lat="44.86444" lon="5.27113">
        <ele>1403.858032</ele>
        <time>2014-06-09T14:38:13Z</time>
      </trkpt>
      <trkpt lat="44.86444" lon="5.27112">
        <ele>1403.854126</ele>
        <time>2014-06-09T14:38:18Z</time>
      </trkpt>
      <trkpt lat="44.86449" lon="5.27116">
        <ele>1403.464722</ele>
        <time>2014-06-09T14:38:23Z</time>
      </trkpt>
      <trkpt lat="44.86455" lon="5.27121">
        <ele>1403.102417</ele>
        <time>2014-06-09T14:38:28Z</time>
      </trkpt>
      <trkpt lat="44.86461" lon="5.27128">
        <ele>1402.901489</ele>
        <time>2014-06-09T14:38:33Z</time>
      </trkpt>
      <trkpt lat="44.86465" lon="5.27135">
        <ele>1402.957031</ele>
        <time>2014-06-09T14:38:38Z</time>
      </trkpt>
      <trkpt lat="44.86468" lon="5.27142">
        <ele>1403.098999</ele>
        <time>2014-06-09T14:38:43Z</time>
      </trkpt>
      <trkpt lat="44.86471" lon="5.27148">
        <ele>1402.598145</ele>
        <time>2014-06-09T14:38:48Z</time>
      </trkpt>
      <trkpt lat="44.86474" lon="5.27154">
        <ele>1401.737549</ele>
        <time>2014-06-09T14:38:53Z</time>
      </trkpt>
      <trkpt lat="44.86476" lon="5.27161">
        <ele>1400.918213</ele>
        <time>2014-06-09T14:38:58Z</time>
      </trkpt>
      <trkpt lat="44.86478" lon="5.27166">
        <ele>1400.345581</ele>
        <time>2014-06-09T14:39:03Z</time>
      </trkpt>
      <trkpt lat="44.86479" lon="5.2717">
        <ele>1399.888184</ele>
        <time>2014-06-09T14:39:08Z</time>
      </trkpt>
      <trkpt lat="44.8648" lon="5.27176">
        <ele>1399.258667</ele>
        <time>2014-06-09T14:39:13Z</time>
      </trkpt>
      <trkpt lat="44.8648" lon="5.27176">
        <ele>1399.179565</ele>
        <time>2014-06-09T14:39:18Z</time>
      </trkpt>
      <trkpt lat="44.8648" lon="5.27176">
        <ele>1399.195435</ele>
        <time>2014-06-09T14:39:23Z</time>
      </trkpt>
      <trkpt lat="44.86481" lon="5.27178">
        <ele>1399.03186</ele>
        <time>2014-06-09T14:39:28Z</time>
      </trkpt>
      <trkpt lat="44.86483" lon="5.2718">
        <ele>1398.737915</ele>
        <time>2014-06-09T14:39:33Z</time>
      </trkpt>
      <trkpt lat="44.86485" lon="5.27183">
        <ele>1398.378052</ele>
        <time>2014-06-09T14:39:38Z</time>
      </trkpt>
      <trkpt lat="44.86487" lon="5.27185">
        <ele>1398.204102</ele>
        <time>2014-06-09T14:39:43Z</time>
      </trkpt>
      <trkpt lat="44.86491" lon="5.27187">
        <ele>1397.896362</ele>
        <time>2014-06-09T14:39:48Z</time>
      </trkpt>
      <trkpt lat="44.86495" lon="5.2719">
        <ele>1397.634766</ele>
        <time>2014-06-09T14:39:53Z</time>
      </trkpt>
      <trkpt lat="44.86495" lon="5.2719">
        <ele>1397.62146</ele>
        <time>2014-06-09T14:39:58Z</time>
      </trkpt>
      <trkpt lat="44.86495" lon="5.2719">
        <ele>1397.594604</ele>
        <time>2014-06-09T14:40:03Z</time>
      </trkpt>
      <trkpt lat="44.86495" lon="5.2719">
        <ele>1397.587891</ele>
        <time>2014-06-09T14:40:08Z</time>
      </trkpt>
      <trkpt lat="44.86496" lon="5.2719">
        <ele>1397.552368</ele>
        <time>2014-06-09T14:40:13Z</time>
      </trkpt>
      <trkpt lat="44.86496" lon="5.27186">
        <ele>1397.958252</ele>
        <time>2014-06-09T14:40:18Z</time>
      </trkpt>
      <trkpt lat="44.86497" lon="5.27182">
        <ele>1398.243408</ele>
        <time>2014-06-09T14:40:23Z</time>
      </trkpt>
      <trkpt lat="44.865" lon="5.2718">
        <ele>1398.335449</ele>
        <time>2014-06-09T14:40:28Z</time>
      </trkpt>
      <trkpt lat="44.86503" lon="5.2718">
        <ele>1398.105347</ele>
        <time>2014-06-09T14:40:33Z</time>
      </trkpt>
      <trkpt lat="44.86509" lon="5.27181">
        <ele>1397.612671</ele>
        <time>2014-06-09T14:40:38Z</time>
      </trkpt>
      <trkpt lat="44.86514" lon="5.27182">
        <ele>1397.111816</ele>
        <time>2014-06-09T14:40:43Z</time>
      </trkpt>
      <trkpt lat="44.8652" lon="5.27183">
        <ele>1396.624268</ele>
        <time>2014-06-09T14:40:48Z</time>
      </trkpt>
      <trkpt lat="44.86525" lon="5.27184">
        <ele>1396.072388</ele>
        <time>2014-06-09T14:40:53Z</time>
      </trkpt>
      <trkpt lat="44.86531" lon="5.27185">
        <ele>1395.567627</ele>
        <time>2014-06-09T14:40:58Z</time>
      </trkpt>
      <trkpt lat="44.86537" lon="5.27186">
        <ele>1395.064209</ele>
        <time>2014-06-09T14:41:03Z</time>
      </trkpt>
      <trkpt lat="44.86543" lon="5.27186">
        <ele>1394.568237</ele>
        <time>2014-06-09T14:41:08Z</time>
      </trkpt>
      <trkpt lat="44.86549" lon="5.27187">
        <ele>1394.128784</ele>
        <time>2014-06-09T14:41:13Z</time>
      </trkpt>
      <trkpt lat="44.86554" lon="5.27188">
        <ele>1393.76355</ele>
        <time>2014-06-09T14:41:18Z</time>
      </trkpt>
      <trkpt lat="44.8656" lon="5.27188">
        <ele>1393.429932</ele>
        <time>2014-06-09T14:41:23Z</time>
      </trkpt>
      <trkpt lat="44.86566" lon="5.27189">
        <ele>1393.087524</ele>
        <time>2014-06-09T14:41:28Z</time>
      </trkpt>
      <trkpt lat="44.86572" lon="5.2719">
        <ele>1392.743164</ele>
        <time>2014-06-09T14:41:33Z</time>
      </trkpt>
      <trkpt lat="44.86578" lon="5.27191">
        <ele>1392.350098</ele>
        <time>2014-06-09T14:41:38Z</time>
      </trkpt>
      <trkpt lat="44.86583" lon="5.27193">
        <ele>1391.986694</ele>
        <time>2014-06-09T14:41:43Z</time>
      </trkpt>
      <trkpt lat="44.86589" lon="5.27195">
        <ele>1391.665527</ele>
        <time>2014-06-09T14:41:48Z</time>
      </trkpt>
      <trkpt lat="44.86593" lon="5.272">
        <ele>1391.142456</ele>
        <time>2014-06-09T14:41:53Z</time>
      </trkpt>
      <trkpt lat="44.86595" lon="5.27208">
        <ele>1390.694946</ele>
        <time>2014-06-09T14:41:58Z</time>
      </trkpt>
      <trkpt lat="44.86595" lon="5.27214">
        <ele>1390.453003</ele>
        <time>2014-06-09T14:42:03Z</time>
      </trkpt>
      <trkpt lat="44.86595" lon="5.27215">
        <ele>1390.281006</ele>
        <time>2014-06-09T14:42:08Z</time>
      </trkpt>
      <trkpt lat="44.86599" lon="5.27213">
        <ele>1390.157471</ele>
        <time>2014-06-09T14:43:53Z</time>
      </trkpt>
      <trkpt lat="44.866" lon="5.27212">
        <ele>1390.170044</ele>
        <time>2014-06-09T14:43:58Z</time>
      </trkpt>
      <trkpt lat="44.866" lon="5.27212">
        <ele>1390.170044</ele>
        <time>2014-06-09T14:44:03Z</time>
      </trkpt>
      <trkpt lat="44.86601" lon="5.27212">
        <ele>1390.074951</ele>
        <time>2014-06-09T14:44:08Z</time>
      </trkpt>
      <trkpt lat="44.86604" lon="5.27213">
        <ele>1389.704956</ele>
        <time>2014-06-09T14:44:13Z</time>
      </trkpt>
      <trkpt lat="44.8661" lon="5.27211">
        <ele>1389.337524</ele>
        <time>2014-06-09T14:44:18Z</time>
      </trkpt>
      <trkpt lat="44.86615" lon="5.27207">
        <ele>1388.992432</ele>
        <time>2014-06-09T14:44:23Z</time>
      </trkpt>
      <trkpt lat="44.8662" lon="5.27201">
        <ele>1388.714966</ele>
        <time>2014-06-09T14:44:28Z</time>
      </trkpt>
      <trkpt lat="44.86626" lon="5.27199">
        <ele>1388.290039</ele>
        <time>2014-06-09T14:44:33Z</time>
      </trkpt>
      <trkpt lat="44.86632" lon="5.272">
        <ele>1387.752441</ele>
        <time>2014-06-09T14:44:38Z</time>
      </trkpt>
      <trkpt lat="44.86638" lon="5.27202">
        <ele>1387.369751</ele>
        <time>2014-06-09T14:44:43Z</time>
      </trkpt>
      <trkpt lat="44.86643" lon="5.27203">
        <ele>1387.154297</ele>
        <time>2014-06-09T14:44:48Z</time>
      </trkpt>
      <trkpt lat="44.86648" lon="5.27205">
        <ele>1386.967773</ele>
        <time>2014-06-09T14:44:53Z</time>
      </trkpt>
      <trkpt lat="44.8665" lon="5.27206">
        <ele>1386.895996</ele>
        <time>2014-06-09T14:44:58Z</time>
      </trkpt>
      <trkpt lat="44.86653" lon="5.27206">
        <ele>1386.7854</ele>
        <time>2014-06-09T14:45:03Z</time>
      </trkpt>
      <trkpt lat="44.86653" lon="5.27206">
        <ele>1386.7854</ele>
        <time>2014-06-09T14:45:08Z</time>
      </trkpt>
      <trkpt lat="44.86657" lon="5.27208">
        <ele>1386.669434</ele>
        <time>2014-06-09T14:45:13Z</time>
      </trkpt>
      <trkpt lat="44.86663" lon="5.2721">
        <ele>1386.459106</ele>
        <time>2014-06-09T14:45:18Z</time>
      </trkpt>
      <trkpt lat="44.86669" lon="5.27213">
        <ele>1386.270264</ele>
        <time>2014-06-09T14:45:23Z</time>
      </trkpt>
      <trkpt lat="44.86675" lon="5.27216">
        <ele>1386.113159</ele>
        <time>2014-06-09T14:45:28Z</time>
      </trkpt>
      <trkpt lat="44.8668" lon="5.2722">
        <ele>1385.764038</ele>
        <time>2014-06-09T14:45:33Z</time>
      </trkpt>
      <trkpt lat="44.86685" lon="5.27224">
        <ele>1385.026123</ele>
        <time>2014-06-09T14:45:38Z</time>
      </trkpt>
      <trkpt lat="44.86687" lon="5.27228">
        <ele>1384.558594</ele>
        <time>2014-06-09T14:45:43Z</time>
      </trkpt>
      <trkpt lat="44.86691" lon="5.27233">
        <ele>1383.996826</ele>
        <time>2014-06-09T14:45:48Z</time>
      </trkpt>
      <trkpt lat="44.86694" lon="5.27239">
        <ele>1383.299683</ele>
        <time>2014-06-09T14:45:53Z</time>
      </trkpt>
      <trkpt lat="44.86698" lon="5.27246">
        <ele>1382.849976</ele>
        <time>2014-06-09T14:45:58Z</time>
      </trkpt>
      <trkpt lat="44.86702" lon="5.27252">
        <ele>1382.654175</ele>
        <time>2014-06-09T14:46:03Z</time>
      </trkpt>
      <trkpt lat="44.86706" lon="5.27258">
        <ele>1382.651245</ele>
        <time>2014-06-09T14:46:08Z</time>
      </trkpt>
      <trkpt lat="44.8671" lon="5.27264">
        <ele>1382.979248</ele>
        <time>2014-06-09T14:46:13Z</time>
      </trkpt>
      <trkpt lat="44.86714" lon="5.2727">
        <ele>1383.45105</ele>
        <time>2014-06-09T14:46:18Z</time>
      </trkpt>
      <trkpt lat="44.86718" lon="5.27275">
        <ele>1384.043091</ele>
        <time>2014-06-09T14:46:23Z</time>
      </trkpt>
      <trkpt lat="44.86722" lon="5.2728">
        <ele>1384.846558</ele>
        <time>2014-06-09T14:46:28Z</time>
      </trkpt>
      <trkpt lat="44.86725" lon="5.27284">
        <ele>1385.062134</ele>
        <time>2014-06-09T14:46:33Z</time>
      </trkpt>
      <trkpt lat="44.86725" lon="5.27284">
        <ele>1385.062134</ele>
        <time>2014-06-09T14:46:38Z</time>
      </trkpt>
      <trkpt lat="44.86725" lon="5.27284">
        <ele>1385.051636</ele>
        <time>2014-06-09T14:46:43Z</time>
      </trkpt>
      <trkpt lat="44.86725" lon="5.27285">
        <ele>1384.954102</ele>
        <time>2014-06-09T14:46:48Z</time>
      </trkpt>
      <trkpt lat="44.86725" lon="5.27286">
        <ele>1384.886841</ele>
        <time>2014-06-09T14:46:53Z</time>
      </trkpt>
      <trkpt lat="44.8673" lon="5.27288">
        <ele>1384.795776</ele>
        <time>2014-06-09T14:46:58Z</time>
      </trkpt>
      <trkpt lat="44.86733" lon="5.27292">
        <ele>1384.620361</ele>
        <time>2014-06-09T14:47:03Z</time>
      </trkpt>
      <trkpt lat="44.86734" lon="5.27292">
        <ele>1384.579956</ele>
        <time>2014-06-09T14:47:08Z</time>
      </trkpt>
      <trkpt lat="44.86737" lon="5.27295">
        <ele>1384.42688</ele>
        <time>2014-06-09T14:47:13Z</time>
      </trkpt>
      <trkpt lat="44.86741" lon="5.27301">
        <ele>1384.178101</ele>
        <time>2014-06-09T14:47:18Z</time>
      </trkpt>
      <trkpt lat="44.86743" lon="5.27307">
        <ele>1383.902466</ele>
        <time>2014-06-09T14:47:23Z</time>
      </trkpt>
      <trkpt lat="44.86746" lon="5.27313">
        <ele>1383.650757</ele>
        <time>2014-06-09T14:47:28Z</time>
      </trkpt>
      <trkpt lat="44.8675" lon="5.27316">
        <ele>1383.83606</ele>
        <time>2014-06-09T14:47:33Z</time>
      </trkpt>
      <trkpt lat="44.86756" lon="5.27316">
        <ele>1384.228516</ele>
        <time>2014-06-09T14:47:38Z</time>
      </trkpt>
      <trkpt lat="44.86761" lon="5.27318">
        <ele>1384.54834</ele>
        <time>2014-06-09T14:47:43Z</time>
      </trkpt>
      <trkpt lat="44.86766" lon="5.27319">
        <ele>1384.929077</ele>
        <time>2014-06-09T14:47:48Z</time>
      </trkpt>
      <trkpt lat="44.86771" lon="5.27322">
        <ele>1384.48291</ele>
        <time>2014-06-09T14:47:53Z</time>
      </trkpt>
      <trkpt lat="44.86776" lon="5.27324">
        <ele>1383.978394</ele>
        <time>2014-06-09T14:47:58Z</time>
      </trkpt>
      <trkpt lat="44.8678" lon="5.27326">
        <ele>1383.563599</ele>
        <time>2014-06-09T14:48:03Z</time>
      </trkpt>
      <trkpt lat="44.86784" lon="5.27328">
        <ele>1383.219116</ele>
        <time>2014-06-09T14:48:08Z</time>
      </trkpt>
      <trkpt lat="44.86787" lon="5.27327">
        <ele>1382.996582</ele>
        <time>2014-06-09T14:48:13Z</time>
      </trkpt>
      <trkpt lat="44.8679" lon="5.27327">
        <ele>1382.693848</ele>
        <time>2014-06-09T14:48:18Z</time>
      </trkpt>
      <trkpt lat="44.8679" lon="5.27327">
        <ele>1382.693848</ele>
        <time>2014-06-09T14:48:23Z</time>
      </trkpt>
      <trkpt lat="44.8679" lon="5.27327">
        <ele>1382.695435</ele>
        <time>2014-06-09T14:48:28Z</time>
      </trkpt>
      <trkpt lat="44.8679" lon="5.27327">
        <ele>1382.697876</ele>
        <time>2014-06-09T14:48:33Z</time>
      </trkpt>
      <trkpt lat="44.8679" lon="5.27328">
        <ele>1382.699463</ele>
        <time>2014-06-09T14:48:38Z</time>
      </trkpt>
      <trkpt lat="44.86793" lon="5.27329">
        <ele>1382.493408</ele>
        <time>2014-06-09T14:48:43Z</time>
      </trkpt>
      <trkpt lat="44.86793" lon="5.2733">
        <ele>1382.471191</ele>
        <time>2014-06-09T14:48:48Z</time>
      </trkpt>
      <trkpt lat="44.86793" lon="5.2733">
        <ele>1382.471191</ele>
        <time>2014-06-09T14:48:53Z</time>
      </trkpt>
      <trkpt lat="44.86794" lon="5.27331">
        <ele>1382.446533</ele>
        <time>2014-06-09T14:48:58Z</time>
      </trkpt>
      <trkpt lat="44.86794" lon="5.27331">
        <ele>1382.446533</ele>
        <time>2014-06-09T14:49:03Z</time>
      </trkpt>
      <trkpt lat="44.86794" lon="5.27331">
        <ele>1382.450439</ele>
        <time>2014-06-09T14:49:08Z</time>
      </trkpt>
      <trkpt lat="44.86794" lon="5.27331">
        <ele>1382.450439</ele>
        <time>2014-06-09T14:49:13Z</time>
      </trkpt>
      <trkpt lat="44.86794" lon="5.27332">
        <ele>1382.409668</ele>
        <time>2014-06-09T14:49:18Z</time>
      </trkpt>
      <trkpt lat="44.86794" lon="5.27337">
        <ele>1382.5271</ele>
        <time>2014-06-09T14:49:23Z</time>
      </trkpt>
      <trkpt lat="44.86794" lon="5.27343">
        <ele>1382.585327</ele>
        <time>2014-06-09T14:49:28Z</time>
      </trkpt>
      <trkpt lat="44.86794" lon="5.27349">
        <ele>1382.687378</ele>
        <time>2014-06-09T14:49:33Z</time>
      </trkpt>
      <trkpt lat="44.86797" lon="5.27354">
        <ele>1382.423706</ele>
        <time>2014-06-09T14:49:38Z</time>
      </trkpt>
      <trkpt lat="44.86799" lon="5.27359">
        <ele>1381.900024</ele>
        <time>2014-06-09T14:49:43Z</time>
      </trkpt>
      <trkpt lat="44.86802" lon="5.27365">
        <ele>1381.456909</ele>
        <time>2014-06-09T14:49:48Z</time>
      </trkpt>
      <trkpt lat="44.86805" lon="5.2737">
        <ele>1381.265015</ele>
        <time>2014-06-09T14:49:53Z</time>
      </trkpt>
      <trkpt lat="44.8681" lon="5.27374">
        <ele>1381.264404</ele>
        <time>2014-06-09T14:49:58Z</time>
      </trkpt>
      <trkpt lat="44.86812" lon="5.27377">
        <ele>1381.194458</ele>
        <time>2014-06-09T14:50:03Z</time>
      </trkpt>
      <trkpt lat="44.86816" lon="5.27381">
        <ele>1381.063477</ele>
        <time>2014-06-09T14:50:08Z</time>
      </trkpt>
      <trkpt lat="44.8682" lon="5.27385">
        <ele>1380.982666</ele>
        <time>2014-06-09T14:50:13Z</time>
      </trkpt>
      <trkpt lat="44.86823" lon="5.27387">
        <ele>1380.964478</ele>
        <time>2014-06-09T14:50:18Z</time>
      </trkpt>
      <trkpt lat="44.86826" lon="5.27391">
        <ele>1380.945801</ele>
        <time>2014-06-09T14:50:23Z</time>
      </trkpt>
      <trkpt lat="44.86831" lon="5.27395">
        <ele>1380.979248</ele>
        <time>2014-06-09T14:50:28Z</time>
      </trkpt>
      <trkpt lat="44.86833" lon="5.27398">
        <ele>1381.016724</ele>
        <time>2014-06-09T14:50:33Z</time>
      </trkpt>
      <trkpt lat="44.86833" lon="5.27399">
        <ele>1381.023804</ele>
        <time>2014-06-09T14:50:38Z</time>
      </trkpt>
      <trkpt lat="44.86835" lon="5.274">
        <ele>1381.057495</ele>
        <time>2014-06-09T14:50:43Z</time>
      </trkpt>
      <trkpt lat="44.86835" lon="5.27399">
        <ele>1381.055664</ele>
        <time>2014-06-09T14:50:48Z</time>
      </trkpt>
      <trkpt lat="44.86835" lon="5.27399">
        <ele>1381.055054</ele>
        <time>2014-06-09T14:50:53Z</time>
      </trkpt>
      <trkpt lat="44.86835" lon="5.27399">
        <ele>1381.054321</ele>
        <time>2014-06-09T14:50:58Z</time>
      </trkpt>
      <trkpt lat="44.86841" lon="5.27401">
        <ele>1381.20105</ele>
        <time>2014-06-09T14:51:03Z</time>
      </trkpt>
      <trkpt lat="44.86848" lon="5.27405">
        <ele>1381.44043</ele>
        <time>2014-06-09T14:51:08Z</time>
      </trkpt>
      <trkpt lat="44.86855" lon="5.27409">
        <ele>1381.709839</ele>
        <time>2014-06-09T14:51:13Z</time>
      </trkpt>
      <trkpt lat="44.86862" lon="5.27414">
        <ele>1381.702393</ele>
        <time>2014-06-09T14:51:18Z</time>
      </trkpt>
      <trkpt lat="44.86868" lon="5.2742">
        <ele>1381.564087</ele>
        <time>2014-06-09T14:51:23Z</time>
      </trkpt>
      <trkpt lat="44.86874" lon="5.27425">
        <ele>1381.023926</ele>
        <time>2014-06-09T14:51:28Z</time>
      </trkpt>
      <trkpt lat="44.8688" lon="5.27431">
        <ele>1380.710693</ele>
        <time>2014-06-09T14:51:33Z</time>
      </trkpt>
      <trkpt lat="44.86887" lon="5.27437">
        <ele>1380.610596</ele>
        <time>2014-06-09T14:51:38Z</time>
      </trkpt>
      <trkpt lat="44.86892" lon="5.27442">
        <ele>1380.710205</ele>
        <time>2014-06-09T14:51:43Z</time>
      </trkpt>
      <trkpt lat="44.86899" lon="5.27447">
        <ele>1381</ele>
        <time>2014-06-09T14:51:48Z</time>
      </trkpt>
      <trkpt lat="44.86904" lon="5.27451">
        <ele>1381</ele>
        <time>2014-06-09T14:51:53Z</time>
      </trkpt>
      <trkpt lat="44.86909" lon="5.27454">
        <ele>1381</ele>
        <time>2014-06-09T14:51:58Z</time>
      </trkpt>
      <trkpt lat="44.86915" lon="5.27457">
        <ele>1381</ele>
        <time>2014-06-09T14:52:03Z</time>
      </trkpt>
      <trkpt lat="44.8692" lon="5.2746">
        <ele>1381</ele>
        <time>2014-06-09T14:52:08Z</time>
      </trkpt>
      <trkpt lat="44.86926" lon="5.27463">
        <ele>1381</ele>
        <time>2014-06-09T14:52:13Z</time>
      </trkpt>
      <trkpt lat="44.86932" lon="5.27466">
        <ele>1381</ele>
        <time>2014-06-09T14:52:18Z</time>
      </trkpt>
      <trkpt lat="44.86937" lon="5.27469">
        <ele>1381</ele>
        <time>2014-06-09T14:52:23Z</time>
      </trkpt>
      <trkpt lat="44.86944" lon="5.27471">
        <ele>1380.994873</ele>
        <time>2014-06-09T14:52:28Z</time>
      </trkpt>
      <trkpt lat="44.86949" lon="5.27475">
        <ele>1380.973389</ele>
        <time>2014-06-09T14:52:33Z</time>
      </trkpt>
      <trkpt lat="44.86954" lon="5.27478">
        <ele>1380.967163</ele>
        <time>2014-06-09T14:52:38Z</time>
      </trkpt>
      <trkpt lat="44.8696" lon="5.27483">
        <ele>1380.977417</ele>
        <time>2014-06-09T14:52:43Z</time>
      </trkpt>
      <trkpt lat="44.86965" lon="5.27486">
        <ele>1380.995483</ele>
        <time>2014-06-09T14:52:48Z</time>
      </trkpt>
      <trkpt lat="44.8697" lon="5.27489">
        <ele>1380.693115</ele>
        <time>2014-06-09T14:52:53Z</time>
      </trkpt>
      <trkpt lat="44.86976" lon="5.27492">
        <ele>1380.39856</ele>
        <time>2014-06-09T14:52:58Z</time>
      </trkpt>
      <trkpt lat="44.86981" lon="5.27495">
        <ele>1380.136841</ele>
        <time>2014-06-09T14:53:03Z</time>
      </trkpt>
      <trkpt lat="44.86987" lon="5.27499">
        <ele>1379.964844</ele>
        <time>2014-06-09T14:53:08Z</time>
      </trkpt>
      <trkpt lat="44.86992" lon="5.27503">
        <ele>1379.750977</ele>
        <time>2014-06-09T14:53:13Z</time>
      </trkpt>
      <trkpt lat="44.86998" lon="5.27506">
        <ele>1379.584717</ele>
        <time>2014-06-09T14:53:18Z</time>
      </trkpt>
      <trkpt lat="44.87004" lon="5.27509">
        <ele>1379.603149</ele>
        <time>2014-06-09T14:53:23Z</time>
      </trkpt>
      <trkpt lat="44.8701" lon="5.2751">
        <ele>1379.681885</ele>
        <time>2014-06-09T14:53:28Z</time>
      </trkpt>
      <trkpt lat="44.87016" lon="5.27513">
        <ele>1379.757813</ele>
        <time>2014-06-09T14:53:33Z</time>
      </trkpt>
      <trkpt lat="44.87022" lon="5.27515">
        <ele>1379.870361</ele>
        <time>2014-06-09T14:53:38Z</time>
      </trkpt>
      <trkpt lat="44.87028" lon="5.27515">
        <ele>1380.09375</ele>
        <time>2014-06-09T14:53:43Z</time>
      </trkpt>
      <trkpt lat="44.87035" lon="5.27516">
        <ele>1380.319946</ele>
        <time>2014-06-09T14:53:48Z</time>
      </trkpt>
      <trkpt lat="44.87041" lon="5.27516">
        <ele>1380.529053</ele>
        <time>2014-06-09T14:53:53Z</time>
      </trkpt>
      <trkpt lat="44.87044" lon="5.27518">
        <ele>1380.624878</ele>
        <time>2014-06-09T14:53:58Z</time>
      </trkpt>
      <trkpt lat="44.87045" lon="5.27521">
        <ele>1380.646606</ele>
        <time>2014-06-09T14:54:03Z</time>
      </trkpt>
      <trkpt lat="44.87045" lon="5.27521">
        <ele>1380.646606</ele>
        <time>2014-06-09T14:54:08Z</time>
      </trkpt>
      <trkpt lat="44.87045" lon="5.27521">
        <ele>1380.64856</ele>
        <time>2014-06-09T14:54:13Z</time>
      </trkpt>
      <trkpt lat="44.87045" lon="5.27521">
        <ele>1380.64856</ele>
        <time>2014-06-09T14:54:18Z</time>
      </trkpt>
      <trkpt lat="44.87046" lon="5.27521">
        <ele>1380.664551</ele>
        <time>2014-06-09T14:54:23Z</time>
      </trkpt>
      <trkpt lat="44.87047" lon="5.27521">
        <ele>1380.69519</ele>
        <time>2014-06-09T14:54:28Z</time>
      </trkpt>
      <trkpt lat="44.87047" lon="5.27521">
        <ele>1380.69519</ele>
        <time>2014-06-09T14:54:33Z</time>
      </trkpt>
      <trkpt lat="44.87046" lon="5.27521">
        <ele>1380.677002</ele>
        <time>2014-06-09T14:54:38Z</time>
      </trkpt>
      <trkpt lat="44.87048" lon="5.27521">
        <ele>1380.73938</ele>
        <time>2014-06-09T14:54:43Z</time>
      </trkpt>
      <trkpt lat="44.87052" lon="5.27519">
        <ele>1380.939453</ele>
        <time>2014-06-09T14:54:48Z</time>
      </trkpt>
      <trkpt lat="44.87058" lon="5.2752">
        <ele>1381.150024</ele>
        <time>2014-06-09T14:54:53Z</time>
      </trkpt>
      <trkpt lat="44.87061" lon="5.2752">
        <ele>1381.303467</ele>
        <time>2014-06-09T14:54:58Z</time>
      </trkpt>
      <trkpt lat="44.87064" lon="5.2752">
        <ele>1381.410522</ele>
        <time>2014-06-09T14:55:03Z</time>
      </trkpt>
      <trkpt lat="44.87069" lon="5.27523">
        <ele>1381.664429</ele>
        <time>2014-06-09T14:55:08Z</time>
      </trkpt>
      <trkpt lat="44.87074" lon="5.27526">
        <ele>1381.949463</ele>
        <time>2014-06-09T14:55:13Z</time>
      </trkpt>
      <trkpt lat="44.8708" lon="5.27528">
        <ele>1382.201782</ele>
        <time>2014-06-09T14:55:18Z</time>
      </trkpt>
      <trkpt lat="44.87086" lon="5.27531">
        <ele>1382.439697</ele>
        <time>2014-06-09T14:55:23Z</time>
      </trkpt>
      <trkpt lat="44.87087" lon="5.27531">
        <ele>1382.496826</ele>
        <time>2014-06-09T14:55:28Z</time>
      </trkpt>
      <trkpt lat="44.87091" lon="5.27533">
        <ele>1382.662476</ele>
        <time>2014-06-09T14:55:33Z</time>
      </trkpt>
      <trkpt lat="44.87094" lon="5.27536">
        <ele>1382.886597</ele>
        <time>2014-06-09T14:55:38Z</time>
      </trkpt>
      <trkpt lat="44.871" lon="5.27538">
        <ele>1383.111816</ele>
        <time>2014-06-09T14:55:43Z</time>
      </trkpt>
      <trkpt lat="44.87104" lon="5.27541">
        <ele>1383.396118</ele>
        <time>2014-06-09T14:55:48Z</time>
      </trkpt>
      <trkpt lat="44.87108" lon="5.27539">
        <ele>1383.399048</ele>
        <time>2014-06-09T14:55:53Z</time>
      </trkpt>
      <trkpt lat="44.87111" lon="5.27533">
        <ele>1383.150757</ele>
        <time>2014-06-09T14:55:58Z</time>
      </trkpt>
      <trkpt lat="44.87114" lon="5.27527">
        <ele>1382.917358</ele>
        <time>2014-06-09T14:56:03Z</time>
      </trkpt>
      <trkpt lat="44.8712" lon="5.27526">
        <ele>1382.930542</ele>
        <time>2014-06-09T14:56:08Z</time>
      </trkpt>
      <trkpt lat="44.87126" lon="5.27524">
        <ele>1382.836792</ele>
        <time>2014-06-09T14:56:13Z</time>
      </trkpt>
      <trkpt lat="44.87131" lon="5.27522">
        <ele>1382.723633</ele>
        <time>2014-06-09T14:56:18Z</time>
      </trkpt>
      <trkpt lat="44.87136" lon="5.27521">
        <ele>1382.639648</ele>
        <time>2014-06-09T14:56:23Z</time>
      </trkpt>
      <trkpt lat="44.87142" lon="5.27519">
        <ele>1382.469849</ele>
        <time>2014-06-09T14:56:28Z</time>
      </trkpt>
      <trkpt lat="44.87147" lon="5.27516">
        <ele>1382.207397</ele>
        <time>2014-06-09T14:56:33Z</time>
      </trkpt>
      <trkpt lat="44.87152" lon="5.27514">
        <ele>1382.017944</ele>
        <time>2014-06-09T14:56:38Z</time>
      </trkpt>
      <trkpt lat="44.87158" lon="5.27512">
        <ele>1381.751343</ele>
        <time>2014-06-09T14:56:43Z</time>
      </trkpt>
      <trkpt lat="44.87159" lon="5.27511">
        <ele>1381.63916</ele>
        <time>2014-06-09T14:56:48Z</time>
      </trkpt>
      <trkpt lat="44.87159" lon="5.27511">
        <ele>1381.655396</ele>
        <time>2014-06-09T14:56:53Z</time>
      </trkpt>
      <trkpt lat="44.87159" lon="5.27512">
        <ele>1381.701782</ele>
        <time>2014-06-09T14:56:58Z</time>
      </trkpt>
      <trkpt lat="44.8716" lon="5.27513">
        <ele>1381.825562</ele>
        <time>2014-06-09T14:57:03Z</time>
      </trkpt>
      <trkpt lat="44.8716" lon="5.27513">
        <ele>1381.828491</ele>
        <time>2014-06-09T14:57:08Z</time>
      </trkpt>
      <trkpt lat="44.87158" lon="5.27511">
        <ele>1381.613525</ele>
        <time>2014-06-09T14:57:13Z</time>
      </trkpt>
      <trkpt lat="44.87158" lon="5.27508">
        <ele>1381.343994</ele>
        <time>2014-06-09T14:57:18Z</time>
      </trkpt>
      <trkpt lat="44.87161" lon="5.27503">
        <ele>1380.763306</ele>
        <time>2014-06-09T14:57:23Z</time>
      </trkpt>
      <trkpt lat="44.87164" lon="5.27499">
        <ele>1380.200195</ele>
        <time>2014-06-09T14:57:28Z</time>
      </trkpt>
      <trkpt lat="44.87169" lon="5.27494">
        <ele>1379.435669</ele>
        <time>2014-06-09T14:57:33Z</time>
      </trkpt>
      <trkpt lat="44.87172" lon="5.27487">
        <ele>1378.411865</ele>
        <time>2014-06-09T14:57:38Z</time>
      </trkpt>
      <trkpt lat="44.87175" lon="5.27481">
        <ele>1377.445557</ele>
        <time>2014-06-09T14:57:43Z</time>
      </trkpt>
      <trkpt lat="44.87179" lon="5.27475">
        <ele>1376.384644</ele>
        <time>2014-06-09T14:57:48Z</time>
      </trkpt>
      <trkpt lat="44.87183" lon="5.27469">
        <ele>1375.287109</ele>
        <time>2014-06-09T14:57:53Z</time>
      </trkpt>
      <trkpt lat="44.87187" lon="5.27463">
        <ele>1374.137329</ele>
        <time>2014-06-09T14:57:58Z</time>
      </trkpt>
      <trkpt lat="44.8719" lon="5.27457">
        <ele>1373.090332</ele>
        <time>2014-06-09T14:58:03Z</time>
      </trkpt>
      <trkpt lat="44.87193" lon="5.2745">
        <ele>1371.909424</ele>
        <time>2014-06-09T14:58:08Z</time>
      </trkpt>
      <trkpt lat="44.87195" lon="5.27443">
        <ele>1370.724854</ele>
        <time>2014-06-09T14:58:13Z</time>
      </trkpt>
      <trkpt lat="44.87198" lon="5.27436">
        <ele>1369.436523</ele>
        <time>2014-06-09T14:58:18Z</time>
      </trkpt>
      <trkpt lat="44.872" lon="5.27429">
        <ele>1368.540039</ele>
        <time>2014-06-09T14:58:23Z</time>
      </trkpt>
      <trkpt lat="44.87203" lon="5.27422">
        <ele>1367.61499</ele>
        <time>2014-06-09T14:58:28Z</time>
      </trkpt>
      <trkpt lat="44.87206" lon="5.27414">
        <ele>1366.637451</ele>
        <time>2014-06-09T14:58:33Z</time>
      </trkpt>
      <trkpt lat="44.87209" lon="5.27406">
        <ele>1365.625</ele>
        <time>2014-06-09T14:58:38Z</time>
      </trkpt>
      <trkpt lat="44.87212" lon="5.274">
        <ele>1364.714966</ele>
        <time>2014-06-09T14:58:43Z</time>
      </trkpt>
      <trkpt lat="44.87215" lon="5.27393">
        <ele>1363.826294</ele>
        <time>2014-06-09T14:58:48Z</time>
      </trkpt>
      <trkpt lat="44.87216" lon="5.27388">
        <ele>1363.307495</ele>
        <time>2014-06-09T14:58:53Z</time>
      </trkpt>
      <trkpt lat="44.87214" lon="5.27389">
        <ele>1363.609985</ele>
        <time>2014-06-09T14:58:58Z</time>
      </trkpt>
      <trkpt lat="44.87214" lon="5.27389">
        <ele>1363.557495</ele>
        <time>2014-06-09T14:59:03Z</time>
      </trkpt>
      <trkpt lat="44.87214" lon="5.27389">
        <ele>1363.557495</ele>
        <time>2014-06-09T14:59:08Z</time>
      </trkpt>
      <trkpt lat="44.87217" lon="5.27387">
        <ele>1363.12085</ele>
        <time>2014-06-09T14:59:13Z</time>
      </trkpt>
      <trkpt lat="44.8722" lon="5.27382">
        <ele>1362.544312</ele>
        <time>2014-06-09T14:59:18Z</time>
      </trkpt>
      <trkpt lat="44.87223" lon="5.27375">
        <ele>1361.751953</ele>
        <time>2014-06-09T14:59:23Z</time>
      </trkpt>
      <trkpt lat="44.87226" lon="5.27368">
        <ele>1361.565186</ele>
        <time>2014-06-09T14:59:28Z</time>
      </trkpt>
      <trkpt lat="44.8723" lon="5.27361">
        <ele>1361.402466</ele>
        <time>2014-06-09T14:59:33Z</time>
      </trkpt>
      <trkpt lat="44.87235" lon="5.27356">
        <ele>1361.186157</ele>
        <time>2014-06-09T14:59:38Z</time>
      </trkpt>
      <trkpt lat="44.8724" lon="5.27351">
        <ele>1360.897095</ele>
        <time>2014-06-09T14:59:43Z</time>
      </trkpt>
      <trkpt lat="44.87244" lon="5.27346">
        <ele>1360.612061</ele>
        <time>2014-06-09T14:59:48Z</time>
      </trkpt>
      <trkpt lat="44.8725" lon="5.27341">
        <ele>1360.199829</ele>
        <time>2014-06-09T14:59:53Z</time>
      </trkpt>
      <trkpt lat="44.87256" lon="5.27337">
        <ele>1359.742065</ele>
        <time>2014-06-09T14:59:58Z</time>
      </trkpt>
      <trkpt lat="44.87262" lon="5.27334">
        <ele>1359.281494</ele>
        <time>2014-06-09T15:00:03Z</time>
      </trkpt>
      <trkpt lat="44.87269" lon="5.27333">
        <ele>1358.924927</ele>
        <time>2014-06-09T15:00:08Z</time>
      </trkpt>
      <trkpt lat="44.87275" lon="5.2733">
        <ele>1358.5177</ele>
        <time>2014-06-09T15:00:13Z</time>
      </trkpt>
      <trkpt lat="44.87282" lon="5.27328">
        <ele>1358.091797</ele>
        <time>2014-06-09T15:00:18Z</time>
      </trkpt>
      <trkpt lat="44.87288" lon="5.27326">
        <ele>1357.665039</ele>
        <time>2014-06-09T15:00:23Z</time>
      </trkpt>
      <trkpt lat="44.87293" lon="5.27323">
        <ele>1357.210327</ele>
        <time>2014-06-09T15:00:28Z</time>
      </trkpt>
      <trkpt lat="44.87299" lon="5.2732">
        <ele>1356.724609</ele>
        <time>2014-06-09T15:00:33Z</time>
      </trkpt>
      <trkpt lat="44.87305" lon="5.27317">
        <ele>1356.218506</ele>
        <time>2014-06-09T15:00:38Z</time>
      </trkpt>
      <trkpt lat="44.87311" lon="5.27314">
        <ele>1356.021973</ele>
        <time>2014-06-09T15:00:43Z</time>
      </trkpt>
      <trkpt lat="44.87315" lon="5.2731">
        <ele>1356.055298</ele>
        <time>2014-06-09T15:00:48Z</time>
      </trkpt>
      <trkpt lat="44.8732" lon="5.27306">
        <ele>1355.988037</ele>
        <time>2014-06-09T15:00:53Z</time>
      </trkpt>
      <trkpt lat="44.87325" lon="5.27302">
        <ele>1355.835571</ele>
        <time>2014-06-09T15:00:58Z</time>
      </trkpt>
      <trkpt lat="44.8733" lon="5.27299">
        <ele>1355.5979</ele>
        <time>2014-06-09T15:01:03Z</time>
      </trkpt>
      <trkpt lat="44.87334" lon="5.27294">
        <ele>1355.239502</ele>
        <time>2014-06-09T15:01:08Z</time>
      </trkpt>
      <trkpt lat="44.87339" lon="5.2729">
        <ele>1354.771362</ele>
        <time>2014-06-09T15:01:13Z</time>
      </trkpt>
      <trkpt lat="44.87344" lon="5.27285">
        <ele>1354.177979</ele>
        <time>2014-06-09T15:01:18Z</time>
      </trkpt>
      <trkpt lat="44.87349" lon="5.27281">
        <ele>1353.525513</ele>
        <time>2014-06-09T15:01:23Z</time>
      </trkpt>
      <trkpt lat="44.87354" lon="5.27278">
        <ele>1352.818359</ele>
        <time>2014-06-09T15:01:28Z</time>
      </trkpt>
      <trkpt lat="44.87359" lon="5.27274">
        <ele>1352.340942</ele>
        <time>2014-06-09T15:01:33Z</time>
      </trkpt>
      <trkpt lat="44.87365" lon="5.27271">
        <ele>1351.786011</ele>
        <time>2014-06-09T15:01:38Z</time>
      </trkpt>
      <trkpt lat="44.8737" lon="5.27268">
        <ele>1351.22937</ele>
        <time>2014-06-09T15:01:43Z</time>
      </trkpt>
      <trkpt lat="44.87376" lon="5.27265">
        <ele>1350.599365</ele>
        <time>2014-06-09T15:01:48Z</time>
      </trkpt>
      <trkpt lat="44.87381" lon="5.27263">
        <ele>1349.953003</ele>
        <time>2014-06-09T15:01:53Z</time>
      </trkpt>
      <trkpt lat="44.87387" lon="5.2726">
        <ele>1349.263794</ele>
        <time>2014-06-09T15:01:58Z</time>
      </trkpt>
      <trkpt lat="44.87392" lon="5.27257">
        <ele>1348.528687</ele>
        <time>2014-06-09T15:02:03Z</time>
      </trkpt>
      <trkpt lat="44.87397" lon="5.27254">
        <ele>1347.80603</ele>
        <time>2014-06-09T15:02:08Z</time>
      </trkpt>
      <trkpt lat="44.87402" lon="5.2725">
        <ele>1347.396973</ele>
        <time>2014-06-09T15:02:13Z</time>
      </trkpt>
      <trkpt lat="44.87407" lon="5.27247">
        <ele>1347.108398</ele>
        <time>2014-06-09T15:02:18Z</time>
      </trkpt>
      <trkpt lat="44.87411" lon="5.27245">
        <ele>1346.889404</ele>
        <time>2014-06-09T15:02:23Z</time>
      </trkpt>
      <trkpt lat="44.87415" lon="5.27241">
        <ele>1346.453247</ele>
        <time>2014-06-09T15:02:28Z</time>
      </trkpt>
      <trkpt lat="44.87419" lon="5.27237">
        <ele>1345.913574</ele>
        <time>2014-06-09T15:02:33Z</time>
      </trkpt>
      <trkpt lat="44.87423" lon="5.27232">
        <ele>1345.274536</ele>
        <time>2014-06-09T15:02:38Z</time>
      </trkpt>
      <trkpt lat="44.87428" lon="5.27229">
        <ele>1344.648804</ele>
        <time>2014-06-09T15:02:43Z</time>
      </trkpt>
      <trkpt lat="44.87433" lon="5.27225">
        <ele>1344.044434</ele>
        <time>2014-06-09T15:02:48Z</time>
      </trkpt>
      <trkpt lat="44.87437" lon="5.27222">
        <ele>1343.522827</ele>
        <time>2014-06-09T15:02:53Z</time>
      </trkpt>
      <trkpt lat="44.87442" lon="5.27219">
        <ele>1342.739258</ele>
        <time>2014-06-09T15:02:58Z</time>
      </trkpt>
      <trkpt lat="44.87447" lon="5.27214">
        <ele>1341.834961</ele>
        <time>2014-06-09T15:03:03Z</time>
      </trkpt>
      <trkpt lat="44.87451" lon="5.27208">
        <ele>1340.80249</ele>
        <time>2014-06-09T15:03:08Z</time>
      </trkpt>
      <trkpt lat="44.87456" lon="5.27203">
        <ele>1339.844971</ele>
        <time>2014-06-09T15:03:13Z</time>
      </trkpt>
      <trkpt lat="44.87461" lon="5.27197">
        <ele>1338.785034</ele>
        <time>2014-06-09T15:03:18Z</time>
      </trkpt>
      <trkpt lat="44.87465" lon="5.27191">
        <ele>1337.802246</ele>
        <time>2014-06-09T15:03:23Z</time>
      </trkpt>
      <trkpt lat="44.8747" lon="5.27186">
        <ele>1336.913086</ele>
        <time>2014-06-09T15:03:28Z</time>
      </trkpt>
      <trkpt lat="44.87475" lon="5.27181">
        <ele>1335.92041</ele>
        <time>2014-06-09T15:03:33Z</time>
      </trkpt>
      <trkpt lat="44.87479" lon="5.27175">
        <ele>1334.964844</ele>
        <time>2014-06-09T15:03:38Z</time>
      </trkpt>
      <trkpt lat="44.87484" lon="5.27171">
        <ele>1333.980103</ele>
        <time>2014-06-09T15:03:43Z</time>
      </trkpt>
      <trkpt lat="44.87489" lon="5.27165">
        <ele>1332.921631</ele>
        <time>2014-06-09T15:03:48Z</time>
      </trkpt>
      <trkpt lat="44.87493" lon="5.27159">
        <ele>1331.79248</ele>
        <time>2014-06-09T15:03:53Z</time>
      </trkpt>
      <trkpt lat="44.87497" lon="5.27154">
        <ele>1330.902466</ele>
        <time>2014-06-09T15:03:58Z</time>
      </trkpt>
      <trkpt lat="44.87502" lon="5.27149">
        <ele>1330.005005</ele>
        <time>2014-06-09T15:04:03Z</time>
      </trkpt>
      <trkpt lat="44.87507" lon="5.27145">
        <ele>1329.20752</ele>
        <time>2014-06-09T15:04:08Z</time>
      </trkpt>
      <trkpt lat="44.87513" lon="5.27143">
        <ele>1328.655029</ele>
        <time>2014-06-09T15:04:13Z</time>
      </trkpt>
      <trkpt lat="44.87519" lon="5.27143">
        <ele>1328.540039</ele>
        <time>2014-06-09T15:04:18Z</time>
      </trkpt>
      <trkpt lat="44.87524" lon="5.27146">
        <ele>1328.77002</ele>
        <time>2014-06-09T15:04:23Z</time>
      </trkpt>
      <trkpt lat="44.8753" lon="5.27149">
        <ele>1329.015015</ele>
        <time>2014-06-09T15:04:28Z</time>
      </trkpt>
      <trkpt lat="44.87534" lon="5.27151">
        <ele>1329.295044</ele>
        <time>2014-06-09T15:04:33Z</time>
      </trkpt>
      <trkpt lat="44.87539" lon="5.27154">
        <ele>1329.555298</ele>
        <time>2014-06-09T15:04:38Z</time>
      </trkpt>
      <trkpt lat="44.87544" lon="5.27157">
        <ele>1329.89209</ele>
        <time>2014-06-09T15:04:43Z</time>
      </trkpt>
      <trkpt lat="44.8755" lon="5.2716">
        <ele>1330.157593</ele>
        <time>2014-06-09T15:04:48Z</time>
      </trkpt>
      <trkpt lat="44.87554" lon="5.27164">
        <ele>1330.461914</ele>
        <time>2014-06-09T15:04:53Z</time>
      </trkpt>
      <trkpt lat="44.8756" lon="5.27166">
        <ele>1330.672363</ele>
        <time>2014-06-09T15:04:58Z</time>
      </trkpt>
      <trkpt lat="44.87565" lon="5.27169">
        <ele>1330.884766</ele>
        <time>2014-06-09T15:05:03Z</time>
      </trkpt>
      <trkpt lat="44.8757" lon="5.27172">
        <ele>1331.052612</ele>
        <time>2014-06-09T15:05:08Z</time>
      </trkpt>
      <trkpt lat="44.87574" lon="5.27174">
        <ele>1331.239746</ele>
        <time>2014-06-09T15:05:13Z</time>
      </trkpt>
      <trkpt lat="44.87579" lon="5.27178">
        <ele>1331.509155</ele>
        <time>2014-06-09T15:05:18Z</time>
      </trkpt>
      <trkpt lat="44.87584" lon="5.27181">
        <ele>1331.688721</ele>
        <time>2014-06-09T15:05:23Z</time>
      </trkpt>
      <trkpt lat="44.87589" lon="5.27185">
        <ele>1331.834961</ele>
        <time>2014-06-09T15:05:28Z</time>
      </trkpt>
      <trkpt lat="44.87594" lon="5.27189">
        <ele>1331.951294</ele>
        <time>2014-06-09T15:05:33Z</time>
      </trkpt>
      <trkpt lat="44.876" lon="5.27191">
        <ele>1331.86499</ele>
        <time>2014-06-09T15:05:38Z</time>
      </trkpt>
      <trkpt lat="44.87606" lon="5.27195">
        <ele>1331.966187</ele>
        <time>2014-06-09T15:05:43Z</time>
      </trkpt>
      <trkpt lat="44.87611" lon="5.27199">
        <ele>1332.089966</ele>
        <time>2014-06-09T15:05:48Z</time>
      </trkpt>
      <trkpt lat="44.87617" lon="5.27202">
        <ele>1332.194946</ele>
        <time>2014-06-09T15:05:53Z</time>
      </trkpt>
      <trkpt lat="44.87622" lon="5.27206">
        <ele>1332.397461</ele>
        <time>2014-06-09T15:05:58Z</time>
      </trkpt>
      <trkpt lat="44.87628" lon="5.2721">
        <ele>1332.436279</ele>
        <time>2014-06-09T15:06:03Z</time>
      </trkpt>
      <trkpt lat="44.87634" lon="5.27215">
        <ele>1332.371704</ele>
        <time>2014-06-09T15:06:08Z</time>
      </trkpt>
      <trkpt lat="44.8764" lon="5.27219">
        <ele>1332.383179</ele>
        <time>2014-06-09T15:06:13Z</time>
      </trkpt>
      <trkpt lat="44.87645" lon="5.27223">
        <ele>1332.369751</ele>
        <time>2014-06-09T15:06:18Z</time>
      </trkpt>
      <trkpt lat="44.87652" lon="5.27227">
        <ele>1332.297241</ele>
        <time>2014-06-09T15:06:23Z</time>
      </trkpt>
      <trkpt lat="44.87657" lon="5.27231">
        <ele>1332.261353</ele>
        <time>2014-06-09T15:06:28Z</time>
      </trkpt>
      <trkpt lat="44.87663" lon="5.27236">
        <ele>1332.175537</ele>
        <time>2014-06-09T15:06:33Z</time>
      </trkpt>
      <trkpt lat="44.87669" lon="5.2724">
        <ele>1332.122192</ele>
        <time>2014-06-09T15:06:38Z</time>
      </trkpt>
      <trkpt lat="44.87675" lon="5.27245">
        <ele>1331.991699</ele>
        <time>2014-06-09T15:06:43Z</time>
      </trkpt>
      <trkpt lat="44.87681" lon="5.2725">
        <ele>1331.838257</ele>
        <time>2014-06-09T15:06:48Z</time>
      </trkpt>
      <trkpt lat="44.87686" lon="5.27254">
        <ele>1331.651611</ele>
        <time>2014-06-09T15:06:53Z</time>
      </trkpt>
      <trkpt lat="44.87691" lon="5.27259">
        <ele>1331.48291</ele>
        <time>2014-06-09T15:06:58Z</time>
      </trkpt>
      <trkpt lat="44.87697" lon="5.27264">
        <ele>1331.337891</ele>
        <time>2014-06-09T15:07:03Z</time>
      </trkpt>
      <trkpt lat="44.87702" lon="5.27268">
        <ele>1331.035034</ele>
        <time>2014-06-09T15:07:08Z</time>
      </trkpt>
      <trkpt lat="44.87708" lon="5.27272">
        <ele>1330.56897</ele>
        <time>2014-06-09T15:07:13Z</time>
      </trkpt>
      <trkpt lat="44.87714" lon="5.27277">
        <ele>1330.22876</ele>
        <time>2014-06-09T15:07:18Z</time>
      </trkpt>
      <trkpt lat="44.87719" lon="5.27281">
        <ele>1329.905029</ele>
        <time>2014-06-09T15:07:23Z</time>
      </trkpt>
      <trkpt lat="44.87725" lon="5.27285">
        <ele>1329.647461</ele>
        <time>2014-06-09T15:07:28Z</time>
      </trkpt>
      <trkpt lat="44.8773" lon="5.2729">
        <ele>1329.428711</ele>
        <time>2014-06-09T15:07:33Z</time>
      </trkpt>
      <trkpt lat="44.87736" lon="5.27296">
        <ele>1329.251221</ele>
        <time>2014-06-09T15:07:38Z</time>
      </trkpt>
      <trkpt lat="44.87741" lon="5.27301">
        <ele>1329.028687</ele>
        <time>2014-06-09T15:07:43Z</time>
      </trkpt>
      <trkpt lat="44.87747" lon="5.27305">
        <ele>1328.790039</ele>
        <time>2014-06-09T15:07:48Z</time>
      </trkpt>
      <trkpt lat="44.87752" lon="5.27309">
        <ele>1328.481201</ele>
        <time>2014-06-09T15:07:53Z</time>
      </trkpt>
      <trkpt lat="44.87758" lon="5.27313">
        <ele>1328.077515</ele>
        <time>2014-06-09T15:07:58Z</time>
      </trkpt>
      <trkpt lat="44.87764" lon="5.27316">
        <ele>1327.73999</ele>
        <time>2014-06-09T15:08:03Z</time>
      </trkpt>
      <trkpt lat="44.87769" lon="5.2732">
        <ele>1327.496216</ele>
        <time>2014-06-09T15:08:08Z</time>
      </trkpt>
      <trkpt lat="44.87775" lon="5.27325">
        <ele>1327.310059</ele>
        <time>2014-06-09T15:08:13Z</time>
      </trkpt>
      <trkpt lat="44.87781" lon="5.2733">
        <ele>1327.19873</ele>
        <time>2014-06-09T15:08:18Z</time>
      </trkpt>
      <trkpt lat="44.87786" lon="5.27334">
        <ele>1326.992554</ele>
        <time>2014-06-09T15:08:23Z</time>
      </trkpt>
      <trkpt lat="44.87792" lon="5.27337">
        <ele>1326.692505</ele>
        <time>2014-06-09T15:08:28Z</time>
      </trkpt>
      <trkpt lat="44.87798" lon="5.27341">
        <ele>1326.443726</ele>
        <time>2014-06-09T15:08:33Z</time>
      </trkpt>
      <trkpt lat="44.87803" lon="5.27346">
        <ele>1326.47937</ele>
        <time>2014-06-09T15:08:38Z</time>
      </trkpt>
      <trkpt lat="44.87809" lon="5.27351">
        <ele>1326.601685</ele>
        <time>2014-06-09T15:08:43Z</time>
      </trkpt>
      <trkpt lat="44.87815" lon="5.27355">
        <ele>1326.552734</ele>
        <time>2014-06-09T15:08:48Z</time>
      </trkpt>
      <trkpt lat="44.87821" lon="5.27358">
        <ele>1326.422852</ele>
        <time>2014-06-09T15:08:53Z</time>
      </trkpt>
      <trkpt lat="44.87827" lon="5.2736">
        <ele>1326.090454</ele>
        <time>2014-06-09T15:08:58Z</time>
      </trkpt>
      <trkpt lat="44.87832" lon="5.27361">
        <ele>1325.647339</ele>
        <time>2014-06-09T15:09:03Z</time>
      </trkpt>
      <trkpt lat="44.87838" lon="5.27365">
        <ele>1325.434082</ele>
        <time>2014-06-09T15:09:08Z</time>
      </trkpt>
      <trkpt lat="44.87844" lon="5.27369">
        <ele>1325.414307</ele>
        <time>2014-06-09T15:09:13Z</time>
      </trkpt>
      <trkpt lat="44.8785" lon="5.27374">
        <ele>1325.471069</ele>
        <time>2014-06-09T15:09:18Z</time>
      </trkpt>
      <trkpt lat="44.87854" lon="5.27378">
        <ele>1325.680298</ele>
        <time>2014-06-09T15:09:23Z</time>
      </trkpt>
      <trkpt lat="44.87859" lon="5.27383">
        <ele>1325.772827</ele>
        <time>2014-06-09T15:09:28Z</time>
      </trkpt>
      <trkpt lat="44.87865" lon="5.27387">
        <ele>1325.773804</ele>
        <time>2014-06-09T15:09:33Z</time>
      </trkpt>
      <trkpt lat="44.87871" lon="5.27391">
        <ele>1325.69519</ele>
        <time>2014-06-09T15:09:38Z</time>
      </trkpt>
      <trkpt lat="44.87876" lon="5.27395">
        <ele>1325.721436</ele>
        <time>2014-06-09T15:09:43Z</time>
      </trkpt>
      <trkpt lat="44.87882" lon="5.27401">
        <ele>1325.839722</ele>
        <time>2014-06-09T15:09:48Z</time>
      </trkpt>
      <trkpt lat="44.87886" lon="5.27407">
        <ele>1326.134155</ele>
        <time>2014-06-09T15:09:53Z</time>
      </trkpt>
      <trkpt lat="44.8789" lon="5.27412">
        <ele>1326.558716</ele>
        <time>2014-06-09T15:09:58Z</time>
      </trkpt>
      <trkpt lat="44.87893" lon="5.27417">
        <ele>1326.967529</ele>
        <time>2014-06-09T15:10:03Z</time>
      </trkpt>
      <trkpt lat="44.87896" lon="5.27422">
        <ele>1327.558716</ele>
        <time>2014-06-09T15:10:08Z</time>
      </trkpt>
      <trkpt lat="44.87895" lon="5.27423">
        <ele>1327.901245</ele>
        <time>2014-06-09T15:10:13Z</time>
      </trkpt>
      <trkpt lat="44.87898" lon="5.27427">
        <ele>1328.243774</ele>
        <time>2014-06-09T15:10:18Z</time>
      </trkpt>
      <trkpt lat="44.879" lon="5.27431">
        <ele>1328.665039</ele>
        <time>2014-06-09T15:10:23Z</time>
      </trkpt>
      <trkpt lat="44.87905" lon="5.27435">
        <ele>1328.878784</ele>
        <time>2014-06-09T15:10:28Z</time>
      </trkpt>
      <trkpt lat="44.8791" lon="5.27439">
        <ele>1329.183716</ele>
        <time>2014-06-09T15:10:33Z</time>
      </trkpt>
      <trkpt lat="44.87915" lon="5.27443">
        <ele>1329.377563</ele>
        <time>2014-06-09T15:10:38Z</time>
      </trkpt>
      <trkpt lat="44.87921" lon="5.27447">
        <ele>1329.463745</ele>
        <time>2014-06-09T15:10:43Z</time>
      </trkpt>
      <trkpt lat="44.87927" lon="5.27451">
        <ele>1329.561279</ele>
        <time>2014-06-09T15:10:48Z</time>
      </trkpt>
      <trkpt lat="44.87932" lon="5.27455">
        <ele>1329.662476</ele>
        <time>2014-06-09T15:10:53Z</time>
      </trkpt>
      <trkpt lat="44.87938" lon="5.27458">
        <ele>1329.818359</ele>
        <time>2014-06-09T15:10:58Z</time>
      </trkpt>
      <trkpt lat="44.87944" lon="5.2746">
        <ele>1329.860352</ele>
        <time>2014-06-09T15:11:03Z</time>
      </trkpt>
      <trkpt lat="44.87949" lon="5.27462">
        <ele>1329.812622</ele>
        <time>2014-06-09T15:11:08Z</time>
      </trkpt>
      <trkpt lat="44.87954" lon="5.27464">
        <ele>1329.664917</ele>
        <time>2014-06-09T15:11:13Z</time>
      </trkpt>
      <trkpt lat="44.87961" lon="5.27465">
        <ele>1329.487427</ele>
        <time>2014-06-09T15:11:18Z</time>
      </trkpt>
      <trkpt lat="44.87966" lon="5.27467">
        <ele>1329.374146</ele>
        <time>2014-06-09T15:11:23Z</time>
      </trkpt>
      <trkpt lat="44.87972" lon="5.27469">
        <ele>1329.352905</ele>
        <time>2014-06-09T15:11:28Z</time>
      </trkpt>
      <trkpt lat="44.87978" lon="5.27473">
        <ele>1329.40686</ele>
        <time>2014-06-09T15:11:33Z</time>
      </trkpt>
      <trkpt lat="44.87983" lon="5.27477">
        <ele>1329.712891</ele>
        <time>2014-06-09T15:11:38Z</time>
      </trkpt>
      <trkpt lat="44.8799" lon="5.27481">
        <ele>1330.117188</ele>
        <time>2014-06-09T15:11:43Z</time>
      </trkpt>
      <trkpt lat="44.87995" lon="5.27486">
        <ele>1330.540894</ele>
        <time>2014-06-09T15:11:48Z</time>
      </trkpt>
      <trkpt lat="44.88" lon="5.2749">
        <ele>1330.989502</ele>
        <time>2014-06-09T15:11:53Z</time>
      </trkpt>
      <trkpt lat="44.88006" lon="5.27494">
        <ele>1331.385986</ele>
        <time>2014-06-09T15:11:58Z</time>
      </trkpt>
      <trkpt lat="44.88011" lon="5.27499">
        <ele>1331.794067</ele>
        <time>2014-06-09T15:12:03Z</time>
      </trkpt>
      <trkpt lat="44.88016" lon="5.27501">
        <ele>1331.768433</ele>
        <time>2014-06-09T15:12:08Z</time>
      </trkpt>
      <trkpt lat="44.88022" lon="5.27502">
        <ele>1331.554932</ele>
        <time>2014-06-09T15:12:13Z</time>
      </trkpt>
      <trkpt lat="44.88028" lon="5.27502">
        <ele>1331.342529</ele>
        <time>2014-06-09T15:12:18Z</time>
      </trkpt>
      <trkpt lat="44.8803" lon="5.27503">
        <ele>1331.330078</ele>
        <time>2014-06-09T15:12:23Z</time>
      </trkpt>
      <trkpt lat="44.88034" lon="5.27504">
        <ele>1331.255005</ele>
        <time>2014-06-09T15:12:28Z</time>
      </trkpt>
      <trkpt lat="44.88041" lon="5.27505">
        <ele>1331.11499</ele>
        <time>2014-06-09T15:12:33Z</time>
      </trkpt>
      <trkpt lat="44.88046" lon="5.27507">
        <ele>1331.125</ele>
        <time>2014-06-09T15:12:38Z</time>
      </trkpt>
      <trkpt lat="44.88051" lon="5.27509">
        <ele>1331.209961</ele>
        <time>2014-06-09T15:12:43Z</time>
      </trkpt>
      <trkpt lat="44.88057" lon="5.27509">
        <ele>1330.925049</ele>
        <time>2014-06-09T15:12:48Z</time>
      </trkpt>
      <trkpt lat="44.88064" lon="5.2751">
        <ele>1330.734985</ele>
        <time>2014-06-09T15:12:53Z</time>
      </trkpt>
      <trkpt lat="44.8807" lon="5.27509">
        <ele>1330.376831</ele>
        <time>2014-06-09T15:12:58Z</time>
      </trkpt>
      <trkpt lat="44.88076" lon="5.27508">
        <ele>1330.073975</ele>
        <time>2014-06-09T15:13:03Z</time>
      </trkpt>
      <trkpt lat="44.88083" lon="5.27507">
        <ele>1329.827637</ele>
        <time>2014-06-09T15:13:08Z</time>
      </trkpt>
      <trkpt lat="44.88089" lon="5.27506">
        <ele>1329.614136</ele>
        <time>2014-06-09T15:13:13Z</time>
      </trkpt>
      <trkpt lat="44.88095" lon="5.27504">
        <ele>1329.326538</ele>
        <time>2014-06-09T15:13:18Z</time>
      </trkpt>
      <trkpt lat="44.88101" lon="5.27501">
        <ele>1328.978149</ele>
        <time>2014-06-09T15:13:23Z</time>
      </trkpt>
      <trkpt lat="44.88107" lon="5.275">
        <ele>1328.784912</ele>
        <time>2014-06-09T15:13:28Z</time>
      </trkpt>
      <trkpt lat="44.88113" lon="5.27498">
        <ele>1328.611572</ele>
        <time>2014-06-09T15:13:33Z</time>
      </trkpt>
      <trkpt lat="44.88118" lon="5.27498">
        <ele>1328.683472</ele>
        <time>2014-06-09T15:13:38Z</time>
      </trkpt>
      <trkpt lat="44.88125" lon="5.27498">
        <ele>1328.838867</ele>
        <time>2014-06-09T15:13:43Z</time>
      </trkpt>
      <trkpt lat="44.88131" lon="5.27498">
        <ele>1328.951416</ele>
        <time>2014-06-09T15:13:48Z</time>
      </trkpt>
      <trkpt lat="44.88137" lon="5.27499">
        <ele>1329.122925</ele>
        <time>2014-06-09T15:13:53Z</time>
      </trkpt>
      <trkpt lat="44.88143" lon="5.27499">
        <ele>1329.307861</ele>
        <time>2014-06-09T15:13:58Z</time>
      </trkpt>
      <trkpt lat="44.8815" lon="5.275">
        <ele>1329.512695</ele>
        <time>2014-06-09T15:14:03Z</time>
      </trkpt>
      <trkpt lat="44.88156" lon="5.27501">
        <ele>1329.692871</ele>
        <time>2014-06-09T15:14:08Z</time>
      </trkpt>
      <trkpt lat="44.88163" lon="5.27502">
        <ele>1329.747314</ele>
        <time>2014-06-09T15:14:13Z</time>
      </trkpt>
      <trkpt lat="44.8817" lon="5.27503">
        <ele>1329.857544</ele>
        <time>2014-06-09T15:14:18Z</time>
      </trkpt>
      <trkpt lat="44.88176" lon="5.27505">
        <ele>1329.943237</ele>
        <time>2014-06-09T15:14:23Z</time>
      </trkpt>
      <trkpt lat="44.88183" lon="5.27506">
        <ele>1330.018921</ele>
        <time>2014-06-09T15:14:28Z</time>
      </trkpt>
      <trkpt lat="44.88189" lon="5.27507">
        <ele>1330.102051</ele>
        <time>2014-06-09T15:14:33Z</time>
      </trkpt>
      <trkpt lat="44.88195" lon="5.27507">
        <ele>1330.12207</ele>
        <time>2014-06-09T15:14:38Z</time>
      </trkpt>
      <trkpt lat="44.88202" lon="5.27506">
        <ele>1330.078613</ele>
        <time>2014-06-09T15:14:43Z</time>
      </trkpt>
      <trkpt lat="44.88208" lon="5.27506">
        <ele>1330.231934</ele>
        <time>2014-06-09T15:14:48Z</time>
      </trkpt>
      <trkpt lat="44.88215" lon="5.27504">
        <ele>1330.322632</ele>
        <time>2014-06-09T15:14:53Z</time>
      </trkpt>
      <trkpt lat="44.88221" lon="5.27504">
        <ele>1330.466187</ele>
        <time>2014-06-09T15:14:58Z</time>
      </trkpt>
      <trkpt lat="44.88228" lon="5.27505">
        <ele>1330.63916</ele>
        <time>2014-06-09T15:15:03Z</time>
      </trkpt>
      <trkpt lat="44.88234" lon="5.27507">
        <ele>1330.986206</ele>
        <time>2014-06-09T15:15:08Z</time>
      </trkpt>
      <trkpt lat="44.88241" lon="5.27508">
        <ele>1331.208984</ele>
        <time>2014-06-09T15:15:13Z</time>
      </trkpt>
      <trkpt lat="44.88245" lon="5.27512">
        <ele>1331.647827</ele>
        <time>2014-06-09T15:15:18Z</time>
      </trkpt>
      <trkpt lat="44.88251" lon="5.27516">
        <ele>1332.017578</ele>
        <time>2014-06-09T15:15:23Z</time>
      </trkpt>
      <trkpt lat="44.88255" lon="5.27519">
        <ele>1332.39624</ele>
        <time>2014-06-09T15:15:28Z</time>
      </trkpt>
      <trkpt lat="44.8826" lon="5.27525">
        <ele>1332.994263</ele>
        <time>2014-06-09T15:15:33Z</time>
      </trkpt>
      <trkpt lat="44.88265" lon="5.27529">
        <ele>1333.407593</ele>
        <time>2014-06-09T15:15:38Z</time>
      </trkpt>
      <trkpt lat="44.88271" lon="5.27531">
        <ele>1333.788208</ele>
        <time>2014-06-09T15:15:43Z</time>
      </trkpt>
      <trkpt lat="44.88278" lon="5.27532">
        <ele>1333.984009</ele>
        <time>2014-06-09T15:15:48Z</time>
      </trkpt>
      <trkpt lat="44.88284" lon="5.27532">
        <ele>1334.147827</ele>
        <time>2014-06-09T15:15:53Z</time>
      </trkpt>
      <trkpt lat="44.8829" lon="5.27532">
        <ele>1334.233398</ele>
        <time>2014-06-09T15:15:58Z</time>
      </trkpt>
      <trkpt lat="44.88295" lon="5.27533">
        <ele>1334.397217</ele>
        <time>2014-06-09T15:16:03Z</time>
      </trkpt>
      <trkpt lat="44.88299" lon="5.27536">
        <ele>1334.748535</ele>
        <time>2014-06-09T15:16:08Z</time>
      </trkpt>
      <trkpt lat="44.88303" lon="5.27539">
        <ele>1335.058838</ele>
        <time>2014-06-09T15:16:13Z</time>
      </trkpt>
      <trkpt lat="44.88309" lon="5.2754">
        <ele>1335.151367</ele>
        <time>2014-06-09T15:16:18Z</time>
      </trkpt>
      <trkpt lat="44.88314" lon="5.27539">
        <ele>1335.03833</ele>
        <time>2014-06-09T15:16:23Z</time>
      </trkpt>
      <trkpt lat="44.8832" lon="5.27537">
        <ele>1334.846436</ele>
        <time>2014-06-09T15:16:28Z</time>
      </trkpt>
      <trkpt lat="44.88326" lon="5.27534">
        <ele>1334.631592</ele>
        <time>2014-06-09T15:16:33Z</time>
      </trkpt>
      <trkpt lat="44.88332" lon="5.27533">
        <ele>1334.48584</ele>
        <time>2014-06-09T15:16:38Z</time>
      </trkpt>
      <trkpt lat="44.88337" lon="5.27531">
        <ele>1334.344971</ele>
        <time>2014-06-09T15:16:43Z</time>
      </trkpt>
      <trkpt lat="44.88343" lon="5.27529">
        <ele>1334.01001</ele>
        <time>2014-06-09T15:16:48Z</time>
      </trkpt>
      <trkpt lat="44.88348" lon="5.27527">
        <ele>1333.682495</ele>
        <time>2014-06-09T15:16:53Z</time>
      </trkpt>
      <trkpt lat="44.88355" lon="5.27525">
        <ele>1333.314941</ele>
        <time>2014-06-09T15:16:58Z</time>
      </trkpt>
      <trkpt lat="44.88361" lon="5.27522">
        <ele>1332.849976</ele>
        <time>2014-06-09T15:17:03Z</time>
      </trkpt>
      <trkpt lat="44.88368" lon="5.27519">
        <ele>1332.407471</ele>
        <time>2014-06-09T15:17:08Z</time>
      </trkpt>
      <trkpt lat="44.88374" lon="5.27518">
        <ele>1332.117554</ele>
        <time>2014-06-09T15:17:13Z</time>
      </trkpt>
      <trkpt lat="44.8838" lon="5.27517">
        <ele>1331.875</ele>
        <time>2014-06-09T15:17:18Z</time>
      </trkpt>
      <trkpt lat="44.88386" lon="5.27518">
        <ele>1331.805298</ele>
        <time>2014-06-09T15:17:23Z</time>
      </trkpt>
      <trkpt lat="44.88391" lon="5.27518">
        <ele>1331.69043</ele>
        <time>2014-06-09T15:17:28Z</time>
      </trkpt>
      <trkpt lat="44.88394" lon="5.27522">
        <ele>1331.966553</ele>
        <time>2014-06-09T15:17:33Z</time>
      </trkpt>
      <trkpt lat="44.88397" lon="5.27518">
        <ele>1331.570068</ele>
        <time>2014-06-09T15:17:38Z</time>
      </trkpt>
      <trkpt lat="44.88402" lon="5.27514">
        <ele>1331.235474</ele>
        <time>2014-06-09T15:17:43Z</time>
      </trkpt>
      <trkpt lat="44.88403" lon="5.27514">
        <ele>1331.191895</ele>
        <time>2014-06-09T15:17:48Z</time>
      </trkpt>
      <trkpt lat="44.88403" lon="5.27513">
        <ele>1331.09729</ele>
        <time>2014-06-09T15:18:43Z</time>
      </trkpt>
      <trkpt lat="44.88403" lon="5.27513">
        <ele>1331.093994</ele>
        <time>2014-06-09T15:18:48Z</time>
      </trkpt>
      <trkpt lat="44.88404" lon="5.27513">
        <ele>1331.056274</ele>
        <time>2014-06-09T15:18:53Z</time>
      </trkpt>
      <trkpt lat="44.88404" lon="5.27513">
        <ele>1331.065674</ele>
        <time>2014-06-09T15:18:58Z</time>
      </trkpt>
      <trkpt lat="44.88405" lon="5.27513">
        <ele>1331.048828</ele>
        <time>2014-06-09T15:19:03Z</time>
      </trkpt>
      <trkpt lat="44.88406" lon="5.2751">
        <ele>1330.844238</ele>
        <time>2014-06-09T15:19:08Z</time>
      </trkpt>
      <trkpt lat="44.88409" lon="5.27506">
        <ele>1330.527954</ele>
        <time>2014-06-09T15:19:13Z</time>
      </trkpt>
      <trkpt lat="44.88413" lon="5.27501">
        <ele>1330.121704</ele>
        <time>2014-06-09T15:19:18Z</time>
      </trkpt>
      <trkpt lat="44.88417" lon="5.27497">
        <ele>1329.758179</ele>
        <time>2014-06-09T15:19:23Z</time>
      </trkpt>
      <trkpt lat="44.88421" lon="5.27493">
        <ele>1329.421997</ele>
        <time>2014-06-09T15:19:28Z</time>
      </trkpt>
      <trkpt lat="44.88426" lon="5.2749">
        <ele>1329.203125</ele>
        <time>2014-06-09T15:19:33Z</time>
      </trkpt>
      <trkpt lat="44.8843" lon="5.27486">
        <ele>1328.736084</ele>
        <time>2014-06-09T15:19:38Z</time>
      </trkpt>
      <trkpt lat="44.88432" lon="5.27478">
        <ele>1328.098755</ele>
        <time>2014-06-09T15:19:43Z</time>
      </trkpt>
      <trkpt lat="44.88437" lon="5.27474">
        <ele>1327.627686</ele>
        <time>2014-06-09T15:19:48Z</time>
      </trkpt>
      <trkpt lat="44.88443" lon="5.27472">
        <ele>1327.327393</ele>
        <time>2014-06-09T15:19:53Z</time>
      </trkpt>
      <trkpt lat="44.88448" lon="5.27471">
        <ele>1327.085938</ele>
        <time>2014-06-09T15:19:58Z</time>
      </trkpt>
      <trkpt lat="44.88453" lon="5.27469">
        <ele>1326.848022</ele>
        <time>2014-06-09T15:20:03Z</time>
      </trkpt>
      <trkpt lat="44.88459" lon="5.27467">
        <ele>1326.624512</ele>
        <time>2014-06-09T15:20:08Z</time>
      </trkpt>
      <trkpt lat="44.88464" lon="5.27468">
        <ele>1326.562866</ele>
        <time>2014-06-09T15:20:13Z</time>
      </trkpt>
      <trkpt lat="44.88469" lon="5.2747">
        <ele>1326.552368</ele>
        <time>2014-06-09T15:20:18Z</time>
      </trkpt>
      <trkpt lat="44.88469" lon="5.27471">
        <ele>1326.608398</ele>
        <time>2014-06-09T15:20:23Z</time>
      </trkpt>
      <trkpt lat="44.88469" lon="5.27471">
        <ele>1326.600464</ele>
        <time>2014-06-09T15:20:28Z</time>
      </trkpt>
      <trkpt lat="44.88472" lon="5.27471">
        <ele>1326.496216</ele>
        <time>2014-06-09T15:20:33Z</time>
      </trkpt>
      <trkpt lat="44.88478" lon="5.27471">
        <ele>1326.247559</ele>
        <time>2014-06-09T15:20:38Z</time>
      </trkpt>
      <trkpt lat="44.88483" lon="5.27476">
        <ele>1326.244995</ele>
        <time>2014-06-09T15:20:43Z</time>
      </trkpt>
      <trkpt lat="44.88486" lon="5.27482">
        <ele>1326.407471</ele>
        <time>2014-06-09T15:20:48Z</time>
      </trkpt>
      <trkpt lat="44.8849" lon="5.27488">
        <ele>1326.463745</ele>
        <time>2014-06-09T15:20:53Z</time>
      </trkpt>
      <trkpt lat="44.88493" lon="5.27495">
        <ele>1326.618774</ele>
        <time>2014-06-09T15:20:58Z</time>
      </trkpt>
      <trkpt lat="44.88496" lon="5.27501">
        <ele>1326.793701</ele>
        <time>2014-06-09T15:21:03Z</time>
      </trkpt>
      <trkpt lat="44.885" lon="5.27506">
        <ele>1326.844971</ele>
        <time>2014-06-09T15:21:08Z</time>
      </trkpt>
      <trkpt lat="44.88504" lon="5.27511">
        <ele>1326.959961</ele>
        <time>2014-06-09T15:21:13Z</time>
      </trkpt>
      <trkpt lat="44.88508" lon="5.27516">
        <ele>1327.10498</ele>
        <time>2014-06-09T15:21:18Z</time>
      </trkpt>
      <trkpt lat="44.88511" lon="5.27521">
        <ele>1327.295044</ele>
        <time>2014-06-09T15:21:23Z</time>
      </trkpt>
      <trkpt lat="44.88515" lon="5.27526">
        <ele>1327.344971</ele>
        <time>2014-06-09T15:21:28Z</time>
      </trkpt>
      <trkpt lat="44.88521" lon="5.27528">
        <ele>1327.157471</ele>
        <time>2014-06-09T15:21:33Z</time>
      </trkpt>
      <trkpt lat="44.88526" lon="5.27529">
        <ele>1326.83252</ele>
        <time>2014-06-09T15:21:38Z</time>
      </trkpt>
      <trkpt lat="44.88531" lon="5.27529">
        <ele>1326.474976</ele>
        <time>2014-06-09T15:21:43Z</time>
      </trkpt>
      <trkpt lat="44.88537" lon="5.27529">
        <ele>1326.067505</ele>
        <time>2014-06-09T15:21:48Z</time>
      </trkpt>
      <trkpt lat="44.88542" lon="5.27531">
        <ele>1325.815063</ele>
        <time>2014-06-09T15:21:53Z</time>
      </trkpt>
      <trkpt lat="44.88547" lon="5.27532">
        <ele>1325.527466</ele>
        <time>2014-06-09T15:21:58Z</time>
      </trkpt>
      <trkpt lat="44.88553" lon="5.27532">
        <ele>1325.099976</ele>
        <time>2014-06-09T15:22:03Z</time>
      </trkpt>
      <trkpt lat="44.88559" lon="5.27532">
        <ele>1324.709961</ele>
        <time>2014-06-09T15:22:08Z</time>
      </trkpt>
      <trkpt lat="44.88564" lon="5.27531">
        <ele>1324.350586</ele>
        <time>2014-06-09T15:22:13Z</time>
      </trkpt>
      <trkpt lat="44.8857" lon="5.2753">
        <ele>1323.961914</ele>
        <time>2014-06-09T15:22:18Z</time>
      </trkpt>
      <trkpt lat="44.88575" lon="5.27528">
        <ele>1323.53772</ele>
        <time>2014-06-09T15:22:23Z</time>
      </trkpt>
      <trkpt lat="44.8858" lon="5.27525">
        <ele>1323.087524</ele>
        <time>2014-06-09T15:22:28Z</time>
      </trkpt>
      <trkpt lat="44.88585" lon="5.27521">
        <ele>1322.607056</ele>
        <time>2014-06-09T15:22:33Z</time>
      </trkpt>
      <trkpt lat="44.8859" lon="5.27517">
        <ele>1322.140015</ele>
        <time>2014-06-09T15:22:38Z</time>
      </trkpt>
      <trkpt lat="44.88595" lon="5.27512">
        <ele>1321.659546</ele>
        <time>2014-06-09T15:22:43Z</time>
      </trkpt>
      <trkpt lat="44.88599" lon="5.27507">
        <ele>1321.119385</ele>
        <time>2014-06-09T15:22:48Z</time>
      </trkpt>
      <trkpt lat="44.88604" lon="5.27501">
        <ele>1320.4646</ele>
        <time>2014-06-09T15:22:53Z</time>
      </trkpt>
      <trkpt lat="44.88609" lon="5.27496">
        <ele>1319.736084</ele>
        <time>2014-06-09T15:22:58Z</time>
      </trkpt>
      <trkpt lat="44.88614" lon="5.27492">
        <ele>1319.003052</ele>
        <time>2014-06-09T15:23:03Z</time>
      </trkpt>
      <trkpt lat="44.88619" lon="5.27488">
        <ele>1318.310547</ele>
        <time>2014-06-09T15:23:08Z</time>
      </trkpt>
      <trkpt lat="44.88622" lon="5.27483">
        <ele>1317.622192</ele>
        <time>2014-06-09T15:23:13Z</time>
      </trkpt>
      <trkpt lat="44.88625" lon="5.27476">
        <ele>1316.959106</ele>
        <time>2014-06-09T15:23:18Z</time>
      </trkpt>
      <trkpt lat="44.88626" lon="5.27468">
        <ele>1316.317993</ele>
        <time>2014-06-09T15:23:23Z</time>
      </trkpt>
      <trkpt lat="44.88627" lon="5.27461">
        <ele>1315.654907</ele>
        <time>2014-06-09T15:23:28Z</time>
      </trkpt>
      <trkpt lat="44.88629" lon="5.27453">
        <ele>1315.005859</ele>
        <time>2014-06-09T15:23:33Z</time>
      </trkpt>
      <trkpt lat="44.8863" lon="5.27446">
        <ele>1314.398804</ele>
        <time>2014-06-09T15:23:38Z</time>
      </trkpt>
      <trkpt lat="44.88632" lon="5.27438">
        <ele>1313.678711</ele>
        <time>2014-06-09T15:23:43Z</time>
      </trkpt>
      <trkpt lat="44.88633" lon="5.27431">
        <ele>1313.01123</ele>
        <time>2014-06-09T15:23:48Z</time>
      </trkpt>
      <trkpt lat="44.88635" lon="5.27423">
        <ele>1312.316284</ele>
        <time>2014-06-09T15:23:53Z</time>
      </trkpt>
      <trkpt lat="44.88636" lon="5.27416">
        <ele>1311.638794</ele>
        <time>2014-06-09T15:23:58Z</time>
      </trkpt>
      <trkpt lat="44.88638" lon="5.27408">
        <ele>1310.893799</ele>
        <time>2014-06-09T15:24:03Z</time>
      </trkpt>
      <trkpt lat="44.88639" lon="5.274">
        <ele>1310.26001</ele>
        <time>2014-06-09T15:24:08Z</time>
      </trkpt>
      <trkpt lat="44.88641" lon="5.27394">
        <ele>1309.643799</ele>
        <time>2014-06-09T15:24:13Z</time>
      </trkpt>
      <trkpt lat="44.88644" lon="5.27387">
        <ele>1308.887451</ele>
        <time>2014-06-09T15:24:18Z</time>
      </trkpt>
      <trkpt lat="44.88645" lon="5.2738">
        <ele>1308.266235</ele>
        <time>2014-06-09T15:24:23Z</time>
      </trkpt>
      <trkpt lat="44.88646" lon="5.27373">
        <ele>1307.598755</ele>
        <time>2014-06-09T15:24:28Z</time>
      </trkpt>
      <trkpt lat="44.88648" lon="5.27365">
        <ele>1306.90625</ele>
        <time>2014-06-09T15:24:33Z</time>
      </trkpt>
      <trkpt lat="44.88651" lon="5.27358">
        <ele>1306.163696</ele>
        <time>2014-06-09T15:24:38Z</time>
      </trkpt>
      <trkpt lat="44.88652" lon="5.27351">
        <ele>1305.515015</ele>
        <time>2014-06-09T15:24:43Z</time>
      </trkpt>
      <trkpt lat="44.88653" lon="5.27344">
        <ele>1304.862549</ele>
        <time>2014-06-09T15:24:48Z</time>
      </trkpt>
      <trkpt lat="44.88655" lon="5.27337">
        <ele>1304.211304</ele>
        <time>2014-06-09T15:24:53Z</time>
      </trkpt>
      <trkpt lat="44.88657" lon="5.27329">
        <ele>1303.495117</ele>
        <time>2014-06-09T15:24:58Z</time>
      </trkpt>
      <trkpt lat="44.88659" lon="5.27322">
        <ele>1302.732544</ele>
        <time>2014-06-09T15:25:03Z</time>
      </trkpt>
      <trkpt lat="44.88661" lon="5.27314">
        <ele>1301.77002</ele>
        <time>2014-06-09T15:25:08Z</time>
      </trkpt>
      <trkpt lat="44.88663" lon="5.27306">
        <ele>1300.939941</ele>
        <time>2014-06-09T15:25:13Z</time>
      </trkpt>
      <trkpt lat="44.88664" lon="5.27299">
        <ele>1300.152466</ele>
        <time>2014-06-09T15:25:18Z</time>
      </trkpt>
      <trkpt lat="44.88665" lon="5.27291">
        <ele>1299.337524</ele>
        <time>2014-06-09T15:25:23Z</time>
      </trkpt>
      <trkpt lat="44.88667" lon="5.27283">
        <ele>1298.422485</ele>
        <time>2014-06-09T15:25:28Z</time>
      </trkpt>
      <trkpt lat="44.88669" lon="5.27275">
        <ele>1297.527466</ele>
        <time>2014-06-09T15:25:33Z</time>
      </trkpt>
      <trkpt lat="44.8867" lon="5.27267">
        <ele>1296.64502</ele>
        <time>2014-06-09T15:25:38Z</time>
      </trkpt>
      <trkpt lat="44.88671" lon="5.27259">
        <ele>1295.76001</ele>
        <time>2014-06-09T15:25:43Z</time>
      </trkpt>
      <trkpt lat="44.88673" lon="5.27251">
        <ele>1294.839966</ele>
        <time>2014-06-09T15:25:48Z</time>
      </trkpt>
      <trkpt lat="44.88675" lon="5.27243">
        <ele>1293.97998</ele>
        <time>2014-06-09T15:25:53Z</time>
      </trkpt>
      <trkpt lat="44.88677" lon="5.27235">
        <ele>1293.002563</ele>
        <time>2014-06-09T15:25:58Z</time>
      </trkpt>
      <trkpt lat="44.88678" lon="5.27228">
        <ele>1292.185059</ele>
        <time>2014-06-09T15:26:03Z</time>
      </trkpt>
      <trkpt lat="44.8868" lon="5.27219">
        <ele>1291.324951</ele>
        <time>2014-06-09T15:26:08Z</time>
      </trkpt>
      <trkpt lat="44.88681" lon="5.27211">
        <ele>1290.432495</ele>
        <time>2014-06-09T15:26:13Z</time>
      </trkpt>
      <trkpt lat="44.88683" lon="5.27204">
        <ele>1289.507568</ele>
        <time>2014-06-09T15:26:18Z</time>
      </trkpt>
      <trkpt lat="44.88685" lon="5.27195">
        <ele>1288.663696</ele>
        <time>2014-06-09T15:26:23Z</time>
      </trkpt>
      <trkpt lat="44.88687" lon="5.27187">
        <ele>1287.817505</ele>
        <time>2014-06-09T15:26:28Z</time>
      </trkpt>
      <trkpt lat="44.88688" lon="5.27179">
        <ele>1287.045044</ele>
        <time>2014-06-09T15:26:33Z</time>
      </trkpt>
      <trkpt lat="44.88691" lon="5.27171">
        <ele>1286.221191</ele>
        <time>2014-06-09T15:26:38Z</time>
      </trkpt>
      <trkpt lat="44.88691" lon="5.27162">
        <ele>1285.57251</ele>
        <time>2014-06-09T15:26:43Z</time>
      </trkpt>
      <trkpt lat="44.88692" lon="5.27155">
        <ele>1284.817505</ele>
        <time>2014-06-09T15:26:48Z</time>
      </trkpt>
      <trkpt lat="44.88693" lon="5.27147">
        <ele>1284.16626</ele>
        <time>2014-06-09T15:26:53Z</time>
      </trkpt>
      <trkpt lat="44.88694" lon="5.2714">
        <ele>1283.54126</ele>
        <time>2014-06-09T15:26:58Z</time>
      </trkpt>
      <trkpt lat="44.88696" lon="5.27133">
        <ele>1282.832275</ele>
        <time>2014-06-09T15:27:03Z</time>
      </trkpt>
      <trkpt lat="44.88699" lon="5.27126">
        <ele>1282.276611</ele>
        <time>2014-06-09T15:27:08Z</time>
      </trkpt>
      <trkpt lat="44.88701" lon="5.27119">
        <ele>1281.702637</ele>
        <time>2014-06-09T15:27:13Z</time>
      </trkpt>
      <trkpt lat="44.88702" lon="5.27111">
        <ele>1281.212402</ele>
        <time>2014-06-09T15:27:18Z</time>
      </trkpt>
      <trkpt lat="44.88704" lon="5.27103">
        <ele>1280.697388</ele>
        <time>2014-06-09T15:27:23Z</time>
      </trkpt>
      <trkpt lat="44.88706" lon="5.27095">
        <ele>1280.192627</ele>
        <time>2014-06-09T15:27:28Z</time>
      </trkpt>
      <trkpt lat="44.88707" lon="5.27087">
        <ele>1279.739624</ele>
        <time>2014-06-09T15:27:33Z</time>
      </trkpt>
      <trkpt lat="44.88709" lon="5.2708">
        <ele>1279.297974</ele>
        <time>2014-06-09T15:27:38Z</time>
      </trkpt>
      <trkpt lat="44.88711" lon="5.27072">
        <ele>1278.888672</ele>
        <time>2014-06-09T15:27:43Z</time>
      </trkpt>
      <trkpt lat="44.88713" lon="5.27064">
        <ele>1278.552979</ele>
        <time>2014-06-09T15:27:48Z</time>
      </trkpt>
      <trkpt lat="44.88714" lon="5.27056">
        <ele>1278.296387</ele>
        <time>2014-06-09T15:27:53Z</time>
      </trkpt>
      <trkpt lat="44.88716" lon="5.27049">
        <ele>1277.997437</ele>
        <time>2014-06-09T15:27:58Z</time>
      </trkpt>
      <trkpt lat="44.88718" lon="5.27041">
        <ele>1277.719482</ele>
        <time>2014-06-09T15:28:03Z</time>
      </trkpt>
      <trkpt lat="44.8872" lon="5.27034">
        <ele>1277.447632</ele>
        <time>2014-06-09T15:28:08Z</time>
      </trkpt>
      <trkpt lat="44.88722" lon="5.27026">
        <ele>1277.193726</ele>
        <time>2014-06-09T15:28:13Z</time>
      </trkpt>
      <trkpt lat="44.88723" lon="5.27019">
        <ele>1276.947144</ele>
        <time>2014-06-09T15:28:18Z</time>
      </trkpt>
      <trkpt lat="44.88725" lon="5.27012">
        <ele>1276.719604</ele>
        <time>2014-06-09T15:28:23Z</time>
      </trkpt>
      <trkpt lat="44.88725" lon="5.27004">
        <ele>1276.775024</ele>
        <time>2014-06-09T15:28:28Z</time>
      </trkpt>
      <trkpt lat="44.88725" lon="5.26997">
        <ele>1276.880005</ele>
        <time>2014-06-09T15:28:33Z</time>
      </trkpt>
      <trkpt lat="44.88726" lon="5.2699">
        <ele>1276.976196</ele>
        <time>2014-06-09T15:28:38Z</time>
      </trkpt>
      <trkpt lat="44.88727" lon="5.26982">
        <ele>1277.078735</ele>
        <time>2014-06-09T15:28:43Z</time>
      </trkpt>
      <trkpt lat="44.8873" lon="5.26969">
        <ele>1277.22876</ele>
        <time>2014-06-09T15:29:18Z</time>
      </trkpt>
      <trkpt lat="44.88728" lon="5.26965">
        <ele>1277.337524</ele>
        <time>2014-06-09T15:29:23Z</time>
      </trkpt>
      <trkpt lat="44.88727" lon="5.26958">
        <ele>1277.474976</ele>
        <time>2014-06-09T15:29:28Z</time>
      </trkpt>
      <trkpt lat="44.88725" lon="5.26951">
        <ele>1277.63623</ele>
        <time>2014-06-09T15:29:33Z</time>
      </trkpt>
      <trkpt lat="44.88722" lon="5.26945">
        <ele>1277.807007</ele>
        <time>2014-06-09T15:29:38Z</time>
      </trkpt>
      <trkpt lat="44.88718" lon="5.26939">
        <ele>1278.005493</ele>
        <time>2014-06-09T15:29:43Z</time>
      </trkpt>
      <trkpt lat="44.88715" lon="5.26933">
        <ele>1278.165039</ele>
        <time>2014-06-09T15:29:48Z</time>
      </trkpt>
      <trkpt lat="44.88712" lon="5.26926">
        <ele>1278.301758</ele>
        <time>2014-06-09T15:29:53Z</time>
      </trkpt>
      <trkpt lat="44.88709" lon="5.2692">
        <ele>1278.403809</ele>
        <time>2014-06-09T15:29:58Z</time>
      </trkpt>
      <trkpt lat="44.88707" lon="5.26913">
        <ele>1278.503784</ele>
        <time>2014-06-09T15:30:03Z</time>
      </trkpt>
      <trkpt lat="44.88706" lon="5.26906">
        <ele>1278.625</ele>
        <time>2014-06-09T15:30:08Z</time>
      </trkpt>
      <trkpt lat="44.88706" lon="5.26898">
        <ele>1278.743774</ele>
        <time>2014-06-09T15:30:13Z</time>
      </trkpt>
      <trkpt lat="44.88706" lon="5.26891">
        <ele>1278.856201</ele>
        <time>2014-06-09T15:30:18Z</time>
      </trkpt>
      <trkpt lat="44.88705" lon="5.26883">
        <ele>1278.976196</ele>
        <time>2014-06-09T15:30:23Z</time>
      </trkpt>
      <trkpt lat="44.88703" lon="5.26876">
        <ele>1279.091309</ele>
        <time>2014-06-09T15:30:28Z</time>
      </trkpt>
      <trkpt lat="44.88701" lon="5.26869">
        <ele>1279.19751</ele>
        <time>2014-06-09T15:30:33Z</time>
      </trkpt>
      <trkpt lat="44.88698" lon="5.26862">
        <ele>1279.307495</ele>
        <time>2014-06-09T15:30:38Z</time>
      </trkpt>
      <trkpt lat="44.88697" lon="5.26855">
        <ele>1279.422485</ele>
        <time>2014-06-09T15:30:43Z</time>
      </trkpt>
      <trkpt lat="44.88697" lon="5.26847">
        <ele>1279.54126</ele>
        <time>2014-06-09T15:30:48Z</time>
      </trkpt>
      <trkpt lat="44.88698" lon="5.2684">
        <ele>1279.662476</ele>
        <time>2014-06-09T15:30:53Z</time>
      </trkpt>
      <trkpt lat="44.88699" lon="5.26832">
        <ele>1279.790039</ele>
        <time>2014-06-09T15:30:58Z</time>
      </trkpt>
      <trkpt lat="44.88698" lon="5.26824">
        <ele>1279.908691</ele>
        <time>2014-06-09T15:31:03Z</time>
      </trkpt>
      <trkpt lat="44.88696" lon="5.26818">
        <ele>1280.020874</ele>
        <time>2014-06-09T15:31:08Z</time>
      </trkpt>
      <trkpt lat="44.88697" lon="5.26809">
        <ele>1280.48584</ele>
        <time>2014-06-09T15:31:13Z</time>
      </trkpt>
      <trkpt lat="44.88696" lon="5.26802">
        <ele>1280.819092</ele>
        <time>2014-06-09T15:31:18Z</time>
      </trkpt>
      <trkpt lat="44.88694" lon="5.26798">
        <ele>1281.002319</ele>
        <time>2014-06-09T15:31:23Z</time>
      </trkpt>
      <trkpt lat="44.88692" lon="5.26794">
        <ele>1281.090576</ele>
        <time>2014-06-09T15:31:28Z</time>
      </trkpt>
      <trkpt lat="44.88688" lon="5.2679">
        <ele>1281.13916</ele>
        <time>2014-06-09T15:31:33Z</time>
      </trkpt>
      <trkpt lat="44.88686" lon="5.26784">
        <ele>1281.276855</ele>
        <time>2014-06-09T15:31:38Z</time>
      </trkpt>
      <trkpt lat="44.88684" lon="5.26779">
        <ele>1281.293213</ele>
        <time>2014-06-09T15:31:43Z</time>
      </trkpt>
      <trkpt lat="44.8868" lon="5.26777">
        <ele>1281.167114</ele>
        <time>2014-06-09T15:31:48Z</time>
      </trkpt>
      <trkpt lat="44.88675" lon="5.26773">
        <ele>1280.937988</ele>
        <time>2014-06-09T15:31:53Z</time>
      </trkpt>
      <trkpt lat="44.88672" lon="5.26766">
        <ele>1280.815552</ele>
        <time>2014-06-09T15:31:58Z</time>
      </trkpt>
      <trkpt lat="44.88669" lon="5.2676">
        <ele>1281.090454</ele>
        <time>2014-06-09T15:32:03Z</time>
      </trkpt>
      <trkpt lat="44.88666" lon="5.26755">
        <ele>1281.354736</ele>
        <time>2014-06-09T15:32:08Z</time>
      </trkpt>
      <trkpt lat="44.88664" lon="5.26751">
        <ele>1281.932495</ele>
        <time>2014-06-09T15:32:13Z</time>
      </trkpt>
      <trkpt lat="44.88661" lon="5.26746">
        <ele>1282.953735</ele>
        <time>2014-06-09T15:32:18Z</time>
      </trkpt>
      <trkpt lat="44.88658" lon="5.26741">
        <ele>1284.053711</ele>
        <time>2014-06-09T15:32:23Z</time>
      </trkpt>
      <trkpt lat="44.88657" lon="5.26732">
        <ele>1285.545044</ele>
        <time>2014-06-09T15:32:28Z</time>
      </trkpt>
      <trkpt lat="44.88656" lon="5.26724">
        <ele>1287.087524</ele>
        <time>2014-06-09T15:32:33Z</time>
      </trkpt>
      <trkpt lat="44.88656" lon="5.26717">
        <ele>1288.403687</ele>
        <time>2014-06-09T15:32:38Z</time>
      </trkpt>
      <trkpt lat="44.88655" lon="5.2671">
        <ele>1289.577515</ele>
        <time>2014-06-09T15:32:43Z</time>
      </trkpt>
      <trkpt lat="44.88654" lon="5.26704">
        <ele>1290.671265</ele>
        <time>2014-06-09T15:32:48Z</time>
      </trkpt>
      <trkpt lat="44.88653" lon="5.26702">
        <ele>1291.045044</ele>
        <time>2014-06-09T15:32:53Z</time>
      </trkpt>
      <trkpt lat="44.88653" lon="5.26702">
        <ele>1291.07251</ele>
        <time>2014-06-09T15:32:58Z</time>
      </trkpt>
      <trkpt lat="44.88653" lon="5.26701">
        <ele>1291.356201</ele>
        <time>2014-06-09T15:33:03Z</time>
      </trkpt>
      <trkpt lat="44.88653" lon="5.267">
        <ele>1291.438721</ele>
        <time>2014-06-09T15:33:08Z</time>
      </trkpt>
      <trkpt lat="44.88654" lon="5.267">
        <ele>1291.407471</ele>
        <time>2014-06-09T15:33:13Z</time>
      </trkpt>
      <trkpt lat="44.88653" lon="5.26694">
        <ele>1292.44873</ele>
        <time>2014-06-09T15:33:18Z</time>
      </trkpt>
      <trkpt lat="44.88655" lon="5.2669">
        <ele>1293.203735</ele>
        <time>2014-06-09T15:33:23Z</time>
      </trkpt>
      <trkpt lat="44.88655" lon="5.26689">
        <ele>1293.262085</ele>
        <time>2014-06-09T15:33:28Z</time>
      </trkpt>
      <trkpt lat="44.88655" lon="5.26689">
        <ele>1293.303833</ele>
        <time>2014-06-09T15:33:33Z</time>
      </trkpt>
      <trkpt lat="44.88655" lon="5.26689">
        <ele>1293.337891</ele>
        <time>2014-06-09T15:33:38Z</time>
      </trkpt>
      <trkpt lat="44.88654" lon="5.26689">
        <ele>1293.360596</ele>
        <time>2014-06-09T15:33:43Z</time>
      </trkpt>
      <trkpt lat="44.88656" lon="5.26684">
        <ele>1293.752563</ele>
        <time>2014-06-09T15:33:48Z</time>
      </trkpt>
      <trkpt lat="44.88656" lon="5.26684">
        <ele>1293.812012</ele>
        <time>2014-06-09T15:33:53Z</time>
      </trkpt>
      <trkpt lat="44.88654" lon="5.26681">
        <ele>1294.180908</ele>
        <time>2014-06-09T15:33:58Z</time>
      </trkpt>
      <trkpt lat="44.88652" lon="5.26677">
        <ele>1294.78833</ele>
        <time>2014-06-09T15:34:03Z</time>
      </trkpt>
      <trkpt lat="44.88648" lon="5.26676">
        <ele>1295.182983</ele>
        <time>2014-06-09T15:34:08Z</time>
      </trkpt>
      <trkpt lat="44.88645" lon="5.26678">
        <ele>1295.20459</ele>
        <time>2014-06-09T15:34:13Z</time>
      </trkpt>
      <trkpt lat="44.88645" lon="5.26678">
        <ele>1295.121216</ele>
        <time>2014-06-09T15:34:18Z</time>
      </trkpt>
      <trkpt lat="44.88642" lon="5.26677">
        <ele>1295.501831</ele>
        <time>2014-06-09T15:34:23Z</time>
      </trkpt>
      <trkpt lat="44.8864" lon="5.26672">
        <ele>1296.253418</ele>
        <time>2014-06-09T15:34:28Z</time>
      </trkpt>
      <trkpt lat="44.8864" lon="5.26669">
        <ele>1296.611572</ele>
        <time>2014-06-09T15:34:33Z</time>
      </trkpt>
      <trkpt lat="44.88639" lon="5.26669">
        <ele>1296.646606</ele>
        <time>2014-06-09T15:34:38Z</time>
      </trkpt>
      <trkpt lat="44.88642" lon="5.26665">
        <ele>1296.912842</ele>
        <time>2014-06-09T15:34:43Z</time>
      </trkpt>
      <trkpt lat="44.8864" lon="5.2666">
        <ele>1297.636108</ele>
        <time>2014-06-09T15:34:48Z</time>
      </trkpt>
      <trkpt lat="44.88639" lon="5.26658">
        <ele>1298.044922</ele>
        <time>2014-06-09T15:34:53Z</time>
      </trkpt>
      <trkpt lat="44.88634" lon="5.26647">
        <ele>1299.831543</ele>
        <time>2014-06-09T15:36:33Z</time>
      </trkpt>
      <trkpt lat="44.88631" lon="5.26644">
        <ele>1300.497803</ele>
        <time>2014-06-09T15:36:38Z</time>
      </trkpt>
      <trkpt lat="44.88628" lon="5.26637">
        <ele>1301.609985</ele>
        <time>2014-06-09T15:36:43Z</time>
      </trkpt>
      <trkpt lat="44.88629" lon="5.2663">
        <ele>1302.439941</ele>
        <time>2014-06-09T15:36:48Z</time>
      </trkpt>
      <trkpt lat="44.88629" lon="5.26623">
        <ele>1303.200317</ele>
        <time>2014-06-09T15:36:53Z</time>
      </trkpt>
      <trkpt lat="44.88629" lon="5.26619">
        <ele>1303.38208</ele>
        <time>2014-06-09T15:37:33Z</time>
      </trkpt>
      <trkpt lat="44.88628" lon="5.26609">
        <ele>1303.936646</ele>
        <time>2014-06-09T15:37:38Z</time>
      </trkpt>
      <trkpt lat="44.88629" lon="5.26604">
        <ele>1304.164795</ele>
        <time>2014-06-09T15:37:43Z</time>
      </trkpt>
      <trkpt lat="44.8863" lon="5.26602">
        <ele>1304.185791</ele>
        <time>2014-06-09T15:38:33Z</time>
      </trkpt>
      <trkpt lat="44.88629" lon="5.26599">
        <ele>1304.442505</ele>
        <time>2014-06-09T15:38:38Z</time>
      </trkpt>
      <trkpt lat="44.88629" lon="5.26596">
        <ele>1304.578247</ele>
        <time>2014-06-09T15:38:43Z</time>
      </trkpt>
      <trkpt lat="44.88628" lon="5.26595">
        <ele>1304.776001</ele>
        <time>2014-06-09T15:38:48Z</time>
      </trkpt>
      <trkpt lat="44.88623" lon="5.26594">
        <ele>1305.312134</ele>
        <time>2014-06-09T15:42:33Z</time>
      </trkpt>
      <trkpt lat="44.88623" lon="5.26594">
        <ele>1305.312134</ele>
        <time>2014-06-09T15:42:38Z</time>
      </trkpt>
      <trkpt lat="44.88623" lon="5.26595">
        <ele>1305.270264</ele>
        <time>2014-06-09T15:42:43Z</time>
      </trkpt>
      <trkpt lat="44.88624" lon="5.26594">
        <ele>1305.283325</ele>
        <time>2014-06-09T15:42:48Z</time>
      </trkpt>
      <trkpt lat="44.88622" lon="5.26594">
        <ele>1305.481567</ele>
        <time>2014-06-09T15:42:53Z</time>
      </trkpt>
      <trkpt lat="44.88618" lon="5.26595">
        <ele>1305.835938</ele>
        <time>2014-06-09T15:42:58Z</time>
      </trkpt>
      <trkpt lat="44.88616" lon="5.26597">
        <ele>1305.910522</ele>
        <time>2014-06-09T15:43:03Z</time>
      </trkpt>
      <trkpt lat="44.88615" lon="5.26597">
        <ele>1306.020996</ele>
        <time>2014-06-09T15:43:08Z</time>
      </trkpt>
      <trkpt lat="44.88612" lon="5.26593">
        <ele>1306.529053</ele>
        <time>2014-06-09T15:43:13Z</time>
      </trkpt>
      <trkpt lat="44.88607" lon="5.26585">
        <ele>1307.644165</ele>
        <time>2014-06-09T15:43:18Z</time>
      </trkpt>
      <trkpt lat="44.88607" lon="5.26579">
        <ele>1307.975464</ele>
        <time>2014-06-09T15:43:23Z</time>
      </trkpt>
      <trkpt lat="44.88607" lon="5.26575">
        <ele>1308.289917</ele>
        <time>2014-06-09T15:43:28Z</time>
      </trkpt>
      <trkpt lat="44.88607" lon="5.2657">
        <ele>1308.666748</ele>
        <time>2014-06-09T15:43:33Z</time>
      </trkpt>
      <trkpt lat="44.88608" lon="5.26564">
        <ele>1308.916138</ele>
        <time>2014-06-09T15:43:38Z</time>
      </trkpt>
      <trkpt lat="44.88608" lon="5.2656">
        <ele>1309.195679</ele>
        <time>2014-06-09T15:43:43Z</time>
      </trkpt>
      <trkpt lat="44.88606" lon="5.26557">
        <ele>1309.533936</ele>
        <time>2014-06-09T15:43:48Z</time>
      </trkpt>
      <trkpt lat="44.88604" lon="5.26548">
        <ele>1309.796875</ele>
        <time>2014-06-09T15:43:53Z</time>
      </trkpt>
      <trkpt lat="44.88604" lon="5.26542">
        <ele>1309.905396</ele>
        <time>2014-06-09T15:43:58Z</time>
      </trkpt>
      <trkpt lat="44.88601" lon="5.26538">
        <ele>1310.404907</ele>
        <time>2014-06-09T15:44:03Z</time>
      </trkpt>
      <trkpt lat="44.88596" lon="5.26536">
        <ele>1311.087891</ele>
        <time>2014-06-09T15:44:08Z</time>
      </trkpt>
      <trkpt lat="44.88591" lon="5.26536">
        <ele>1311.803345</ele>
        <time>2014-06-09T15:44:13Z</time>
      </trkpt>
      <trkpt lat="44.88587" lon="5.26533">
        <ele>1312.571289</ele>
        <time>2014-06-09T15:44:18Z</time>
      </trkpt>
      <trkpt lat="44.88582" lon="5.26531">
        <ele>1313.317139</ele>
        <time>2014-06-09T15:44:23Z</time>
      </trkpt>
      <trkpt lat="44.88577" lon="5.26529">
        <ele>1314.037964</ele>
        <time>2014-06-09T15:44:28Z</time>
      </trkpt>
      <trkpt lat="44.88576" lon="5.26524">
        <ele>1314.465088</ele>
        <time>2014-06-09T15:44:33Z</time>
      </trkpt>
      <trkpt lat="44.88575" lon="5.26521">
        <ele>1314.578613</ele>
        <time>2014-06-09T15:44:38Z</time>
      </trkpt>
      <trkpt lat="44.88576" lon="5.26517">
        <ele>1314.641235</ele>
        <time>2014-06-09T15:44:43Z</time>
      </trkpt>
      <trkpt lat="44.88575" lon="5.26517">
        <ele>1314.707642</ele>
        <time>2014-06-09T15:44:48Z</time>
      </trkpt>
      <trkpt lat="44.88575" lon="5.26517">
        <ele>1314.699829</ele>
        <time>2014-06-09T15:44:53Z</time>
      </trkpt>
      <trkpt lat="44.88574" lon="5.26511">
        <ele>1315.079102</ele>
        <time>2014-06-09T15:44:58Z</time>
      </trkpt>
      <trkpt lat="44.88574" lon="5.26507">
        <ele>1315.305542</ele>
        <time>2014-06-09T15:45:03Z</time>
      </trkpt>
      <trkpt lat="44.88573" lon="5.265">
        <ele>1315.664063</ele>
        <time>2014-06-09T15:45:08Z</time>
      </trkpt>
      <trkpt lat="44.88572" lon="5.26493">
        <ele>1315.997437</ele>
        <time>2014-06-09T15:45:13Z</time>
      </trkpt>
      <trkpt lat="44.8857" lon="5.26487">
        <ele>1316.071289</ele>
        <time>2014-06-09T15:45:18Z</time>
      </trkpt>
      <trkpt lat="44.8857" lon="5.2648">
        <ele>1315.986694</ele>
        <time>2014-06-09T15:45:23Z</time>
      </trkpt>
      <trkpt lat="44.88569" lon="5.26474">
        <ele>1316.156738</ele>
        <time>2014-06-09T15:45:28Z</time>
      </trkpt>
      <trkpt lat="44.8857" lon="5.26469">
        <ele>1315.704346</ele>
        <time>2014-06-09T15:45:33Z</time>
      </trkpt>
      <trkpt lat="44.88571" lon="5.26464">
        <ele>1315.51416</ele>
        <time>2014-06-09T15:45:38Z</time>
      </trkpt>
      <trkpt lat="44.88572" lon="5.26463">
        <ele>1315.360718</ele>
        <time>2014-06-09T15:45:43Z</time>
      </trkpt>
      <trkpt lat="44.88574" lon="5.26459">
        <ele>1314.910645</ele>
        <time>2014-06-09T15:45:48Z</time>
      </trkpt>
      <trkpt lat="44.88575" lon="5.26451">
        <ele>1314.377686</ele>
        <time>2014-06-09T15:45:53Z</time>
      </trkpt>
      <trkpt lat="44.88577" lon="5.26443">
        <ele>1313.969116</ele>
        <time>2014-06-09T15:45:58Z</time>
      </trkpt>
      <trkpt lat="44.88576" lon="5.26435">
        <ele>1313.876587</ele>
        <time>2014-06-09T15:46:03Z</time>
      </trkpt>
      <trkpt lat="44.88575" lon="5.26427">
        <ele>1313.617554</ele>
        <time>2014-06-09T15:46:08Z</time>
      </trkpt>
      <trkpt lat="44.88573" lon="5.26419">
        <ele>1313.38501</ele>
        <time>2014-06-09T15:46:13Z</time>
      </trkpt>
      <trkpt lat="44.8857" lon="5.26413">
        <ele>1313.257568</ele>
        <time>2014-06-09T15:46:18Z</time>
      </trkpt>
      <trkpt lat="44.88567" lon="5.26407">
        <ele>1313.452515</ele>
        <time>2014-06-09T15:46:23Z</time>
      </trkpt>
      <trkpt lat="44.88566" lon="5.26401">
        <ele>1313.160034</ele>
        <time>2014-06-09T15:46:28Z</time>
      </trkpt>
      <trkpt lat="44.88565" lon="5.26397">
        <ele>1313.002441</ele>
        <time>2014-06-09T15:46:33Z</time>
      </trkpt>
      <trkpt lat="44.88562" lon="5.26391">
        <ele>1312.987427</ele>
        <time>2014-06-09T15:46:38Z</time>
      </trkpt>
      <trkpt lat="44.88558" lon="5.26384">
        <ele>1313.204956</ele>
        <time>2014-06-09T15:46:43Z</time>
      </trkpt>
      <trkpt lat="44.88555" lon="5.26376">
        <ele>1313.11499</ele>
        <time>2014-06-09T15:46:48Z</time>
      </trkpt>
      <trkpt lat="44.88553" lon="5.2637">
        <ele>1313.084961</ele>
        <time>2014-06-09T15:46:53Z</time>
      </trkpt>
      <trkpt lat="44.88551" lon="5.26364">
        <ele>1312.807495</ele>
        <time>2014-06-09T15:46:58Z</time>
      </trkpt>
      <trkpt lat="44.88548" lon="5.26357">
        <ele>1312.30127</ele>
        <time>2014-06-09T15:47:03Z</time>
      </trkpt>
      <trkpt lat="44.88545" lon="5.2635">
        <ele>1312.114258</ele>
        <time>2014-06-09T15:47:08Z</time>
      </trkpt>
      <trkpt lat="44.88542" lon="5.26345">
        <ele>1311.9375</ele>
        <time>2014-06-09T15:47:13Z</time>
      </trkpt>
      <trkpt lat="44.8854" lon="5.26343">
        <ele>1312.197998</ele>
        <time>2014-06-09T15:47:18Z</time>
      </trkpt>
      <trkpt lat="44.88537" lon="5.26338">
        <ele>1312.08313</ele>
        <time>2014-06-09T15:47:23Z</time>
      </trkpt>
      <trkpt lat="44.88534" lon="5.2633">
        <ele>1311.734497</ele>
        <time>2014-06-09T15:47:28Z</time>
      </trkpt>
      <trkpt lat="44.8853" lon="5.26322">
        <ele>1311.563721</ele>
        <time>2014-06-09T15:47:33Z</time>
      </trkpt>
      <trkpt lat="44.88527" lon="5.26317">
        <ele>1311.53833</ele>
        <time>2014-06-09T15:47:38Z</time>
      </trkpt>
      <trkpt lat="44.88526" lon="5.26308">
        <ele>1310.683594</ele>
        <time>2014-06-09T15:47:43Z</time>
      </trkpt>
      <trkpt lat="44.88525" lon="5.263">
        <ele>1309.875</ele>
        <time>2014-06-09T15:47:48Z</time>
      </trkpt>
      <trkpt lat="44.88524" lon="5.26294">
        <ele>1309.162476</ele>
        <time>2014-06-09T15:47:53Z</time>
      </trkpt>
      <trkpt lat="44.88522" lon="5.26287">
        <ele>1308.474976</ele>
        <time>2014-06-09T15:47:58Z</time>
      </trkpt>
      <trkpt lat="44.88521" lon="5.26282">
        <ele>1308.125</ele>
        <time>2014-06-09T15:48:03Z</time>
      </trkpt>
      <trkpt lat="44.88519" lon="5.26274">
        <ele>1307.349976</ele>
        <time>2014-06-09T15:48:08Z</time>
      </trkpt>
      <trkpt lat="44.88519" lon="5.26268">
        <ele>1306.425049</ele>
        <time>2014-06-09T15:48:13Z</time>
      </trkpt>
      <trkpt lat="44.88515" lon="5.26259">
        <ele>1305.912476</ele>
        <time>2014-06-09T15:48:18Z</time>
      </trkpt>
      <trkpt lat="44.88512" lon="5.26249">
        <ele>1305.125</ele>
        <time>2014-06-09T15:48:23Z</time>
      </trkpt>
      <trkpt lat="44.88511" lon="5.2624">
        <ele>1303.987549</ele>
        <time>2014-06-09T15:48:28Z</time>
      </trkpt>
      <trkpt lat="44.8851" lon="5.26232">
        <ele>1303.027832</ele>
        <time>2014-06-09T15:48:33Z</time>
      </trkpt>
      <trkpt lat="44.88508" lon="5.26225">
        <ele>1302.314575</ele>
        <time>2014-06-09T15:48:38Z</time>
      </trkpt>
      <trkpt lat="44.88506" lon="5.26218">
        <ele>1301.914917</ele>
        <time>2014-06-09T15:48:43Z</time>
      </trkpt>
      <trkpt lat="44.88504" lon="5.26215">
        <ele>1301.868286</ele>
        <time>2014-06-09T15:48:48Z</time>
      </trkpt>
      <trkpt lat="44.88502" lon="5.26212">
        <ele>1301.853027</ele>
        <time>2014-06-09T15:48:53Z</time>
      </trkpt>
      <trkpt lat="44.88498" lon="5.26205">
        <ele>1301.719849</ele>
        <time>2014-06-09T15:48:58Z</time>
      </trkpt>
      <trkpt lat="44.88495" lon="5.26197">
        <ele>1301.351929</ele>
        <time>2014-06-09T15:49:03Z</time>
      </trkpt>
      <trkpt lat="44.8849" lon="5.26189">
        <ele>1301.155884</ele>
        <time>2014-06-09T15:49:08Z</time>
      </trkpt>
      <trkpt lat="44.88489" lon="5.26181">
        <ele>1300.432007</ele>
        <time>2014-06-09T15:49:13Z</time>
      </trkpt>
      <trkpt lat="44.88488" lon="5.26176">
        <ele>1299.910889</ele>
        <time>2014-06-09T15:49:18Z</time>
      </trkpt>
      <trkpt lat="44.88486" lon="5.26169">
        <ele>1299.498779</ele>
        <time>2014-06-09T15:49:23Z</time>
      </trkpt>
      <trkpt lat="44.88484" lon="5.2616">
        <ele>1298.70752</ele>
        <time>2014-06-09T15:49:28Z</time>
      </trkpt>
      <trkpt lat="44.88482" lon="5.26154">
        <ele>1298.545044</ele>
        <time>2014-06-09T15:49:33Z</time>
      </trkpt>
      <trkpt lat="44.88477" lon="5.26146">
        <ele>1298.575073</ele>
        <time>2014-06-09T15:49:38Z</time>
      </trkpt>
      <trkpt lat="44.88473" lon="5.26138">
        <ele>1298.491211</ele>
        <time>2014-06-09T15:49:43Z</time>
      </trkpt>
      <trkpt lat="44.8847" lon="5.26129">
        <ele>1297.993774</ele>
        <time>2014-06-09T15:49:48Z</time>
      </trkpt>
      <trkpt lat="44.88467" lon="5.26122">
        <ele>1297.923706</ele>
        <time>2014-06-09T15:49:53Z</time>
      </trkpt>
      <trkpt lat="44.88466" lon="5.26113">
        <ele>1296.967529</ele>
        <time>2014-06-09T15:49:58Z</time>
      </trkpt>
      <trkpt lat="44.88462" lon="5.26106">
        <ele>1296.752808</ele>
        <time>2014-06-09T15:50:03Z</time>
      </trkpt>
      <trkpt lat="44.88458" lon="5.26099">
        <ele>1296.535767</ele>
        <time>2014-06-09T15:50:08Z</time>
      </trkpt>
      <trkpt lat="44.88453" lon="5.26093">
        <ele>1296.321899</ele>
        <time>2014-06-09T15:50:13Z</time>
      </trkpt>
      <trkpt lat="44.88451" lon="5.2609">
        <ele>1296.224121</ele>
        <time>2014-06-09T15:50:18Z</time>
      </trkpt>
      <trkpt lat="44.88449" lon="5.26085">
        <ele>1295.950562</ele>
        <time>2014-06-09T15:50:23Z</time>
      </trkpt>
      <trkpt lat="44.88446" lon="5.26083">
        <ele>1296.204712</ele>
        <time>2014-06-09T15:50:28Z</time>
      </trkpt>
      <trkpt lat="44.8844" lon="5.26078">
        <ele>1296.285034</ele>
        <time>2014-06-09T15:50:33Z</time>
      </trkpt>
      <trkpt lat="44.88435" lon="5.26075">
        <ele>1296.754883</ele>
        <time>2014-06-09T15:50:38Z</time>
      </trkpt>
      <trkpt lat="44.88435" lon="5.2607">
        <ele>1295.89209</ele>
        <time>2014-06-09T15:50:43Z</time>
      </trkpt>
      <trkpt lat="44.8843" lon="5.26062">
        <ele>1295.32312</ele>
        <time>2014-06-09T15:50:48Z</time>
      </trkpt>
      <trkpt lat="44.88427" lon="5.26055">
        <ele>1294.840576</ele>
        <time>2014-06-09T15:50:53Z</time>
      </trkpt>
      <trkpt lat="44.88425" lon="5.26049">
        <ele>1294.097778</ele>
        <time>2014-06-09T15:50:58Z</time>
      </trkpt>
      <trkpt lat="44.88423" lon="5.26043">
        <ele>1293.40625</ele>
        <time>2014-06-09T15:51:03Z</time>
      </trkpt>
      <trkpt lat="44.8842" lon="5.26038">
        <ele>1292.74231</ele>
        <time>2014-06-09T15:51:08Z</time>
      </trkpt>
      <trkpt lat="44.88416" lon="5.26033">
        <ele>1292.304565</ele>
        <time>2014-06-09T15:51:13Z</time>
      </trkpt>
      <trkpt lat="44.88413" lon="5.26027">
        <ele>1291.528564</ele>
        <time>2014-06-09T15:51:18Z</time>
      </trkpt>
      <trkpt lat="44.88406" lon="5.2602">
        <ele>1291.361328</ele>
        <time>2014-06-09T15:51:23Z</time>
      </trkpt>
      <trkpt lat="44.88399" lon="5.26015">
        <ele>1291.485596</ele>
        <time>2014-06-09T15:51:28Z</time>
      </trkpt>
      <trkpt lat="44.88393" lon="5.26009">
        <ele>1291.346924</ele>
        <time>2014-06-09T15:51:33Z</time>
      </trkpt>
      <trkpt lat="44.88388" lon="5.26001">
        <ele>1290.706299</ele>
        <time>2014-06-09T15:51:38Z</time>
      </trkpt>
      <trkpt lat="44.88384" lon="5.25997">
        <ele>1290.539185</ele>
        <time>2014-06-09T15:51:43Z</time>
      </trkpt>
      <trkpt lat="44.88378" lon="5.25994">
        <ele>1290.9198</ele>
        <time>2014-06-09T15:51:48Z</time>
      </trkpt>
      <trkpt lat="44.88374" lon="5.25988">
        <ele>1290.417603</ele>
        <time>2014-06-09T15:51:53Z</time>
      </trkpt>
      <trkpt lat="44.8837" lon="5.25983">
        <ele>1290.355347</ele>
        <time>2014-06-09T15:51:58Z</time>
      </trkpt>
      <trkpt lat="44.88363" lon="5.2598">
        <ele>1291.047241</ele>
        <time>2014-06-09T15:52:03Z</time>
      </trkpt>
      <trkpt lat="44.88356" lon="5.25979">
        <ele>1291.994873</ele>
        <time>2014-06-09T15:52:08Z</time>
      </trkpt>
      <trkpt lat="44.8835" lon="5.25975">
        <ele>1292.46936</ele>
        <time>2014-06-09T15:52:13Z</time>
      </trkpt>
      <trkpt lat="44.88346" lon="5.25968">
        <ele>1292.164917</ele>
        <time>2014-06-09T15:52:18Z</time>
      </trkpt>
      <trkpt lat="44.88342" lon="5.25962">
        <ele>1291.977173</ele>
        <time>2014-06-09T15:52:23Z</time>
      </trkpt>
      <trkpt lat="44.8834" lon="5.25956">
        <ele>1291.456665</ele>
        <time>2014-06-09T15:52:28Z</time>
      </trkpt>
      <trkpt lat="44.88336" lon="5.25952">
        <ele>1291.501465</ele>
        <time>2014-06-09T15:52:33Z</time>
      </trkpt>
      <trkpt lat="44.8833" lon="5.25946">
        <ele>1291.849976</ele>
        <time>2014-06-09T15:52:38Z</time>
      </trkpt>
      <trkpt lat="44.88325" lon="5.25941">
        <ele>1291.969971</ele>
        <time>2014-06-09T15:52:43Z</time>
      </trkpt>
      <trkpt lat="44.88321" lon="5.25934">
        <ele>1291.675049</ele>
        <time>2014-06-09T15:52:48Z</time>
      </trkpt>
      <trkpt lat="44.88316" lon="5.25929">
        <ele>1291.744995</ele>
        <time>2014-06-09T15:52:53Z</time>
      </trkpt>
      <trkpt lat="44.88313" lon="5.25922">
        <ele>1291.324951</ele>
        <time>2014-06-09T15:52:58Z</time>
      </trkpt>
      <trkpt lat="44.88309" lon="5.25915">
        <ele>1290.930054</ele>
        <time>2014-06-09T15:53:03Z</time>
      </trkpt>
      <trkpt lat="44.88308" lon="5.25909">
        <ele>1290.125854</ele>
        <time>2014-06-09T15:53:08Z</time>
      </trkpt>
      <trkpt lat="44.88305" lon="5.25903">
        <ele>1289.986816</ele>
        <time>2014-06-09T15:53:13Z</time>
      </trkpt>
      <trkpt lat="44.88303" lon="5.25897">
        <ele>1289.503906</ele>
        <time>2014-06-09T15:53:18Z</time>
      </trkpt>
      <trkpt lat="44.883" lon="5.25893">
        <ele>1289.265015</ele>
        <time>2014-06-09T15:53:23Z</time>
      </trkpt>
      <trkpt lat="44.88294" lon="5.25889">
        <ele>1289.739502</ele>
        <time>2014-06-09T15:53:28Z</time>
      </trkpt>
      <trkpt lat="44.88288" lon="5.25882">
        <ele>1289.682129</ele>
        <time>2014-06-09T15:53:33Z</time>
      </trkpt>
      <trkpt lat="44.88283" lon="5.25875">
        <ele>1288.880249</ele>
        <time>2014-06-09T15:53:38Z</time>
      </trkpt>
      <trkpt lat="44.8828" lon="5.25868">
        <ele>1287.825684</ele>
        <time>2014-06-09T15:53:43Z</time>
      </trkpt>
      <trkpt lat="44.88279" lon="5.25859">
        <ele>1286.44104</ele>
        <time>2014-06-09T15:53:48Z</time>
      </trkpt>
      <trkpt lat="44.88278" lon="5.25853">
        <ele>1285.416382</ele>
        <time>2014-06-09T15:53:53Z</time>
      </trkpt>
      <trkpt lat="44.88278" lon="5.2585">
        <ele>1284.880737</ele>
        <time>2014-06-09T15:53:58Z</time>
      </trkpt>
      <trkpt lat="44.88279" lon="5.25847">
        <ele>1284.367798</ele>
        <time>2014-06-09T15:54:03Z</time>
      </trkpt>
      <trkpt lat="44.88279" lon="5.25846">
        <ele>1284.032227</ele>
        <time>2014-06-09T15:54:08Z</time>
      </trkpt>
      <trkpt lat="44.8828" lon="5.25842">
        <ele>1283.352661</ele>
        <time>2014-06-09T15:54:13Z</time>
      </trkpt>
      <trkpt lat="44.88282" lon="5.25839">
        <ele>1282.774902</ele>
        <time>2014-06-09T15:54:18Z</time>
      </trkpt>
      <trkpt lat="44.88281" lon="5.25834">
        <ele>1281.781738</ele>
        <time>2014-06-09T15:54:23Z</time>
      </trkpt>
      <trkpt lat="44.88278" lon="5.2583">
        <ele>1281.134644</ele>
        <time>2014-06-09T15:54:28Z</time>
      </trkpt>
      <trkpt lat="44.88278" lon="5.25825">
        <ele>1280.216187</ele>
        <time>2014-06-09T15:54:33Z</time>
      </trkpt>
      <trkpt lat="44.88277" lon="5.25818">
        <ele>1279.089478</ele>
        <time>2014-06-09T15:54:38Z</time>
      </trkpt>
      <trkpt lat="44.88274" lon="5.25813">
        <ele>1278.164185</ele>
        <time>2014-06-09T15:54:43Z</time>
      </trkpt>
      <trkpt lat="44.88273" lon="5.25812">
        <ele>1278.122437</ele>
        <time>2014-06-09T15:54:48Z</time>
      </trkpt>
      <trkpt lat="44.88272" lon="5.25811">
        <ele>1278.057007</ele>
        <time>2014-06-09T15:54:53Z</time>
      </trkpt>
      <trkpt lat="44.88271" lon="5.25811">
        <ele>1277.936035</ele>
        <time>2014-06-09T15:54:58Z</time>
      </trkpt>
      <trkpt lat="44.88271" lon="5.2581">
        <ele>1277.84021</ele>
        <time>2014-06-09T15:55:03Z</time>
      </trkpt>
      <trkpt lat="44.88272" lon="5.25809">
        <ele>1277.549805</ele>
        <time>2014-06-09T15:55:08Z</time>
      </trkpt>
      <trkpt lat="44.88273" lon="5.25808">
        <ele>1277.341675</ele>
        <time>2014-06-09T15:55:13Z</time>
      </trkpt>
      <trkpt lat="44.88273" lon="5.25809">
        <ele>1277.537842</ele>
        <time>2014-06-09T15:55:18Z</time>
      </trkpt>
      <trkpt lat="44.88271" lon="5.2581">
        <ele>1277.769409</ele>
        <time>2014-06-09T15:55:23Z</time>
      </trkpt>
      <trkpt lat="44.88268" lon="5.25808">
        <ele>1277.603271</ele>
        <time>2014-06-09T15:55:28Z</time>
      </trkpt>
      <trkpt lat="44.88264" lon="5.25804">
        <ele>1277.015503</ele>
        <time>2014-06-09T15:55:33Z</time>
      </trkpt>
      <trkpt lat="44.88258" lon="5.25801">
        <ele>1276.865234</ele>
        <time>2014-06-09T15:55:38Z</time>
      </trkpt>
      <trkpt lat="44.88253" lon="5.25799">
        <ele>1276.763306</ele>
        <time>2014-06-09T15:55:43Z</time>
      </trkpt>
      <trkpt lat="44.88247" lon="5.25798">
        <ele>1276.870117</ele>
        <time>2014-06-09T15:55:48Z</time>
      </trkpt>
      <trkpt lat="44.88242" lon="5.25798">
        <ele>1277.153687</ele>
        <time>2014-06-09T15:55:53Z</time>
      </trkpt>
      <trkpt lat="44.88239" lon="5.25796">
        <ele>1277.067505</ele>
        <time>2014-06-09T15:55:58Z</time>
      </trkpt>
      <trkpt lat="44.88236" lon="5.25793">
        <ele>1276.785034</ele>
        <time>2014-06-09T15:56:03Z</time>
      </trkpt>
      <trkpt lat="44.88234" lon="5.25787">
        <ele>1275.866211</ele>
        <time>2014-06-09T15:56:08Z</time>
      </trkpt>
      <trkpt lat="44.88234" lon="5.25781">
        <ele>1274.817505</ele>
        <time>2014-06-09T15:56:13Z</time>
      </trkpt>
      <trkpt lat="44.88228" lon="5.25776">
        <ele>1274.85498</ele>
        <time>2014-06-09T15:56:18Z</time>
      </trkpt>
      <trkpt lat="44.88228" lon="5.25772">
        <ele>1274.472534</ele>
        <time>2014-06-09T15:56:23Z</time>
      </trkpt>
      <trkpt lat="44.88221" lon="5.25768">
        <ele>1274.592529</ele>
        <time>2014-06-09T15:56:28Z</time>
      </trkpt>
      <trkpt lat="44.88213" lon="5.25765">
        <ele>1274.862549</ele>
        <time>2014-06-09T15:56:33Z</time>
      </trkpt>
      <trkpt lat="44.88208" lon="5.2576">
        <ele>1274.772461</ele>
        <time>2014-06-09T15:56:38Z</time>
      </trkpt>
      <trkpt lat="44.88207" lon="5.25754">
        <ele>1274.255005</ele>
        <time>2014-06-09T15:56:43Z</time>
      </trkpt>
      <trkpt lat="44.88205" lon="5.25748">
        <ele>1273.842529</ele>
        <time>2014-06-09T15:56:48Z</time>
      </trkpt>
      <trkpt lat="44.88199" lon="5.25747">
        <ele>1274.114014</ele>
        <time>2014-06-09T15:56:53Z</time>
      </trkpt>
      <trkpt lat="44.88191" lon="5.25745">
        <ele>1274.319214</ele>
        <time>2014-06-09T15:56:58Z</time>
      </trkpt>
      <trkpt lat="44.88189" lon="5.25741">
        <ele>1274.015137</ele>
        <time>2014-06-09T15:57:03Z</time>
      </trkpt>
      <trkpt lat="44.88181" lon="5.25734">
        <ele>1273.630249</ele>
        <time>2014-06-09T15:57:08Z</time>
      </trkpt>
      <trkpt lat="44.88179" lon="5.25726">
        <ele>1272.80481</ele>
        <time>2014-06-09T15:57:13Z</time>
      </trkpt>
      <trkpt lat="44.88177" lon="5.25716">
        <ele>1271.754395</ele>
        <time>2014-06-09T15:57:18Z</time>
      </trkpt>
      <trkpt lat="44.88175" lon="5.25707">
        <ele>1270.863037</ele>
        <time>2014-06-09T15:57:23Z</time>
      </trkpt>
      <trkpt lat="44.8817" lon="5.25701">
        <ele>1270.289063</ele>
        <time>2014-06-09T15:57:28Z</time>
      </trkpt>
      <trkpt lat="44.88168" lon="5.25694">
        <ele>1269.634155</ele>
        <time>2014-06-09T15:57:33Z</time>
      </trkpt>
      <trkpt lat="44.88166" lon="5.25687">
        <ele>1268.94165</ele>
        <time>2014-06-09T15:57:38Z</time>
      </trkpt>
      <trkpt lat="44.88166" lon="5.25681">
        <ele>1268.25354</ele>
        <time>2014-06-09T15:57:43Z</time>
      </trkpt>
      <trkpt lat="44.88172" lon="5.25673">
        <ele>1267.359863</ele>
        <time>2014-06-09T15:57:48Z</time>
      </trkpt>
      <trkpt lat="44.88175" lon="5.25668">
        <ele>1266.703369</ele>
        <time>2014-06-09T15:57:53Z</time>
      </trkpt>
      <trkpt lat="44.88177" lon="5.25662">
        <ele>1266.085693</ele>
        <time>2014-06-09T15:57:58Z</time>
      </trkpt>
      <trkpt lat="44.88181" lon="5.25657">
        <ele>1265.531372</ele>
        <time>2014-06-09T15:58:03Z</time>
      </trkpt>
      <trkpt lat="44.88186" lon="5.25654">
        <ele>1265.201538</ele>
        <time>2014-06-09T15:58:08Z</time>
      </trkpt>
      <trkpt lat="44.88191" lon="5.25651">
        <ele>1264.906006</ele>
        <time>2014-06-09T15:58:13Z</time>
      </trkpt>
      <trkpt lat="44.88197" lon="5.25649">
        <ele>1264.714722</ele>
        <time>2014-06-09T15:58:18Z</time>
      </trkpt>
      <trkpt lat="44.88202" lon="5.25646">
        <ele>1264.435059</ele>
        <time>2014-06-09T15:58:23Z</time>
      </trkpt>
      <trkpt lat="44.88204" lon="5.25644">
        <ele>1264.156982</ele>
        <time>2014-06-09T15:58:28Z</time>
      </trkpt>
      <trkpt lat="44.88208" lon="5.25639">
        <ele>1263.552002</ele>
        <time>2014-06-09T15:58:33Z</time>
      </trkpt>
      <trkpt lat="44.88212" lon="5.25633">
        <ele>1262.791992</ele>
        <time>2014-06-09T15:58:38Z</time>
      </trkpt>
      <trkpt lat="44.88215" lon="5.25627">
        <ele>1262.002441</ele>
        <time>2014-06-09T15:58:43Z</time>
      </trkpt>
      <trkpt lat="44.88218" lon="5.25623">
        <ele>1261.285889</ele>
        <time>2014-06-09T15:58:48Z</time>
      </trkpt>
      <trkpt lat="44.88221" lon="5.25618">
        <ele>1260.592773</ele>
        <time>2014-06-09T15:58:53Z</time>
      </trkpt>
      <trkpt lat="44.88224" lon="5.2561">
        <ele>1259.558716</ele>
        <time>2014-06-09T15:58:58Z</time>
      </trkpt>
      <trkpt lat="44.88226" lon="5.25603">
        <ele>1258.635254</ele>
        <time>2014-06-09T15:59:03Z</time>
      </trkpt>
      <trkpt lat="44.88229" lon="5.25598">
        <ele>1257.829712</ele>
        <time>2014-06-09T15:59:08Z</time>
      </trkpt>
      <trkpt lat="44.88229" lon="5.25591">
        <ele>1257.079956</ele>
        <time>2014-06-09T15:59:13Z</time>
      </trkpt>
      <trkpt lat="44.88228" lon="5.25584">
        <ele>1256.189331</ele>
        <time>2014-06-09T15:59:18Z</time>
      </trkpt>
      <trkpt lat="44.88226" lon="5.25578">
        <ele>1255.507813</ele>
        <time>2014-06-09T15:59:23Z</time>
      </trkpt>
      <trkpt lat="44.88226" lon="5.25571">
        <ele>1254.671509</ele>
        <time>2014-06-09T15:59:28Z</time>
      </trkpt>
      <trkpt lat="44.88224" lon="5.25565">
        <ele>1254.050171</ele>
        <time>2014-06-09T15:59:33Z</time>
      </trkpt>
      <trkpt lat="44.88223" lon="5.25558">
        <ele>1253.263184</ele>
        <time>2014-06-09T15:59:38Z</time>
      </trkpt>
      <trkpt lat="44.88221" lon="5.25549">
        <ele>1252.246704</ele>
        <time>2014-06-09T15:59:43Z</time>
      </trkpt>
      <trkpt lat="44.88221" lon="5.2554">
        <ele>1251.148804</ele>
        <time>2014-06-09T15:59:48Z</time>
      </trkpt>
      <trkpt lat="44.8822" lon="5.25533">
        <ele>1250.382935</ele>
        <time>2014-06-09T15:59:53Z</time>
      </trkpt>
      <trkpt lat="44.88218" lon="5.25524">
        <ele>1249.317871</ele>
        <time>2014-06-09T15:59:58Z</time>
      </trkpt>
      <trkpt lat="44.88216" lon="5.25516">
        <ele>1247.901855</ele>
        <time>2014-06-09T16:00:03Z</time>
      </trkpt>
      <trkpt lat="44.88216" lon="5.25506">
        <ele>1246.217529</ele>
        <time>2014-06-09T16:00:08Z</time>
      </trkpt>
      <trkpt lat="44.88214" lon="5.25498">
        <ele>1244.922241</ele>
        <time>2014-06-09T16:00:13Z</time>
      </trkpt>
      <trkpt lat="44.88214" lon="5.2549">
        <ele>1243.349976</ele>
        <time>2014-06-09T16:00:18Z</time>
      </trkpt>
      <trkpt lat="44.88214" lon="5.25481">
        <ele>1241.590698</ele>
        <time>2014-06-09T16:00:23Z</time>
      </trkpt>
      <trkpt lat="44.88212" lon="5.25474">
        <ele>1240.855347</ele>
        <time>2014-06-09T16:00:28Z</time>
      </trkpt>
      <trkpt lat="44.88209" lon="5.25467">
        <ele>1240.052734</ele>
        <time>2014-06-09T16:00:33Z</time>
      </trkpt>
      <trkpt lat="44.88207" lon="5.2546">
        <ele>1239.107544</ele>
        <time>2014-06-09T16:00:38Z</time>
      </trkpt>
      <trkpt lat="44.88202" lon="5.25455">
        <ele>1239.157471</ele>
        <time>2014-06-09T16:00:43Z</time>
      </trkpt>
      <trkpt lat="44.88197" lon="5.25449">
        <ele>1239.192505</ele>
        <time>2014-06-09T16:00:48Z</time>
      </trkpt>
      <trkpt lat="44.88193" lon="5.25443">
        <ele>1238.915039</ele>
        <time>2014-06-09T16:00:53Z</time>
      </trkpt>
      <trkpt lat="44.88191" lon="5.25437">
        <ele>1237.982544</ele>
        <time>2014-06-09T16:00:58Z</time>
      </trkpt>
      <trkpt lat="44.88185" lon="5.25431">
        <ele>1238.102539</ele>
        <time>2014-06-09T16:01:03Z</time>
      </trkpt>
      <trkpt lat="44.88184" lon="5.25422">
        <ele>1236.525024</ele>
        <time>2014-06-09T16:01:08Z</time>
      </trkpt>
      <trkpt lat="44.8818" lon="5.25414">
        <ele>1235.675049</ele>
        <time>2014-06-09T16:01:13Z</time>
      </trkpt>
      <trkpt lat="44.88175" lon="5.25407">
        <ele>1235.359985</ele>
        <time>2014-06-09T16:01:18Z</time>
      </trkpt>
      <trkpt lat="44.88167" lon="5.25403">
        <ele>1236.365234</ele>
        <time>2014-06-09T16:01:23Z</time>
      </trkpt>
      <trkpt lat="44.88163" lon="5.254">
        <ele>1236.601563</ele>
        <time>2014-06-09T16:01:28Z</time>
      </trkpt>
      <trkpt lat="44.88155" lon="5.25394">
        <ele>1237.127563</ele>
        <time>2014-06-09T16:01:33Z</time>
      </trkpt>
      <trkpt lat="44.8815" lon="5.25389">
        <ele>1237.399902</ele>
        <time>2014-06-09T16:01:38Z</time>
      </trkpt>
      <trkpt lat="44.88149" lon="5.25385">
        <ele>1236.526367</ele>
        <time>2014-06-09T16:01:43Z</time>
      </trkpt>
      <trkpt lat="44.88144" lon="5.25379">
        <ele>1236.775879</ele>
        <time>2014-06-09T16:01:48Z</time>
      </trkpt>
      <trkpt lat="44.88139" lon="5.25374">
        <ele>1236.749512</ele>
        <time>2014-06-09T16:01:53Z</time>
      </trkpt>
      <trkpt lat="44.88133" lon="5.25369">
        <ele>1236.977905</ele>
        <time>2014-06-09T16:01:58Z</time>
      </trkpt>
      <trkpt lat="44.88132" lon="5.25364">
        <ele>1236.156128</ele>
        <time>2014-06-09T16:02:03Z</time>
      </trkpt>
      <trkpt lat="44.8813" lon="5.25358">
        <ele>1235.249268</ele>
        <time>2014-06-09T16:02:08Z</time>
      </trkpt>
      <trkpt lat="44.88126" lon="5.25352">
        <ele>1234.857056</ele>
        <time>2014-06-09T16:02:13Z</time>
      </trkpt>
      <trkpt lat="44.88124" lon="5.25344">
        <ele>1233.614014</ele>
        <time>2014-06-09T16:02:18Z</time>
      </trkpt>
      <trkpt lat="44.88123" lon="5.25335">
        <ele>1231.71106</ele>
        <time>2014-06-09T16:02:23Z</time>
      </trkpt>
      <trkpt lat="44.88119" lon="5.25327">
        <ele>1230.665405</ele>
        <time>2014-06-09T16:02:28Z</time>
      </trkpt>
      <trkpt lat="44.88115" lon="5.25319">
        <ele>1229.528931</ele>
        <time>2014-06-09T16:02:33Z</time>
      </trkpt>
      <trkpt lat="44.8811" lon="5.25312">
        <ele>1228.845215</ele>
        <time>2014-06-09T16:02:38Z</time>
      </trkpt>
      <trkpt lat="44.88108" lon="5.25302">
        <ele>1227.188843</ele>
        <time>2014-06-09T16:02:43Z</time>
      </trkpt>
      <trkpt lat="44.88107" lon="5.25296">
        <ele>1226.142578</ele>
        <time>2014-06-09T16:02:48Z</time>
      </trkpt>
      <trkpt lat="44.88104" lon="5.25289">
        <ele>1225.244995</ele>
        <time>2014-06-09T16:02:53Z</time>
      </trkpt>
      <trkpt lat="44.88101" lon="5.25283">
        <ele>1224.598022</ele>
        <time>2014-06-09T16:02:58Z</time>
      </trkpt>
      <trkpt lat="44.88099" lon="5.25281">
        <ele>1224.387451</ele>
        <time>2014-06-09T16:03:03Z</time>
      </trkpt>
      <trkpt lat="44.88098" lon="5.2528">
        <ele>1224.493042</ele>
        <time>2014-06-09T16:03:08Z</time>
      </trkpt>
      <trkpt lat="44.88098" lon="5.2528">
        <ele>1224.436035</ele>
        <time>2014-06-09T16:03:13Z</time>
      </trkpt>
      <trkpt lat="44.88097" lon="5.25277">
        <ele>1223.887329</ele>
        <time>2014-06-09T16:03:18Z</time>
      </trkpt>
      <trkpt lat="44.88095" lon="5.25267">
        <ele>1222.560059</ele>
        <time>2014-06-09T16:03:23Z</time>
      </trkpt>
      <trkpt lat="44.88091" lon="5.25263">
        <ele>1222.63501</ele>
        <time>2014-06-09T16:03:28Z</time>
      </trkpt>
      <trkpt lat="44.88089" lon="5.2526">
        <ele>1222.477539</ele>
        <time>2014-06-09T16:03:33Z</time>
      </trkpt>
      <trkpt lat="44.88089" lon="5.2526">
        <ele>1222.57251</ele>
        <time>2014-06-09T16:03:38Z</time>
      </trkpt>
      <trkpt lat="44.88086" lon="5.25253">
        <ele>1221.997559</ele>
        <time>2014-06-09T16:03:43Z</time>
      </trkpt>
      <trkpt lat="44.88081" lon="5.25242">
        <ele>1221.17749</ele>
        <time>2014-06-09T16:03:48Z</time>
      </trkpt>
      <trkpt lat="44.88078" lon="5.2523">
        <ele>1219.902466</ele>
        <time>2014-06-09T16:03:53Z</time>
      </trkpt>
      <trkpt lat="44.88076" lon="5.2522">
        <ele>1218.785034</ele>
        <time>2014-06-09T16:03:58Z</time>
      </trkpt>
      <trkpt lat="44.88075" lon="5.2521">
        <ele>1217.459961</ele>
        <time>2014-06-09T16:04:03Z</time>
      </trkpt>
      <trkpt lat="44.88072" lon="5.25203">
        <ele>1216.9375</ele>
        <time>2014-06-09T16:04:08Z</time>
      </trkpt>
      <trkpt lat="44.8807" lon="5.25195">
        <ele>1216.28418</ele>
        <time>2014-06-09T16:04:13Z</time>
      </trkpt>
      <trkpt lat="44.88071" lon="5.25191">
        <ele>1215.609863</ele>
        <time>2014-06-09T16:04:18Z</time>
      </trkpt>
      <trkpt lat="44.88068" lon="5.2519">
        <ele>1215.927002</ele>
        <time>2014-06-09T16:04:23Z</time>
      </trkpt>
      <trkpt lat="44.88067" lon="5.25188">
        <ele>1215.974609</ele>
        <time>2014-06-09T16:04:28Z</time>
      </trkpt>
      <trkpt lat="44.88064" lon="5.25183">
        <ele>1215.704346</ele>
        <time>2014-06-09T16:04:33Z</time>
      </trkpt>
      <trkpt lat="44.8806" lon="5.25179">
        <ele>1215.751831</ele>
        <time>2014-06-09T16:04:38Z</time>
      </trkpt>
      <trkpt lat="44.88058" lon="5.2517">
        <ele>1214.914673</ele>
        <time>2014-06-09T16:04:43Z</time>
      </trkpt>
      <trkpt lat="44.88058" lon="5.25161">
        <ele>1213.640137</ele>
        <time>2014-06-09T16:04:48Z</time>
      </trkpt>
      <trkpt lat="44.88056" lon="5.25153">
        <ele>1212.868042</ele>
        <time>2014-06-09T16:04:53Z</time>
      </trkpt>
      <trkpt lat="44.88054" lon="5.25144">
        <ele>1211.790894</ele>
        <time>2014-06-09T16:04:58Z</time>
      </trkpt>
      <trkpt lat="44.88054" lon="5.25137">
        <ele>1210.746094</ele>
        <time>2014-06-09T16:05:03Z</time>
      </trkpt>
      <trkpt lat="44.88055" lon="5.25128">
        <ele>1209.745239</ele>
        <time>2014-06-09T16:05:08Z</time>
      </trkpt>
      <trkpt lat="44.88055" lon="5.25122">
        <ele>1208.938232</ele>
        <time>2014-06-09T16:05:13Z</time>
      </trkpt>
      <trkpt lat="44.88055" lon="5.25116">
        <ele>1208.203613</ele>
        <time>2014-06-09T16:05:18Z</time>
      </trkpt>
      <trkpt lat="44.88056" lon="5.25108">
        <ele>1207.197266</ele>
        <time>2014-06-09T16:05:23Z</time>
      </trkpt>
      <trkpt lat="44.88057" lon="5.25098">
        <ele>1205.900513</ele>
        <time>2014-06-09T16:05:28Z</time>
      </trkpt>
      <trkpt lat="44.88058" lon="5.25089">
        <ele>1204.83667</ele>
        <time>2014-06-09T16:05:33Z</time>
      </trkpt>
      <trkpt lat="44.88058" lon="5.25082">
        <ele>1203.981201</ele>
        <time>2014-06-09T16:05:38Z</time>
      </trkpt>
      <trkpt lat="44.88057" lon="5.25073">
        <ele>1203.021362</ele>
        <time>2014-06-09T16:05:43Z</time>
      </trkpt>
      <trkpt lat="44.88058" lon="5.25063">
        <ele>1202.133423</ele>
        <time>2014-06-09T16:05:48Z</time>
      </trkpt>
      <trkpt lat="44.88059" lon="5.25053">
        <ele>1201.246094</ele>
        <time>2014-06-09T16:05:53Z</time>
      </trkpt>
      <trkpt lat="44.8806" lon="5.25043">
        <ele>1200.35144</ele>
        <time>2014-06-09T16:05:58Z</time>
      </trkpt>
      <trkpt lat="44.88061" lon="5.25035">
        <ele>1199.536377</ele>
        <time>2014-06-09T16:06:03Z</time>
      </trkpt>
      <trkpt lat="44.88062" lon="5.25026">
        <ele>1198.756226</ele>
        <time>2014-06-09T16:06:08Z</time>
      </trkpt>
      <trkpt lat="44.88065" lon="5.25018">
        <ele>1197.987915</ele>
        <time>2014-06-09T16:06:13Z</time>
      </trkpt>
      <trkpt lat="44.88067" lon="5.2501">
        <ele>1197.407593</ele>
        <time>2014-06-09T16:06:18Z</time>
      </trkpt>
      <trkpt lat="44.88068" lon="5.25003">
        <ele>1197.188477</ele>
        <time>2014-06-09T16:06:23Z</time>
      </trkpt>
      <trkpt lat="44.88072" lon="5.24997">
        <ele>1196.932373</ele>
        <time>2014-06-09T16:06:28Z</time>
      </trkpt>
      <trkpt lat="44.88078" lon="5.24995">
        <ele>1196.689453</ele>
        <time>2014-06-09T16:06:33Z</time>
      </trkpt>
      <trkpt lat="44.88084" lon="5.24997">
        <ele>1196.588745</ele>
        <time>2014-06-09T16:06:38Z</time>
      </trkpt>
      <trkpt lat="44.88089" lon="5.25003">
        <ele>1196.596924</ele>
        <time>2014-06-09T16:06:43Z</time>
      </trkpt>
      <trkpt lat="44.88094" lon="5.25008">
        <ele>1196.560059</ele>
        <time>2014-06-09T16:06:48Z</time>
      </trkpt>
      <trkpt lat="44.88098" lon="5.25013">
        <ele>1196.493042</ele>
        <time>2014-06-09T16:06:53Z</time>
      </trkpt>
      <trkpt lat="44.88104" lon="5.25016">
        <ele>1196.381836</ele>
        <time>2014-06-09T16:06:58Z</time>
      </trkpt>
      <trkpt lat="44.88109" lon="5.25018">
        <ele>1196.251953</ele>
        <time>2014-06-09T16:07:03Z</time>
      </trkpt>
      <trkpt lat="44.88115" lon="5.2502">
        <ele>1196.089722</ele>
        <time>2014-06-09T16:07:08Z</time>
      </trkpt>
      <trkpt lat="44.8812" lon="5.25023">
        <ele>1195.937134</ele>
        <time>2014-06-09T16:07:13Z</time>
      </trkpt>
      <trkpt lat="44.88125" lon="5.25026">
        <ele>1195.853638</ele>
        <time>2014-06-09T16:07:18Z</time>
      </trkpt>
      <trkpt lat="44.8813" lon="5.2503">
        <ele>1195.773682</ele>
        <time>2014-06-09T16:07:23Z</time>
      </trkpt>
      <trkpt lat="44.88136" lon="5.25034">
        <ele>1195.633667</ele>
        <time>2014-06-09T16:07:28Z</time>
      </trkpt>
      <trkpt lat="44.8814" lon="5.25038">
        <ele>1195.507813</ele>
        <time>2014-06-09T16:07:33Z</time>
      </trkpt>
      <trkpt lat="44.88145" lon="5.25042">
        <ele>1195.378052</ele>
        <time>2014-06-09T16:07:38Z</time>
      </trkpt>
      <trkpt lat="44.8815" lon="5.25046">
        <ele>1195.186401</ele>
        <time>2014-06-09T16:07:43Z</time>
      </trkpt>
      <trkpt lat="44.88155" lon="5.2505">
        <ele>1194.969604</ele>
        <time>2014-06-09T16:07:48Z</time>
      </trkpt>
      <trkpt lat="44.8816" lon="5.25053">
        <ele>1194.71521</ele>
        <time>2014-06-09T16:07:53Z</time>
      </trkpt>
      <trkpt lat="44.88165" lon="5.25058">
        <ele>1194.473755</ele>
        <time>2014-06-09T16:07:58Z</time>
      </trkpt>
      <trkpt lat="44.8817" lon="5.25061">
        <ele>1194.138794</ele>
        <time>2014-06-09T16:08:03Z</time>
      </trkpt>
      <trkpt lat="44.88176" lon="5.25065">
        <ele>1193.789307</ele>
        <time>2014-06-09T16:08:08Z</time>
      </trkpt>
      <trkpt lat="44.88181" lon="5.25069">
        <ele>1193.52832</ele>
        <time>2014-06-09T16:08:13Z</time>
      </trkpt>
      <trkpt lat="44.88186" lon="5.25073">
        <ele>1193.227173</ele>
        <time>2014-06-09T16:08:18Z</time>
      </trkpt>
      <trkpt lat="44.88191" lon="5.25077">
        <ele>1192.950562</ele>
        <time>2014-06-09T16:08:23Z</time>
      </trkpt>
      <trkpt lat="44.88196" lon="5.2508">
        <ele>1192.651611</ele>
        <time>2014-06-09T16:08:28Z</time>
      </trkpt>
      <trkpt lat="44.88201" lon="5.25085">
        <ele>1192.339111</ele>
        <time>2014-06-09T16:08:33Z</time>
      </trkpt>
      <trkpt lat="44.88206" lon="5.25088">
        <ele>1192.06665</ele>
        <time>2014-06-09T16:08:38Z</time>
      </trkpt>
      <trkpt lat="44.88212" lon="5.25092">
        <ele>1191.765381</ele>
        <time>2014-06-09T16:08:43Z</time>
      </trkpt>
      <trkpt lat="44.88217" lon="5.25096">
        <ele>1191.44519</ele>
        <time>2014-06-09T16:08:48Z</time>
      </trkpt>
      <trkpt lat="44.88221" lon="5.251">
        <ele>1191.175659</ele>
        <time>2014-06-09T16:08:53Z</time>
      </trkpt>
      <trkpt lat="44.88227" lon="5.25104">
        <ele>1190.839355</ele>
        <time>2014-06-09T16:08:58Z</time>
      </trkpt>
      <trkpt lat="44.88231" lon="5.25108">
        <ele>1190.535889</ele>
        <time>2014-06-09T16:09:03Z</time>
      </trkpt>
      <trkpt lat="44.88237" lon="5.25113">
        <ele>1190.168823</ele>
        <time>2014-06-09T16:09:08Z</time>
      </trkpt>
      <trkpt lat="44.88241" lon="5.25117">
        <ele>1189.85022</ele>
        <time>2014-06-09T16:09:13Z</time>
      </trkpt>
      <trkpt lat="44.88247" lon="5.25122">
        <ele>1189.457275</ele>
        <time>2014-06-09T16:09:18Z</time>
      </trkpt>
      <trkpt lat="44.88251" lon="5.25126">
        <ele>1189.091675</ele>
        <time>2014-06-09T16:09:23Z</time>
      </trkpt>
      <trkpt lat="44.88257" lon="5.2513">
        <ele>1188.666016</ele>
        <time>2014-06-09T16:09:28Z</time>
      </trkpt>
      <trkpt lat="44.88261" lon="5.25135">
        <ele>1188.292236</ele>
        <time>2014-06-09T16:09:33Z</time>
      </trkpt>
      <trkpt lat="44.88266" lon="5.25139">
        <ele>1187.86499</ele>
        <time>2014-06-09T16:09:38Z</time>
      </trkpt>
      <trkpt lat="44.88271" lon="5.25143">
        <ele>1187.550049</ele>
        <time>2014-06-09T16:09:43Z</time>
      </trkpt>
      <trkpt lat="44.88277" lon="5.25148">
        <ele>1187.160034</ele>
        <time>2014-06-09T16:09:48Z</time>
      </trkpt>
      <trkpt lat="44.88282" lon="5.25152">
        <ele>1186.88623</ele>
        <time>2014-06-09T16:09:53Z</time>
      </trkpt>
      <trkpt lat="44.88287" lon="5.25157">
        <ele>1186.678467</ele>
        <time>2014-06-09T16:09:58Z</time>
      </trkpt>
      <trkpt lat="44.88292" lon="5.25161">
        <ele>1186.376099</ele>
        <time>2014-06-09T16:10:03Z</time>
      </trkpt>
      <trkpt lat="44.88297" lon="5.25166">
        <ele>1186.094238</ele>
        <time>2014-06-09T16:10:08Z</time>
      </trkpt>
      <trkpt lat="44.88303" lon="5.2517">
        <ele>1185.752197</ele>
        <time>2014-06-09T16:10:13Z</time>
      </trkpt>
      <trkpt lat="44.88308" lon="5.25174">
        <ele>1185.429199</ele>
        <time>2014-06-09T16:10:18Z</time>
      </trkpt>
      <trkpt lat="44.88313" lon="5.25179">
        <ele>1185.088867</ele>
        <time>2014-06-09T16:10:23Z</time>
      </trkpt>
      <trkpt lat="44.88318" lon="5.25183">
        <ele>1184.718628</ele>
        <time>2014-06-09T16:10:28Z</time>
      </trkpt>
      <trkpt lat="44.88323" lon="5.25187">
        <ele>1184.403564</ele>
        <time>2014-06-09T16:10:33Z</time>
      </trkpt>
      <trkpt lat="44.88328" lon="5.25191">
        <ele>1184.102173</ele>
        <time>2014-06-09T16:10:38Z</time>
      </trkpt>
      <trkpt lat="44.88334" lon="5.25194">
        <ele>1183.675903</ele>
        <time>2014-06-09T16:10:43Z</time>
      </trkpt>
      <trkpt lat="44.88338" lon="5.25199">
        <ele>1183.501831</ele>
        <time>2014-06-09T16:10:48Z</time>
      </trkpt>
      <trkpt lat="44.88343" lon="5.25203">
        <ele>1183.245605</ele>
        <time>2014-06-09T16:10:53Z</time>
      </trkpt>
      <trkpt lat="44.88348" lon="5.25207">
        <ele>1182.965942</ele>
        <time>2014-06-09T16:10:58Z</time>
      </trkpt>
      <trkpt lat="44.88355" lon="5.2521">
        <ele>1182.615723</ele>
        <time>2014-06-09T16:11:03Z</time>
      </trkpt>
      <trkpt lat="44.88361" lon="5.25213">
        <ele>1182.278442</ele>
        <time>2014-06-09T16:11:08Z</time>
      </trkpt>
      <trkpt lat="44.88368" lon="5.25215">
        <ele>1181.874023</ele>
        <time>2014-06-09T16:11:13Z</time>
      </trkpt>
      <trkpt lat="44.88374" lon="5.25217">
        <ele>1181.490356</ele>
        <time>2014-06-09T16:11:18Z</time>
      </trkpt>
      <trkpt lat="44.8838" lon="5.25219">
        <ele>1181.161377</ele>
        <time>2014-06-09T16:11:23Z</time>
      </trkpt>
      <trkpt lat="44.88386" lon="5.25218">
        <ele>1180.739868</ele>
        <time>2014-06-09T16:11:28Z</time>
      </trkpt>
      <trkpt lat="44.88391" lon="5.25216">
        <ele>1180.355591</ele>
        <time>2014-06-09T16:11:33Z</time>
      </trkpt>
      <trkpt lat="44.88397" lon="5.25213">
        <ele>1179.955444</ele>
        <time>2014-06-09T16:11:38Z</time>
      </trkpt>
      <trkpt lat="44.88401" lon="5.2521">
        <ele>1179.757446</ele>
        <time>2014-06-09T16:11:43Z</time>
      </trkpt>
      <trkpt lat="44.88405" lon="5.25206">
        <ele>1179.582397</ele>
        <time>2014-06-09T16:11:48Z</time>
      </trkpt>
      <trkpt lat="44.88408" lon="5.25201">
        <ele>1179.392944</ele>
        <time>2014-06-09T16:11:53Z</time>
      </trkpt>
      <trkpt lat="44.88413" lon="5.25197">
        <ele>1179.14917</ele>
        <time>2014-06-09T16:11:58Z</time>
      </trkpt>
      <trkpt lat="44.88418" lon="5.25191">
        <ele>1178.894165</ele>
        <time>2014-06-09T16:12:03Z</time>
      </trkpt>
      <trkpt lat="44.88423" lon="5.25187">
        <ele>1178.613037</ele>
        <time>2014-06-09T16:12:08Z</time>
      </trkpt>
      <trkpt lat="44.88428" lon="5.25183">
        <ele>1178.345825</ele>
        <time>2014-06-09T16:12:13Z</time>
      </trkpt>
      <trkpt lat="44.88433" lon="5.25181">
        <ele>1178.07312</ele>
        <time>2014-06-09T16:12:18Z</time>
      </trkpt>
      <trkpt lat="44.88439" lon="5.25179">
        <ele>1177.807373</ele>
        <time>2014-06-09T16:12:23Z</time>
      </trkpt>
      <trkpt lat="44.88445" lon="5.25179">
        <ele>1177.535645</ele>
        <time>2014-06-09T16:12:28Z</time>
      </trkpt>
      <trkpt lat="44.8845" lon="5.25181">
        <ele>1177.313965</ele>
        <time>2014-06-09T16:12:33Z</time>
      </trkpt>
      <trkpt lat="44.88456" lon="5.25181">
        <ele>1177.005737</ele>
        <time>2014-06-09T16:12:38Z</time>
      </trkpt>
      <trkpt lat="44.88462" lon="5.25182">
        <ele>1176.724854</ele>
        <time>2014-06-09T16:12:43Z</time>
      </trkpt>
      <trkpt lat="44.88468" lon="5.25183">
        <ele>1176.435181</ele>
        <time>2014-06-09T16:12:48Z</time>
      </trkpt>
      <trkpt lat="44.88473" lon="5.25185">
        <ele>1176.177979</ele>
        <time>2014-06-09T16:12:53Z</time>
      </trkpt>
      <trkpt lat="44.88478" lon="5.25187">
        <ele>1175.982666</ele>
        <time>2014-06-09T16:12:58Z</time>
      </trkpt>
      <trkpt lat="44.88482" lon="5.2519">
        <ele>1175.78833</ele>
        <time>2014-06-09T16:13:03Z</time>
      </trkpt>
      <trkpt lat="44.88487" lon="5.25192">
        <ele>1175.522095</ele>
        <time>2014-06-09T16:13:08Z</time>
      </trkpt>
      <trkpt lat="44.88493" lon="5.25194">
        <ele>1175.241943</ele>
        <time>2014-06-09T16:13:13Z</time>
      </trkpt>
      <trkpt lat="44.88499" lon="5.25195">
        <ele>1174.918091</ele>
        <time>2014-06-09T16:13:18Z</time>
      </trkpt>
      <trkpt lat="44.88505" lon="5.25196">
        <ele>1174.574951</ele>
        <time>2014-06-09T16:13:23Z</time>
      </trkpt>
      <trkpt lat="44.8851" lon="5.25197">
        <ele>1174.303711</ele>
        <time>2014-06-09T16:13:28Z</time>
      </trkpt>
      <trkpt lat="44.88516" lon="5.25198">
        <ele>1173.964478</ele>
        <time>2014-06-09T16:13:33Z</time>
      </trkpt>
      <trkpt lat="44.88522" lon="5.25198">
        <ele>1173.594604</ele>
        <time>2014-06-09T16:13:38Z</time>
      </trkpt>
      <trkpt lat="44.88529" lon="5.25199">
        <ele>1173.243896</ele>
        <time>2014-06-09T16:13:43Z</time>
      </trkpt>
      <trkpt lat="44.88535" lon="5.25201">
        <ele>1172.927124</ele>
        <time>2014-06-09T16:13:48Z</time>
      </trkpt>
      <trkpt lat="44.88541" lon="5.25202">
        <ele>1172.677856</ele>
        <time>2014-06-09T16:13:53Z</time>
      </trkpt>
      <trkpt lat="44.88547" lon="5.25202">
        <ele>1172.431396</ele>
        <time>2014-06-09T16:13:58Z</time>
      </trkpt>
      <trkpt lat="44.88553" lon="5.25203">
        <ele>1172.200073</ele>
        <time>2014-06-09T16:14:03Z</time>
      </trkpt>
      <trkpt lat="44.88559" lon="5.25204">
        <ele>1171.988037</ele>
        <time>2014-06-09T16:14:08Z</time>
      </trkpt>
      <trkpt lat="44.88565" lon="5.25205">
        <ele>1171.760254</ele>
        <time>2014-06-09T16:14:13Z</time>
      </trkpt>
      <trkpt lat="44.8857" lon="5.25206">
        <ele>1171.557373</ele>
        <time>2014-06-09T16:14:18Z</time>
      </trkpt>
      <trkpt lat="44.88577" lon="5.25207">
        <ele>1171.335205</ele>
        <time>2014-06-09T16:14:23Z</time>
      </trkpt>
      <trkpt lat="44.88583" lon="5.25208">
        <ele>1171.018799</ele>
        <time>2014-06-09T16:14:28Z</time>
      </trkpt>
      <trkpt lat="44.88588" lon="5.25209">
        <ele>1170.705811</ele>
        <time>2014-06-09T16:14:33Z</time>
      </trkpt>
      <trkpt lat="44.88594" lon="5.2521">
        <ele>1170.407471</ele>
        <time>2014-06-09T16:14:38Z</time>
      </trkpt>
      <trkpt lat="44.88599" lon="5.25212">
        <ele>1170.092407</ele>
        <time>2014-06-09T16:14:43Z</time>
      </trkpt>
      <trkpt lat="44.88605" lon="5.25213">
        <ele>1169.756958</ele>
        <time>2014-06-09T16:14:48Z</time>
      </trkpt>
      <trkpt lat="44.88611" lon="5.25214">
        <ele>1169.453491</ele>
        <time>2014-06-09T16:14:53Z</time>
      </trkpt>
      <trkpt lat="44.88616" lon="5.25215">
        <ele>1169.116699</ele>
        <time>2014-06-09T16:14:58Z</time>
      </trkpt>
      <trkpt lat="44.88622" lon="5.25216">
        <ele>1168.756226</ele>
        <time>2014-06-09T16:15:03Z</time>
      </trkpt>
      <trkpt lat="44.88628" lon="5.25218">
        <ele>1168.517456</ele>
        <time>2014-06-09T16:15:08Z</time>
      </trkpt>
      <trkpt lat="44.88634" lon="5.25219">
        <ele>1168.278687</ele>
        <time>2014-06-09T16:15:13Z</time>
      </trkpt>
      <trkpt lat="44.88639" lon="5.2522">
        <ele>1168.056274</ele>
        <time>2014-06-09T16:15:18Z</time>
      </trkpt>
      <trkpt lat="44.88645" lon="5.25221">
        <ele>1167.814941</ele>
        <time>2014-06-09T16:15:23Z</time>
      </trkpt>
      <trkpt lat="44.8865" lon="5.25223">
        <ele>1167.622559</ele>
        <time>2014-06-09T16:15:28Z</time>
      </trkpt>
      <trkpt lat="44.88654" lon="5.25225">
        <ele>1167.439941</ele>
        <time>2014-06-09T16:15:33Z</time>
      </trkpt>
      <trkpt lat="44.8866" lon="5.25226">
        <ele>1167.201294</ele>
        <time>2014-06-09T16:15:38Z</time>
      </trkpt>
      <trkpt lat="44.88665" lon="5.25228">
        <ele>1166.974976</ele>
        <time>2014-06-09T16:15:43Z</time>
      </trkpt>
      <trkpt lat="44.88671" lon="5.25229">
        <ele>1166.553955</ele>
        <time>2014-06-09T16:15:48Z</time>
      </trkpt>
      <trkpt lat="44.88677" lon="5.2523">
        <ele>1166.037842</ele>
        <time>2014-06-09T16:15:53Z</time>
      </trkpt>
      <trkpt lat="44.88683" lon="5.25231">
        <ele>1165.500366</ele>
        <time>2014-06-09T16:15:58Z</time>
      </trkpt>
      <trkpt lat="44.8869" lon="5.25232">
        <ele>1164.962036</ele>
        <time>2014-06-09T16:16:03Z</time>
      </trkpt>
      <trkpt lat="44.88694" lon="5.25233">
        <ele>1164.546875</ele>
        <time>2014-06-09T16:16:08Z</time>
      </trkpt>
      <trkpt lat="44.88701" lon="5.25235">
        <ele>1164.005249</ele>
        <time>2014-06-09T16:16:13Z</time>
      </trkpt>
      <trkpt lat="44.88706" lon="5.25236">
        <ele>1163.529785</ele>
        <time>2014-06-09T16:16:18Z</time>
      </trkpt>
      <trkpt lat="44.88711" lon="5.25237">
        <ele>1163.171875</ele>
        <time>2014-06-09T16:16:23Z</time>
      </trkpt>
      <trkpt lat="44.88717" lon="5.25238">
        <ele>1162.754517</ele>
        <time>2014-06-09T16:16:28Z</time>
      </trkpt>
      <trkpt lat="44.88723" lon="5.25239">
        <ele>1162.251221</ele>
        <time>2014-06-09T16:16:33Z</time>
      </trkpt>
      <trkpt lat="44.88729" lon="5.25241">
        <ele>1161.837891</ele>
        <time>2014-06-09T16:16:38Z</time>
      </trkpt>
      <trkpt lat="44.88735" lon="5.25242">
        <ele>1161.408325</ele>
        <time>2014-06-09T16:16:43Z</time>
      </trkpt>
      <trkpt lat="44.88741" lon="5.25243">
        <ele>1160.963989</ele>
        <time>2014-06-09T16:16:48Z</time>
      </trkpt>
      <trkpt lat="44.88747" lon="5.25244">
        <ele>1160.550903</ele>
        <time>2014-06-09T16:16:53Z</time>
      </trkpt>
      <trkpt lat="44.88753" lon="5.25245">
        <ele>1160.131348</ele>
        <time>2014-06-09T16:16:58Z</time>
      </trkpt>
      <trkpt lat="44.88759" lon="5.25246">
        <ele>1159.871826</ele>
        <time>2014-06-09T16:17:03Z</time>
      </trkpt>
      <trkpt lat="44.88765" lon="5.25247">
        <ele>1159.891602</ele>
        <time>2014-06-09T16:17:08Z</time>
      </trkpt>
      <trkpt lat="44.88771" lon="5.25248">
        <ele>1159.899536</ele>
        <time>2014-06-09T16:17:13Z</time>
      </trkpt>
      <trkpt lat="44.88776" lon="5.25249">
        <ele>1159.891724</ele>
        <time>2014-06-09T16:17:18Z</time>
      </trkpt>
      <trkpt lat="44.88783" lon="5.25251">
        <ele>1159.905273</ele>
        <time>2014-06-09T16:17:23Z</time>
      </trkpt>
      <trkpt lat="44.88789" lon="5.25252">
        <ele>1159.843872</ele>
        <time>2014-06-09T16:17:28Z</time>
      </trkpt>
      <trkpt lat="44.88795" lon="5.25254">
        <ele>1159.751343</ele>
        <time>2014-06-09T16:17:33Z</time>
      </trkpt>
      <trkpt lat="44.88801" lon="5.25255">
        <ele>1159.686279</ele>
        <time>2014-06-09T16:17:38Z</time>
      </trkpt>
      <trkpt lat="44.88807" lon="5.25257">
        <ele>1159.484009</ele>
        <time>2014-06-09T16:17:43Z</time>
      </trkpt>
      <trkpt lat="44.88812" lon="5.25259">
        <ele>1159.251587</ele>
        <time>2014-06-09T16:17:48Z</time>
      </trkpt>
      <trkpt lat="44.88818" lon="5.25261">
        <ele>1159.060425</ele>
        <time>2014-06-09T16:17:53Z</time>
      </trkpt>
      <trkpt lat="44.88823" lon="5.25265">
        <ele>1158.896118</ele>
        <time>2014-06-09T16:17:58Z</time>
      </trkpt>
      <trkpt lat="44.88829" lon="5.25268">
        <ele>1158.741943</ele>
        <time>2014-06-09T16:18:03Z</time>
      </trkpt>
      <trkpt lat="44.88834" lon="5.25272">
        <ele>1158.581787</ele>
        <time>2014-06-09T16:18:08Z</time>
      </trkpt>
      <trkpt lat="44.88838" lon="5.25276">
        <ele>1158.498047</ele>
        <time>2014-06-09T16:18:13Z</time>
      </trkpt>
      <trkpt lat="44.88841" lon="5.2528">
        <ele>1158.451416</ele>
        <time>2014-06-09T16:18:18Z</time>
      </trkpt>
      <trkpt lat="44.88846" lon="5.25284">
        <ele>1158.284058</ele>
        <time>2014-06-09T16:18:23Z</time>
      </trkpt>
      <trkpt lat="44.8885" lon="5.25288">
        <ele>1158.314941</ele>
        <time>2014-06-09T16:18:28Z</time>
      </trkpt>
      <trkpt lat="44.88854" lon="5.25292">
        <ele>1158.344971</ele>
        <time>2014-06-09T16:18:33Z</time>
      </trkpt>
      <trkpt lat="44.88858" lon="5.25295">
        <ele>1158.324951</ele>
        <time>2014-06-09T16:18:38Z</time>
      </trkpt>
      <trkpt lat="44.88863" lon="5.25299">
        <ele>1158.349976</ele>
        <time>2014-06-09T16:18:43Z</time>
      </trkpt>
      <trkpt lat="44.88867" lon="5.25302">
        <ele>1158.344971</ele>
        <time>2014-06-09T16:18:48Z</time>
      </trkpt>
      <trkpt lat="44.88872" lon="5.25306">
        <ele>1158.319946</ele>
        <time>2014-06-09T16:18:53Z</time>
      </trkpt>
      <trkpt lat="44.88876" lon="5.2531">
        <ele>1158.475464</ele>
        <time>2014-06-09T16:18:58Z</time>
      </trkpt>
      <trkpt lat="44.88881" lon="5.25315">
        <ele>1158.734985</ele>
        <time>2014-06-09T16:19:03Z</time>
      </trkpt>
      <trkpt lat="44.88886" lon="5.25318">
        <ele>1158.923218</ele>
        <time>2014-06-09T16:19:08Z</time>
      </trkpt>
      <trkpt lat="44.88894" lon="5.25319">
        <ele>1158.637451</ele>
        <time>2014-06-09T16:19:13Z</time>
      </trkpt>
      <trkpt lat="44.88903" lon="5.2532">
        <ele>1158.119995</ele>
        <time>2014-06-09T16:19:18Z</time>
      </trkpt>
      <trkpt lat="44.88908" lon="5.25322">
        <ele>1157.857544</ele>
        <time>2014-06-09T16:19:23Z</time>
      </trkpt>
      <trkpt lat="44.88913" lon="5.25323">
        <ele>1157.655029</ele>
        <time>2014-06-09T16:19:28Z</time>
      </trkpt>
      <trkpt lat="44.88918" lon="5.25324">
        <ele>1157.415039</ele>
        <time>2014-06-09T16:19:33Z</time>
      </trkpt>
      <trkpt lat="44.88921" lon="5.25323">
        <ele>1157.055054</ele>
        <time>2014-06-09T16:19:38Z</time>
      </trkpt>
      <trkpt lat="44.88927" lon="5.25323">
        <ele>1156.702515</ele>
        <time>2014-06-09T16:19:43Z</time>
      </trkpt>
      <trkpt lat="44.88932" lon="5.25324">
        <ele>1156.349976</ele>
        <time>2014-06-09T16:19:48Z</time>
      </trkpt>
      <trkpt lat="44.88937" lon="5.25323">
        <ele>1156.030029</ele>
        <time>2014-06-09T16:19:53Z</time>
      </trkpt>
      <trkpt lat="44.88941" lon="5.25325">
        <ele>1155.964966</ele>
        <time>2014-06-09T16:19:58Z</time>
      </trkpt>
      <trkpt lat="44.88945" lon="5.25324">
        <ele>1155.652466</ele>
        <time>2014-06-09T16:20:03Z</time>
      </trkpt>
      <trkpt lat="44.8895" lon="5.2532">
        <ele>1155.04248</ele>
        <time>2014-06-09T16:20:08Z</time>
      </trkpt>
      <trkpt lat="44.88956" lon="5.25314">
        <ele>1154.19751</ele>
        <time>2014-06-09T16:20:13Z</time>
      </trkpt>
      <trkpt lat="44.88963" lon="5.25308">
        <ele>1153.709106</ele>
        <time>2014-06-09T16:20:18Z</time>
      </trkpt>
      <trkpt lat="44.8897" lon="5.25303">
        <ele>1153.344727</ele>
        <time>2014-06-09T16:20:23Z</time>
      </trkpt>
      <trkpt lat="44.88975" lon="5.25298">
        <ele>1153.005371</ele>
        <time>2014-06-09T16:20:28Z</time>
      </trkpt>
      <trkpt lat="44.88981" lon="5.25295">
        <ele>1152.652466</ele>
        <time>2014-06-09T16:20:33Z</time>
      </trkpt>
      <trkpt lat="44.88986" lon="5.25291">
        <ele>1152.204346</ele>
        <time>2014-06-09T16:20:38Z</time>
      </trkpt>
      <trkpt lat="44.88992" lon="5.25287">
        <ele>1151.694458</ele>
        <time>2014-06-09T16:20:43Z</time>
      </trkpt>
      <trkpt lat="44.88997" lon="5.25282">
        <ele>1151.195557</ele>
        <time>2014-06-09T16:20:48Z</time>
      </trkpt>
      <trkpt lat="44.89003" lon="5.25277">
        <ele>1150.743164</ele>
        <time>2014-06-09T16:20:53Z</time>
      </trkpt>
      <trkpt lat="44.89008" lon="5.25272">
        <ele>1150.292847</ele>
        <time>2014-06-09T16:20:58Z</time>
      </trkpt>
      <trkpt lat="44.89014" lon="5.25267">
        <ele>1149.889282</ele>
        <time>2014-06-09T16:21:03Z</time>
      </trkpt>
      <trkpt lat="44.89019" lon="5.25263">
        <ele>1149.498657</ele>
        <time>2014-06-09T16:21:08Z</time>
      </trkpt>
      <trkpt lat="44.89024" lon="5.2526">
        <ele>1149.132202</ele>
        <time>2014-06-09T16:21:13Z</time>
      </trkpt>
      <trkpt lat="44.89031" lon="5.25257">
        <ele>1148.458008</ele>
        <time>2014-06-09T16:21:18Z</time>
      </trkpt>
      <trkpt lat="44.89036" lon="5.25256">
        <ele>1147.702026</ele>
        <time>2014-06-09T16:21:23Z</time>
      </trkpt>
      <trkpt lat="44.89042" lon="5.25256">
        <ele>1146.892212</ele>
        <time>2014-06-09T16:21:28Z</time>
      </trkpt>
      <trkpt lat="44.89048" lon="5.25255">
        <ele>1146.088379</ele>
        <time>2014-06-09T16:21:33Z</time>
      </trkpt>
      <trkpt lat="44.89055" lon="5.25254">
        <ele>1145.254028</ele>
        <time>2014-06-09T16:21:38Z</time>
      </trkpt>
      <trkpt lat="44.89061" lon="5.25253">
        <ele>1144.560669</ele>
        <time>2014-06-09T16:21:43Z</time>
      </trkpt>
      <trkpt lat="44.89067" lon="5.25252">
        <ele>1143.892944</ele>
        <time>2014-06-09T16:21:48Z</time>
      </trkpt>
      <trkpt lat="44.89072" lon="5.25251">
        <ele>1143.313599</ele>
        <time>2014-06-09T16:21:53Z</time>
      </trkpt>
      <trkpt lat="44.89078" lon="5.25251">
        <ele>1142.991699</ele>
        <time>2014-06-09T16:21:58Z</time>
      </trkpt>
      <trkpt lat="44.89085" lon="5.25249">
        <ele>1142.684326</ele>
        <time>2014-06-09T16:22:03Z</time>
      </trkpt>
      <trkpt lat="44.89092" lon="5.25248">
        <ele>1142.31189</ele>
        <time>2014-06-09T16:22:08Z</time>
      </trkpt>
      <trkpt lat="44.89097" lon="5.25248">
        <ele>1141.946167</ele>
        <time>2014-06-09T16:22:13Z</time>
      </trkpt>
      <trkpt lat="44.89104" lon="5.25247">
        <ele>1141.529663</ele>
        <time>2014-06-09T16:22:18Z</time>
      </trkpt>
      <trkpt lat="44.89111" lon="5.25246">
        <ele>1141.162964</ele>
        <time>2014-06-09T16:22:23Z</time>
      </trkpt>
      <trkpt lat="44.89117" lon="5.25244">
        <ele>1140.834961</ele>
        <time>2014-06-09T16:22:28Z</time>
      </trkpt>
      <trkpt lat="44.89122" lon="5.25243">
        <ele>1140.910645</ele>
        <time>2014-06-09T16:22:33Z</time>
      </trkpt>
      <trkpt lat="44.89129" lon="5.25241">
        <ele>1140.995117</ele>
        <time>2014-06-09T16:22:38Z</time>
      </trkpt>
      <trkpt lat="44.89134" lon="5.2524">
        <ele>1141.061157</ele>
        <time>2014-06-09T16:22:43Z</time>
      </trkpt>
      <trkpt lat="44.8914" lon="5.25238">
        <ele>1141.163086</ele>
        <time>2014-06-09T16:22:48Z</time>
      </trkpt>
      <trkpt lat="44.89146" lon="5.25235">
        <ele>1141.26001</ele>
        <time>2014-06-09T16:22:53Z</time>
      </trkpt>
      <trkpt lat="44.89151" lon="5.25233">
        <ele>1141.322266</ele>
        <time>2014-06-09T16:22:58Z</time>
      </trkpt>
      <trkpt lat="44.89157" lon="5.25232">
        <ele>1141.34436</ele>
        <time>2014-06-09T16:23:03Z</time>
      </trkpt>
      <trkpt lat="44.89163" lon="5.25232">
        <ele>1141.274658</ele>
        <time>2014-06-09T16:23:08Z</time>
      </trkpt>
      <trkpt lat="44.89168" lon="5.25233">
        <ele>1141.003662</ele>
        <time>2014-06-09T16:23:13Z</time>
      </trkpt>
      <trkpt lat="44.89172" lon="5.25235">
        <ele>1140.66687</ele>
        <time>2014-06-09T16:23:18Z</time>
      </trkpt>
      <trkpt lat="44.89177" lon="5.25237">
        <ele>1140.3396</ele>
        <time>2014-06-09T16:23:23Z</time>
      </trkpt>
      <trkpt lat="44.89184" lon="5.25239">
        <ele>1139.900635</ele>
        <time>2014-06-09T16:23:28Z</time>
      </trkpt>
      <trkpt lat="44.89189" lon="5.25244">
        <ele>1139.346313</ele>
        <time>2014-06-09T16:23:33Z</time>
      </trkpt>
      <trkpt lat="44.89194" lon="5.25248">
        <ele>1138.813843</ele>
        <time>2014-06-09T16:23:38Z</time>
      </trkpt>
      <trkpt lat="44.89199" lon="5.25254">
        <ele>1138.116821</ele>
        <time>2014-06-09T16:23:43Z</time>
      </trkpt>
      <trkpt lat="44.89203" lon="5.25262">
        <ele>1137.27771</ele>
        <time>2014-06-09T16:23:48Z</time>
      </trkpt>
      <trkpt lat="44.89208" lon="5.25267">
        <ele>1136.834839</ele>
        <time>2014-06-09T16:23:53Z</time>
      </trkpt>
      <trkpt lat="44.89211" lon="5.25274">
        <ele>1136.584717</ele>
        <time>2014-06-09T16:23:58Z</time>
      </trkpt>
      <trkpt lat="44.89215" lon="5.25281">
        <ele>1136.280029</ele>
        <time>2014-06-09T16:24:03Z</time>
      </trkpt>
      <trkpt lat="44.89218" lon="5.25288">
        <ele>1135.961182</ele>
        <time>2014-06-09T16:24:08Z</time>
      </trkpt>
      <trkpt lat="44.89222" lon="5.25296">
        <ele>1135.582031</ele>
        <time>2014-06-09T16:24:13Z</time>
      </trkpt>
      <trkpt lat="44.89226" lon="5.25303">
        <ele>1135.158325</ele>
        <time>2014-06-09T16:24:18Z</time>
      </trkpt>
      <trkpt lat="44.8923" lon="5.2531">
        <ele>1134.707275</ele>
        <time>2014-06-09T16:24:23Z</time>
      </trkpt>
      <trkpt lat="44.89235" lon="5.25317">
        <ele>1134.194336</ele>
        <time>2014-06-09T16:24:28Z</time>
      </trkpt>
      <trkpt lat="44.89239" lon="5.25322">
        <ele>1133.757446</ele>
        <time>2014-06-09T16:24:33Z</time>
      </trkpt>
      <trkpt lat="44.89241" lon="5.25323">
        <ele>1133.614868</ele>
        <time>2014-06-09T16:24:38Z</time>
      </trkpt>
      <trkpt lat="44.89245" lon="5.25326">
        <ele>1133.338257</ele>
        <time>2014-06-09T16:24:43Z</time>
      </trkpt>
      <trkpt lat="44.89248" lon="5.25331">
        <ele>1133.084961</ele>
        <time>2014-06-09T16:24:48Z</time>
      </trkpt>
      <trkpt lat="44.89246" lon="5.25334">
        <ele>1133.14502</ele>
        <time>2014-06-09T16:24:53Z</time>
      </trkpt>
      <trkpt lat="44.89246" lon="5.25333">
        <ele>1133.130005</ele>
        <time>2014-06-09T16:24:58Z</time>
      </trkpt>
      <trkpt lat="44.89248" lon="5.25335">
        <ele>1133.064941</ele>
        <time>2014-06-09T16:26:28Z</time>
      </trkpt>
      <trkpt lat="44.89254" lon="5.25333">
        <ele>1133.070923</ele>
        <time>2014-06-09T16:26:33Z</time>
      </trkpt>
      <trkpt lat="44.8926" lon="5.25331">
        <ele>1133.18396</ele>
        <time>2014-06-09T16:26:38Z</time>
      </trkpt>
      <trkpt lat="44.89266" lon="5.25329">
        <ele>1133.361328</ele>
        <time>2014-06-09T16:26:43Z</time>
      </trkpt>
      <trkpt lat="44.89272" lon="5.25327">
        <ele>1133.707642</ele>
        <time>2014-06-09T16:26:48Z</time>
      </trkpt>
      <trkpt lat="44.89277" lon="5.25325">
        <ele>1134.078247</ele>
        <time>2014-06-09T16:26:53Z</time>
      </trkpt>
      <trkpt lat="44.89278" lon="5.25332">
        <ele>1133.541748</ele>
        <time>2014-06-09T16:26:58Z</time>
      </trkpt>
      <trkpt lat="44.89284" lon="5.25334">
        <ele>1133.56189</ele>
        <time>2014-06-09T16:27:43Z</time>
      </trkpt>
      <trkpt lat="44.89286" lon="5.25333">
        <ele>1133.635742</ele>
        <time>2014-06-09T16:27:48Z</time>
      </trkpt>
      <trkpt lat="44.89291" lon="5.2533">
        <ele>1133.911133</ele>
        <time>2014-06-09T16:27:53Z</time>
      </trkpt>
      <trkpt lat="44.89297" lon="5.25329">
        <ele>1134.115479</ele>
        <time>2014-06-09T16:27:58Z</time>
      </trkpt>
      <trkpt lat="44.89304" lon="5.25326">
        <ele>1134.662842</ele>
        <time>2014-06-09T16:28:03Z</time>
      </trkpt>
      <trkpt lat="44.8931" lon="5.25326">
        <ele>1134.828003</ele>
        <time>2014-06-09T16:28:08Z</time>
      </trkpt>
      <trkpt lat="44.89315" lon="5.25326">
        <ele>1134.811523</ele>
        <time>2014-06-09T16:28:13Z</time>
      </trkpt>
      <trkpt lat="44.89322" lon="5.25327">
        <ele>1134.85498</ele>
        <time>2014-06-09T16:28:18Z</time>
      </trkpt>
      <trkpt lat="44.89327" lon="5.25329">
        <ele>1134.459229</ele>
        <time>2014-06-09T16:28:23Z</time>
      </trkpt>
      <trkpt lat="44.89332" lon="5.25332">
        <ele>1134.015503</ele>
        <time>2014-06-09T16:28:28Z</time>
      </trkpt>
      <trkpt lat="44.89338" lon="5.25333">
        <ele>1133.903198</ele>
        <time>2014-06-09T16:28:33Z</time>
      </trkpt>
      <trkpt lat="44.89344" lon="5.25335">
        <ele>1133.580078</ele>
        <time>2014-06-09T16:28:38Z</time>
      </trkpt>
      <trkpt lat="44.89349" lon="5.25336">
        <ele>1133.295044</ele>
        <time>2014-06-09T16:28:43Z</time>
      </trkpt>
      <trkpt lat="44.89355" lon="5.25337">
        <ele>1132.952515</ele>
        <time>2014-06-09T16:28:48Z</time>
      </trkpt>
      <trkpt lat="44.89361" lon="5.25338">
        <ele>1132.650024</ele>
        <time>2014-06-09T16:28:53Z</time>
      </trkpt>
      <trkpt lat="44.89366" lon="5.25338">
        <ele>1132.380005</ele>
        <time>2014-06-09T16:28:58Z</time>
      </trkpt>
      <trkpt lat="44.8937" lon="5.25339">
        <ele>1132.13501</ele>
        <time>2014-06-09T16:29:03Z</time>
      </trkpt>
      <trkpt lat="44.89376" lon="5.25337">
        <ele>1132.087524</ele>
        <time>2014-06-09T16:29:08Z</time>
      </trkpt>
      <trkpt lat="44.89381" lon="5.25337">
        <ele>1131.897461</ele>
        <time>2014-06-09T16:29:13Z</time>
      </trkpt>
      <trkpt lat="44.89387" lon="5.25335">
        <ele>1131.9198</ele>
        <time>2014-06-09T16:29:18Z</time>
      </trkpt>
      <trkpt lat="44.89392" lon="5.25334">
        <ele>1132.151978</ele>
        <time>2014-06-09T16:29:23Z</time>
      </trkpt>
      <trkpt lat="44.89398" lon="5.25334">
        <ele>1132.01123</ele>
        <time>2014-06-09T16:29:28Z</time>
      </trkpt>
      <trkpt lat="44.89403" lon="5.25334">
        <ele>1132.022095</ele>
        <time>2014-06-09T16:29:33Z</time>
      </trkpt>
      <trkpt lat="44.89409" lon="5.25336">
        <ele>1131.451782</ele>
        <time>2014-06-09T16:29:38Z</time>
      </trkpt>
      <trkpt lat="44.89415" lon="5.25336">
        <ele>1131.476807</ele>
        <time>2014-06-09T16:29:43Z</time>
      </trkpt>
      <trkpt lat="44.89421" lon="5.25332">
        <ele>1132.375</ele>
        <time>2014-06-09T16:29:48Z</time>
      </trkpt>
      <trkpt lat="44.89428" lon="5.25331">
        <ele>1132.856445</ele>
        <time>2014-06-09T16:29:53Z</time>
      </trkpt>
      <trkpt lat="44.89434" lon="5.25328">
        <ele>1133.467896</ele>
        <time>2014-06-09T16:29:58Z</time>
      </trkpt>
      <trkpt lat="44.8944" lon="5.25326">
        <ele>1133.861084</ele>
        <time>2014-06-09T16:30:03Z</time>
      </trkpt>
      <trkpt lat="44.89446" lon="5.25321">
        <ele>1135.145264</ele>
        <time>2014-06-09T16:30:08Z</time>
      </trkpt>
      <trkpt lat="44.89453" lon="5.25316">
        <ele>1136.481567</ele>
        <time>2014-06-09T16:30:13Z</time>
      </trkpt>
      <trkpt lat="44.89459" lon="5.25309">
        <ele>1138.276123</ele>
        <time>2014-06-09T16:30:18Z</time>
      </trkpt>
      <trkpt lat="44.89464" lon="5.25307">
        <ele>1138.961426</ele>
        <time>2014-06-09T16:30:23Z</time>
      </trkpt>
      <trkpt lat="44.8947" lon="5.25305">
        <ele>1139.57959</ele>
        <time>2014-06-09T16:30:28Z</time>
      </trkpt>
      <trkpt lat="44.89476" lon="5.25304">
        <ele>1139.65332</ele>
        <time>2014-06-09T16:30:33Z</time>
      </trkpt>
      <trkpt lat="44.89482" lon="5.25301">
        <ele>1140.421631</ele>
        <time>2014-06-09T16:30:38Z</time>
      </trkpt>
      <trkpt lat="44.89488" lon="5.25297">
        <ele>1141.341919</ele>
        <time>2014-06-09T16:30:43Z</time>
      </trkpt>
      <trkpt lat="44.89494" lon="5.25294">
        <ele>1142.106445</ele>
        <time>2014-06-09T16:30:48Z</time>
      </trkpt>
      <trkpt lat="44.895" lon="5.25291">
        <ele>1142.726074</ele>
        <time>2014-06-09T16:30:53Z</time>
      </trkpt>
      <trkpt lat="44.89506" lon="5.25287">
        <ele>1143.857544</ele>
        <time>2014-06-09T16:30:58Z</time>
      </trkpt>
      <trkpt lat="44.89512" lon="5.25283">
        <ele>1144.970947</ele>
        <time>2014-06-09T16:31:03Z</time>
      </trkpt>
      <trkpt lat="44.89519" lon="5.2528">
        <ele>1145.476318</ele>
        <time>2014-06-09T16:31:08Z</time>
      </trkpt>
    </trkseg>
  </trk>
</gpx>